<?xml version="1.0" encoding="UTF-8" standalone="no" ?>
<gpx xmlns="http://www.topografix.com/GPX/1/1" xmlns:xsi="http://www.w3.org/2001/XMLSchema-instance" xsi:schemaLocation="http://www.topografix.com/GPX/1/1 http://www.topografix.com/GPX/1/1/gpx.xsd" version="1.1" creator="VisuGPX - https://www.visugpx.com">
  <metadata>
    <name>vtt44.com rando Redon 13/10/13</name>
    <desc><![CDATA[www.vtt44.com 
rando Redon 13/10/13]]></desc>
  </metadata>
  <trk>
    <name><![CDATA[2013-10-13 12:11:34]]></name>
    <trkseg>
      <trkpt lat="47.66895" lon="-2.07289">
        <ele>57.34</ele>
        <time>2013-10-13T07:03:14Z</time>
      </trkpt>
      <trkpt lat="47.66896" lon="-2.07294">
        <ele>44.36</ele>
        <time>2013-10-13T07:03:28Z</time>
      </trkpt>
      <trkpt lat="47.66887" lon="-2.07288">
        <ele>38.59</ele>
        <time>2013-10-13T07:03:34Z</time>
      </trkpt>
      <trkpt lat="47.66896" lon="-2.07284">
        <ele>38.11</ele>
        <time>2013-10-13T07:03:38Z</time>
      </trkpt>
      <trkpt lat="47.66907" lon="-2.07282">
        <ele>37.63</ele>
        <time>2013-10-13T07:03:41Z</time>
      </trkpt>
      <trkpt lat="47.66917" lon="-2.0728">
        <ele>37.63</ele>
        <time>2013-10-13T07:03:44Z</time>
      </trkpt>
      <trkpt lat="47.66929" lon="-2.07277">
        <ele>37.15</ele>
        <time>2013-10-13T07:03:48Z</time>
      </trkpt>
      <trkpt lat="47.66939" lon="-2.07276">
        <ele>37.15</ele>
        <time>2013-10-13T07:03:52Z</time>
      </trkpt>
      <trkpt lat="47.66949" lon="-2.07275">
        <ele>37.15</ele>
        <time>2013-10-13T07:03:58Z</time>
      </trkpt>
      <trkpt lat="47.66953" lon="-2.07276">
        <ele>37.15</ele>
        <time>2013-10-13T07:04:01Z</time>
      </trkpt>
      <trkpt lat="47.66964" lon="-2.07272">
        <ele>36.19</ele>
        <time>2013-10-13T07:04:07Z</time>
      </trkpt>
      <trkpt lat="47.66974" lon="-2.07268">
        <ele>35.71</ele>
        <time>2013-10-13T07:04:10Z</time>
      </trkpt>
      <trkpt lat="47.66987" lon="-2.07265">
        <ele>35.71</ele>
        <time>2013-10-13T07:04:13Z</time>
      </trkpt>
      <trkpt lat="47.66997" lon="-2.07262">
        <ele>35.23</ele>
        <time>2013-10-13T07:04:15Z</time>
      </trkpt>
      <trkpt lat="47.67007" lon="-2.07259">
        <ele>34.74</ele>
        <time>2013-10-13T07:04:17Z</time>
      </trkpt>
      <trkpt lat="47.67017" lon="-2.07257">
        <ele>34.74</ele>
        <time>2013-10-13T07:04:19Z</time>
      </trkpt>
      <trkpt lat="47.67029" lon="-2.07255">
        <ele>34.74</ele>
        <time>2013-10-13T07:04:21Z</time>
      </trkpt>
      <trkpt lat="47.6704" lon="-2.07252">
        <ele>34.26</ele>
        <time>2013-10-13T07:04:23Z</time>
      </trkpt>
      <trkpt lat="47.67052" lon="-2.0725">
        <ele>34.74</ele>
        <time>2013-10-13T07:04:25Z</time>
      </trkpt>
      <trkpt lat="47.67064" lon="-2.07248">
        <ele>34.74</ele>
        <time>2013-10-13T07:04:27Z</time>
      </trkpt>
      <trkpt lat="47.67076" lon="-2.07246">
        <ele>35.23</ele>
        <time>2013-10-13T07:04:29Z</time>
      </trkpt>
      <trkpt lat="47.67088" lon="-2.07243">
        <ele>35.23</ele>
        <time>2013-10-13T07:04:31Z</time>
      </trkpt>
      <trkpt lat="47.67099" lon="-2.07242">
        <ele>35.23</ele>
        <time>2013-10-13T07:04:33Z</time>
      </trkpt>
      <trkpt lat="47.67109" lon="-2.07239">
        <ele>35.23</ele>
        <time>2013-10-13T07:04:35Z</time>
      </trkpt>
      <trkpt lat="47.67119" lon="-2.07236">
        <ele>34.74</ele>
        <time>2013-10-13T07:04:37Z</time>
      </trkpt>
      <trkpt lat="47.67131" lon="-2.07234">
        <ele>34.74</ele>
        <time>2013-10-13T07:04:39Z</time>
      </trkpt>
      <trkpt lat="47.67143" lon="-2.07231">
        <ele>34.74</ele>
        <time>2013-10-13T07:04:41Z</time>
      </trkpt>
      <trkpt lat="47.67156" lon="-2.07228">
        <ele>34.26</ele>
        <time>2013-10-13T07:04:43Z</time>
      </trkpt>
      <trkpt lat="47.67169" lon="-2.07226">
        <ele>33.78</ele>
        <time>2013-10-13T07:04:45Z</time>
      </trkpt>
      <trkpt lat="47.67181" lon="-2.07223">
        <ele>33.78</ele>
        <time>2013-10-13T07:04:47Z</time>
      </trkpt>
      <trkpt lat="47.67194" lon="-2.0722">
        <ele>33.3</ele>
        <time>2013-10-13T07:04:49Z</time>
      </trkpt>
      <trkpt lat="47.67205" lon="-2.07217">
        <ele>32.82</ele>
        <time>2013-10-13T07:04:51Z</time>
      </trkpt>
      <trkpt lat="47.67218" lon="-2.07214">
        <ele>31.86</ele>
        <time>2013-10-13T07:04:53Z</time>
      </trkpt>
      <trkpt lat="47.6723" lon="-2.0721">
        <ele>30.9</ele>
        <time>2013-10-13T07:04:55Z</time>
      </trkpt>
      <trkpt lat="47.67243" lon="-2.07206">
        <ele>29.46</ele>
        <time>2013-10-13T07:04:57Z</time>
      </trkpt>
      <trkpt lat="47.67255" lon="-2.07202">
        <ele>28.02</ele>
        <time>2013-10-13T07:04:59Z</time>
      </trkpt>
      <trkpt lat="47.67265" lon="-2.07198">
        <ele>27.05</ele>
        <time>2013-10-13T07:05:01Z</time>
      </trkpt>
      <trkpt lat="47.67278" lon="-2.07188">
        <ele>25.61</ele>
        <time>2013-10-13T07:05:05Z</time>
      </trkpt>
      <trkpt lat="47.6729" lon="-2.07183">
        <ele>24.65</ele>
        <time>2013-10-13T07:05:08Z</time>
      </trkpt>
      <trkpt lat="47.67301" lon="-2.07176">
        <ele>23.21</ele>
        <time>2013-10-13T07:05:11Z</time>
      </trkpt>
      <trkpt lat="47.67315" lon="-2.07167">
        <ele>22.25</ele>
        <time>2013-10-13T07:05:14Z</time>
      </trkpt>
      <trkpt lat="47.67326" lon="-2.07161">
        <ele>21.77</ele>
        <time>2013-10-13T07:05:16Z</time>
      </trkpt>
      <trkpt lat="47.67337" lon="-2.07152">
        <ele>21.29</ele>
        <time>2013-10-13T07:05:18Z</time>
      </trkpt>
      <trkpt lat="47.67349" lon="-2.07145">
        <ele>20.81</ele>
        <time>2013-10-13T07:05:20Z</time>
      </trkpt>
      <trkpt lat="47.67361" lon="-2.07138">
        <ele>20.32</ele>
        <time>2013-10-13T07:05:22Z</time>
      </trkpt>
      <trkpt lat="47.67373" lon="-2.07131">
        <ele>19.84</ele>
        <time>2013-10-13T07:05:24Z</time>
      </trkpt>
      <trkpt lat="47.67386" lon="-2.07124">
        <ele>19.36</ele>
        <time>2013-10-13T07:05:26Z</time>
      </trkpt>
      <trkpt lat="47.67398" lon="-2.07116">
        <ele>19.36</ele>
        <time>2013-10-13T07:05:28Z</time>
      </trkpt>
      <trkpt lat="47.6741" lon="-2.07109">
        <ele>18.88</ele>
        <time>2013-10-13T07:05:30Z</time>
      </trkpt>
      <trkpt lat="47.67422" lon="-2.07102">
        <ele>18.4</ele>
        <time>2013-10-13T07:05:32Z</time>
      </trkpt>
      <trkpt lat="47.67434" lon="-2.07095">
        <ele>18.4</ele>
        <time>2013-10-13T07:05:34Z</time>
      </trkpt>
      <trkpt lat="47.67446" lon="-2.07087">
        <ele>18.4</ele>
        <time>2013-10-13T07:05:36Z</time>
      </trkpt>
      <trkpt lat="47.67458" lon="-2.07079">
        <ele>17.92</ele>
        <time>2013-10-13T07:05:38Z</time>
      </trkpt>
      <trkpt lat="47.67472" lon="-2.07071">
        <ele>17.44</ele>
        <time>2013-10-13T07:05:40Z</time>
      </trkpt>
      <trkpt lat="47.67485" lon="-2.07064">
        <ele>16.96</ele>
        <time>2013-10-13T07:05:42Z</time>
      </trkpt>
      <trkpt lat="47.67498" lon="-2.07056">
        <ele>16.48</ele>
        <time>2013-10-13T07:05:44Z</time>
      </trkpt>
      <trkpt lat="47.6751" lon="-2.07049">
        <ele>16</ele>
        <time>2013-10-13T07:05:46Z</time>
      </trkpt>
      <trkpt lat="47.67523" lon="-2.07042">
        <ele>15.52</ele>
        <time>2013-10-13T07:05:48Z</time>
      </trkpt>
      <trkpt lat="47.67536" lon="-2.07035">
        <ele>15.52</ele>
        <time>2013-10-13T07:05:50Z</time>
      </trkpt>
      <trkpt lat="47.67549" lon="-2.07027">
        <ele>16</ele>
        <time>2013-10-13T07:05:52Z</time>
      </trkpt>
      <trkpt lat="47.67561" lon="-2.0702">
        <ele>16</ele>
        <time>2013-10-13T07:05:54Z</time>
      </trkpt>
      <trkpt lat="47.67571" lon="-2.07015">
        <ele>16.48</ele>
        <time>2013-10-13T07:05:56Z</time>
      </trkpt>
      <trkpt lat="47.67584" lon="-2.07021">
        <ele>17.44</ele>
        <time>2013-10-13T07:05:59Z</time>
      </trkpt>
      <trkpt lat="47.67589" lon="-2.07034">
        <ele>16.96</ele>
        <time>2013-10-13T07:06:01Z</time>
      </trkpt>
      <trkpt lat="47.67594" lon="-2.07049">
        <ele>16.48</ele>
        <time>2013-10-13T07:06:03Z</time>
      </trkpt>
      <trkpt lat="47.67598" lon="-2.07065">
        <ele>16.48</ele>
        <time>2013-10-13T07:06:05Z</time>
      </trkpt>
      <trkpt lat="47.67602" lon="-2.07081">
        <ele>16.48</ele>
        <time>2013-10-13T07:06:07Z</time>
      </trkpt>
      <trkpt lat="47.67606" lon="-2.07097">
        <ele>16</ele>
        <time>2013-10-13T07:06:09Z</time>
      </trkpt>
      <trkpt lat="47.67611" lon="-2.07114">
        <ele>16</ele>
        <time>2013-10-13T07:06:11Z</time>
      </trkpt>
      <trkpt lat="47.67617" lon="-2.07131">
        <ele>15.52</ele>
        <time>2013-10-13T07:06:13Z</time>
      </trkpt>
      <trkpt lat="47.67622" lon="-2.07149">
        <ele>15.52</ele>
        <time>2013-10-13T07:06:15Z</time>
      </trkpt>
      <trkpt lat="47.67627" lon="-2.07168">
        <ele>15.52</ele>
        <time>2013-10-13T07:06:17Z</time>
      </trkpt>
      <trkpt lat="47.67632" lon="-2.07186">
        <ele>16</ele>
        <time>2013-10-13T07:06:19Z</time>
      </trkpt>
      <trkpt lat="47.67637" lon="-2.07204">
        <ele>16</ele>
        <time>2013-10-13T07:06:21Z</time>
      </trkpt>
      <trkpt lat="47.67642" lon="-2.07221">
        <ele>16.48</ele>
        <time>2013-10-13T07:06:23Z</time>
      </trkpt>
      <trkpt lat="47.67646" lon="-2.07238">
        <ele>16.48</ele>
        <time>2013-10-13T07:06:25Z</time>
      </trkpt>
      <trkpt lat="47.67651" lon="-2.07254">
        <ele>16.48</ele>
        <time>2013-10-13T07:06:27Z</time>
      </trkpt>
      <trkpt lat="47.67659" lon="-2.07271">
        <ele>16.48</ele>
        <time>2013-10-13T07:06:29Z</time>
      </trkpt>
      <trkpt lat="47.67669" lon="-2.07283">
        <ele>16.48</ele>
        <time>2013-10-13T07:06:31Z</time>
      </trkpt>
      <trkpt lat="47.67681" lon="-2.07288">
        <ele>16</ele>
        <time>2013-10-13T07:06:33Z</time>
      </trkpt>
      <trkpt lat="47.67693" lon="-2.07291">
        <ele>15.52</ele>
        <time>2013-10-13T07:06:35Z</time>
      </trkpt>
      <trkpt lat="47.67703" lon="-2.07299">
        <ele>15.04</ele>
        <time>2013-10-13T07:06:37Z</time>
      </trkpt>
      <trkpt lat="47.67714" lon="-2.07308">
        <ele>15.04</ele>
        <time>2013-10-13T07:06:39Z</time>
      </trkpt>
      <trkpt lat="47.67722" lon="-2.07318">
        <ele>14.56</ele>
        <time>2013-10-13T07:06:41Z</time>
      </trkpt>
      <trkpt lat="47.67726" lon="-2.07335">
        <ele>14.08</ele>
        <time>2013-10-13T07:06:45Z</time>
      </trkpt>
      <trkpt lat="47.67733" lon="-2.07349">
        <ele>14.08</ele>
        <time>2013-10-13T07:06:49Z</time>
      </trkpt>
      <trkpt lat="47.6774" lon="-2.07359">
        <ele>12.63</ele>
        <time>2013-10-13T07:06:53Z</time>
      </trkpt>
      <trkpt lat="47.67749" lon="-2.0737">
        <ele>13.12</ele>
        <time>2013-10-13T07:06:57Z</time>
      </trkpt>
      <trkpt lat="47.67758" lon="-2.07378">
        <ele>13.6</ele>
        <time>2013-10-13T07:07:00Z</time>
      </trkpt>
      <trkpt lat="47.67763" lon="-2.0739">
        <ele>14.08</ele>
        <time>2013-10-13T07:07:03Z</time>
      </trkpt>
      <trkpt lat="47.67757" lon="-2.07403">
        <ele>14.08</ele>
        <time>2013-10-13T07:07:06Z</time>
      </trkpt>
      <trkpt lat="47.67748" lon="-2.07419">
        <ele>13.6</ele>
        <time>2013-10-13T07:07:09Z</time>
      </trkpt>
      <trkpt lat="47.67743" lon="-2.0743">
        <ele>13.6</ele>
        <time>2013-10-13T07:07:11Z</time>
      </trkpt>
      <trkpt lat="47.67737" lon="-2.07443">
        <ele>13.12</ele>
        <time>2013-10-13T07:07:13Z</time>
      </trkpt>
      <trkpt lat="47.67732" lon="-2.07454">
        <ele>13.12</ele>
        <time>2013-10-13T07:07:15Z</time>
      </trkpt>
      <trkpt lat="47.67733" lon="-2.07466">
        <ele>13.6</ele>
        <time>2013-10-13T07:07:19Z</time>
      </trkpt>
      <trkpt lat="47.67739" lon="-2.07481">
        <ele>13.6</ele>
        <time>2013-10-13T07:07:22Z</time>
      </trkpt>
      <trkpt lat="47.67747" lon="-2.07499">
        <ele>14.08</ele>
        <time>2013-10-13T07:07:25Z</time>
      </trkpt>
      <trkpt lat="47.67754" lon="-2.07517">
        <ele>14.08</ele>
        <time>2013-10-13T07:07:28Z</time>
      </trkpt>
      <trkpt lat="47.67758" lon="-2.07532">
        <ele>13.6</ele>
        <time>2013-10-13T07:07:31Z</time>
      </trkpt>
      <trkpt lat="47.67764" lon="-2.07548">
        <ele>13.6</ele>
        <time>2013-10-13T07:07:33Z</time>
      </trkpt>
      <trkpt lat="47.67769" lon="-2.07561">
        <ele>13.6</ele>
        <time>2013-10-13T07:07:35Z</time>
      </trkpt>
      <trkpt lat="47.67776" lon="-2.07578">
        <ele>13.6</ele>
        <time>2013-10-13T07:07:38Z</time>
      </trkpt>
      <trkpt lat="47.67784" lon="-2.07594">
        <ele>13.12</ele>
        <time>2013-10-13T07:07:41Z</time>
      </trkpt>
      <trkpt lat="47.67795" lon="-2.07611">
        <ele>13.6</ele>
        <time>2013-10-13T07:07:44Z</time>
      </trkpt>
      <trkpt lat="47.67801" lon="-2.07622">
        <ele>13.12</ele>
        <time>2013-10-13T07:07:46Z</time>
      </trkpt>
      <trkpt lat="47.67809" lon="-2.07632">
        <ele>13.6</ele>
        <time>2013-10-13T07:07:48Z</time>
      </trkpt>
      <trkpt lat="47.67816" lon="-2.07643">
        <ele>13.6</ele>
        <time>2013-10-13T07:07:50Z</time>
      </trkpt>
      <trkpt lat="47.67827" lon="-2.07655">
        <ele>14.08</ele>
        <time>2013-10-13T07:07:53Z</time>
      </trkpt>
      <trkpt lat="47.67837" lon="-2.07667">
        <ele>14.56</ele>
        <time>2013-10-13T07:07:56Z</time>
      </trkpt>
      <trkpt lat="47.67842" lon="-2.07679">
        <ele>14.56</ele>
        <time>2013-10-13T07:07:58Z</time>
      </trkpt>
      <trkpt lat="47.6785" lon="-2.07691">
        <ele>14.08</ele>
        <time>2013-10-13T07:08:01Z</time>
      </trkpt>
      <trkpt lat="47.67863" lon="-2.07697">
        <ele>13.6</ele>
        <time>2013-10-13T07:08:04Z</time>
      </trkpt>
      <trkpt lat="47.67873" lon="-2.077">
        <ele>13.6</ele>
        <time>2013-10-13T07:08:06Z</time>
      </trkpt>
      <trkpt lat="47.67883" lon="-2.07703">
        <ele>13.12</ele>
        <time>2013-10-13T07:08:08Z</time>
      </trkpt>
      <trkpt lat="47.67892" lon="-2.07706">
        <ele>13.12</ele>
        <time>2013-10-13T07:08:10Z</time>
      </trkpt>
      <trkpt lat="47.67901" lon="-2.07708">
        <ele>13.6</ele>
        <time>2013-10-13T07:08:12Z</time>
      </trkpt>
      <trkpt lat="47.67912" lon="-2.07711">
        <ele>14.08</ele>
        <time>2013-10-13T07:08:15Z</time>
      </trkpt>
      <trkpt lat="47.67923" lon="-2.07712">
        <ele>14.08</ele>
        <time>2013-10-13T07:08:18Z</time>
      </trkpt>
      <trkpt lat="47.67932" lon="-2.07709">
        <ele>13.6</ele>
        <time>2013-10-13T07:08:21Z</time>
      </trkpt>
      <trkpt lat="47.67943" lon="-2.07706">
        <ele>13.6</ele>
        <time>2013-10-13T07:08:24Z</time>
      </trkpt>
      <trkpt lat="47.67953" lon="-2.07704">
        <ele>14.08</ele>
        <time>2013-10-13T07:08:27Z</time>
      </trkpt>
      <trkpt lat="47.67965" lon="-2.07701">
        <ele>15.04</ele>
        <time>2013-10-13T07:08:30Z</time>
      </trkpt>
      <trkpt lat="47.67977" lon="-2.07698">
        <ele>16</ele>
        <time>2013-10-13T07:08:33Z</time>
      </trkpt>
      <trkpt lat="47.67988" lon="-2.07696">
        <ele>16</ele>
        <time>2013-10-13T07:08:36Z</time>
      </trkpt>
      <trkpt lat="47.67999" lon="-2.07693">
        <ele>16.96</ele>
        <time>2013-10-13T07:08:39Z</time>
      </trkpt>
      <trkpt lat="47.68011" lon="-2.07689">
        <ele>17.44</ele>
        <time>2013-10-13T07:08:42Z</time>
      </trkpt>
      <trkpt lat="47.68021" lon="-2.07687">
        <ele>17.92</ele>
        <time>2013-10-13T07:08:45Z</time>
      </trkpt>
      <trkpt lat="47.6803" lon="-2.07695">
        <ele>18.4</ele>
        <time>2013-10-13T07:08:48Z</time>
      </trkpt>
      <trkpt lat="47.68032" lon="-2.07708">
        <ele>18.88</ele>
        <time>2013-10-13T07:08:51Z</time>
      </trkpt>
      <trkpt lat="47.68034" lon="-2.07722">
        <ele>19.36</ele>
        <time>2013-10-13T07:08:54Z</time>
      </trkpt>
      <trkpt lat="47.68036" lon="-2.07736">
        <ele>20.32</ele>
        <time>2013-10-13T07:08:57Z</time>
      </trkpt>
      <trkpt lat="47.68039" lon="-2.07751">
        <ele>20.81</ele>
        <time>2013-10-13T07:09:00Z</time>
      </trkpt>
      <trkpt lat="47.68043" lon="-2.07763">
        <ele>21.29</ele>
        <time>2013-10-13T07:09:03Z</time>
      </trkpt>
      <trkpt lat="47.68049" lon="-2.07775">
        <ele>22.25</ele>
        <time>2013-10-13T07:09:07Z</time>
      </trkpt>
      <trkpt lat="47.68056" lon="-2.07789">
        <ele>23.21</ele>
        <time>2013-10-13T07:09:11Z</time>
      </trkpt>
      <trkpt lat="47.68058" lon="-2.07803">
        <ele>24.17</ele>
        <time>2013-10-13T07:09:15Z</time>
      </trkpt>
      <trkpt lat="47.68061" lon="-2.07818">
        <ele>25.13</ele>
        <time>2013-10-13T07:09:20Z</time>
      </trkpt>
      <trkpt lat="47.68062" lon="-2.07833">
        <ele>26.09</ele>
        <time>2013-10-13T07:09:24Z</time>
      </trkpt>
      <trkpt lat="47.68064" lon="-2.07848">
        <ele>27.53</ele>
        <time>2013-10-13T07:09:28Z</time>
      </trkpt>
      <trkpt lat="47.68066" lon="-2.07862">
        <ele>28.5</ele>
        <time>2013-10-13T07:09:32Z</time>
      </trkpt>
      <trkpt lat="47.68068" lon="-2.07877">
        <ele>29.94</ele>
        <time>2013-10-13T07:09:36Z</time>
      </trkpt>
      <trkpt lat="47.6807" lon="-2.07892">
        <ele>30.9</ele>
        <time>2013-10-13T07:09:40Z</time>
      </trkpt>
      <trkpt lat="47.68071" lon="-2.07907">
        <ele>31.86</ele>
        <time>2013-10-13T07:09:44Z</time>
      </trkpt>
      <trkpt lat="47.68073" lon="-2.07921">
        <ele>32.82</ele>
        <time>2013-10-13T07:09:48Z</time>
      </trkpt>
      <trkpt lat="47.68075" lon="-2.07936">
        <ele>33.3</ele>
        <time>2013-10-13T07:09:52Z</time>
      </trkpt>
      <trkpt lat="47.68076" lon="-2.07951">
        <ele>34.26</ele>
        <time>2013-10-13T07:09:56Z</time>
      </trkpt>
      <trkpt lat="47.68078" lon="-2.07964">
        <ele>34.74</ele>
        <time>2013-10-13T07:10:00Z</time>
      </trkpt>
      <trkpt lat="47.68077" lon="-2.07979">
        <ele>35.71</ele>
        <time>2013-10-13T07:10:10Z</time>
      </trkpt>
      <trkpt lat="47.68068" lon="-2.07987">
        <ele>35.71</ele>
        <time>2013-10-13T07:10:14Z</time>
      </trkpt>
      <trkpt lat="47.68058" lon="-2.07991">
        <ele>34.74</ele>
        <time>2013-10-13T07:10:17Z</time>
      </trkpt>
      <trkpt lat="47.68057" lon="-2.08004">
        <ele>33.3</ele>
        <time>2013-10-13T07:10:21Z</time>
      </trkpt>
      <trkpt lat="47.68062" lon="-2.08019">
        <ele>33.3</ele>
        <time>2013-10-13T07:10:25Z</time>
      </trkpt>
      <trkpt lat="47.68071" lon="-2.0803">
        <ele>34.74</ele>
        <time>2013-10-13T07:10:29Z</time>
      </trkpt>
      <trkpt lat="47.6808" lon="-2.08042">
        <ele>36.67</ele>
        <time>2013-10-13T07:10:33Z</time>
      </trkpt>
      <trkpt lat="47.68087" lon="-2.08053">
        <ele>39.55</ele>
        <time>2013-10-13T07:10:37Z</time>
      </trkpt>
      <trkpt lat="47.68097" lon="-2.08064">
        <ele>41.95</ele>
        <time>2013-10-13T07:10:41Z</time>
      </trkpt>
      <trkpt lat="47.68106" lon="-2.08073">
        <ele>43.88</ele>
        <time>2013-10-13T07:10:45Z</time>
      </trkpt>
      <trkpt lat="47.68111" lon="-2.08086">
        <ele>44.84</ele>
        <time>2013-10-13T07:10:50Z</time>
      </trkpt>
      <trkpt lat="47.6812" lon="-2.08102">
        <ele>44.84</ele>
        <time>2013-10-13T07:10:55Z</time>
      </trkpt>
      <trkpt lat="47.68122" lon="-2.08119">
        <ele>45.32</ele>
        <time>2013-10-13T07:11:00Z</time>
      </trkpt>
      <trkpt lat="47.68116" lon="-2.08128">
        <ele>46.76</ele>
        <time>2013-10-13T07:11:12Z</time>
      </trkpt>
      <trkpt lat="47.68106" lon="-2.08146">
        <ele>48.2</ele>
        <time>2013-10-13T07:11:27Z</time>
      </trkpt>
      <trkpt lat="47.68097" lon="-2.08156">
        <ele>47.72</ele>
        <time>2013-10-13T07:11:30Z</time>
      </trkpt>
      <trkpt lat="47.68094" lon="-2.08174">
        <ele>46.28</ele>
        <time>2013-10-13T07:11:34Z</time>
      </trkpt>
      <trkpt lat="47.6809" lon="-2.08191">
        <ele>45.8</ele>
        <time>2013-10-13T07:11:38Z</time>
      </trkpt>
      <trkpt lat="47.68077" lon="-2.08197">
        <ele>44.84</ele>
        <time>2013-10-13T07:11:42Z</time>
      </trkpt>
      <trkpt lat="47.68066" lon="-2.08192">
        <ele>43.4</ele>
        <time>2013-10-13T07:11:45Z</time>
      </trkpt>
      <trkpt lat="47.68058" lon="-2.08187">
        <ele>41.47</ele>
        <time>2013-10-13T07:11:49Z</time>
      </trkpt>
      <trkpt lat="47.68046" lon="-2.08188">
        <ele>40.51</ele>
        <time>2013-10-13T07:11:52Z</time>
      </trkpt>
      <trkpt lat="47.68036" lon="-2.08189">
        <ele>39.55</ele>
        <time>2013-10-13T07:11:56Z</time>
      </trkpt>
      <trkpt lat="47.68023" lon="-2.0819">
        <ele>39.07</ele>
        <time>2013-10-13T07:12:02Z</time>
      </trkpt>
      <trkpt lat="47.68011" lon="-2.08193">
        <ele>38.59</ele>
        <time>2013-10-13T07:12:07Z</time>
      </trkpt>
      <trkpt lat="47.68003" lon="-2.08205">
        <ele>39.07</ele>
        <time>2013-10-13T07:12:13Z</time>
      </trkpt>
      <trkpt lat="47.68" lon="-2.08214">
        <ele>39.07</ele>
        <time>2013-10-13T07:12:17Z</time>
      </trkpt>
      <trkpt lat="47.67992" lon="-2.08228">
        <ele>38.59</ele>
        <time>2013-10-13T07:12:21Z</time>
      </trkpt>
      <trkpt lat="47.6799" lon="-2.08246">
        <ele>37.15</ele>
        <time>2013-10-13T07:12:27Z</time>
      </trkpt>
      <trkpt lat="47.6798" lon="-2.08263">
        <ele>35.23</ele>
        <time>2013-10-13T07:12:33Z</time>
      </trkpt>
      <trkpt lat="47.67968" lon="-2.08267">
        <ele>35.23</ele>
        <time>2013-10-13T07:12:37Z</time>
      </trkpt>
      <trkpt lat="47.67958" lon="-2.08275">
        <ele>34.26</ele>
        <time>2013-10-13T07:12:41Z</time>
      </trkpt>
      <trkpt lat="47.67947" lon="-2.08284">
        <ele>33.78</ele>
        <time>2013-10-13T07:12:45Z</time>
      </trkpt>
      <trkpt lat="47.67938" lon="-2.08308">
        <ele>31.86</ele>
        <time>2013-10-13T07:12:52Z</time>
      </trkpt>
      <trkpt lat="47.67935" lon="-2.0833">
        <ele>30.42</ele>
        <time>2013-10-13T07:12:57Z</time>
      </trkpt>
      <trkpt lat="47.67923" lon="-2.08339">
        <ele>29.46</ele>
        <time>2013-10-13T07:13:00Z</time>
      </trkpt>
      <trkpt lat="47.67913" lon="-2.08338">
        <ele>28.98</ele>
        <time>2013-10-13T07:13:02Z</time>
      </trkpt>
      <trkpt lat="47.67901" lon="-2.08343">
        <ele>27.53</ele>
        <time>2013-10-13T07:13:05Z</time>
      </trkpt>
      <trkpt lat="47.67895" lon="-2.08357">
        <ele>25.13</ele>
        <time>2013-10-13T07:13:08Z</time>
      </trkpt>
      <trkpt lat="47.67892" lon="-2.08373">
        <ele>24.17</ele>
        <time>2013-10-13T07:13:11Z</time>
      </trkpt>
      <trkpt lat="47.67882" lon="-2.08384">
        <ele>22.25</ele>
        <time>2013-10-13T07:13:15Z</time>
      </trkpt>
      <trkpt lat="47.67871" lon="-2.08384">
        <ele>20.81</ele>
        <time>2013-10-13T07:13:18Z</time>
      </trkpt>
      <trkpt lat="47.67862" lon="-2.0838">
        <ele>19.36</ele>
        <time>2013-10-13T07:13:20Z</time>
      </trkpt>
      <trkpt lat="47.67852" lon="-2.08374">
        <ele>18.4</ele>
        <time>2013-10-13T07:13:22Z</time>
      </trkpt>
      <trkpt lat="47.67841" lon="-2.08367">
        <ele>17.92</ele>
        <time>2013-10-13T07:13:24Z</time>
      </trkpt>
      <trkpt lat="47.67829" lon="-2.0836">
        <ele>17.44</ele>
        <time>2013-10-13T07:13:26Z</time>
      </trkpt>
      <trkpt lat="47.67818" lon="-2.08353">
        <ele>16.96</ele>
        <time>2013-10-13T07:13:28Z</time>
      </trkpt>
      <trkpt lat="47.67806" lon="-2.08346">
        <ele>16.48</ele>
        <time>2013-10-13T07:13:30Z</time>
      </trkpt>
      <trkpt lat="47.67795" lon="-2.08341">
        <ele>16.48</ele>
        <time>2013-10-13T07:13:32Z</time>
      </trkpt>
      <trkpt lat="47.67784" lon="-2.0834">
        <ele>16.48</ele>
        <time>2013-10-13T07:13:34Z</time>
      </trkpt>
      <trkpt lat="47.67778" lon="-2.08349">
        <ele>16.48</ele>
        <time>2013-10-13T07:13:36Z</time>
      </trkpt>
      <trkpt lat="47.6778" lon="-2.08363">
        <ele>16</ele>
        <time>2013-10-13T07:13:38Z</time>
      </trkpt>
      <trkpt lat="47.67784" lon="-2.08378">
        <ele>15.52</ele>
        <time>2013-10-13T07:13:40Z</time>
      </trkpt>
      <trkpt lat="47.6779" lon="-2.08393">
        <ele>14.08</ele>
        <time>2013-10-13T07:13:42Z</time>
      </trkpt>
      <trkpt lat="47.67796" lon="-2.08409">
        <ele>13.12</ele>
        <time>2013-10-13T07:13:44Z</time>
      </trkpt>
      <trkpt lat="47.67805" lon="-2.08425">
        <ele>11.67</ele>
        <time>2013-10-13T07:13:46Z</time>
      </trkpt>
      <trkpt lat="47.67818" lon="-2.08439">
        <ele>10.71</ele>
        <time>2013-10-13T07:13:48Z</time>
      </trkpt>
      <trkpt lat="47.67832" lon="-2.08446">
        <ele>8.79</ele>
        <time>2013-10-13T07:13:50Z</time>
      </trkpt>
      <trkpt lat="47.67847" lon="-2.08448">
        <ele>7.35</ele>
        <time>2013-10-13T07:13:52Z</time>
      </trkpt>
      <trkpt lat="47.6786" lon="-2.08446">
        <ele>6.87</ele>
        <time>2013-10-13T07:13:54Z</time>
      </trkpt>
      <trkpt lat="47.6787" lon="-2.08456">
        <ele>6.87</ele>
        <time>2013-10-13T07:13:57Z</time>
      </trkpt>
      <trkpt lat="47.67874" lon="-2.08469">
        <ele>7.35</ele>
        <time>2013-10-13T07:13:59Z</time>
      </trkpt>
      <trkpt lat="47.67877" lon="-2.08482">
        <ele>7.35</ele>
        <time>2013-10-13T07:14:01Z</time>
      </trkpt>
      <trkpt lat="47.67884" lon="-2.08494">
        <ele>7.35</ele>
        <time>2013-10-13T07:14:05Z</time>
      </trkpt>
      <trkpt lat="47.67893" lon="-2.08501">
        <ele>9.75</ele>
        <time>2013-10-13T07:14:15Z</time>
      </trkpt>
      <trkpt lat="47.67899" lon="-2.08505">
        <ele>11.19</ele>
        <time>2013-10-13T07:14:21Z</time>
      </trkpt>
      <trkpt lat="47.67912" lon="-2.08504">
        <ele>15.52</ele>
        <time>2013-10-13T07:14:44Z</time>
      </trkpt>
      <trkpt lat="47.67923" lon="-2.08501">
        <ele>15.04</ele>
        <time>2013-10-13T07:14:49Z</time>
      </trkpt>
      <trkpt lat="47.67929" lon="-2.0849">
        <ele>15.04</ele>
        <time>2013-10-13T07:14:52Z</time>
      </trkpt>
      <trkpt lat="47.67939" lon="-2.08488">
        <ele>16.48</ele>
        <time>2013-10-13T07:14:57Z</time>
      </trkpt>
      <trkpt lat="47.67948" lon="-2.08483">
        <ele>20.32</ele>
        <time>2013-10-13T07:15:04Z</time>
      </trkpt>
      <trkpt lat="47.67963" lon="-2.08489">
        <ele>25.61</ele>
        <time>2013-10-13T07:15:13Z</time>
      </trkpt>
      <trkpt lat="47.67975" lon="-2.08488">
        <ele>28.98</ele>
        <time>2013-10-13T07:15:19Z</time>
      </trkpt>
      <trkpt lat="47.67983" lon="-2.08494">
        <ele>31.38</ele>
        <time>2013-10-13T07:15:26Z</time>
      </trkpt>
      <trkpt lat="47.67995" lon="-2.08497">
        <ele>33.3</ele>
        <time>2013-10-13T07:15:35Z</time>
      </trkpt>
      <trkpt lat="47.68005" lon="-2.08495">
        <ele>33.78</ele>
        <time>2013-10-13T07:15:43Z</time>
      </trkpt>
      <trkpt lat="47.68015" lon="-2.08503">
        <ele>35.23</ele>
        <time>2013-10-13T07:15:50Z</time>
      </trkpt>
      <trkpt lat="47.68015" lon="-2.08519">
        <ele>33.78</ele>
        <time>2013-10-13T07:15:55Z</time>
      </trkpt>
      <trkpt lat="47.68027" lon="-2.08521">
        <ele>33.3</ele>
        <time>2013-10-13T07:16:01Z</time>
      </trkpt>
      <trkpt lat="47.68036" lon="-2.08535">
        <ele>33.3</ele>
        <time>2013-10-13T07:16:07Z</time>
      </trkpt>
      <trkpt lat="47.68045" lon="-2.08549">
        <ele>34.26</ele>
        <time>2013-10-13T07:16:12Z</time>
      </trkpt>
      <trkpt lat="47.68052" lon="-2.08562">
        <ele>36.19</ele>
        <time>2013-10-13T07:16:17Z</time>
      </trkpt>
      <trkpt lat="47.68058" lon="-2.08575">
        <ele>37.15</ele>
        <time>2013-10-13T07:16:22Z</time>
      </trkpt>
      <trkpt lat="47.68061" lon="-2.08589">
        <ele>37.63</ele>
        <time>2013-10-13T07:16:25Z</time>
      </trkpt>
      <trkpt lat="47.68065" lon="-2.08604">
        <ele>35.71</ele>
        <time>2013-10-13T07:16:31Z</time>
      </trkpt>
      <trkpt lat="47.68073" lon="-2.08615">
        <ele>34.74</ele>
        <time>2013-10-13T07:16:34Z</time>
      </trkpt>
      <trkpt lat="47.68078" lon="-2.08628">
        <ele>34.26</ele>
        <time>2013-10-13T07:16:39Z</time>
      </trkpt>
      <trkpt lat="47.68088" lon="-2.08637">
        <ele>40.51</ele>
        <time>2013-10-13T07:16:58Z</time>
      </trkpt>
      <trkpt lat="47.68081" lon="-2.08646">
        <ele>42.44</ele>
        <time>2013-10-13T07:17:04Z</time>
      </trkpt>
      <trkpt lat="47.68068" lon="-2.08646">
        <ele>41.95</ele>
        <time>2013-10-13T07:17:09Z</time>
      </trkpt>
      <trkpt lat="47.68058" lon="-2.08638">
        <ele>41.47</ele>
        <time>2013-10-13T07:17:12Z</time>
      </trkpt>
      <trkpt lat="47.68052" lon="-2.08632">
        <ele>40.99</ele>
        <time>2013-10-13T07:17:17Z</time>
      </trkpt>
      <trkpt lat="47.6805" lon="-2.08649">
        <ele>40.03</ele>
        <time>2013-10-13T07:17:23Z</time>
      </trkpt>
      <trkpt lat="47.68053" lon="-2.08663">
        <ele>39.07</ele>
        <time>2013-10-13T07:17:26Z</time>
      </trkpt>
      <trkpt lat="47.68061" lon="-2.08672">
        <ele>38.59</ele>
        <time>2013-10-13T07:17:31Z</time>
      </trkpt>
      <trkpt lat="47.68067" lon="-2.08688">
        <ele>39.55</ele>
        <time>2013-10-13T07:17:36Z</time>
      </trkpt>
      <trkpt lat="47.68076" lon="-2.08688">
        <ele>39.07</ele>
        <time>2013-10-13T07:17:43Z</time>
      </trkpt>
      <trkpt lat="47.68085" lon="-2.08683">
        <ele>38.59</ele>
        <time>2013-10-13T07:17:45Z</time>
      </trkpt>
      <trkpt lat="47.68088" lon="-2.08671">
        <ele>38.59</ele>
        <time>2013-10-13T07:17:55Z</time>
      </trkpt>
      <trkpt lat="47.681" lon="-2.08669">
        <ele>39.07</ele>
        <time>2013-10-13T07:18:00Z</time>
      </trkpt>
      <trkpt lat="47.68108" lon="-2.08665">
        <ele>42.44</ele>
        <time>2013-10-13T07:18:04Z</time>
      </trkpt>
      <trkpt lat="47.68113" lon="-2.08669">
        <ele>44.84</ele>
        <time>2013-10-13T07:18:10Z</time>
      </trkpt>
      <trkpt lat="47.68115" lon="-2.08683">
        <ele>44.84</ele>
        <time>2013-10-13T07:18:15Z</time>
      </trkpt>
      <trkpt lat="47.68107" lon="-2.08694">
        <ele>42.44</ele>
        <time>2013-10-13T07:18:20Z</time>
      </trkpt>
      <trkpt lat="47.68097" lon="-2.087">
        <ele>40.99</ele>
        <time>2013-10-13T07:18:25Z</time>
      </trkpt>
      <trkpt lat="47.68088" lon="-2.08709">
        <ele>41.95</ele>
        <time>2013-10-13T07:18:38Z</time>
      </trkpt>
      <trkpt lat="47.68076" lon="-2.08715">
        <ele>40.51</ele>
        <time>2013-10-13T07:18:43Z</time>
      </trkpt>
      <trkpt lat="47.68072" lon="-2.08731">
        <ele>38.11</ele>
        <time>2013-10-13T07:18:46Z</time>
      </trkpt>
      <trkpt lat="47.68069" lon="-2.08744">
        <ele>36.19</ele>
        <time>2013-10-13T07:18:50Z</time>
      </trkpt>
      <trkpt lat="47.68054" lon="-2.0874">
        <ele>35.23</ele>
        <time>2013-10-13T07:18:54Z</time>
      </trkpt>
      <trkpt lat="47.6804" lon="-2.0874">
        <ele>34.26</ele>
        <time>2013-10-13T07:18:57Z</time>
      </trkpt>
      <trkpt lat="47.68028" lon="-2.08741">
        <ele>33.78</ele>
        <time>2013-10-13T07:19:00Z</time>
      </trkpt>
      <trkpt lat="47.68017" lon="-2.08744">
        <ele>32.34</ele>
        <time>2013-10-13T07:19:05Z</time>
      </trkpt>
      <trkpt lat="47.68016" lon="-2.0876">
        <ele>31.38</ele>
        <time>2013-10-13T07:19:08Z</time>
      </trkpt>
      <trkpt lat="47.68007" lon="-2.08757">
        <ele>32.34</ele>
        <time>2013-10-13T07:19:12Z</time>
      </trkpt>
      <trkpt lat="47.67994" lon="-2.08756">
        <ele>31.86</ele>
        <time>2013-10-13T07:19:17Z</time>
      </trkpt>
      <trkpt lat="47.67982" lon="-2.08769">
        <ele>31.38</ele>
        <time>2013-10-13T07:19:20Z</time>
      </trkpt>
      <trkpt lat="47.67974" lon="-2.08781">
        <ele>30.42</ele>
        <time>2013-10-13T07:19:23Z</time>
      </trkpt>
      <trkpt lat="47.67967" lon="-2.08792">
        <ele>28.02</ele>
        <time>2013-10-13T07:19:27Z</time>
      </trkpt>
      <trkpt lat="47.67968" lon="-2.08808">
        <ele>27.53</ele>
        <time>2013-10-13T07:19:31Z</time>
      </trkpt>
      <trkpt lat="47.6797" lon="-2.08824">
        <ele>27.05</ele>
        <time>2013-10-13T07:19:35Z</time>
      </trkpt>
      <trkpt lat="47.67973" lon="-2.08838">
        <ele>28.02</ele>
        <time>2013-10-13T07:19:38Z</time>
      </trkpt>
      <trkpt lat="47.67978" lon="-2.0885">
        <ele>28.5</ele>
        <time>2013-10-13T07:19:41Z</time>
      </trkpt>
      <trkpt lat="47.67985" lon="-2.08861">
        <ele>28.5</ele>
        <time>2013-10-13T07:19:44Z</time>
      </trkpt>
      <trkpt lat="47.67993" lon="-2.08873">
        <ele>29.46</ele>
        <time>2013-10-13T07:19:48Z</time>
      </trkpt>
      <trkpt lat="47.67999" lon="-2.08887">
        <ele>29.94</ele>
        <time>2013-10-13T07:19:52Z</time>
      </trkpt>
      <trkpt lat="47.68001" lon="-2.08901">
        <ele>29.94</ele>
        <time>2013-10-13T07:19:55Z</time>
      </trkpt>
      <trkpt lat="47.68003" lon="-2.08916">
        <ele>29.94</ele>
        <time>2013-10-13T07:19:58Z</time>
      </trkpt>
      <trkpt lat="47.68004" lon="-2.08933">
        <ele>29.46</ele>
        <time>2013-10-13T07:20:01Z</time>
      </trkpt>
      <trkpt lat="47.68004" lon="-2.08947">
        <ele>28.98</ele>
        <time>2013-10-13T07:20:03Z</time>
      </trkpt>
      <trkpt lat="47.68004" lon="-2.08962">
        <ele>28.02</ele>
        <time>2013-10-13T07:20:05Z</time>
      </trkpt>
      <trkpt lat="47.68005" lon="-2.08977">
        <ele>27.05</ele>
        <time>2013-10-13T07:20:07Z</time>
      </trkpt>
      <trkpt lat="47.68006" lon="-2.08994">
        <ele>26.57</ele>
        <time>2013-10-13T07:20:09Z</time>
      </trkpt>
      <trkpt lat="47.68007" lon="-2.09011">
        <ele>25.61</ele>
        <time>2013-10-13T07:20:11Z</time>
      </trkpt>
      <trkpt lat="47.68007" lon="-2.09027">
        <ele>24.65</ele>
        <time>2013-10-13T07:20:13Z</time>
      </trkpt>
      <trkpt lat="47.68008" lon="-2.09043">
        <ele>24.65</ele>
        <time>2013-10-13T07:20:15Z</time>
      </trkpt>
      <trkpt lat="47.68009" lon="-2.09059">
        <ele>24.17</ele>
        <time>2013-10-13T07:20:17Z</time>
      </trkpt>
      <trkpt lat="47.68009" lon="-2.09074">
        <ele>23.69</ele>
        <time>2013-10-13T07:20:19Z</time>
      </trkpt>
      <trkpt lat="47.68009" lon="-2.09089">
        <ele>23.21</ele>
        <time>2013-10-13T07:20:21Z</time>
      </trkpt>
      <trkpt lat="47.68008" lon="-2.09104">
        <ele>23.21</ele>
        <time>2013-10-13T07:20:24Z</time>
      </trkpt>
      <trkpt lat="47.68009" lon="-2.09121">
        <ele>23.69</ele>
        <time>2013-10-13T07:20:27Z</time>
      </trkpt>
      <trkpt lat="47.6801" lon="-2.09139">
        <ele>24.65</ele>
        <time>2013-10-13T07:20:30Z</time>
      </trkpt>
      <trkpt lat="47.68009" lon="-2.09156">
        <ele>23.69</ele>
        <time>2013-10-13T07:20:33Z</time>
      </trkpt>
      <trkpt lat="47.6801" lon="-2.09174">
        <ele>22.25</ele>
        <time>2013-10-13T07:20:36Z</time>
      </trkpt>
      <trkpt lat="47.68011" lon="-2.09194">
        <ele>20.32</ele>
        <time>2013-10-13T07:20:39Z</time>
      </trkpt>
      <trkpt lat="47.68012" lon="-2.09214">
        <ele>18.88</ele>
        <time>2013-10-13T07:20:42Z</time>
      </trkpt>
      <trkpt lat="47.68012" lon="-2.09235">
        <ele>17.92</ele>
        <time>2013-10-13T07:20:45Z</time>
      </trkpt>
      <trkpt lat="47.68013" lon="-2.0925">
        <ele>18.4</ele>
        <time>2013-10-13T07:20:47Z</time>
      </trkpt>
      <trkpt lat="47.68014" lon="-2.09265">
        <ele>18.88</ele>
        <time>2013-10-13T07:20:49Z</time>
      </trkpt>
      <trkpt lat="47.68015" lon="-2.09278">
        <ele>18.88</ele>
        <time>2013-10-13T07:20:51Z</time>
      </trkpt>
      <trkpt lat="47.68017" lon="-2.09295">
        <ele>19.36</ele>
        <time>2013-10-13T07:20:54Z</time>
      </trkpt>
      <trkpt lat="47.68017" lon="-2.0931">
        <ele>20.32</ele>
        <time>2013-10-13T07:20:57Z</time>
      </trkpt>
      <trkpt lat="47.68012" lon="-2.09324">
        <ele>20.81</ele>
        <time>2013-10-13T07:21:00Z</time>
      </trkpt>
      <trkpt lat="47.68005" lon="-2.09333">
        <ele>20.32</ele>
        <time>2013-10-13T07:21:02Z</time>
      </trkpt>
      <trkpt lat="47.67997" lon="-2.09341">
        <ele>19.84</ele>
        <time>2013-10-13T07:21:04Z</time>
      </trkpt>
      <trkpt lat="47.67984" lon="-2.09341">
        <ele>18.88</ele>
        <time>2013-10-13T07:21:07Z</time>
      </trkpt>
      <trkpt lat="47.67975" lon="-2.09334">
        <ele>17.92</ele>
        <time>2013-10-13T07:21:15Z</time>
      </trkpt>
      <trkpt lat="47.67965" lon="-2.09332">
        <ele>18.4</ele>
        <time>2013-10-13T07:21:20Z</time>
      </trkpt>
      <trkpt lat="47.67955" lon="-2.0933">
        <ele>20.32</ele>
        <time>2013-10-13T07:21:25Z</time>
      </trkpt>
      <trkpt lat="47.67947" lon="-2.09316">
        <ele>26.09</ele>
        <time>2013-10-13T07:21:42Z</time>
      </trkpt>
      <trkpt lat="47.67946" lon="-2.093">
        <ele>27.53</ele>
        <time>2013-10-13T07:21:47Z</time>
      </trkpt>
      <trkpt lat="47.67951" lon="-2.09287">
        <ele>27.05</ele>
        <time>2013-10-13T07:21:51Z</time>
      </trkpt>
      <trkpt lat="47.67955" lon="-2.09272">
        <ele>26.57</ele>
        <time>2013-10-13T07:21:53Z</time>
      </trkpt>
      <trkpt lat="47.67959" lon="-2.09259">
        <ele>27.05</ele>
        <time>2013-10-13T07:21:59Z</time>
      </trkpt>
      <trkpt lat="47.67959" lon="-2.09244">
        <ele>26.57</ele>
        <time>2013-10-13T07:22:03Z</time>
      </trkpt>
      <trkpt lat="47.67953" lon="-2.09233">
        <ele>28.5</ele>
        <time>2013-10-13T07:22:08Z</time>
      </trkpt>
      <trkpt lat="47.67952" lon="-2.09214">
        <ele>31.38</ele>
        <time>2013-10-13T07:22:22Z</time>
      </trkpt>
      <trkpt lat="47.6796" lon="-2.09204">
        <ele>31.86</ele>
        <time>2013-10-13T07:22:27Z</time>
      </trkpt>
      <trkpt lat="47.67968" lon="-2.09192">
        <ele>32.34</ele>
        <time>2013-10-13T07:22:34Z</time>
      </trkpt>
      <trkpt lat="47.67975" lon="-2.09177">
        <ele>32.34</ele>
        <time>2013-10-13T07:22:38Z</time>
      </trkpt>
      <trkpt lat="47.67987" lon="-2.09164">
        <ele>32.82</ele>
        <time>2013-10-13T07:22:42Z</time>
      </trkpt>
      <trkpt lat="47.67996" lon="-2.09147">
        <ele>32.82</ele>
        <time>2013-10-13T07:22:46Z</time>
      </trkpt>
      <trkpt lat="47.67998" lon="-2.09125">
        <ele>33.3</ele>
        <time>2013-10-13T07:22:50Z</time>
      </trkpt>
      <trkpt lat="47.68" lon="-2.09107">
        <ele>30.9</ele>
        <time>2013-10-13T07:22:53Z</time>
      </trkpt>
      <trkpt lat="47.67996" lon="-2.09102">
        <ele>28.5</ele>
        <time>2013-10-13T07:22:57Z</time>
      </trkpt>
      <trkpt lat="47.67986" lon="-2.09115">
        <ele>25.61</ele>
        <time>2013-10-13T07:23:00Z</time>
      </trkpt>
      <trkpt lat="47.67979" lon="-2.09127">
        <ele>23.69</ele>
        <time>2013-10-13T07:23:02Z</time>
      </trkpt>
      <trkpt lat="47.67971" lon="-2.09141">
        <ele>21.77</ele>
        <time>2013-10-13T07:23:04Z</time>
      </trkpt>
      <trkpt lat="47.67963" lon="-2.09158">
        <ele>20.32</ele>
        <time>2013-10-13T07:23:06Z</time>
      </trkpt>
      <trkpt lat="47.67952" lon="-2.09174">
        <ele>18.4</ele>
        <time>2013-10-13T07:23:08Z</time>
      </trkpt>
      <trkpt lat="47.67942" lon="-2.09192">
        <ele>16.96</ele>
        <time>2013-10-13T07:23:10Z</time>
      </trkpt>
      <trkpt lat="47.67932" lon="-2.09212">
        <ele>15.04</ele>
        <time>2013-10-13T07:23:12Z</time>
      </trkpt>
      <trkpt lat="47.67922" lon="-2.09232">
        <ele>13.6</ele>
        <time>2013-10-13T07:23:14Z</time>
      </trkpt>
      <trkpt lat="47.67913" lon="-2.09252">
        <ele>11.67</ele>
        <time>2013-10-13T07:23:16Z</time>
      </trkpt>
      <trkpt lat="47.67903" lon="-2.09272">
        <ele>9.75</ele>
        <time>2013-10-13T07:23:18Z</time>
      </trkpt>
      <trkpt lat="47.67893" lon="-2.09295">
        <ele>7.83</ele>
        <time>2013-10-13T07:23:20Z</time>
      </trkpt>
      <trkpt lat="47.67889" lon="-2.09307">
        <ele>6.87</ele>
        <time>2013-10-13T07:23:21Z</time>
      </trkpt>
      <trkpt lat="47.67885" lon="-2.09319">
        <ele>5.91</ele>
        <time>2013-10-13T07:23:22Z</time>
      </trkpt>
      <trkpt lat="47.67881" lon="-2.09333">
        <ele>5.42</ele>
        <time>2013-10-13T07:23:23Z</time>
      </trkpt>
      <trkpt lat="47.67877" lon="-2.09346">
        <ele>5.42</ele>
        <time>2013-10-13T07:23:24Z</time>
      </trkpt>
      <trkpt lat="47.67873" lon="-2.09358">
        <ele>4.94</ele>
        <time>2013-10-13T07:23:25Z</time>
      </trkpt>
      <trkpt lat="47.67867" lon="-2.09381">
        <ele>4.94</ele>
        <time>2013-10-13T07:23:27Z</time>
      </trkpt>
      <trkpt lat="47.67869" lon="-2.09407">
        <ele>4.94</ele>
        <time>2013-10-13T07:23:29Z</time>
      </trkpt>
      <trkpt lat="47.67873" lon="-2.09431">
        <ele>4.94</ele>
        <time>2013-10-13T07:23:31Z</time>
      </trkpt>
      <trkpt lat="47.67876" lon="-2.09454">
        <ele>4.46</ele>
        <time>2013-10-13T07:23:33Z</time>
      </trkpt>
      <trkpt lat="47.67878" lon="-2.09475">
        <ele>4.46</ele>
        <time>2013-10-13T07:23:35Z</time>
      </trkpt>
      <trkpt lat="47.6788" lon="-2.09491">
        <ele>4.46</ele>
        <time>2013-10-13T07:23:37Z</time>
      </trkpt>
      <trkpt lat="47.67883" lon="-2.09505">
        <ele>4.94</ele>
        <time>2013-10-13T07:23:39Z</time>
      </trkpt>
      <trkpt lat="47.67889" lon="-2.09524">
        <ele>4.46</ele>
        <time>2013-10-13T07:23:42Z</time>
      </trkpt>
      <trkpt lat="47.67894" lon="-2.09537">
        <ele>4.46</ele>
        <time>2013-10-13T07:23:44Z</time>
      </trkpt>
      <trkpt lat="47.67899" lon="-2.09551">
        <ele>3.98</ele>
        <time>2013-10-13T07:23:46Z</time>
      </trkpt>
      <trkpt lat="47.67904" lon="-2.09566">
        <ele>4.46</ele>
        <time>2013-10-13T07:23:48Z</time>
      </trkpt>
      <trkpt lat="47.6791" lon="-2.09582">
        <ele>4.94</ele>
        <time>2013-10-13T07:23:50Z</time>
      </trkpt>
      <trkpt lat="47.67914" lon="-2.09597">
        <ele>5.42</ele>
        <time>2013-10-13T07:23:52Z</time>
      </trkpt>
      <trkpt lat="47.67918" lon="-2.09611">
        <ele>6.39</ele>
        <time>2013-10-13T07:23:54Z</time>
      </trkpt>
      <trkpt lat="47.67918" lon="-2.09629">
        <ele>7.83</ele>
        <time>2013-10-13T07:23:57Z</time>
      </trkpt>
      <trkpt lat="47.67912" lon="-2.09645">
        <ele>8.79</ele>
        <time>2013-10-13T07:24:00Z</time>
      </trkpt>
      <trkpt lat="47.6791" lon="-2.09659">
        <ele>9.27</ele>
        <time>2013-10-13T07:24:02Z</time>
      </trkpt>
      <trkpt lat="47.67909" lon="-2.09676">
        <ele>9.75</ele>
        <time>2013-10-13T07:24:04Z</time>
      </trkpt>
      <trkpt lat="47.67907" lon="-2.09692">
        <ele>10.23</ele>
        <time>2013-10-13T07:24:06Z</time>
      </trkpt>
      <trkpt lat="47.67905" lon="-2.09708">
        <ele>10.23</ele>
        <time>2013-10-13T07:24:08Z</time>
      </trkpt>
      <trkpt lat="47.67901" lon="-2.09721">
        <ele>10.23</ele>
        <time>2013-10-13T07:24:10Z</time>
      </trkpt>
      <trkpt lat="47.67898" lon="-2.09741">
        <ele>10.71</ele>
        <time>2013-10-13T07:24:13Z</time>
      </trkpt>
      <trkpt lat="47.67897" lon="-2.09763">
        <ele>10.71</ele>
        <time>2013-10-13T07:24:16Z</time>
      </trkpt>
      <trkpt lat="47.67895" lon="-2.0978">
        <ele>10.71</ele>
        <time>2013-10-13T07:24:18Z</time>
      </trkpt>
      <trkpt lat="47.67893" lon="-2.09796">
        <ele>10.71</ele>
        <time>2013-10-13T07:24:20Z</time>
      </trkpt>
      <trkpt lat="47.67891" lon="-2.09812">
        <ele>10.23</ele>
        <time>2013-10-13T07:24:22Z</time>
      </trkpt>
      <trkpt lat="47.67888" lon="-2.09828">
        <ele>10.23</ele>
        <time>2013-10-13T07:24:24Z</time>
      </trkpt>
      <trkpt lat="47.67885" lon="-2.09845">
        <ele>9.75</ele>
        <time>2013-10-13T07:24:26Z</time>
      </trkpt>
      <trkpt lat="47.67881" lon="-2.09862">
        <ele>8.31</ele>
        <time>2013-10-13T07:24:28Z</time>
      </trkpt>
      <trkpt lat="47.67879" lon="-2.09879">
        <ele>6.87</ele>
        <time>2013-10-13T07:24:30Z</time>
      </trkpt>
      <trkpt lat="47.67879" lon="-2.099">
        <ele>5.91</ele>
        <time>2013-10-13T07:24:32Z</time>
      </trkpt>
      <trkpt lat="47.67881" lon="-2.0992">
        <ele>4.94</ele>
        <time>2013-10-13T07:24:34Z</time>
      </trkpt>
      <trkpt lat="47.67883" lon="-2.09937">
        <ele>4.46</ele>
        <time>2013-10-13T07:24:36Z</time>
      </trkpt>
      <trkpt lat="47.67884" lon="-2.09951">
        <ele>3.5</ele>
        <time>2013-10-13T07:24:38Z</time>
      </trkpt>
      <trkpt lat="47.67885" lon="-2.09966">
        <ele>2.54</ele>
        <time>2013-10-13T07:24:40Z</time>
      </trkpt>
      <trkpt lat="47.67886" lon="-2.09985">
        <ele>1.58</ele>
        <time>2013-10-13T07:24:43Z</time>
      </trkpt>
      <trkpt lat="47.67888" lon="-2.10003">
        <ele>0.62</ele>
        <time>2013-10-13T07:24:46Z</time>
      </trkpt>
      <trkpt lat="47.67887" lon="-2.1002">
        <ele>1.58</ele>
        <time>2013-10-13T07:24:51Z</time>
      </trkpt>
      <trkpt lat="47.67876" lon="-2.10025">
        <ele>3.5</ele>
        <time>2013-10-13T07:24:58Z</time>
      </trkpt>
      <trkpt lat="47.67871" lon="-2.10013">
        <ele>3.98</ele>
        <time>2013-10-13T07:25:02Z</time>
      </trkpt>
      <trkpt lat="47.67868" lon="-2.09999">
        <ele>4.46</ele>
        <time>2013-10-13T07:25:05Z</time>
      </trkpt>
      <trkpt lat="47.67863" lon="-2.09982">
        <ele>4.94</ele>
        <time>2013-10-13T07:25:08Z</time>
      </trkpt>
      <trkpt lat="47.67859" lon="-2.09969">
        <ele>5.42</ele>
        <time>2013-10-13T07:25:10Z</time>
      </trkpt>
      <trkpt lat="47.67855" lon="-2.09956">
        <ele>5.91</ele>
        <time>2013-10-13T07:25:12Z</time>
      </trkpt>
      <trkpt lat="47.67851" lon="-2.09939">
        <ele>6.39</ele>
        <time>2013-10-13T07:25:15Z</time>
      </trkpt>
      <trkpt lat="47.67846" lon="-2.0992">
        <ele>6.87</ele>
        <time>2013-10-13T07:25:18Z</time>
      </trkpt>
      <trkpt lat="47.67842" lon="-2.09907">
        <ele>6.87</ele>
        <time>2013-10-13T07:25:20Z</time>
      </trkpt>
      <trkpt lat="47.67838" lon="-2.09895">
        <ele>6.87</ele>
        <time>2013-10-13T07:25:22Z</time>
      </trkpt>
      <trkpt lat="47.67835" lon="-2.09881">
        <ele>6.87</ele>
        <time>2013-10-13T07:25:24Z</time>
      </trkpt>
      <trkpt lat="47.67831" lon="-2.09867">
        <ele>6.39</ele>
        <time>2013-10-13T07:25:26Z</time>
      </trkpt>
      <trkpt lat="47.67828" lon="-2.09854">
        <ele>6.39</ele>
        <time>2013-10-13T07:25:28Z</time>
      </trkpt>
      <trkpt lat="47.67823" lon="-2.09836">
        <ele>5.42</ele>
        <time>2013-10-13T07:25:31Z</time>
      </trkpt>
      <trkpt lat="47.67818" lon="-2.09818">
        <ele>5.42</ele>
        <time>2013-10-13T07:25:34Z</time>
      </trkpt>
      <trkpt lat="47.67813" lon="-2.09802">
        <ele>5.42</ele>
        <time>2013-10-13T07:25:37Z</time>
      </trkpt>
      <trkpt lat="47.67809" lon="-2.09786">
        <ele>5.91</ele>
        <time>2013-10-13T07:25:40Z</time>
      </trkpt>
      <trkpt lat="47.67805" lon="-2.0977">
        <ele>5.91</ele>
        <time>2013-10-13T07:25:44Z</time>
      </trkpt>
      <trkpt lat="47.67801" lon="-2.09755">
        <ele>6.39</ele>
        <time>2013-10-13T07:25:47Z</time>
      </trkpt>
      <trkpt lat="47.67796" lon="-2.09736">
        <ele>6.39</ele>
        <time>2013-10-13T07:25:50Z</time>
      </trkpt>
      <trkpt lat="47.6779" lon="-2.09716">
        <ele>6.87</ele>
        <time>2013-10-13T07:25:53Z</time>
      </trkpt>
      <trkpt lat="47.67785" lon="-2.09702">
        <ele>6.87</ele>
        <time>2013-10-13T07:25:55Z</time>
      </trkpt>
      <trkpt lat="47.67781" lon="-2.09686">
        <ele>6.87</ele>
        <time>2013-10-13T07:25:57Z</time>
      </trkpt>
      <trkpt lat="47.67777" lon="-2.0967">
        <ele>7.35</ele>
        <time>2013-10-13T07:25:59Z</time>
      </trkpt>
      <trkpt lat="47.67771" lon="-2.09653">
        <ele>7.35</ele>
        <time>2013-10-13T07:26:01Z</time>
      </trkpt>
      <trkpt lat="47.67768" lon="-2.09637">
        <ele>7.35</ele>
        <time>2013-10-13T07:26:03Z</time>
      </trkpt>
      <trkpt lat="47.67763" lon="-2.09622">
        <ele>7.83</ele>
        <time>2013-10-13T07:26:05Z</time>
      </trkpt>
      <trkpt lat="47.67759" lon="-2.09606">
        <ele>8.31</ele>
        <time>2013-10-13T07:26:07Z</time>
      </trkpt>
      <trkpt lat="47.67754" lon="-2.0959">
        <ele>8.31</ele>
        <time>2013-10-13T07:26:09Z</time>
      </trkpt>
      <trkpt lat="47.67749" lon="-2.09574">
        <ele>8.31</ele>
        <time>2013-10-13T07:26:11Z</time>
      </trkpt>
      <trkpt lat="47.67745" lon="-2.09559">
        <ele>8.31</ele>
        <time>2013-10-13T07:26:13Z</time>
      </trkpt>
      <trkpt lat="47.6774" lon="-2.09543">
        <ele>8.31</ele>
        <time>2013-10-13T07:26:15Z</time>
      </trkpt>
      <trkpt lat="47.67736" lon="-2.09528">
        <ele>8.31</ele>
        <time>2013-10-13T07:26:17Z</time>
      </trkpt>
      <trkpt lat="47.67731" lon="-2.09514">
        <ele>7.83</ele>
        <time>2013-10-13T07:26:19Z</time>
      </trkpt>
      <trkpt lat="47.67726" lon="-2.09499">
        <ele>7.83</ele>
        <time>2013-10-13T07:26:21Z</time>
      </trkpt>
      <trkpt lat="47.67722" lon="-2.09485">
        <ele>7.83</ele>
        <time>2013-10-13T07:26:23Z</time>
      </trkpt>
      <trkpt lat="47.67717" lon="-2.09471">
        <ele>7.83</ele>
        <time>2013-10-13T07:26:25Z</time>
      </trkpt>
      <trkpt lat="47.67713" lon="-2.09458">
        <ele>8.31</ele>
        <time>2013-10-13T07:26:27Z</time>
      </trkpt>
      <trkpt lat="47.67708" lon="-2.09446">
        <ele>9.27</ele>
        <time>2013-10-13T07:26:29Z</time>
      </trkpt>
      <trkpt lat="47.67701" lon="-2.09428">
        <ele>10.23</ele>
        <time>2013-10-13T07:26:32Z</time>
      </trkpt>
      <trkpt lat="47.67696" lon="-2.09415">
        <ele>11.19</ele>
        <time>2013-10-13T07:26:34Z</time>
      </trkpt>
      <trkpt lat="47.67689" lon="-2.09401">
        <ele>11.67</ele>
        <time>2013-10-13T07:26:36Z</time>
      </trkpt>
      <trkpt lat="47.67683" lon="-2.09387">
        <ele>11.67</ele>
        <time>2013-10-13T07:26:38Z</time>
      </trkpt>
      <trkpt lat="47.67676" lon="-2.09374">
        <ele>11.67</ele>
        <time>2013-10-13T07:26:40Z</time>
      </trkpt>
      <trkpt lat="47.67669" lon="-2.0936">
        <ele>11.19</ele>
        <time>2013-10-13T07:26:42Z</time>
      </trkpt>
      <trkpt lat="47.67662" lon="-2.09347">
        <ele>11.19</ele>
        <time>2013-10-13T07:26:44Z</time>
      </trkpt>
      <trkpt lat="47.67655" lon="-2.09336">
        <ele>10.71</ele>
        <time>2013-10-13T07:26:46Z</time>
      </trkpt>
      <trkpt lat="47.67649" lon="-2.09323">
        <ele>11.19</ele>
        <time>2013-10-13T07:26:48Z</time>
      </trkpt>
      <trkpt lat="47.67641" lon="-2.09311">
        <ele>11.19</ele>
        <time>2013-10-13T07:26:50Z</time>
      </trkpt>
      <trkpt lat="47.67633" lon="-2.093">
        <ele>11.67</ele>
        <time>2013-10-13T07:26:52Z</time>
      </trkpt>
      <trkpt lat="47.67626" lon="-2.09291">
        <ele>12.15</ele>
        <time>2013-10-13T07:26:54Z</time>
      </trkpt>
      <trkpt lat="47.67617" lon="-2.09284">
        <ele>12.63</ele>
        <time>2013-10-13T07:26:56Z</time>
      </trkpt>
      <trkpt lat="47.67608" lon="-2.09277">
        <ele>13.12</ele>
        <time>2013-10-13T07:26:58Z</time>
      </trkpt>
      <trkpt lat="47.676" lon="-2.09268">
        <ele>13.12</ele>
        <time>2013-10-13T07:27:00Z</time>
      </trkpt>
      <trkpt lat="47.67594" lon="-2.09257">
        <ele>12.63</ele>
        <time>2013-10-13T07:27:02Z</time>
      </trkpt>
      <trkpt lat="47.67587" lon="-2.09246">
        <ele>11.19</ele>
        <time>2013-10-13T07:27:04Z</time>
      </trkpt>
      <trkpt lat="47.67577" lon="-2.09234">
        <ele>9.27</ele>
        <time>2013-10-13T07:27:07Z</time>
      </trkpt>
      <trkpt lat="47.67565" lon="-2.09221">
        <ele>7.83</ele>
        <time>2013-10-13T07:27:10Z</time>
      </trkpt>
      <trkpt lat="47.67557" lon="-2.09211">
        <ele>7.35</ele>
        <time>2013-10-13T07:27:12Z</time>
      </trkpt>
      <trkpt lat="47.67549" lon="-2.09201">
        <ele>7.35</ele>
        <time>2013-10-13T07:27:14Z</time>
      </trkpt>
      <trkpt lat="47.67541" lon="-2.09193">
        <ele>7.35</ele>
        <time>2013-10-13T07:27:16Z</time>
      </trkpt>
      <trkpt lat="47.67534" lon="-2.09183">
        <ele>7.35</ele>
        <time>2013-10-13T07:27:18Z</time>
      </trkpt>
      <trkpt lat="47.67527" lon="-2.09173">
        <ele>6.87</ele>
        <time>2013-10-13T07:27:20Z</time>
      </trkpt>
      <trkpt lat="47.67516" lon="-2.0916">
        <ele>6.39</ele>
        <time>2013-10-13T07:27:23Z</time>
      </trkpt>
      <trkpt lat="47.67508" lon="-2.0915">
        <ele>5.91</ele>
        <time>2013-10-13T07:27:25Z</time>
      </trkpt>
      <trkpt lat="47.67501" lon="-2.09141">
        <ele>5.91</ele>
        <time>2013-10-13T07:27:27Z</time>
      </trkpt>
      <trkpt lat="47.67489" lon="-2.09128">
        <ele>5.42</ele>
        <time>2013-10-13T07:27:30Z</time>
      </trkpt>
      <trkpt lat="47.67482" lon="-2.09119">
        <ele>5.42</ele>
        <time>2013-10-13T07:27:32Z</time>
      </trkpt>
      <trkpt lat="47.67473" lon="-2.09109">
        <ele>5.42</ele>
        <time>2013-10-13T07:27:34Z</time>
      </trkpt>
      <trkpt lat="47.67464" lon="-2.09099">
        <ele>5.91</ele>
        <time>2013-10-13T07:27:36Z</time>
      </trkpt>
      <trkpt lat="47.67455" lon="-2.09088">
        <ele>5.42</ele>
        <time>2013-10-13T07:27:38Z</time>
      </trkpt>
      <trkpt lat="47.67446" lon="-2.09077">
        <ele>5.42</ele>
        <time>2013-10-13T07:27:40Z</time>
      </trkpt>
      <trkpt lat="47.67437" lon="-2.09067">
        <ele>4.94</ele>
        <time>2013-10-13T07:27:42Z</time>
      </trkpt>
      <trkpt lat="47.67428" lon="-2.09058">
        <ele>4.46</ele>
        <time>2013-10-13T07:27:44Z</time>
      </trkpt>
      <trkpt lat="47.6742" lon="-2.09048">
        <ele>4.46</ele>
        <time>2013-10-13T07:27:46Z</time>
      </trkpt>
      <trkpt lat="47.67412" lon="-2.09039">
        <ele>4.46</ele>
        <time>2013-10-13T07:27:48Z</time>
      </trkpt>
      <trkpt lat="47.67403" lon="-2.09029">
        <ele>3.98</ele>
        <time>2013-10-13T07:27:50Z</time>
      </trkpt>
      <trkpt lat="47.67392" lon="-2.09017">
        <ele>3.98</ele>
        <time>2013-10-13T07:27:53Z</time>
      </trkpt>
      <trkpt lat="47.67384" lon="-2.09007">
        <ele>3.5</ele>
        <time>2013-10-13T07:27:55Z</time>
      </trkpt>
      <trkpt lat="47.67376" lon="-2.08999">
        <ele>3.5</ele>
        <time>2013-10-13T07:27:57Z</time>
      </trkpt>
      <trkpt lat="47.67365" lon="-2.08987">
        <ele>3.5</ele>
        <time>2013-10-13T07:28:00Z</time>
      </trkpt>
      <trkpt lat="47.67356" lon="-2.08977">
        <ele>3.98</ele>
        <time>2013-10-13T07:28:02Z</time>
      </trkpt>
      <trkpt lat="47.67347" lon="-2.08966">
        <ele>3.98</ele>
        <time>2013-10-13T07:28:04Z</time>
      </trkpt>
      <trkpt lat="47.67339" lon="-2.08956">
        <ele>3.98</ele>
        <time>2013-10-13T07:28:06Z</time>
      </trkpt>
      <trkpt lat="47.67329" lon="-2.08946">
        <ele>3.98</ele>
        <time>2013-10-13T07:28:08Z</time>
      </trkpt>
      <trkpt lat="47.67319" lon="-2.08934">
        <ele>3.98</ele>
        <time>2013-10-13T07:28:10Z</time>
      </trkpt>
      <trkpt lat="47.6731" lon="-2.08925">
        <ele>4.94</ele>
        <time>2013-10-13T07:28:12Z</time>
      </trkpt>
      <trkpt lat="47.67301" lon="-2.08915">
        <ele>4.94</ele>
        <time>2013-10-13T07:28:14Z</time>
      </trkpt>
      <trkpt lat="47.67292" lon="-2.08904">
        <ele>5.42</ele>
        <time>2013-10-13T07:28:16Z</time>
      </trkpt>
      <trkpt lat="47.67282" lon="-2.08893">
        <ele>5.42</ele>
        <time>2013-10-13T07:28:18Z</time>
      </trkpt>
      <trkpt lat="47.67272" lon="-2.08883">
        <ele>5.42</ele>
        <time>2013-10-13T07:28:20Z</time>
      </trkpt>
      <trkpt lat="47.67262" lon="-2.08873">
        <ele>4.94</ele>
        <time>2013-10-13T07:28:22Z</time>
      </trkpt>
      <trkpt lat="47.67252" lon="-2.08864">
        <ele>4.94</ele>
        <time>2013-10-13T07:28:24Z</time>
      </trkpt>
      <trkpt lat="47.67243" lon="-2.08856">
        <ele>4.94</ele>
        <time>2013-10-13T07:28:26Z</time>
      </trkpt>
      <trkpt lat="47.67233" lon="-2.08848">
        <ele>5.42</ele>
        <time>2013-10-13T07:28:28Z</time>
      </trkpt>
      <trkpt lat="47.67223" lon="-2.08841">
        <ele>5.42</ele>
        <time>2013-10-13T07:28:30Z</time>
      </trkpt>
      <trkpt lat="47.67214" lon="-2.08832">
        <ele>4.94</ele>
        <time>2013-10-13T07:28:32Z</time>
      </trkpt>
      <trkpt lat="47.67204" lon="-2.08826">
        <ele>4.94</ele>
        <time>2013-10-13T07:28:34Z</time>
      </trkpt>
      <trkpt lat="47.67194" lon="-2.08821">
        <ele>4.46</ele>
        <time>2013-10-13T07:28:36Z</time>
      </trkpt>
      <trkpt lat="47.67184" lon="-2.08816">
        <ele>3.5</ele>
        <time>2013-10-13T07:28:38Z</time>
      </trkpt>
      <trkpt lat="47.67174" lon="-2.08811">
        <ele>3.5</ele>
        <time>2013-10-13T07:28:40Z</time>
      </trkpt>
      <trkpt lat="47.67164" lon="-2.08806">
        <ele>3.5</ele>
        <time>2013-10-13T07:28:42Z</time>
      </trkpt>
      <trkpt lat="47.67153" lon="-2.088">
        <ele>3.5</ele>
        <time>2013-10-13T07:28:44Z</time>
      </trkpt>
      <trkpt lat="47.67142" lon="-2.08795">
        <ele>3.02</ele>
        <time>2013-10-13T07:28:46Z</time>
      </trkpt>
      <trkpt lat="47.67131" lon="-2.0879">
        <ele>3.5</ele>
        <time>2013-10-13T07:28:48Z</time>
      </trkpt>
      <trkpt lat="47.67119" lon="-2.08787">
        <ele>3.98</ele>
        <time>2013-10-13T07:28:50Z</time>
      </trkpt>
      <trkpt lat="47.67106" lon="-2.08786">
        <ele>4.46</ele>
        <time>2013-10-13T07:28:52Z</time>
      </trkpt>
      <trkpt lat="47.67094" lon="-2.08786">
        <ele>4.46</ele>
        <time>2013-10-13T07:28:54Z</time>
      </trkpt>
      <trkpt lat="47.67082" lon="-2.08787">
        <ele>4.94</ele>
        <time>2013-10-13T07:28:56Z</time>
      </trkpt>
      <trkpt lat="47.6707" lon="-2.08789">
        <ele>4.94</ele>
        <time>2013-10-13T07:28:58Z</time>
      </trkpt>
      <trkpt lat="47.67058" lon="-2.0879">
        <ele>4.94</ele>
        <time>2013-10-13T07:29:00Z</time>
      </trkpt>
      <trkpt lat="47.67047" lon="-2.0879">
        <ele>4.94</ele>
        <time>2013-10-13T07:29:02Z</time>
      </trkpt>
      <trkpt lat="47.67036" lon="-2.08793">
        <ele>4.94</ele>
        <time>2013-10-13T07:29:04Z</time>
      </trkpt>
      <trkpt lat="47.67024" lon="-2.08796">
        <ele>5.42</ele>
        <time>2013-10-13T07:29:07Z</time>
      </trkpt>
      <trkpt lat="47.67023" lon="-2.08787">
        <ele>6.39</ele>
        <time>2013-10-13T07:29:11Z</time>
      </trkpt>
      <trkpt lat="47.67035" lon="-2.08783">
        <ele>5.91</ele>
        <time>2013-10-13T07:29:15Z</time>
      </trkpt>
      <trkpt lat="47.67044" lon="-2.0878">
        <ele>5.42</ele>
        <time>2013-10-13T07:29:17Z</time>
      </trkpt>
      <trkpt lat="47.67059" lon="-2.08774">
        <ele>5.91</ele>
        <time>2013-10-13T07:29:20Z</time>
      </trkpt>
      <trkpt lat="47.6707" lon="-2.08772">
        <ele>6.39</ele>
        <time>2013-10-13T07:29:22Z</time>
      </trkpt>
      <trkpt lat="47.6708" lon="-2.0877">
        <ele>6.87</ele>
        <time>2013-10-13T07:29:24Z</time>
      </trkpt>
      <trkpt lat="47.67091" lon="-2.0877">
        <ele>7.35</ele>
        <time>2013-10-13T07:29:26Z</time>
      </trkpt>
      <trkpt lat="47.67101" lon="-2.08768">
        <ele>7.83</ele>
        <time>2013-10-13T07:29:28Z</time>
      </trkpt>
      <trkpt lat="47.67111" lon="-2.08767">
        <ele>8.31</ele>
        <time>2013-10-13T07:29:30Z</time>
      </trkpt>
      <trkpt lat="47.67124" lon="-2.08765">
        <ele>8.79</ele>
        <time>2013-10-13T07:29:33Z</time>
      </trkpt>
      <trkpt lat="47.67123" lon="-2.08752">
        <ele>9.27</ele>
        <time>2013-10-13T07:29:36Z</time>
      </trkpt>
      <trkpt lat="47.67111" lon="-2.08745">
        <ele>9.75</ele>
        <time>2013-10-13T07:29:39Z</time>
      </trkpt>
      <trkpt lat="47.67102" lon="-2.0874">
        <ele>9.75</ele>
        <time>2013-10-13T07:29:41Z</time>
      </trkpt>
      <trkpt lat="47.67094" lon="-2.08735">
        <ele>10.71</ele>
        <time>2013-10-13T07:29:43Z</time>
      </trkpt>
      <trkpt lat="47.67082" lon="-2.08729">
        <ele>11.19</ele>
        <time>2013-10-13T07:29:46Z</time>
      </trkpt>
      <trkpt lat="47.67072" lon="-2.08722">
        <ele>12.15</ele>
        <time>2013-10-13T07:29:49Z</time>
      </trkpt>
      <trkpt lat="47.67062" lon="-2.08715">
        <ele>13.12</ele>
        <time>2013-10-13T07:29:52Z</time>
      </trkpt>
      <trkpt lat="47.67052" lon="-2.08707">
        <ele>14.08</ele>
        <time>2013-10-13T07:29:55Z</time>
      </trkpt>
      <trkpt lat="47.67043" lon="-2.08698">
        <ele>15.04</ele>
        <time>2013-10-13T07:29:58Z</time>
      </trkpt>
      <trkpt lat="47.67033" lon="-2.08698">
        <ele>15.04</ele>
        <time>2013-10-13T07:30:01Z</time>
      </trkpt>
      <trkpt lat="47.67021" lon="-2.08706">
        <ele>13.12</ele>
        <time>2013-10-13T07:30:04Z</time>
      </trkpt>
      <trkpt lat="47.67009" lon="-2.08715">
        <ele>11.19</ele>
        <time>2013-10-13T07:30:07Z</time>
      </trkpt>
      <trkpt lat="47.66998" lon="-2.08725">
        <ele>10.23</ele>
        <time>2013-10-13T07:30:10Z</time>
      </trkpt>
      <trkpt lat="47.66989" lon="-2.08732">
        <ele>9.75</ele>
        <time>2013-10-13T07:30:12Z</time>
      </trkpt>
      <trkpt lat="47.66979" lon="-2.08738">
        <ele>10.23</ele>
        <time>2013-10-13T07:30:15Z</time>
      </trkpt>
      <trkpt lat="47.66968" lon="-2.08746">
        <ele>11.19</ele>
        <time>2013-10-13T07:30:18Z</time>
      </trkpt>
      <trkpt lat="47.66958" lon="-2.08754">
        <ele>12.15</ele>
        <time>2013-10-13T07:30:21Z</time>
      </trkpt>
      <trkpt lat="47.66948" lon="-2.08764">
        <ele>12.63</ele>
        <time>2013-10-13T07:30:24Z</time>
      </trkpt>
      <trkpt lat="47.66938" lon="-2.08774">
        <ele>13.6</ele>
        <time>2013-10-13T07:30:27Z</time>
      </trkpt>
      <trkpt lat="47.66929" lon="-2.08784">
        <ele>14.08</ele>
        <time>2013-10-13T07:30:30Z</time>
      </trkpt>
      <trkpt lat="47.66919" lon="-2.08795">
        <ele>16</ele>
        <time>2013-10-13T07:30:33Z</time>
      </trkpt>
      <trkpt lat="47.66911" lon="-2.08807">
        <ele>16.48</ele>
        <time>2013-10-13T07:30:36Z</time>
      </trkpt>
      <trkpt lat="47.66902" lon="-2.08819">
        <ele>16.48</ele>
        <time>2013-10-13T07:30:39Z</time>
      </trkpt>
      <trkpt lat="47.66895" lon="-2.08829">
        <ele>16.48</ele>
        <time>2013-10-13T07:30:41Z</time>
      </trkpt>
      <trkpt lat="47.66887" lon="-2.08839">
        <ele>16.48</ele>
        <time>2013-10-13T07:30:43Z</time>
      </trkpt>
      <trkpt lat="47.6688" lon="-2.08851">
        <ele>16.96</ele>
        <time>2013-10-13T07:30:46Z</time>
      </trkpt>
      <trkpt lat="47.66869" lon="-2.08863">
        <ele>17.92</ele>
        <time>2013-10-13T07:30:49Z</time>
      </trkpt>
      <trkpt lat="47.66858" lon="-2.08874">
        <ele>17.92</ele>
        <time>2013-10-13T07:30:52Z</time>
      </trkpt>
      <trkpt lat="47.66847" lon="-2.08878">
        <ele>18.4</ele>
        <time>2013-10-13T07:30:55Z</time>
      </trkpt>
      <trkpt lat="47.66835" lon="-2.08885">
        <ele>19.84</ele>
        <time>2013-10-13T07:30:59Z</time>
      </trkpt>
      <trkpt lat="47.66824" lon="-2.08892">
        <ele>21.29</ele>
        <time>2013-10-13T07:31:03Z</time>
      </trkpt>
      <trkpt lat="47.6681" lon="-2.08896">
        <ele>24.17</ele>
        <time>2013-10-13T07:31:08Z</time>
      </trkpt>
      <trkpt lat="47.66797" lon="-2.08895">
        <ele>26.09</ele>
        <time>2013-10-13T07:31:13Z</time>
      </trkpt>
      <trkpt lat="47.66786" lon="-2.08895">
        <ele>27.05</ele>
        <time>2013-10-13T07:31:17Z</time>
      </trkpt>
      <trkpt lat="47.66776" lon="-2.08896">
        <ele>27.05</ele>
        <time>2013-10-13T07:31:21Z</time>
      </trkpt>
      <trkpt lat="47.66766" lon="-2.08898">
        <ele>27.53</ele>
        <time>2013-10-13T07:31:25Z</time>
      </trkpt>
      <trkpt lat="47.66755" lon="-2.08898">
        <ele>28.02</ele>
        <time>2013-10-13T07:31:30Z</time>
      </trkpt>
      <trkpt lat="47.66746" lon="-2.08905">
        <ele>28.5</ele>
        <time>2013-10-13T07:31:36Z</time>
      </trkpt>
      <trkpt lat="47.66736" lon="-2.08901">
        <ele>29.94</ele>
        <time>2013-10-13T07:31:43Z</time>
      </trkpt>
      <trkpt lat="47.66727" lon="-2.08895">
        <ele>32.34</ele>
        <time>2013-10-13T07:31:49Z</time>
      </trkpt>
      <trkpt lat="47.66715" lon="-2.089">
        <ele>35.71</ele>
        <time>2013-10-13T07:32:06Z</time>
      </trkpt>
      <trkpt lat="47.66706" lon="-2.08908">
        <ele>48.68</ele>
        <time>2013-10-13T07:32:35Z</time>
      </trkpt>
      <trkpt lat="47.66696" lon="-2.08921">
        <ele>52.05</ele>
        <time>2013-10-13T07:32:53Z</time>
      </trkpt>
      <trkpt lat="47.66685" lon="-2.08928">
        <ele>53.01</ele>
        <time>2013-10-13T07:33:04Z</time>
      </trkpt>
      <trkpt lat="47.66676" lon="-2.08936">
        <ele>53.97</ele>
        <time>2013-10-13T07:33:16Z</time>
      </trkpt>
      <trkpt lat="47.66666" lon="-2.08942">
        <ele>54.93</ele>
        <time>2013-10-13T07:33:21Z</time>
      </trkpt>
      <trkpt lat="47.66658" lon="-2.08947">
        <ele>54.45</ele>
        <time>2013-10-13T07:33:27Z</time>
      </trkpt>
      <trkpt lat="47.66647" lon="-2.08947">
        <ele>54.93</ele>
        <time>2013-10-13T07:33:34Z</time>
      </trkpt>
      <trkpt lat="47.66638" lon="-2.08941">
        <ele>55.41</ele>
        <time>2013-10-13T07:33:40Z</time>
      </trkpt>
      <trkpt lat="47.66629" lon="-2.08937">
        <ele>55.89</ele>
        <time>2013-10-13T07:33:46Z</time>
      </trkpt>
      <trkpt lat="47.66618" lon="-2.08932">
        <ele>56.86</ele>
        <time>2013-10-13T07:33:53Z</time>
      </trkpt>
      <trkpt lat="47.6661" lon="-2.08923">
        <ele>56.86</ele>
        <time>2013-10-13T07:33:57Z</time>
      </trkpt>
      <trkpt lat="47.666" lon="-2.08913">
        <ele>57.34</ele>
        <time>2013-10-13T07:34:02Z</time>
      </trkpt>
      <trkpt lat="47.6659" lon="-2.08905">
        <ele>58.3</ele>
        <time>2013-10-13T07:34:06Z</time>
      </trkpt>
      <trkpt lat="47.66581" lon="-2.08893">
        <ele>58.78</ele>
        <time>2013-10-13T07:34:11Z</time>
      </trkpt>
      <trkpt lat="47.66569" lon="-2.0888">
        <ele>60.22</ele>
        <time>2013-10-13T07:34:16Z</time>
      </trkpt>
      <trkpt lat="47.66558" lon="-2.08865">
        <ele>60.22</ele>
        <time>2013-10-13T07:34:20Z</time>
      </trkpt>
      <trkpt lat="47.6655" lon="-2.08851">
        <ele>60.7</ele>
        <time>2013-10-13T07:34:24Z</time>
      </trkpt>
      <trkpt lat="47.66542" lon="-2.0884">
        <ele>62.14</ele>
        <time>2013-10-13T07:34:28Z</time>
      </trkpt>
      <trkpt lat="47.66533" lon="-2.08827">
        <ele>64.07</ele>
        <time>2013-10-13T07:34:32Z</time>
      </trkpt>
      <trkpt lat="47.66525" lon="-2.08815">
        <ele>65.99</ele>
        <time>2013-10-13T07:34:36Z</time>
      </trkpt>
      <trkpt lat="47.66516" lon="-2.08803">
        <ele>67.43</ele>
        <time>2013-10-13T07:34:40Z</time>
      </trkpt>
      <trkpt lat="47.66507" lon="-2.08789">
        <ele>69.83</ele>
        <time>2013-10-13T07:34:45Z</time>
      </trkpt>
      <trkpt lat="47.66498" lon="-2.08779">
        <ele>72.24</ele>
        <time>2013-10-13T07:34:50Z</time>
      </trkpt>
      <trkpt lat="47.6649" lon="-2.08783">
        <ele>73.68</ele>
        <time>2013-10-13T07:34:55Z</time>
      </trkpt>
      <trkpt lat="47.66483" lon="-2.08795">
        <ele>73.2</ele>
        <time>2013-10-13T07:35:01Z</time>
      </trkpt>
      <trkpt lat="47.66478" lon="-2.08808">
        <ele>72.72</ele>
        <time>2013-10-13T07:35:07Z</time>
      </trkpt>
      <trkpt lat="47.66463" lon="-2.08825">
        <ele>72.24</ele>
        <time>2013-10-13T07:35:14Z</time>
      </trkpt>
      <trkpt lat="47.66452" lon="-2.08841">
        <ele>72.24</ele>
        <time>2013-10-13T07:35:21Z</time>
      </trkpt>
      <trkpt lat="47.6645" lon="-2.08858">
        <ele>71.76</ele>
        <time>2013-10-13T07:35:26Z</time>
      </trkpt>
      <trkpt lat="47.66443" lon="-2.08875">
        <ele>71.27</ele>
        <time>2013-10-13T07:35:30Z</time>
      </trkpt>
      <trkpt lat="47.66436" lon="-2.08892">
        <ele>71.76</ele>
        <time>2013-10-13T07:35:34Z</time>
      </trkpt>
      <trkpt lat="47.66424" lon="-2.08897">
        <ele>72.72</ele>
        <time>2013-10-13T07:35:38Z</time>
      </trkpt>
      <trkpt lat="47.66409" lon="-2.08906">
        <ele>72.72</ele>
        <time>2013-10-13T07:35:42Z</time>
      </trkpt>
      <trkpt lat="47.664" lon="-2.08924">
        <ele>72.72</ele>
        <time>2013-10-13T07:35:45Z</time>
      </trkpt>
      <trkpt lat="47.66386" lon="-2.08938">
        <ele>70.31</ele>
        <time>2013-10-13T07:35:47Z</time>
      </trkpt>
      <trkpt lat="47.66374" lon="-2.08951">
        <ele>69.35</ele>
        <time>2013-10-13T07:35:49Z</time>
      </trkpt>
      <trkpt lat="47.66363" lon="-2.08963">
        <ele>67.91</ele>
        <time>2013-10-13T07:35:51Z</time>
      </trkpt>
      <trkpt lat="47.6635" lon="-2.08974">
        <ele>67.43</ele>
        <time>2013-10-13T07:35:53Z</time>
      </trkpt>
      <trkpt lat="47.66338" lon="-2.08985">
        <ele>65.99</ele>
        <time>2013-10-13T07:35:55Z</time>
      </trkpt>
      <trkpt lat="47.66321" lon="-2.08993">
        <ele>64.55</ele>
        <time>2013-10-13T07:35:57Z</time>
      </trkpt>
      <trkpt lat="47.66302" lon="-2.08999">
        <ele>62.14</ele>
        <time>2013-10-13T07:35:59Z</time>
      </trkpt>
      <trkpt lat="47.66282" lon="-2.09003">
        <ele>59.26</ele>
        <time>2013-10-13T07:36:01Z</time>
      </trkpt>
      <trkpt lat="47.66263" lon="-2.09008">
        <ele>57.34</ele>
        <time>2013-10-13T07:36:03Z</time>
      </trkpt>
      <trkpt lat="47.66245" lon="-2.09012">
        <ele>54.93</ele>
        <time>2013-10-13T07:36:05Z</time>
      </trkpt>
      <trkpt lat="47.66227" lon="-2.09015">
        <ele>53.01</ele>
        <time>2013-10-13T07:36:07Z</time>
      </trkpt>
      <trkpt lat="47.66209" lon="-2.09019">
        <ele>51.57</ele>
        <time>2013-10-13T07:36:09Z</time>
      </trkpt>
      <trkpt lat="47.66192" lon="-2.09023">
        <ele>50.13</ele>
        <time>2013-10-13T07:36:11Z</time>
      </trkpt>
      <trkpt lat="47.66176" lon="-2.09026">
        <ele>49.16</ele>
        <time>2013-10-13T07:36:13Z</time>
      </trkpt>
      <trkpt lat="47.66162" lon="-2.09029">
        <ele>48.2</ele>
        <time>2013-10-13T07:36:15Z</time>
      </trkpt>
      <trkpt lat="47.6615" lon="-2.09038">
        <ele>47.24</ele>
        <time>2013-10-13T07:36:17Z</time>
      </trkpt>
      <trkpt lat="47.66139" lon="-2.09048">
        <ele>46.76</ele>
        <time>2013-10-13T07:36:19Z</time>
      </trkpt>
      <trkpt lat="47.66131" lon="-2.09056">
        <ele>46.28</ele>
        <time>2013-10-13T07:36:21Z</time>
      </trkpt>
      <trkpt lat="47.66123" lon="-2.09056">
        <ele>46.28</ele>
        <time>2013-10-13T07:36:23Z</time>
      </trkpt>
      <trkpt lat="47.6611" lon="-2.0905">
        <ele>46.28</ele>
        <time>2013-10-13T07:36:26Z</time>
      </trkpt>
      <trkpt lat="47.66098" lon="-2.09044">
        <ele>46.28</ele>
        <time>2013-10-13T07:36:29Z</time>
      </trkpt>
      <trkpt lat="47.66086" lon="-2.09039">
        <ele>45.8</ele>
        <time>2013-10-13T07:36:32Z</time>
      </trkpt>
      <trkpt lat="47.66075" lon="-2.09037">
        <ele>46.28</ele>
        <time>2013-10-13T07:36:35Z</time>
      </trkpt>
      <trkpt lat="47.66064" lon="-2.09036">
        <ele>46.76</ele>
        <time>2013-10-13T07:36:38Z</time>
      </trkpt>
      <trkpt lat="47.66053" lon="-2.09036">
        <ele>48.2</ele>
        <time>2013-10-13T07:36:41Z</time>
      </trkpt>
      <trkpt lat="47.66041" lon="-2.09034">
        <ele>48.68</ele>
        <time>2013-10-13T07:36:44Z</time>
      </trkpt>
      <trkpt lat="47.6603" lon="-2.09035">
        <ele>49.65</ele>
        <time>2013-10-13T07:36:47Z</time>
      </trkpt>
      <trkpt lat="47.66019" lon="-2.09035">
        <ele>50.13</ele>
        <time>2013-10-13T07:36:50Z</time>
      </trkpt>
      <trkpt lat="47.66009" lon="-2.09035">
        <ele>51.09</ele>
        <time>2013-10-13T07:36:53Z</time>
      </trkpt>
      <trkpt lat="47.65998" lon="-2.09034">
        <ele>52.05</ele>
        <time>2013-10-13T07:36:56Z</time>
      </trkpt>
      <trkpt lat="47.65989" lon="-2.09033">
        <ele>53.49</ele>
        <time>2013-10-13T07:36:59Z</time>
      </trkpt>
      <trkpt lat="47.65979" lon="-2.09029">
        <ele>54.93</ele>
        <time>2013-10-13T07:37:03Z</time>
      </trkpt>
      <trkpt lat="47.6597" lon="-2.09022">
        <ele>55.89</ele>
        <time>2013-10-13T07:37:07Z</time>
      </trkpt>
      <trkpt lat="47.65961" lon="-2.09014">
        <ele>57.34</ele>
        <time>2013-10-13T07:37:11Z</time>
      </trkpt>
      <trkpt lat="47.65953" lon="-2.09005">
        <ele>59.74</ele>
        <time>2013-10-13T07:37:15Z</time>
      </trkpt>
      <trkpt lat="47.65947" lon="-2.08995">
        <ele>62.14</ele>
        <time>2013-10-13T07:37:19Z</time>
      </trkpt>
      <trkpt lat="47.65939" lon="-2.08984">
        <ele>64.07</ele>
        <time>2013-10-13T07:37:24Z</time>
      </trkpt>
      <trkpt lat="47.65929" lon="-2.08977">
        <ele>65.03</ele>
        <time>2013-10-13T07:37:29Z</time>
      </trkpt>
      <trkpt lat="47.65917" lon="-2.0897">
        <ele>65.03</ele>
        <time>2013-10-13T07:37:34Z</time>
      </trkpt>
      <trkpt lat="47.65907" lon="-2.08966">
        <ele>65.51</ele>
        <time>2013-10-13T07:37:38Z</time>
      </trkpt>
      <trkpt lat="47.65898" lon="-2.0896">
        <ele>65.99</ele>
        <time>2013-10-13T07:37:42Z</time>
      </trkpt>
      <trkpt lat="47.65889" lon="-2.08955">
        <ele>66.95</ele>
        <time>2013-10-13T07:37:46Z</time>
      </trkpt>
      <trkpt lat="47.6588" lon="-2.08951">
        <ele>67.91</ele>
        <time>2013-10-13T07:37:50Z</time>
      </trkpt>
      <trkpt lat="47.65871" lon="-2.08948">
        <ele>68.39</ele>
        <time>2013-10-13T07:37:54Z</time>
      </trkpt>
      <trkpt lat="47.65861" lon="-2.08947">
        <ele>68.87</ele>
        <time>2013-10-13T07:37:58Z</time>
      </trkpt>
      <trkpt lat="47.6585" lon="-2.08945">
        <ele>69.35</ele>
        <time>2013-10-13T07:38:02Z</time>
      </trkpt>
      <trkpt lat="47.6584" lon="-2.08944">
        <ele>69.83</ele>
        <time>2013-10-13T07:38:05Z</time>
      </trkpt>
      <trkpt lat="47.6583" lon="-2.08943">
        <ele>70.31</ele>
        <time>2013-10-13T07:38:08Z</time>
      </trkpt>
      <trkpt lat="47.6582" lon="-2.08942">
        <ele>70.31</ele>
        <time>2013-10-13T07:38:11Z</time>
      </trkpt>
      <trkpt lat="47.65808" lon="-2.08944">
        <ele>70.79</ele>
        <time>2013-10-13T07:38:14Z</time>
      </trkpt>
      <trkpt lat="47.65797" lon="-2.08946">
        <ele>71.27</ele>
        <time>2013-10-13T07:38:17Z</time>
      </trkpt>
      <trkpt lat="47.65785" lon="-2.08947">
        <ele>71.27</ele>
        <time>2013-10-13T07:38:20Z</time>
      </trkpt>
      <trkpt lat="47.65773" lon="-2.0895">
        <ele>71.27</ele>
        <time>2013-10-13T07:38:23Z</time>
      </trkpt>
      <trkpt lat="47.65762" lon="-2.08954">
        <ele>71.76</ele>
        <time>2013-10-13T07:38:26Z</time>
      </trkpt>
      <trkpt lat="47.65752" lon="-2.08957">
        <ele>71.76</ele>
        <time>2013-10-13T07:38:29Z</time>
      </trkpt>
      <trkpt lat="47.65743" lon="-2.08961">
        <ele>73.2</ele>
        <time>2013-10-13T07:38:32Z</time>
      </trkpt>
      <trkpt lat="47.65742" lon="-2.08976">
        <ele>74.64</ele>
        <time>2013-10-13T07:38:35Z</time>
      </trkpt>
      <trkpt lat="47.65745" lon="-2.0899">
        <ele>75.6</ele>
        <time>2013-10-13T07:38:38Z</time>
      </trkpt>
      <trkpt lat="47.65751" lon="-2.09003">
        <ele>76.56</ele>
        <time>2013-10-13T07:38:41Z</time>
      </trkpt>
      <trkpt lat="47.65756" lon="-2.09017">
        <ele>77.04</ele>
        <time>2013-10-13T07:38:44Z</time>
      </trkpt>
      <trkpt lat="47.6576" lon="-2.09031">
        <ele>77.04</ele>
        <time>2013-10-13T07:38:47Z</time>
      </trkpt>
      <trkpt lat="47.65765" lon="-2.09044">
        <ele>77.52</ele>
        <time>2013-10-13T07:38:50Z</time>
      </trkpt>
      <trkpt lat="47.65772" lon="-2.09053">
        <ele>78</ele>
        <time>2013-10-13T07:38:53Z</time>
      </trkpt>
      <trkpt lat="47.6578" lon="-2.09059">
        <ele>77.52</ele>
        <time>2013-10-13T07:38:56Z</time>
      </trkpt>
      <trkpt lat="47.65789" lon="-2.09068">
        <ele>77.04</ele>
        <time>2013-10-13T07:38:59Z</time>
      </trkpt>
      <trkpt lat="47.65796" lon="-2.09082">
        <ele>77.04</ele>
        <time>2013-10-13T07:39:02Z</time>
      </trkpt>
      <trkpt lat="47.65803" lon="-2.09095">
        <ele>77.04</ele>
        <time>2013-10-13T07:39:05Z</time>
      </trkpt>
      <trkpt lat="47.65809" lon="-2.0911">
        <ele>76.56</ele>
        <time>2013-10-13T07:39:08Z</time>
      </trkpt>
      <trkpt lat="47.65814" lon="-2.09123">
        <ele>76.56</ele>
        <time>2013-10-13T07:39:11Z</time>
      </trkpt>
      <trkpt lat="47.65819" lon="-2.09138">
        <ele>76.56</ele>
        <time>2013-10-13T07:39:14Z</time>
      </trkpt>
      <trkpt lat="47.65824" lon="-2.09155">
        <ele>76.56</ele>
        <time>2013-10-13T07:39:17Z</time>
      </trkpt>
      <trkpt lat="47.65829" lon="-2.09173">
        <ele>76.56</ele>
        <time>2013-10-13T07:39:20Z</time>
      </trkpt>
      <trkpt lat="47.65831" lon="-2.09191">
        <ele>76.56</ele>
        <time>2013-10-13T07:39:23Z</time>
      </trkpt>
      <trkpt lat="47.65833" lon="-2.09207">
        <ele>76.56</ele>
        <time>2013-10-13T07:39:26Z</time>
      </trkpt>
      <trkpt lat="47.65835" lon="-2.09226">
        <ele>76.56</ele>
        <time>2013-10-13T07:39:29Z</time>
      </trkpt>
      <trkpt lat="47.65835" lon="-2.09247">
        <ele>76.56</ele>
        <time>2013-10-13T07:39:32Z</time>
      </trkpt>
      <trkpt lat="47.65834" lon="-2.09262">
        <ele>77.52</ele>
        <time>2013-10-13T07:39:34Z</time>
      </trkpt>
      <trkpt lat="47.65834" lon="-2.09281">
        <ele>77.52</ele>
        <time>2013-10-13T07:39:37Z</time>
      </trkpt>
      <trkpt lat="47.65831" lon="-2.09293">
        <ele>77.52</ele>
        <time>2013-10-13T07:39:40Z</time>
      </trkpt>
      <trkpt lat="47.65821" lon="-2.09299">
        <ele>78</ele>
        <time>2013-10-13T07:39:44Z</time>
      </trkpt>
      <trkpt lat="47.65814" lon="-2.09311">
        <ele>78</ele>
        <time>2013-10-13T07:39:48Z</time>
      </trkpt>
      <trkpt lat="47.65801" lon="-2.09314">
        <ele>77.52</ele>
        <time>2013-10-13T07:39:51Z</time>
      </trkpt>
      <trkpt lat="47.65789" lon="-2.09322">
        <ele>77.04</ele>
        <time>2013-10-13T07:39:54Z</time>
      </trkpt>
      <trkpt lat="47.65779" lon="-2.09334">
        <ele>76.56</ele>
        <time>2013-10-13T07:39:58Z</time>
      </trkpt>
      <trkpt lat="47.65768" lon="-2.09341">
        <ele>76.56</ele>
        <time>2013-10-13T07:40:01Z</time>
      </trkpt>
      <trkpt lat="47.65759" lon="-2.09351">
        <ele>76.56</ele>
        <time>2013-10-13T07:40:04Z</time>
      </trkpt>
      <trkpt lat="47.65753" lon="-2.09372">
        <ele>75.6</ele>
        <time>2013-10-13T07:40:07Z</time>
      </trkpt>
      <trkpt lat="47.65751" lon="-2.09387">
        <ele>75.12</ele>
        <time>2013-10-13T07:40:09Z</time>
      </trkpt>
      <trkpt lat="47.65754" lon="-2.09404">
        <ele>74.16</ele>
        <time>2013-10-13T07:40:12Z</time>
      </trkpt>
      <trkpt lat="47.65762" lon="-2.09412">
        <ele>73.68</ele>
        <time>2013-10-13T07:40:15Z</time>
      </trkpt>
      <trkpt lat="47.65762" lon="-2.09403">
        <ele>73.68</ele>
        <time>2013-10-13T07:40:19Z</time>
      </trkpt>
      <trkpt lat="47.65757" lon="-2.09388">
        <ele>74.64</ele>
        <time>2013-10-13T07:40:22Z</time>
      </trkpt>
      <trkpt lat="47.65759" lon="-2.09375">
        <ele>76.08</ele>
        <time>2013-10-13T07:40:26Z</time>
      </trkpt>
      <trkpt lat="47.65768" lon="-2.09378">
        <ele>78.97</ele>
        <time>2013-10-13T07:40:32Z</time>
      </trkpt>
      <trkpt lat="47.65778" lon="-2.09374">
        <ele>79.93</ele>
        <time>2013-10-13T07:40:37Z</time>
      </trkpt>
      <trkpt lat="47.6579" lon="-2.09369">
        <ele>80.89</ele>
        <time>2013-10-13T07:40:44Z</time>
      </trkpt>
      <trkpt lat="47.65796" lon="-2.09383">
        <ele>80.89</ele>
        <time>2013-10-13T07:40:48Z</time>
      </trkpt>
      <trkpt lat="47.65798" lon="-2.09397">
        <ele>80.89</ele>
        <time>2013-10-13T07:40:50Z</time>
      </trkpt>
      <trkpt lat="47.65798" lon="-2.09413">
        <ele>80.89</ele>
        <time>2013-10-13T07:40:52Z</time>
      </trkpt>
      <trkpt lat="47.65795" lon="-2.09429">
        <ele>79.93</ele>
        <time>2013-10-13T07:40:55Z</time>
      </trkpt>
      <trkpt lat="47.65797" lon="-2.09435">
        <ele>79.45</ele>
        <time>2013-10-13T07:41:01Z</time>
      </trkpt>
      <trkpt lat="47.65803" lon="-2.09454">
        <ele>78.48</ele>
        <time>2013-10-13T07:41:04Z</time>
      </trkpt>
      <trkpt lat="47.65808" lon="-2.09466">
        <ele>77.52</ele>
        <time>2013-10-13T07:41:06Z</time>
      </trkpt>
      <trkpt lat="47.65812" lon="-2.09479">
        <ele>77.04</ele>
        <time>2013-10-13T07:41:08Z</time>
      </trkpt>
      <trkpt lat="47.65816" lon="-2.09492">
        <ele>76.08</ele>
        <time>2013-10-13T07:41:10Z</time>
      </trkpt>
      <trkpt lat="47.65821" lon="-2.09505">
        <ele>75.12</ele>
        <time>2013-10-13T07:41:13Z</time>
      </trkpt>
      <trkpt lat="47.65826" lon="-2.09521">
        <ele>74.16</ele>
        <time>2013-10-13T07:41:15Z</time>
      </trkpt>
      <trkpt lat="47.65833" lon="-2.09539">
        <ele>72.24</ele>
        <time>2013-10-13T07:41:17Z</time>
      </trkpt>
      <trkpt lat="47.65841" lon="-2.09557">
        <ele>70.31</ele>
        <time>2013-10-13T07:41:19Z</time>
      </trkpt>
      <trkpt lat="47.65847" lon="-2.0957">
        <ele>67.43</ele>
        <time>2013-10-13T07:41:21Z</time>
      </trkpt>
      <trkpt lat="47.65849" lon="-2.09588">
        <ele>64.55</ele>
        <time>2013-10-13T07:41:23Z</time>
      </trkpt>
      <trkpt lat="47.65848" lon="-2.09609">
        <ele>62.14</ele>
        <time>2013-10-13T07:41:25Z</time>
      </trkpt>
      <trkpt lat="47.65846" lon="-2.09628">
        <ele>60.22</ele>
        <time>2013-10-13T07:41:27Z</time>
      </trkpt>
      <trkpt lat="47.65842" lon="-2.09645">
        <ele>57.82</ele>
        <time>2013-10-13T07:41:29Z</time>
      </trkpt>
      <trkpt lat="47.65839" lon="-2.09663">
        <ele>55.41</ele>
        <time>2013-10-13T07:41:31Z</time>
      </trkpt>
      <trkpt lat="47.65837" lon="-2.0968">
        <ele>52.05</ele>
        <time>2013-10-13T07:41:33Z</time>
      </trkpt>
      <trkpt lat="47.65832" lon="-2.09698">
        <ele>47.72</ele>
        <time>2013-10-13T07:41:36Z</time>
      </trkpt>
      <trkpt lat="47.65823" lon="-2.09712">
        <ele>42.92</ele>
        <time>2013-10-13T07:41:38Z</time>
      </trkpt>
      <trkpt lat="47.65813" lon="-2.09722">
        <ele>41.95</ele>
        <time>2013-10-13T07:41:40Z</time>
      </trkpt>
      <trkpt lat="47.65803" lon="-2.09732">
        <ele>41.47</ele>
        <time>2013-10-13T07:41:42Z</time>
      </trkpt>
      <trkpt lat="47.65789" lon="-2.09743">
        <ele>40.03</ele>
        <time>2013-10-13T07:41:44Z</time>
      </trkpt>
      <trkpt lat="47.65773" lon="-2.09752">
        <ele>38.11</ele>
        <time>2013-10-13T07:41:46Z</time>
      </trkpt>
      <trkpt lat="47.65757" lon="-2.09759">
        <ele>36.67</ele>
        <time>2013-10-13T07:41:48Z</time>
      </trkpt>
      <trkpt lat="47.65741" lon="-2.09763">
        <ele>35.23</ele>
        <time>2013-10-13T07:41:50Z</time>
      </trkpt>
      <trkpt lat="47.65725" lon="-2.09766">
        <ele>34.26</ele>
        <time>2013-10-13T07:41:52Z</time>
      </trkpt>
      <trkpt lat="47.6571" lon="-2.09766">
        <ele>33.3</ele>
        <time>2013-10-13T07:41:54Z</time>
      </trkpt>
      <trkpt lat="47.65694" lon="-2.09761">
        <ele>32.34</ele>
        <time>2013-10-13T07:41:56Z</time>
      </trkpt>
      <trkpt lat="47.65679" lon="-2.09755">
        <ele>31.38</ele>
        <time>2013-10-13T07:41:58Z</time>
      </trkpt>
      <trkpt lat="47.65664" lon="-2.09749">
        <ele>30.9</ele>
        <time>2013-10-13T07:42:00Z</time>
      </trkpt>
      <trkpt lat="47.6565" lon="-2.09744">
        <ele>30.42</ele>
        <time>2013-10-13T07:42:02Z</time>
      </trkpt>
      <trkpt lat="47.65636" lon="-2.0974">
        <ele>29.94</ele>
        <time>2013-10-13T07:42:04Z</time>
      </trkpt>
      <trkpt lat="47.65622" lon="-2.09737">
        <ele>29.46</ele>
        <time>2013-10-13T07:42:06Z</time>
      </trkpt>
      <trkpt lat="47.65609" lon="-2.09731">
        <ele>28.98</ele>
        <time>2013-10-13T07:42:08Z</time>
      </trkpt>
      <trkpt lat="47.65597" lon="-2.09725">
        <ele>28.5</ele>
        <time>2013-10-13T07:42:10Z</time>
      </trkpt>
      <trkpt lat="47.65585" lon="-2.09715">
        <ele>28.02</ele>
        <time>2013-10-13T07:42:12Z</time>
      </trkpt>
      <trkpt lat="47.65573" lon="-2.09706">
        <ele>27.05</ele>
        <time>2013-10-13T07:42:14Z</time>
      </trkpt>
      <trkpt lat="47.6556" lon="-2.09701">
        <ele>26.09</ele>
        <time>2013-10-13T07:42:16Z</time>
      </trkpt>
      <trkpt lat="47.65546" lon="-2.09698">
        <ele>25.13</ele>
        <time>2013-10-13T07:42:18Z</time>
      </trkpt>
      <trkpt lat="47.65531" lon="-2.09697">
        <ele>24.17</ele>
        <time>2013-10-13T07:42:20Z</time>
      </trkpt>
      <trkpt lat="47.6552" lon="-2.09703">
        <ele>23.21</ele>
        <time>2013-10-13T07:42:22Z</time>
      </trkpt>
      <trkpt lat="47.65515" lon="-2.09717">
        <ele>22.25</ele>
        <time>2013-10-13T07:42:24Z</time>
      </trkpt>
      <trkpt lat="47.65516" lon="-2.09734">
        <ele>21.29</ele>
        <time>2013-10-13T07:42:26Z</time>
      </trkpt>
      <trkpt lat="47.65518" lon="-2.09752">
        <ele>20.32</ele>
        <time>2013-10-13T07:42:28Z</time>
      </trkpt>
      <trkpt lat="47.6552" lon="-2.09771">
        <ele>19.84</ele>
        <time>2013-10-13T07:42:30Z</time>
      </trkpt>
      <trkpt lat="47.65521" lon="-2.0979">
        <ele>19.36</ele>
        <time>2013-10-13T07:42:32Z</time>
      </trkpt>
      <trkpt lat="47.65523" lon="-2.09809">
        <ele>18.88</ele>
        <time>2013-10-13T07:42:34Z</time>
      </trkpt>
      <trkpt lat="47.65527" lon="-2.09827">
        <ele>17.92</ele>
        <time>2013-10-13T07:42:36Z</time>
      </trkpt>
      <trkpt lat="47.65534" lon="-2.09843">
        <ele>16.96</ele>
        <time>2013-10-13T07:42:38Z</time>
      </trkpt>
      <trkpt lat="47.65541" lon="-2.09858">
        <ele>16.96</ele>
        <time>2013-10-13T07:42:40Z</time>
      </trkpt>
      <trkpt lat="47.65542" lon="-2.09875">
        <ele>16.48</ele>
        <time>2013-10-13T07:42:42Z</time>
      </trkpt>
      <trkpt lat="47.65538" lon="-2.09894">
        <ele>16</ele>
        <time>2013-10-13T07:42:44Z</time>
      </trkpt>
      <trkpt lat="47.65534" lon="-2.09915">
        <ele>14.56</ele>
        <time>2013-10-13T07:42:46Z</time>
      </trkpt>
      <trkpt lat="47.65532" lon="-2.09939">
        <ele>13.12</ele>
        <time>2013-10-13T07:42:48Z</time>
      </trkpt>
      <trkpt lat="47.65528" lon="-2.09963">
        <ele>11.67</ele>
        <time>2013-10-13T07:42:50Z</time>
      </trkpt>
      <trkpt lat="47.65523" lon="-2.09988">
        <ele>10.23</ele>
        <time>2013-10-13T07:42:52Z</time>
      </trkpt>
      <trkpt lat="47.65519" lon="-2.10012">
        <ele>8.79</ele>
        <time>2013-10-13T07:42:54Z</time>
      </trkpt>
      <trkpt lat="47.65516" lon="-2.10038">
        <ele>7.35</ele>
        <time>2013-10-13T07:42:56Z</time>
      </trkpt>
      <trkpt lat="47.65515" lon="-2.10064">
        <ele>5.91</ele>
        <time>2013-10-13T07:42:58Z</time>
      </trkpt>
      <trkpt lat="47.65521" lon="-2.10086">
        <ele>4.94</ele>
        <time>2013-10-13T07:43:00Z</time>
      </trkpt>
      <trkpt lat="47.65532" lon="-2.10104">
        <ele>3.98</ele>
        <time>2013-10-13T07:43:02Z</time>
      </trkpt>
      <trkpt lat="47.65542" lon="-2.10117">
        <ele>3.02</ele>
        <time>2013-10-13T07:43:04Z</time>
      </trkpt>
      <trkpt lat="47.6555" lon="-2.1013">
        <ele>2.06</ele>
        <time>2013-10-13T07:43:07Z</time>
      </trkpt>
      <trkpt lat="47.65544" lon="-2.10141">
        <ele>-0.34</ele>
        <time>2013-10-13T07:43:13Z</time>
      </trkpt>
      <trkpt lat="47.65532" lon="-2.10138">
        <ele>-0.82</ele>
        <time>2013-10-13T07:43:16Z</time>
      </trkpt>
      <trkpt lat="47.6552" lon="-2.10129">
        <ele>-0.34</ele>
        <time>2013-10-13T07:43:19Z</time>
      </trkpt>
      <trkpt lat="47.65505" lon="-2.10126">
        <ele>0.62</ele>
        <time>2013-10-13T07:43:22Z</time>
      </trkpt>
      <trkpt lat="47.65491" lon="-2.10123">
        <ele>1.58</ele>
        <time>2013-10-13T07:43:25Z</time>
      </trkpt>
      <trkpt lat="47.65477" lon="-2.1012">
        <ele>2.54</ele>
        <time>2013-10-13T07:43:28Z</time>
      </trkpt>
      <trkpt lat="47.65464" lon="-2.10116">
        <ele>2.54</ele>
        <time>2013-10-13T07:43:31Z</time>
      </trkpt>
      <trkpt lat="47.65453" lon="-2.1011">
        <ele>2.06</ele>
        <time>2013-10-13T07:43:34Z</time>
      </trkpt>
      <trkpt lat="47.65444" lon="-2.10106">
        <ele>1.1</ele>
        <time>2013-10-13T07:43:36Z</time>
      </trkpt>
      <trkpt lat="47.65434" lon="-2.10102">
        <ele>0.14</ele>
        <time>2013-10-13T07:43:38Z</time>
      </trkpt>
      <trkpt lat="47.65425" lon="-2.10098">
        <ele>0.14</ele>
        <time>2013-10-13T07:43:40Z</time>
      </trkpt>
      <trkpt lat="47.65415" lon="-2.10093">
        <ele>-0.34</ele>
        <time>2013-10-13T07:43:42Z</time>
      </trkpt>
      <trkpt lat="47.65406" lon="-2.10087">
        <ele>-0.34</ele>
        <time>2013-10-13T07:43:44Z</time>
      </trkpt>
      <trkpt lat="47.65397" lon="-2.1008">
        <ele>-0.82</ele>
        <time>2013-10-13T07:43:46Z</time>
      </trkpt>
      <trkpt lat="47.65388" lon="-2.10072">
        <ele>-0.82</ele>
        <time>2013-10-13T07:43:48Z</time>
      </trkpt>
      <trkpt lat="47.6538" lon="-2.10064">
        <ele>-0.82</ele>
        <time>2013-10-13T07:43:50Z</time>
      </trkpt>
      <trkpt lat="47.65372" lon="-2.10056">
        <ele>-0.82</ele>
        <time>2013-10-13T07:43:52Z</time>
      </trkpt>
      <trkpt lat="47.65361" lon="-2.10043">
        <ele>0.14</ele>
        <time>2013-10-13T07:43:55Z</time>
      </trkpt>
      <trkpt lat="47.65351" lon="-2.10029">
        <ele>1.1</ele>
        <time>2013-10-13T07:43:58Z</time>
      </trkpt>
      <trkpt lat="47.65344" lon="-2.10018">
        <ele>2.06</ele>
        <time>2013-10-13T07:44:00Z</time>
      </trkpt>
      <trkpt lat="47.65335" lon="-2.10006">
        <ele>3.98</ele>
        <time>2013-10-13T07:44:02Z</time>
      </trkpt>
      <trkpt lat="47.65324" lon="-2.0999">
        <ele>5.42</ele>
        <time>2013-10-13T07:44:05Z</time>
      </trkpt>
      <trkpt lat="47.65317" lon="-2.09978">
        <ele>6.39</ele>
        <time>2013-10-13T07:44:07Z</time>
      </trkpt>
      <trkpt lat="47.65309" lon="-2.09966">
        <ele>7.83</ele>
        <time>2013-10-13T07:44:09Z</time>
      </trkpt>
      <trkpt lat="47.65302" lon="-2.09952">
        <ele>9.27</ele>
        <time>2013-10-13T07:44:11Z</time>
      </trkpt>
      <trkpt lat="47.65297" lon="-2.09939">
        <ele>9.75</ele>
        <time>2013-10-13T07:44:13Z</time>
      </trkpt>
      <trkpt lat="47.65292" lon="-2.09923">
        <ele>11.19</ele>
        <time>2013-10-13T07:44:16Z</time>
      </trkpt>
      <trkpt lat="47.6529" lon="-2.09907">
        <ele>13.12</ele>
        <time>2013-10-13T07:44:21Z</time>
      </trkpt>
      <trkpt lat="47.65286" lon="-2.09893">
        <ele>13.12</ele>
        <time>2013-10-13T07:44:24Z</time>
      </trkpt>
      <trkpt lat="47.65283" lon="-2.09877">
        <ele>13.6</ele>
        <time>2013-10-13T07:44:27Z</time>
      </trkpt>
      <trkpt lat="47.65277" lon="-2.09858">
        <ele>14.56</ele>
        <time>2013-10-13T07:44:30Z</time>
      </trkpt>
      <trkpt lat="47.65272" lon="-2.09842">
        <ele>15.52</ele>
        <time>2013-10-13T07:44:33Z</time>
      </trkpt>
      <trkpt lat="47.65262" lon="-2.09832">
        <ele>16.48</ele>
        <time>2013-10-13T07:44:37Z</time>
      </trkpt>
      <trkpt lat="47.6525" lon="-2.09837">
        <ele>16</ele>
        <time>2013-10-13T07:44:40Z</time>
      </trkpt>
      <trkpt lat="47.65241" lon="-2.09841">
        <ele>15.04</ele>
        <time>2013-10-13T07:44:42Z</time>
      </trkpt>
      <trkpt lat="47.65231" lon="-2.09845">
        <ele>14.08</ele>
        <time>2013-10-13T07:44:44Z</time>
      </trkpt>
      <trkpt lat="47.65225" lon="-2.09853">
        <ele>13.12</ele>
        <time>2013-10-13T07:44:47Z</time>
      </trkpt>
      <trkpt lat="47.65229" lon="-2.09867">
        <ele>12.15</ele>
        <time>2013-10-13T07:44:51Z</time>
      </trkpt>
      <trkpt lat="47.65233" lon="-2.09883">
        <ele>11.19</ele>
        <time>2013-10-13T07:44:55Z</time>
      </trkpt>
      <trkpt lat="47.65239" lon="-2.09899">
        <ele>11.67</ele>
        <time>2013-10-13T07:44:58Z</time>
      </trkpt>
      <trkpt lat="47.65246" lon="-2.09915">
        <ele>11.67</ele>
        <time>2013-10-13T07:45:01Z</time>
      </trkpt>
      <trkpt lat="47.6525" lon="-2.09928">
        <ele>11.67</ele>
        <time>2013-10-13T07:45:03Z</time>
      </trkpt>
      <trkpt lat="47.65255" lon="-2.0994">
        <ele>11.19</ele>
        <time>2013-10-13T07:45:05Z</time>
      </trkpt>
      <trkpt lat="47.65261" lon="-2.09953">
        <ele>11.67</ele>
        <time>2013-10-13T07:45:07Z</time>
      </trkpt>
      <trkpt lat="47.65267" lon="-2.09966">
        <ele>11.67</ele>
        <time>2013-10-13T07:45:09Z</time>
      </trkpt>
      <trkpt lat="47.65274" lon="-2.0998">
        <ele>12.15</ele>
        <time>2013-10-13T07:45:11Z</time>
      </trkpt>
      <trkpt lat="47.65281" lon="-2.09993">
        <ele>11.67</ele>
        <time>2013-10-13T07:45:13Z</time>
      </trkpt>
      <trkpt lat="47.65288" lon="-2.10007">
        <ele>12.15</ele>
        <time>2013-10-13T07:45:15Z</time>
      </trkpt>
      <trkpt lat="47.65296" lon="-2.1002">
        <ele>12.15</ele>
        <time>2013-10-13T07:45:17Z</time>
      </trkpt>
      <trkpt lat="47.65305" lon="-2.10033">
        <ele>12.15</ele>
        <time>2013-10-13T07:45:19Z</time>
      </trkpt>
      <trkpt lat="47.65314" lon="-2.10046">
        <ele>12.15</ele>
        <time>2013-10-13T07:45:21Z</time>
      </trkpt>
      <trkpt lat="47.65323" lon="-2.10059">
        <ele>12.15</ele>
        <time>2013-10-13T07:45:23Z</time>
      </trkpt>
      <trkpt lat="47.65332" lon="-2.10071">
        <ele>12.15</ele>
        <time>2013-10-13T07:45:25Z</time>
      </trkpt>
      <trkpt lat="47.65342" lon="-2.10083">
        <ele>12.15</ele>
        <time>2013-10-13T07:45:27Z</time>
      </trkpt>
      <trkpt lat="47.65352" lon="-2.10094">
        <ele>12.15</ele>
        <time>2013-10-13T07:45:29Z</time>
      </trkpt>
      <trkpt lat="47.65362" lon="-2.10104">
        <ele>12.15</ele>
        <time>2013-10-13T07:45:31Z</time>
      </trkpt>
      <trkpt lat="47.65372" lon="-2.10114">
        <ele>12.15</ele>
        <time>2013-10-13T07:45:33Z</time>
      </trkpt>
      <trkpt lat="47.6538" lon="-2.10125">
        <ele>12.15</ele>
        <time>2013-10-13T07:45:35Z</time>
      </trkpt>
      <trkpt lat="47.65381" lon="-2.10144">
        <ele>11.67</ele>
        <time>2013-10-13T07:45:38Z</time>
      </trkpt>
      <trkpt lat="47.65368" lon="-2.1015">
        <ele>11.19</ele>
        <time>2013-10-13T07:45:41Z</time>
      </trkpt>
      <trkpt lat="47.65357" lon="-2.10148">
        <ele>11.19</ele>
        <time>2013-10-13T07:45:43Z</time>
      </trkpt>
      <trkpt lat="47.65345" lon="-2.10146">
        <ele>10.23</ele>
        <time>2013-10-13T07:45:45Z</time>
      </trkpt>
      <trkpt lat="47.65332" lon="-2.10143">
        <ele>9.75</ele>
        <time>2013-10-13T07:45:47Z</time>
      </trkpt>
      <trkpt lat="47.65319" lon="-2.1014">
        <ele>9.27</ele>
        <time>2013-10-13T07:45:49Z</time>
      </trkpt>
      <trkpt lat="47.65306" lon="-2.10137">
        <ele>8.79</ele>
        <time>2013-10-13T07:45:51Z</time>
      </trkpt>
      <trkpt lat="47.65294" lon="-2.10134">
        <ele>8.79</ele>
        <time>2013-10-13T07:45:53Z</time>
      </trkpt>
      <trkpt lat="47.65282" lon="-2.1013">
        <ele>8.31</ele>
        <time>2013-10-13T07:45:55Z</time>
      </trkpt>
      <trkpt lat="47.6527" lon="-2.10128">
        <ele>7.83</ele>
        <time>2013-10-13T07:45:57Z</time>
      </trkpt>
      <trkpt lat="47.65259" lon="-2.10126">
        <ele>7.35</ele>
        <time>2013-10-13T07:45:59Z</time>
      </trkpt>
      <trkpt lat="47.65248" lon="-2.10123">
        <ele>7.35</ele>
        <time>2013-10-13T07:46:01Z</time>
      </trkpt>
      <trkpt lat="47.65237" lon="-2.10121">
        <ele>7.35</ele>
        <time>2013-10-13T07:46:03Z</time>
      </trkpt>
      <trkpt lat="47.65225" lon="-2.10118">
        <ele>6.87</ele>
        <time>2013-10-13T07:46:05Z</time>
      </trkpt>
      <trkpt lat="47.65213" lon="-2.10115">
        <ele>7.35</ele>
        <time>2013-10-13T07:46:07Z</time>
      </trkpt>
      <trkpt lat="47.65202" lon="-2.10113">
        <ele>7.83</ele>
        <time>2013-10-13T07:46:09Z</time>
      </trkpt>
      <trkpt lat="47.65192" lon="-2.10111">
        <ele>8.31</ele>
        <time>2013-10-13T07:46:11Z</time>
      </trkpt>
      <trkpt lat="47.6518" lon="-2.10109">
        <ele>8.31</ele>
        <time>2013-10-13T07:46:13Z</time>
      </trkpt>
      <trkpt lat="47.65168" lon="-2.10107">
        <ele>7.83</ele>
        <time>2013-10-13T07:46:15Z</time>
      </trkpt>
      <trkpt lat="47.65155" lon="-2.10104">
        <ele>7.35</ele>
        <time>2013-10-13T07:46:17Z</time>
      </trkpt>
      <trkpt lat="47.65143" lon="-2.10101">
        <ele>7.35</ele>
        <time>2013-10-13T07:46:19Z</time>
      </trkpt>
      <trkpt lat="47.6513" lon="-2.10098">
        <ele>7.35</ele>
        <time>2013-10-13T07:46:21Z</time>
      </trkpt>
      <trkpt lat="47.65118" lon="-2.10096">
        <ele>7.35</ele>
        <time>2013-10-13T07:46:23Z</time>
      </trkpt>
      <trkpt lat="47.65105" lon="-2.10092">
        <ele>7.83</ele>
        <time>2013-10-13T07:46:25Z</time>
      </trkpt>
      <trkpt lat="47.65092" lon="-2.10089">
        <ele>7.83</ele>
        <time>2013-10-13T07:46:27Z</time>
      </trkpt>
      <trkpt lat="47.6508" lon="-2.10086">
        <ele>7.83</ele>
        <time>2013-10-13T07:46:29Z</time>
      </trkpt>
      <trkpt lat="47.65068" lon="-2.10082">
        <ele>7.83</ele>
        <time>2013-10-13T07:46:31Z</time>
      </trkpt>
      <trkpt lat="47.65057" lon="-2.1008">
        <ele>7.35</ele>
        <time>2013-10-13T07:46:33Z</time>
      </trkpt>
      <trkpt lat="47.65045" lon="-2.10077">
        <ele>7.35</ele>
        <time>2013-10-13T07:46:35Z</time>
      </trkpt>
      <trkpt lat="47.65033" lon="-2.10074">
        <ele>7.35</ele>
        <time>2013-10-13T07:46:37Z</time>
      </trkpt>
      <trkpt lat="47.65022" lon="-2.10072">
        <ele>7.35</ele>
        <time>2013-10-13T07:46:39Z</time>
      </trkpt>
      <trkpt lat="47.6501" lon="-2.1007">
        <ele>7.35</ele>
        <time>2013-10-13T07:46:41Z</time>
      </trkpt>
      <trkpt lat="47.64998" lon="-2.10068">
        <ele>7.35</ele>
        <time>2013-10-13T07:46:43Z</time>
      </trkpt>
      <trkpt lat="47.64986" lon="-2.10065">
        <ele>6.87</ele>
        <time>2013-10-13T07:46:45Z</time>
      </trkpt>
      <trkpt lat="47.64975" lon="-2.10062">
        <ele>6.87</ele>
        <time>2013-10-13T07:46:47Z</time>
      </trkpt>
      <trkpt lat="47.64964" lon="-2.1006">
        <ele>6.87</ele>
        <time>2013-10-13T07:46:49Z</time>
      </trkpt>
      <trkpt lat="47.64954" lon="-2.10058">
        <ele>6.87</ele>
        <time>2013-10-13T07:46:51Z</time>
      </trkpt>
      <trkpt lat="47.64943" lon="-2.10055">
        <ele>6.87</ele>
        <time>2013-10-13T07:46:53Z</time>
      </trkpt>
      <trkpt lat="47.64932" lon="-2.10051">
        <ele>6.39</ele>
        <time>2013-10-13T07:46:55Z</time>
      </trkpt>
      <trkpt lat="47.64921" lon="-2.10046">
        <ele>5.91</ele>
        <time>2013-10-13T07:46:57Z</time>
      </trkpt>
      <trkpt lat="47.6491" lon="-2.10038">
        <ele>5.91</ele>
        <time>2013-10-13T07:46:59Z</time>
      </trkpt>
      <trkpt lat="47.649" lon="-2.1003">
        <ele>5.91</ele>
        <time>2013-10-13T07:47:01Z</time>
      </trkpt>
      <trkpt lat="47.6489" lon="-2.1002">
        <ele>5.91</ele>
        <time>2013-10-13T07:47:03Z</time>
      </trkpt>
      <trkpt lat="47.64881" lon="-2.10008">
        <ele>5.91</ele>
        <time>2013-10-13T07:47:05Z</time>
      </trkpt>
      <trkpt lat="47.64874" lon="-2.09996">
        <ele>5.42</ele>
        <time>2013-10-13T07:47:07Z</time>
      </trkpt>
      <trkpt lat="47.64866" lon="-2.09987">
        <ele>5.91</ele>
        <time>2013-10-13T07:47:09Z</time>
      </trkpt>
      <trkpt lat="47.64857" lon="-2.09985">
        <ele>5.91</ele>
        <time>2013-10-13T07:47:11Z</time>
      </trkpt>
      <trkpt lat="47.64846" lon="-2.09988">
        <ele>5.91</ele>
        <time>2013-10-13T07:47:13Z</time>
      </trkpt>
      <trkpt lat="47.64836" lon="-2.09994">
        <ele>5.91</ele>
        <time>2013-10-13T07:47:15Z</time>
      </trkpt>
      <trkpt lat="47.64826" lon="-2.09997">
        <ele>5.91</ele>
        <time>2013-10-13T07:47:17Z</time>
      </trkpt>
      <trkpt lat="47.64815" lon="-2.1">
        <ele>5.91</ele>
        <time>2013-10-13T07:47:19Z</time>
      </trkpt>
      <trkpt lat="47.64804" lon="-2.10003">
        <ele>5.91</ele>
        <time>2013-10-13T07:47:21Z</time>
      </trkpt>
      <trkpt lat="47.64793" lon="-2.10005">
        <ele>5.91</ele>
        <time>2013-10-13T07:47:23Z</time>
      </trkpt>
      <trkpt lat="47.64781" lon="-2.10009">
        <ele>5.91</ele>
        <time>2013-10-13T07:47:25Z</time>
      </trkpt>
      <trkpt lat="47.6477" lon="-2.10011">
        <ele>5.91</ele>
        <time>2013-10-13T07:47:27Z</time>
      </trkpt>
      <trkpt lat="47.64758" lon="-2.10013">
        <ele>5.91</ele>
        <time>2013-10-13T07:47:29Z</time>
      </trkpt>
      <trkpt lat="47.64747" lon="-2.10015">
        <ele>5.91</ele>
        <time>2013-10-13T07:47:31Z</time>
      </trkpt>
      <trkpt lat="47.64736" lon="-2.10017">
        <ele>5.91</ele>
        <time>2013-10-13T07:47:33Z</time>
      </trkpt>
      <trkpt lat="47.64725" lon="-2.10019">
        <ele>5.91</ele>
        <time>2013-10-13T07:47:35Z</time>
      </trkpt>
      <trkpt lat="47.64713" lon="-2.10022">
        <ele>5.91</ele>
        <time>2013-10-13T07:47:37Z</time>
      </trkpt>
      <trkpt lat="47.64701" lon="-2.10024">
        <ele>5.91</ele>
        <time>2013-10-13T07:47:39Z</time>
      </trkpt>
      <trkpt lat="47.6469" lon="-2.10026">
        <ele>5.91</ele>
        <time>2013-10-13T07:47:41Z</time>
      </trkpt>
      <trkpt lat="47.64678" lon="-2.10028">
        <ele>5.91</ele>
        <time>2013-10-13T07:47:43Z</time>
      </trkpt>
      <trkpt lat="47.64667" lon="-2.10028">
        <ele>5.91</ele>
        <time>2013-10-13T07:47:45Z</time>
      </trkpt>
      <trkpt lat="47.64655" lon="-2.10028">
        <ele>5.91</ele>
        <time>2013-10-13T07:47:47Z</time>
      </trkpt>
      <trkpt lat="47.64643" lon="-2.10027">
        <ele>5.42</ele>
        <time>2013-10-13T07:47:49Z</time>
      </trkpt>
      <trkpt lat="47.64631" lon="-2.10025">
        <ele>5.42</ele>
        <time>2013-10-13T07:47:51Z</time>
      </trkpt>
      <trkpt lat="47.64619" lon="-2.10021">
        <ele>5.42</ele>
        <time>2013-10-13T07:47:53Z</time>
      </trkpt>
      <trkpt lat="47.64608" lon="-2.10016">
        <ele>5.42</ele>
        <time>2013-10-13T07:47:55Z</time>
      </trkpt>
      <trkpt lat="47.64598" lon="-2.10008">
        <ele>4.94</ele>
        <time>2013-10-13T07:47:57Z</time>
      </trkpt>
      <trkpt lat="47.6459" lon="-2.09998">
        <ele>4.94</ele>
        <time>2013-10-13T07:47:59Z</time>
      </trkpt>
      <trkpt lat="47.64581" lon="-2.09995">
        <ele>4.94</ele>
        <time>2013-10-13T07:48:01Z</time>
      </trkpt>
      <trkpt lat="47.64571" lon="-2.1">
        <ele>4.46</ele>
        <time>2013-10-13T07:48:03Z</time>
      </trkpt>
      <trkpt lat="47.64561" lon="-2.10007">
        <ele>4.46</ele>
        <time>2013-10-13T07:48:05Z</time>
      </trkpt>
      <trkpt lat="47.64551" lon="-2.10012">
        <ele>4.46</ele>
        <time>2013-10-13T07:48:07Z</time>
      </trkpt>
      <trkpt lat="47.64542" lon="-2.10018">
        <ele>4.46</ele>
        <time>2013-10-13T07:48:09Z</time>
      </trkpt>
      <trkpt lat="47.64533" lon="-2.10023">
        <ele>3.98</ele>
        <time>2013-10-13T07:48:11Z</time>
      </trkpt>
      <trkpt lat="47.64522" lon="-2.10023">
        <ele>3.98</ele>
        <time>2013-10-13T07:48:13Z</time>
      </trkpt>
      <trkpt lat="47.64512" lon="-2.10018">
        <ele>3.5</ele>
        <time>2013-10-13T07:48:15Z</time>
      </trkpt>
      <trkpt lat="47.64502" lon="-2.10012">
        <ele>3.5</ele>
        <time>2013-10-13T07:48:17Z</time>
      </trkpt>
      <trkpt lat="47.64492" lon="-2.10007">
        <ele>3.98</ele>
        <time>2013-10-13T07:48:19Z</time>
      </trkpt>
      <trkpt lat="47.64482" lon="-2.10001">
        <ele>3.5</ele>
        <time>2013-10-13T07:48:21Z</time>
      </trkpt>
      <trkpt lat="47.64472" lon="-2.09996">
        <ele>3.5</ele>
        <time>2013-10-13T07:48:23Z</time>
      </trkpt>
      <trkpt lat="47.64462" lon="-2.09991">
        <ele>3.5</ele>
        <time>2013-10-13T07:48:25Z</time>
      </trkpt>
      <trkpt lat="47.64452" lon="-2.09985">
        <ele>3.98</ele>
        <time>2013-10-13T07:48:27Z</time>
      </trkpt>
      <trkpt lat="47.64441" lon="-2.0998">
        <ele>3.98</ele>
        <time>2013-10-13T07:48:29Z</time>
      </trkpt>
      <trkpt lat="47.64432" lon="-2.09975">
        <ele>3.98</ele>
        <time>2013-10-13T07:48:31Z</time>
      </trkpt>
      <trkpt lat="47.64422" lon="-2.0997">
        <ele>3.98</ele>
        <time>2013-10-13T07:48:33Z</time>
      </trkpt>
      <trkpt lat="47.64412" lon="-2.09965">
        <ele>3.98</ele>
        <time>2013-10-13T07:48:35Z</time>
      </trkpt>
      <trkpt lat="47.64403" lon="-2.0996">
        <ele>4.46</ele>
        <time>2013-10-13T07:48:37Z</time>
      </trkpt>
      <trkpt lat="47.64393" lon="-2.09956">
        <ele>4.46</ele>
        <time>2013-10-13T07:48:39Z</time>
      </trkpt>
      <trkpt lat="47.64384" lon="-2.09957">
        <ele>3.98</ele>
        <time>2013-10-13T07:48:41Z</time>
      </trkpt>
      <trkpt lat="47.64379" lon="-2.09968">
        <ele>4.46</ele>
        <time>2013-10-13T07:48:43Z</time>
      </trkpt>
      <trkpt lat="47.64376" lon="-2.09982">
        <ele>3.98</ele>
        <time>2013-10-13T07:48:45Z</time>
      </trkpt>
      <trkpt lat="47.64373" lon="-2.09997">
        <ele>3.98</ele>
        <time>2013-10-13T07:48:47Z</time>
      </trkpt>
      <trkpt lat="47.64371" lon="-2.10013">
        <ele>3.5</ele>
        <time>2013-10-13T07:48:49Z</time>
      </trkpt>
      <trkpt lat="47.64368" lon="-2.10028">
        <ele>3.5</ele>
        <time>2013-10-13T07:48:51Z</time>
      </trkpt>
      <trkpt lat="47.64365" lon="-2.10043">
        <ele>3.5</ele>
        <time>2013-10-13T07:48:53Z</time>
      </trkpt>
      <trkpt lat="47.64361" lon="-2.10058">
        <ele>3.5</ele>
        <time>2013-10-13T07:48:55Z</time>
      </trkpt>
      <trkpt lat="47.64358" lon="-2.10073">
        <ele>3.5</ele>
        <time>2013-10-13T07:48:57Z</time>
      </trkpt>
      <trkpt lat="47.64355" lon="-2.10087">
        <ele>3.5</ele>
        <time>2013-10-13T07:48:59Z</time>
      </trkpt>
      <trkpt lat="47.64352" lon="-2.10102">
        <ele>3.5</ele>
        <time>2013-10-13T07:49:01Z</time>
      </trkpt>
      <trkpt lat="47.64349" lon="-2.10116">
        <ele>3.5</ele>
        <time>2013-10-13T07:49:03Z</time>
      </trkpt>
      <trkpt lat="47.64346" lon="-2.10129">
        <ele>3.5</ele>
        <time>2013-10-13T07:49:05Z</time>
      </trkpt>
      <trkpt lat="47.64344" lon="-2.10144">
        <ele>3.5</ele>
        <time>2013-10-13T07:49:07Z</time>
      </trkpt>
      <trkpt lat="47.64341" lon="-2.10159">
        <ele>3.02</ele>
        <time>2013-10-13T07:49:09Z</time>
      </trkpt>
      <trkpt lat="47.64338" lon="-2.10175">
        <ele>3.02</ele>
        <time>2013-10-13T07:49:11Z</time>
      </trkpt>
      <trkpt lat="47.64335" lon="-2.10189">
        <ele>3.02</ele>
        <time>2013-10-13T07:49:13Z</time>
      </trkpt>
      <trkpt lat="47.64332" lon="-2.10204">
        <ele>2.54</ele>
        <time>2013-10-13T07:49:15Z</time>
      </trkpt>
      <trkpt lat="47.64329" lon="-2.10218">
        <ele>3.02</ele>
        <time>2013-10-13T07:49:17Z</time>
      </trkpt>
      <trkpt lat="47.64326" lon="-2.10232">
        <ele>3.02</ele>
        <time>2013-10-13T07:49:19Z</time>
      </trkpt>
      <trkpt lat="47.64323" lon="-2.10246">
        <ele>3.02</ele>
        <time>2013-10-13T07:49:21Z</time>
      </trkpt>
      <trkpt lat="47.6432" lon="-2.1026">
        <ele>3.02</ele>
        <time>2013-10-13T07:49:23Z</time>
      </trkpt>
      <trkpt lat="47.64317" lon="-2.10274">
        <ele>3.02</ele>
        <time>2013-10-13T07:49:25Z</time>
      </trkpt>
      <trkpt lat="47.64314" lon="-2.10289">
        <ele>3.02</ele>
        <time>2013-10-13T07:49:27Z</time>
      </trkpt>
      <trkpt lat="47.64311" lon="-2.10304">
        <ele>3.02</ele>
        <time>2013-10-13T07:49:29Z</time>
      </trkpt>
      <trkpt lat="47.64308" lon="-2.10319">
        <ele>3.02</ele>
        <time>2013-10-13T07:49:31Z</time>
      </trkpt>
      <trkpt lat="47.64305" lon="-2.10335">
        <ele>3.5</ele>
        <time>2013-10-13T07:49:33Z</time>
      </trkpt>
      <trkpt lat="47.64302" lon="-2.1035">
        <ele>3.5</ele>
        <time>2013-10-13T07:49:35Z</time>
      </trkpt>
      <trkpt lat="47.643" lon="-2.10366">
        <ele>3.5</ele>
        <time>2013-10-13T07:49:37Z</time>
      </trkpt>
      <trkpt lat="47.64296" lon="-2.10382">
        <ele>3.5</ele>
        <time>2013-10-13T07:49:39Z</time>
      </trkpt>
      <trkpt lat="47.64292" lon="-2.10397">
        <ele>3.5</ele>
        <time>2013-10-13T07:49:41Z</time>
      </trkpt>
      <trkpt lat="47.64289" lon="-2.10414">
        <ele>3.5</ele>
        <time>2013-10-13T07:49:43Z</time>
      </trkpt>
      <trkpt lat="47.64286" lon="-2.1043">
        <ele>3.5</ele>
        <time>2013-10-13T07:49:45Z</time>
      </trkpt>
      <trkpt lat="47.64283" lon="-2.10446">
        <ele>3.5</ele>
        <time>2013-10-13T07:49:47Z</time>
      </trkpt>
      <trkpt lat="47.64279" lon="-2.10462">
        <ele>3.5</ele>
        <time>2013-10-13T07:49:49Z</time>
      </trkpt>
      <trkpt lat="47.64276" lon="-2.10478">
        <ele>3.5</ele>
        <time>2013-10-13T07:49:51Z</time>
      </trkpt>
      <trkpt lat="47.64274" lon="-2.10494">
        <ele>3.5</ele>
        <time>2013-10-13T07:49:53Z</time>
      </trkpt>
      <trkpt lat="47.6427" lon="-2.10509">
        <ele>3.5</ele>
        <time>2013-10-13T07:49:55Z</time>
      </trkpt>
      <trkpt lat="47.64267" lon="-2.10524">
        <ele>3.5</ele>
        <time>2013-10-13T07:49:57Z</time>
      </trkpt>
      <trkpt lat="47.64264" lon="-2.1054">
        <ele>3.02</ele>
        <time>2013-10-13T07:49:59Z</time>
      </trkpt>
      <trkpt lat="47.6426" lon="-2.10555">
        <ele>3.02</ele>
        <time>2013-10-13T07:50:01Z</time>
      </trkpt>
      <trkpt lat="47.64257" lon="-2.10571">
        <ele>3.02</ele>
        <time>2013-10-13T07:50:03Z</time>
      </trkpt>
      <trkpt lat="47.64254" lon="-2.10587">
        <ele>3.02</ele>
        <time>2013-10-13T07:50:05Z</time>
      </trkpt>
      <trkpt lat="47.64251" lon="-2.10603">
        <ele>3.02</ele>
        <time>2013-10-13T07:50:07Z</time>
      </trkpt>
      <trkpt lat="47.64248" lon="-2.10619">
        <ele>3.02</ele>
        <time>2013-10-13T07:50:09Z</time>
      </trkpt>
      <trkpt lat="47.64244" lon="-2.10636">
        <ele>3.02</ele>
        <time>2013-10-13T07:50:11Z</time>
      </trkpt>
      <trkpt lat="47.64241" lon="-2.10653">
        <ele>3.5</ele>
        <time>2013-10-13T07:50:13Z</time>
      </trkpt>
      <trkpt lat="47.64237" lon="-2.10669">
        <ele>3.5</ele>
        <time>2013-10-13T07:50:15Z</time>
      </trkpt>
      <trkpt lat="47.64234" lon="-2.10686">
        <ele>3.5</ele>
        <time>2013-10-13T07:50:17Z</time>
      </trkpt>
      <trkpt lat="47.6423" lon="-2.10702">
        <ele>3.5</ele>
        <time>2013-10-13T07:50:19Z</time>
      </trkpt>
      <trkpt lat="47.64227" lon="-2.10718">
        <ele>3.98</ele>
        <time>2013-10-13T07:50:21Z</time>
      </trkpt>
      <trkpt lat="47.64225" lon="-2.10734">
        <ele>3.98</ele>
        <time>2013-10-13T07:50:23Z</time>
      </trkpt>
      <trkpt lat="47.64223" lon="-2.10748">
        <ele>4.46</ele>
        <time>2013-10-13T07:50:25Z</time>
      </trkpt>
      <trkpt lat="47.6422" lon="-2.10761">
        <ele>4.46</ele>
        <time>2013-10-13T07:50:27Z</time>
      </trkpt>
      <trkpt lat="47.64218" lon="-2.10777">
        <ele>4.46</ele>
        <time>2013-10-13T07:50:30Z</time>
      </trkpt>
      <trkpt lat="47.64215" lon="-2.10791">
        <ele>4.46</ele>
        <time>2013-10-13T07:50:33Z</time>
      </trkpt>
      <trkpt lat="47.64212" lon="-2.10805">
        <ele>3.98</ele>
        <time>2013-10-13T07:50:36Z</time>
      </trkpt>
      <trkpt lat="47.6421" lon="-2.10821">
        <ele>3.5</ele>
        <time>2013-10-13T07:50:39Z</time>
      </trkpt>
      <trkpt lat="47.64206" lon="-2.10838">
        <ele>3.98</ele>
        <time>2013-10-13T07:50:42Z</time>
      </trkpt>
      <trkpt lat="47.64202" lon="-2.10856">
        <ele>4.46</ele>
        <time>2013-10-13T07:50:45Z</time>
      </trkpt>
      <trkpt lat="47.64198" lon="-2.10874">
        <ele>4.94</ele>
        <time>2013-10-13T07:50:48Z</time>
      </trkpt>
      <trkpt lat="47.64195" lon="-2.10889">
        <ele>3.98</ele>
        <time>2013-10-13T07:50:50Z</time>
      </trkpt>
      <trkpt lat="47.64192" lon="-2.10906">
        <ele>3.98</ele>
        <time>2013-10-13T07:50:52Z</time>
      </trkpt>
      <trkpt lat="47.64187" lon="-2.10921">
        <ele>3.5</ele>
        <time>2013-10-13T07:50:54Z</time>
      </trkpt>
      <trkpt lat="47.64177" lon="-2.10919">
        <ele>3.5</ele>
        <time>2013-10-13T07:50:57Z</time>
      </trkpt>
      <trkpt lat="47.64178" lon="-2.10898">
        <ele>3.5</ele>
        <time>2013-10-13T07:51:00Z</time>
      </trkpt>
      <trkpt lat="47.6418" lon="-2.10884">
        <ele>3.5</ele>
        <time>2013-10-13T07:51:02Z</time>
      </trkpt>
      <trkpt lat="47.64182" lon="-2.10868">
        <ele>3.02</ele>
        <time>2013-10-13T07:51:04Z</time>
      </trkpt>
      <trkpt lat="47.6418" lon="-2.10852">
        <ele>3.02</ele>
        <time>2013-10-13T07:51:06Z</time>
      </trkpt>
      <trkpt lat="47.64174" lon="-2.10839">
        <ele>3.02</ele>
        <time>2013-10-13T07:51:08Z</time>
      </trkpt>
      <trkpt lat="47.64165" lon="-2.10829">
        <ele>3.02</ele>
        <time>2013-10-13T07:51:10Z</time>
      </trkpt>
      <trkpt lat="47.64155" lon="-2.1082">
        <ele>3.5</ele>
        <time>2013-10-13T07:51:12Z</time>
      </trkpt>
      <trkpt lat="47.64145" lon="-2.10812">
        <ele>3.5</ele>
        <time>2013-10-13T07:51:14Z</time>
      </trkpt>
      <trkpt lat="47.64136" lon="-2.10803">
        <ele>3.5</ele>
        <time>2013-10-13T07:51:16Z</time>
      </trkpt>
      <trkpt lat="47.64127" lon="-2.10793">
        <ele>3.5</ele>
        <time>2013-10-13T07:51:18Z</time>
      </trkpt>
      <trkpt lat="47.64118" lon="-2.10784">
        <ele>3.5</ele>
        <time>2013-10-13T07:51:20Z</time>
      </trkpt>
      <trkpt lat="47.64109" lon="-2.10775">
        <ele>3.98</ele>
        <time>2013-10-13T07:51:22Z</time>
      </trkpt>
      <trkpt lat="47.64099" lon="-2.10766">
        <ele>3.98</ele>
        <time>2013-10-13T07:51:24Z</time>
      </trkpt>
      <trkpt lat="47.6409" lon="-2.10757">
        <ele>3.98</ele>
        <time>2013-10-13T07:51:26Z</time>
      </trkpt>
      <trkpt lat="47.6408" lon="-2.10748">
        <ele>3.98</ele>
        <time>2013-10-13T07:51:28Z</time>
      </trkpt>
      <trkpt lat="47.64071" lon="-2.1074">
        <ele>3.98</ele>
        <time>2013-10-13T07:51:30Z</time>
      </trkpt>
      <trkpt lat="47.64063" lon="-2.10731">
        <ele>3.98</ele>
        <time>2013-10-13T07:51:32Z</time>
      </trkpt>
      <trkpt lat="47.64054" lon="-2.10723">
        <ele>3.98</ele>
        <time>2013-10-13T07:51:34Z</time>
      </trkpt>
      <trkpt lat="47.64045" lon="-2.10714">
        <ele>3.98</ele>
        <time>2013-10-13T07:51:36Z</time>
      </trkpt>
      <trkpt lat="47.64036" lon="-2.10705">
        <ele>3.98</ele>
        <time>2013-10-13T07:51:38Z</time>
      </trkpt>
      <trkpt lat="47.64026" lon="-2.10696">
        <ele>3.98</ele>
        <time>2013-10-13T07:51:40Z</time>
      </trkpt>
      <trkpt lat="47.64017" lon="-2.10687">
        <ele>3.98</ele>
        <time>2013-10-13T07:51:42Z</time>
      </trkpt>
      <trkpt lat="47.64008" lon="-2.10678">
        <ele>3.98</ele>
        <time>2013-10-13T07:51:44Z</time>
      </trkpt>
      <trkpt lat="47.63999" lon="-2.10668">
        <ele>4.46</ele>
        <time>2013-10-13T07:51:46Z</time>
      </trkpt>
      <trkpt lat="47.6399" lon="-2.10658">
        <ele>4.46</ele>
        <time>2013-10-13T07:51:48Z</time>
      </trkpt>
      <trkpt lat="47.63981" lon="-2.10649">
        <ele>4.46</ele>
        <time>2013-10-13T07:51:50Z</time>
      </trkpt>
      <trkpt lat="47.63972" lon="-2.10641">
        <ele>4.46</ele>
        <time>2013-10-13T07:51:52Z</time>
      </trkpt>
      <trkpt lat="47.63963" lon="-2.10633">
        <ele>4.46</ele>
        <time>2013-10-13T07:51:54Z</time>
      </trkpt>
      <trkpt lat="47.63953" lon="-2.10624">
        <ele>3.98</ele>
        <time>2013-10-13T07:51:56Z</time>
      </trkpt>
      <trkpt lat="47.63943" lon="-2.10615">
        <ele>3.98</ele>
        <time>2013-10-13T07:51:58Z</time>
      </trkpt>
      <trkpt lat="47.63934" lon="-2.10606">
        <ele>4.46</ele>
        <time>2013-10-13T07:52:00Z</time>
      </trkpt>
      <trkpt lat="47.63925" lon="-2.10596">
        <ele>4.46</ele>
        <time>2013-10-13T07:52:02Z</time>
      </trkpt>
      <trkpt lat="47.63915" lon="-2.10587">
        <ele>4.46</ele>
        <time>2013-10-13T07:52:04Z</time>
      </trkpt>
      <trkpt lat="47.63905" lon="-2.1058">
        <ele>4.46</ele>
        <time>2013-10-13T07:52:06Z</time>
      </trkpt>
      <trkpt lat="47.63894" lon="-2.10575">
        <ele>4.94</ele>
        <time>2013-10-13T07:52:08Z</time>
      </trkpt>
      <trkpt lat="47.63883" lon="-2.1057">
        <ele>4.94</ele>
        <time>2013-10-13T07:52:10Z</time>
      </trkpt>
      <trkpt lat="47.63873" lon="-2.10564">
        <ele>4.94</ele>
        <time>2013-10-13T07:52:12Z</time>
      </trkpt>
      <trkpt lat="47.63865" lon="-2.10556">
        <ele>4.94</ele>
        <time>2013-10-13T07:52:14Z</time>
      </trkpt>
      <trkpt lat="47.63857" lon="-2.10548">
        <ele>4.94</ele>
        <time>2013-10-13T07:52:16Z</time>
      </trkpt>
      <trkpt lat="47.63848" lon="-2.10539">
        <ele>4.94</ele>
        <time>2013-10-13T07:52:18Z</time>
      </trkpt>
      <trkpt lat="47.6384" lon="-2.10528">
        <ele>4.94</ele>
        <time>2013-10-13T07:52:20Z</time>
      </trkpt>
      <trkpt lat="47.63832" lon="-2.10519">
        <ele>4.94</ele>
        <time>2013-10-13T07:52:22Z</time>
      </trkpt>
      <trkpt lat="47.63824" lon="-2.10509">
        <ele>4.94</ele>
        <time>2013-10-13T07:52:24Z</time>
      </trkpt>
      <trkpt lat="47.63816" lon="-2.10498">
        <ele>4.94</ele>
        <time>2013-10-13T07:52:26Z</time>
      </trkpt>
      <trkpt lat="47.63808" lon="-2.10488">
        <ele>4.94</ele>
        <time>2013-10-13T07:52:28Z</time>
      </trkpt>
      <trkpt lat="47.638" lon="-2.10477">
        <ele>4.94</ele>
        <time>2013-10-13T07:52:30Z</time>
      </trkpt>
      <trkpt lat="47.6379" lon="-2.10469">
        <ele>4.94</ele>
        <time>2013-10-13T07:52:32Z</time>
      </trkpt>
      <trkpt lat="47.6378" lon="-2.10465">
        <ele>4.94</ele>
        <time>2013-10-13T07:52:34Z</time>
      </trkpt>
      <trkpt lat="47.63769" lon="-2.10465">
        <ele>4.94</ele>
        <time>2013-10-13T07:52:36Z</time>
      </trkpt>
      <trkpt lat="47.63759" lon="-2.10469">
        <ele>4.94</ele>
        <time>2013-10-13T07:52:38Z</time>
      </trkpt>
      <trkpt lat="47.63749" lon="-2.10474">
        <ele>4.94</ele>
        <time>2013-10-13T07:52:40Z</time>
      </trkpt>
      <trkpt lat="47.63739" lon="-2.10479">
        <ele>4.94</ele>
        <time>2013-10-13T07:52:42Z</time>
      </trkpt>
      <trkpt lat="47.63729" lon="-2.10486">
        <ele>4.94</ele>
        <time>2013-10-13T07:52:44Z</time>
      </trkpt>
      <trkpt lat="47.6372" lon="-2.10494">
        <ele>4.94</ele>
        <time>2013-10-13T07:52:46Z</time>
      </trkpt>
      <trkpt lat="47.63711" lon="-2.10502">
        <ele>4.94</ele>
        <time>2013-10-13T07:52:48Z</time>
      </trkpt>
      <trkpt lat="47.63702" lon="-2.10509">
        <ele>4.94</ele>
        <time>2013-10-13T07:52:50Z</time>
      </trkpt>
      <trkpt lat="47.63693" lon="-2.10515">
        <ele>4.94</ele>
        <time>2013-10-13T07:52:52Z</time>
      </trkpt>
      <trkpt lat="47.63684" lon="-2.10521">
        <ele>4.94</ele>
        <time>2013-10-13T07:52:54Z</time>
      </trkpt>
      <trkpt lat="47.63674" lon="-2.10526">
        <ele>4.46</ele>
        <time>2013-10-13T07:52:56Z</time>
      </trkpt>
      <trkpt lat="47.63665" lon="-2.10531">
        <ele>4.46</ele>
        <time>2013-10-13T07:52:58Z</time>
      </trkpt>
      <trkpt lat="47.63656" lon="-2.10536">
        <ele>4.46</ele>
        <time>2013-10-13T07:53:00Z</time>
      </trkpt>
      <trkpt lat="47.6365" lon="-2.10547">
        <ele>4.94</ele>
        <time>2013-10-13T07:53:03Z</time>
      </trkpt>
      <trkpt lat="47.63649" lon="-2.10562">
        <ele>5.42</ele>
        <time>2013-10-13T07:53:06Z</time>
      </trkpt>
      <trkpt lat="47.6365" lon="-2.10579">
        <ele>5.42</ele>
        <time>2013-10-13T07:53:09Z</time>
      </trkpt>
      <trkpt lat="47.63653" lon="-2.10598">
        <ele>5.91</ele>
        <time>2013-10-13T07:53:12Z</time>
      </trkpt>
      <trkpt lat="47.63655" lon="-2.10615">
        <ele>6.39</ele>
        <time>2013-10-13T07:53:15Z</time>
      </trkpt>
      <trkpt lat="47.63657" lon="-2.10631">
        <ele>6.39</ele>
        <time>2013-10-13T07:53:18Z</time>
      </trkpt>
      <trkpt lat="47.63658" lon="-2.10647">
        <ele>6.39</ele>
        <time>2013-10-13T07:53:21Z</time>
      </trkpt>
      <trkpt lat="47.6366" lon="-2.10664">
        <ele>6.39</ele>
        <time>2013-10-13T07:53:24Z</time>
      </trkpt>
      <trkpt lat="47.63662" lon="-2.10679">
        <ele>6.39</ele>
        <time>2013-10-13T07:53:27Z</time>
      </trkpt>
      <trkpt lat="47.63664" lon="-2.10692">
        <ele>6.39</ele>
        <time>2013-10-13T07:53:30Z</time>
      </trkpt>
      <trkpt lat="47.63666" lon="-2.10708">
        <ele>6.39</ele>
        <time>2013-10-13T07:53:33Z</time>
      </trkpt>
      <trkpt lat="47.63669" lon="-2.10724">
        <ele>6.39</ele>
        <time>2013-10-13T07:53:36Z</time>
      </trkpt>
      <trkpt lat="47.63672" lon="-2.1074">
        <ele>6.39</ele>
        <time>2013-10-13T07:53:39Z</time>
      </trkpt>
      <trkpt lat="47.63674" lon="-2.10754">
        <ele>6.39</ele>
        <time>2013-10-13T07:53:42Z</time>
      </trkpt>
      <trkpt lat="47.63674" lon="-2.10769">
        <ele>6.87</ele>
        <time>2013-10-13T07:53:46Z</time>
      </trkpt>
      <trkpt lat="47.63673" lon="-2.10783">
        <ele>7.83</ele>
        <time>2013-10-13T07:53:50Z</time>
      </trkpt>
      <trkpt lat="47.63674" lon="-2.10798">
        <ele>8.79</ele>
        <time>2013-10-13T07:53:55Z</time>
      </trkpt>
      <trkpt lat="47.63672" lon="-2.10816">
        <ele>10.23</ele>
        <time>2013-10-13T07:54:01Z</time>
      </trkpt>
      <trkpt lat="47.63672" lon="-2.10832">
        <ele>12.15</ele>
        <time>2013-10-13T07:54:07Z</time>
      </trkpt>
      <trkpt lat="47.63671" lon="-2.10847">
        <ele>12.63</ele>
        <time>2013-10-13T07:54:12Z</time>
      </trkpt>
      <trkpt lat="47.63671" lon="-2.10862">
        <ele>14.08</ele>
        <time>2013-10-13T07:54:18Z</time>
      </trkpt>
      <trkpt lat="47.63671" lon="-2.10879">
        <ele>15.04</ele>
        <time>2013-10-13T07:54:24Z</time>
      </trkpt>
      <trkpt lat="47.63666" lon="-2.10896">
        <ele>13.6</ele>
        <time>2013-10-13T07:54:30Z</time>
      </trkpt>
      <trkpt lat="47.63666" lon="-2.10912">
        <ele>14.56</ele>
        <time>2013-10-13T07:54:36Z</time>
      </trkpt>
      <trkpt lat="47.63671" lon="-2.1093">
        <ele>16.48</ele>
        <time>2013-10-13T07:54:43Z</time>
      </trkpt>
      <trkpt lat="47.63677" lon="-2.10945">
        <ele>19.36</ele>
        <time>2013-10-13T07:54:50Z</time>
      </trkpt>
      <trkpt lat="47.63686" lon="-2.10959">
        <ele>23.69</ele>
        <time>2013-10-13T07:54:56Z</time>
      </trkpt>
      <trkpt lat="47.63693" lon="-2.10973">
        <ele>25.61</ele>
        <time>2013-10-13T07:55:02Z</time>
      </trkpt>
      <trkpt lat="47.637" lon="-2.1099">
        <ele>28.02</ele>
        <time>2013-10-13T07:55:08Z</time>
      </trkpt>
      <trkpt lat="47.63704" lon="-2.11006">
        <ele>27.53</ele>
        <time>2013-10-13T07:55:13Z</time>
      </trkpt>
      <trkpt lat="47.6371" lon="-2.1102">
        <ele>28.02</ele>
        <time>2013-10-13T07:55:18Z</time>
      </trkpt>
      <trkpt lat="47.63718" lon="-2.11035">
        <ele>29.46</ele>
        <time>2013-10-13T07:55:24Z</time>
      </trkpt>
      <trkpt lat="47.63729" lon="-2.11043">
        <ele>30.9</ele>
        <time>2013-10-13T07:55:29Z</time>
      </trkpt>
      <trkpt lat="47.63735" lon="-2.11058">
        <ele>31.86</ele>
        <time>2013-10-13T07:55:36Z</time>
      </trkpt>
      <trkpt lat="47.63752" lon="-2.11085">
        <ele>41.95</ele>
        <time>2013-10-13T07:56:05Z</time>
      </trkpt>
      <trkpt lat="47.63751" lon="-2.11098">
        <ele>41.47</ele>
        <time>2013-10-13T07:56:10Z</time>
      </trkpt>
      <trkpt lat="47.6374" lon="-2.111">
        <ele>45.32</ele>
        <time>2013-10-13T07:56:19Z</time>
      </trkpt>
      <trkpt lat="47.6373" lon="-2.11109">
        <ele>47.72</ele>
        <time>2013-10-13T07:56:25Z</time>
      </trkpt>
      <trkpt lat="47.63725" lon="-2.11122">
        <ele>47.24</ele>
        <time>2013-10-13T07:56:30Z</time>
      </trkpt>
      <trkpt lat="47.63726" lon="-2.11138">
        <ele>48.2</ele>
        <time>2013-10-13T07:56:36Z</time>
      </trkpt>
      <trkpt lat="47.63721" lon="-2.11154">
        <ele>49.16</ele>
        <time>2013-10-13T07:56:43Z</time>
      </trkpt>
      <trkpt lat="47.63718" lon="-2.11168">
        <ele>51.09</ele>
        <time>2013-10-13T07:56:51Z</time>
      </trkpt>
      <trkpt lat="47.63711" lon="-2.1118">
        <ele>53.97</ele>
        <time>2013-10-13T07:57:07Z</time>
      </trkpt>
      <trkpt lat="47.63703" lon="-2.11192">
        <ele>58.78</ele>
        <time>2013-10-13T07:57:21Z</time>
      </trkpt>
      <trkpt lat="47.63695" lon="-2.11202">
        <ele>65.51</ele>
        <time>2013-10-13T07:57:42Z</time>
      </trkpt>
      <trkpt lat="47.63687" lon="-2.11214">
        <ele>67.43</ele>
        <time>2013-10-13T07:57:50Z</time>
      </trkpt>
      <trkpt lat="47.6368" lon="-2.11226">
        <ele>68.39</ele>
        <time>2013-10-13T07:57:58Z</time>
      </trkpt>
      <trkpt lat="47.63671" lon="-2.11244">
        <ele>67.91</ele>
        <time>2013-10-13T07:58:09Z</time>
      </trkpt>
      <trkpt lat="47.63664" lon="-2.11263">
        <ele>67.91</ele>
        <time>2013-10-13T07:58:17Z</time>
      </trkpt>
      <trkpt lat="47.63657" lon="-2.11277">
        <ele>66.95</ele>
        <time>2013-10-13T07:58:25Z</time>
      </trkpt>
      <trkpt lat="47.63651" lon="-2.11294">
        <ele>68.87</ele>
        <time>2013-10-13T07:58:33Z</time>
      </trkpt>
      <trkpt lat="47.63646" lon="-2.11307">
        <ele>69.35</ele>
        <time>2013-10-13T07:58:41Z</time>
      </trkpt>
      <trkpt lat="47.63641" lon="-2.11306">
        <ele>69.83</ele>
        <time>2013-10-13T07:59:02Z</time>
      </trkpt>
      <trkpt lat="47.63642" lon="-2.11289">
        <ele>69.35</ele>
        <time>2013-10-13T07:59:05Z</time>
      </trkpt>
      <trkpt lat="47.63643" lon="-2.1127">
        <ele>69.83</ele>
        <time>2013-10-13T07:59:08Z</time>
      </trkpt>
      <trkpt lat="47.63641" lon="-2.11252">
        <ele>69.83</ele>
        <time>2013-10-13T07:59:12Z</time>
      </trkpt>
      <trkpt lat="47.63634" lon="-2.11235">
        <ele>69.83</ele>
        <time>2013-10-13T07:59:17Z</time>
      </trkpt>
      <trkpt lat="47.63628" lon="-2.11223">
        <ele>70.31</ele>
        <time>2013-10-13T07:59:20Z</time>
      </trkpt>
      <trkpt lat="47.6362" lon="-2.1121">
        <ele>70.31</ele>
        <time>2013-10-13T07:59:24Z</time>
      </trkpt>
      <trkpt lat="47.63611" lon="-2.11201">
        <ele>71.27</ele>
        <time>2013-10-13T07:59:32Z</time>
      </trkpt>
      <trkpt lat="47.63606" lon="-2.11185">
        <ele>75.12</ele>
        <time>2013-10-13T07:59:38Z</time>
      </trkpt>
      <trkpt lat="47.63602" lon="-2.11166">
        <ele>78.48</ele>
        <time>2013-10-13T07:59:43Z</time>
      </trkpt>
      <trkpt lat="47.63599" lon="-2.11146">
        <ele>82.81</ele>
        <time>2013-10-13T07:59:48Z</time>
      </trkpt>
      <trkpt lat="47.63594" lon="-2.11129">
        <ele>87.62</ele>
        <time>2013-10-13T07:59:53Z</time>
      </trkpt>
      <trkpt lat="47.63585" lon="-2.11114">
        <ele>90.98</ele>
        <time>2013-10-13T07:59:57Z</time>
      </trkpt>
      <trkpt lat="47.63577" lon="-2.11097">
        <ele>93.87</ele>
        <time>2013-10-13T08:00:02Z</time>
      </trkpt>
      <trkpt lat="47.63576" lon="-2.11081">
        <ele>93.39</ele>
        <time>2013-10-13T08:00:06Z</time>
      </trkpt>
      <trkpt lat="47.63575" lon="-2.11065">
        <ele>91.94</ele>
        <time>2013-10-13T08:00:09Z</time>
      </trkpt>
      <trkpt lat="47.63573" lon="-2.11047">
        <ele>91.94</ele>
        <time>2013-10-13T08:00:12Z</time>
      </trkpt>
      <trkpt lat="47.63571" lon="-2.11029">
        <ele>91.46</ele>
        <time>2013-10-13T08:00:15Z</time>
      </trkpt>
      <trkpt lat="47.63568" lon="-2.1101">
        <ele>91.46</ele>
        <time>2013-10-13T08:00:18Z</time>
      </trkpt>
      <trkpt lat="47.63565" lon="-2.10992">
        <ele>91.46</ele>
        <time>2013-10-13T08:00:21Z</time>
      </trkpt>
      <trkpt lat="47.6356" lon="-2.10976">
        <ele>90.98</ele>
        <time>2013-10-13T08:00:24Z</time>
      </trkpt>
      <trkpt lat="47.63556" lon="-2.10962">
        <ele>90.98</ele>
        <time>2013-10-13T08:00:27Z</time>
      </trkpt>
      <trkpt lat="47.63549" lon="-2.10948">
        <ele>90.02</ele>
        <time>2013-10-13T08:00:30Z</time>
      </trkpt>
      <trkpt lat="47.63548" lon="-2.10937">
        <ele>87.14</ele>
        <time>2013-10-13T08:00:33Z</time>
      </trkpt>
      <trkpt lat="47.63544" lon="-2.10925">
        <ele>84.25</ele>
        <time>2013-10-13T08:00:36Z</time>
      </trkpt>
      <trkpt lat="47.63539" lon="-2.10914">
        <ele>83.29</ele>
        <time>2013-10-13T08:00:39Z</time>
      </trkpt>
      <trkpt lat="47.63531" lon="-2.10899">
        <ele>83.29</ele>
        <time>2013-10-13T08:00:43Z</time>
      </trkpt>
      <trkpt lat="47.63527" lon="-2.10882">
        <ele>84.25</ele>
        <time>2013-10-13T08:00:47Z</time>
      </trkpt>
      <trkpt lat="47.63521" lon="-2.10869">
        <ele>83.29</ele>
        <time>2013-10-13T08:00:51Z</time>
      </trkpt>
      <trkpt lat="47.63514" lon="-2.10857">
        <ele>81.85</ele>
        <time>2013-10-13T08:00:54Z</time>
      </trkpt>
      <trkpt lat="47.63507" lon="-2.10848">
        <ele>81.85</ele>
        <time>2013-10-13T08:00:57Z</time>
      </trkpt>
      <trkpt lat="47.63497" lon="-2.10838">
        <ele>80.41</ele>
        <time>2013-10-13T08:01:01Z</time>
      </trkpt>
      <trkpt lat="47.63485" lon="-2.10829">
        <ele>79.93</ele>
        <time>2013-10-13T08:01:04Z</time>
      </trkpt>
      <trkpt lat="47.63475" lon="-2.10824">
        <ele>79.45</ele>
        <time>2013-10-13T08:01:06Z</time>
      </trkpt>
      <trkpt lat="47.63464" lon="-2.10814">
        <ele>78.97</ele>
        <time>2013-10-13T08:01:08Z</time>
      </trkpt>
      <trkpt lat="47.63457" lon="-2.10804">
        <ele>78.48</ele>
        <time>2013-10-13T08:01:10Z</time>
      </trkpt>
      <trkpt lat="47.63453" lon="-2.1079">
        <ele>78.48</ele>
        <time>2013-10-13T08:01:12Z</time>
      </trkpt>
      <trkpt lat="47.6345" lon="-2.10774">
        <ele>78.48</ele>
        <time>2013-10-13T08:01:16Z</time>
      </trkpt>
      <trkpt lat="47.63453" lon="-2.10758">
        <ele>77.52</ele>
        <time>2013-10-13T08:01:22Z</time>
      </trkpt>
      <trkpt lat="47.63457" lon="-2.10743">
        <ele>78.48</ele>
        <time>2013-10-13T08:01:25Z</time>
      </trkpt>
      <trkpt lat="47.63461" lon="-2.10724">
        <ele>79.45</ele>
        <time>2013-10-13T08:01:28Z</time>
      </trkpt>
      <trkpt lat="47.63464" lon="-2.10706">
        <ele>80.89</ele>
        <time>2013-10-13T08:01:31Z</time>
      </trkpt>
      <trkpt lat="47.63465" lon="-2.10687">
        <ele>81.37</ele>
        <time>2013-10-13T08:01:34Z</time>
      </trkpt>
      <trkpt lat="47.63465" lon="-2.10669">
        <ele>79.45</ele>
        <time>2013-10-13T08:01:37Z</time>
      </trkpt>
      <trkpt lat="47.63464" lon="-2.10653">
        <ele>78</ele>
        <time>2013-10-13T08:01:40Z</time>
      </trkpt>
      <trkpt lat="47.63464" lon="-2.10636">
        <ele>76.56</ele>
        <time>2013-10-13T08:01:44Z</time>
      </trkpt>
      <trkpt lat="47.63466" lon="-2.10622">
        <ele>74.16</ele>
        <time>2013-10-13T08:01:49Z</time>
      </trkpt>
      <trkpt lat="47.63469" lon="-2.10629">
        <ele>66.47</ele>
        <time>2013-10-13T08:08:21Z</time>
      </trkpt>
      <trkpt lat="47.63467" lon="-2.10642">
        <ele>65.51</ele>
        <time>2013-10-13T08:08:25Z</time>
      </trkpt>
      <trkpt lat="47.63465" lon="-2.10655">
        <ele>64.55</ele>
        <time>2013-10-13T08:08:27Z</time>
      </trkpt>
      <trkpt lat="47.63464" lon="-2.10669">
        <ele>64.07</ele>
        <time>2013-10-13T08:08:29Z</time>
      </trkpt>
      <trkpt lat="47.63465" lon="-2.10683">
        <ele>63.1</ele>
        <time>2013-10-13T08:08:31Z</time>
      </trkpt>
      <trkpt lat="47.63465" lon="-2.10697">
        <ele>62.62</ele>
        <time>2013-10-13T08:08:33Z</time>
      </trkpt>
      <trkpt lat="47.63464" lon="-2.10711">
        <ele>62.14</ele>
        <time>2013-10-13T08:08:35Z</time>
      </trkpt>
      <trkpt lat="47.6346" lon="-2.10726">
        <ele>61.66</ele>
        <time>2013-10-13T08:08:37Z</time>
      </trkpt>
      <trkpt lat="47.63457" lon="-2.10741">
        <ele>60.7</ele>
        <time>2013-10-13T08:08:39Z</time>
      </trkpt>
      <trkpt lat="47.63452" lon="-2.10755">
        <ele>60.22</ele>
        <time>2013-10-13T08:08:41Z</time>
      </trkpt>
      <trkpt lat="47.63446" lon="-2.10768">
        <ele>59.26</ele>
        <time>2013-10-13T08:08:43Z</time>
      </trkpt>
      <trkpt lat="47.63442" lon="-2.10784">
        <ele>59.74</ele>
        <time>2013-10-13T08:08:46Z</time>
      </trkpt>
      <trkpt lat="47.63437" lon="-2.10795">
        <ele>60.22</ele>
        <time>2013-10-13T08:08:51Z</time>
      </trkpt>
      <trkpt lat="47.63426" lon="-2.10801">
        <ele>60.7</ele>
        <time>2013-10-13T08:08:54Z</time>
      </trkpt>
      <trkpt lat="47.63422" lon="-2.10819">
        <ele>60.7</ele>
        <time>2013-10-13T08:08:57Z</time>
      </trkpt>
      <trkpt lat="47.63414" lon="-2.1083">
        <ele>60.7</ele>
        <time>2013-10-13T08:09:00Z</time>
      </trkpt>
      <trkpt lat="47.63402" lon="-2.10825">
        <ele>60.22</ele>
        <time>2013-10-13T08:09:03Z</time>
      </trkpt>
      <trkpt lat="47.63389" lon="-2.10818">
        <ele>60.22</ele>
        <time>2013-10-13T08:09:06Z</time>
      </trkpt>
      <trkpt lat="47.63378" lon="-2.10818">
        <ele>61.18</ele>
        <time>2013-10-13T08:09:09Z</time>
      </trkpt>
      <trkpt lat="47.63368" lon="-2.10818">
        <ele>62.14</ele>
        <time>2013-10-13T08:09:12Z</time>
      </trkpt>
      <trkpt lat="47.63358" lon="-2.10818">
        <ele>63.1</ele>
        <time>2013-10-13T08:09:15Z</time>
      </trkpt>
      <trkpt lat="47.63348" lon="-2.10818">
        <ele>64.55</ele>
        <time>2013-10-13T08:09:18Z</time>
      </trkpt>
      <trkpt lat="47.63339" lon="-2.10817">
        <ele>65.03</ele>
        <time>2013-10-13T08:09:21Z</time>
      </trkpt>
      <trkpt lat="47.63329" lon="-2.10817">
        <ele>65.03</ele>
        <time>2013-10-13T08:09:24Z</time>
      </trkpt>
      <trkpt lat="47.6332" lon="-2.10818">
        <ele>65.51</ele>
        <time>2013-10-13T08:09:27Z</time>
      </trkpt>
      <trkpt lat="47.63311" lon="-2.10823">
        <ele>65.51</ele>
        <time>2013-10-13T08:09:31Z</time>
      </trkpt>
      <trkpt lat="47.63308" lon="-2.10841">
        <ele>65.99</ele>
        <time>2013-10-13T08:09:35Z</time>
      </trkpt>
      <trkpt lat="47.63303" lon="-2.10855">
        <ele>65.51</ele>
        <time>2013-10-13T08:09:38Z</time>
      </trkpt>
      <trkpt lat="47.63297" lon="-2.10869">
        <ele>65.03</ele>
        <time>2013-10-13T08:09:41Z</time>
      </trkpt>
      <trkpt lat="47.63294" lon="-2.10882">
        <ele>64.55</ele>
        <time>2013-10-13T08:09:44Z</time>
      </trkpt>
      <trkpt lat="47.6329" lon="-2.10896">
        <ele>64.07</ele>
        <time>2013-10-13T08:09:47Z</time>
      </trkpt>
      <trkpt lat="47.63287" lon="-2.10912">
        <ele>65.99</ele>
        <time>2013-10-13T08:09:51Z</time>
      </trkpt>
      <trkpt lat="47.63287" lon="-2.10927">
        <ele>68.87</ele>
        <time>2013-10-13T08:09:54Z</time>
      </trkpt>
      <trkpt lat="47.63289" lon="-2.10941">
        <ele>70.79</ele>
        <time>2013-10-13T08:09:57Z</time>
      </trkpt>
      <trkpt lat="47.63292" lon="-2.10954">
        <ele>71.76</ele>
        <time>2013-10-13T08:10:02Z</time>
      </trkpt>
      <trkpt lat="47.63296" lon="-2.1097">
        <ele>73.2</ele>
        <time>2013-10-13T08:10:06Z</time>
      </trkpt>
      <trkpt lat="47.63299" lon="-2.1099">
        <ele>72.72</ele>
        <time>2013-10-13T08:10:10Z</time>
      </trkpt>
      <trkpt lat="47.63302" lon="-2.11005">
        <ele>72.72</ele>
        <time>2013-10-13T08:10:14Z</time>
      </trkpt>
      <trkpt lat="47.63304" lon="-2.11023">
        <ele>74.16</ele>
        <time>2013-10-13T08:10:19Z</time>
      </trkpt>
      <trkpt lat="47.63304" lon="-2.11039">
        <ele>74.64</ele>
        <time>2013-10-13T08:10:23Z</time>
      </trkpt>
      <trkpt lat="47.63304" lon="-2.11056">
        <ele>75.6</ele>
        <time>2013-10-13T08:10:28Z</time>
      </trkpt>
      <trkpt lat="47.63305" lon="-2.11072">
        <ele>77.04</ele>
        <time>2013-10-13T08:10:33Z</time>
      </trkpt>
      <trkpt lat="47.63307" lon="-2.11089">
        <ele>78.48</ele>
        <time>2013-10-13T08:10:38Z</time>
      </trkpt>
      <trkpt lat="47.63309" lon="-2.11102">
        <ele>79.93</ele>
        <time>2013-10-13T08:10:42Z</time>
      </trkpt>
      <trkpt lat="47.63311" lon="-2.11118">
        <ele>79.93</ele>
        <time>2013-10-13T08:10:46Z</time>
      </trkpt>
      <trkpt lat="47.63313" lon="-2.11132">
        <ele>79.93</ele>
        <time>2013-10-13T08:10:50Z</time>
      </trkpt>
      <trkpt lat="47.63314" lon="-2.11149">
        <ele>80.41</ele>
        <time>2013-10-13T08:10:55Z</time>
      </trkpt>
      <trkpt lat="47.63307" lon="-2.11157">
        <ele>80.89</ele>
        <time>2013-10-13T08:11:00Z</time>
      </trkpt>
      <trkpt lat="47.63297" lon="-2.11154">
        <ele>80.89</ele>
        <time>2013-10-13T08:11:04Z</time>
      </trkpt>
      <trkpt lat="47.63288" lon="-2.11151">
        <ele>80.41</ele>
        <time>2013-10-13T08:11:07Z</time>
      </trkpt>
      <trkpt lat="47.63279" lon="-2.11147">
        <ele>80.41</ele>
        <time>2013-10-13T08:11:10Z</time>
      </trkpt>
      <trkpt lat="47.63267" lon="-2.11142">
        <ele>79.93</ele>
        <time>2013-10-13T08:11:13Z</time>
      </trkpt>
      <trkpt lat="47.63255" lon="-2.11137">
        <ele>79.93</ele>
        <time>2013-10-13T08:11:16Z</time>
      </trkpt>
      <trkpt lat="47.63243" lon="-2.11132">
        <ele>79.45</ele>
        <time>2013-10-13T08:11:19Z</time>
      </trkpt>
      <trkpt lat="47.6323" lon="-2.11127">
        <ele>79.45</ele>
        <time>2013-10-13T08:11:22Z</time>
      </trkpt>
      <trkpt lat="47.63221" lon="-2.11123">
        <ele>79.45</ele>
        <time>2013-10-13T08:11:24Z</time>
      </trkpt>
      <trkpt lat="47.63212" lon="-2.1112">
        <ele>79.45</ele>
        <time>2013-10-13T08:11:26Z</time>
      </trkpt>
      <trkpt lat="47.63203" lon="-2.11117">
        <ele>79.45</ele>
        <time>2013-10-13T08:11:28Z</time>
      </trkpt>
      <trkpt lat="47.6319" lon="-2.11113">
        <ele>78.97</ele>
        <time>2013-10-13T08:11:31Z</time>
      </trkpt>
      <trkpt lat="47.63181" lon="-2.11109">
        <ele>79.45</ele>
        <time>2013-10-13T08:11:33Z</time>
      </trkpt>
      <trkpt lat="47.63172" lon="-2.11106">
        <ele>79.45</ele>
        <time>2013-10-13T08:11:35Z</time>
      </trkpt>
      <trkpt lat="47.63162" lon="-2.11103">
        <ele>79.45</ele>
        <time>2013-10-13T08:11:37Z</time>
      </trkpt>
      <trkpt lat="47.63152" lon="-2.11099">
        <ele>79.45</ele>
        <time>2013-10-13T08:11:39Z</time>
      </trkpt>
      <trkpt lat="47.63143" lon="-2.11095">
        <ele>79.45</ele>
        <time>2013-10-13T08:11:41Z</time>
      </trkpt>
      <trkpt lat="47.63133" lon="-2.1109">
        <ele>79.45</ele>
        <time>2013-10-13T08:11:43Z</time>
      </trkpt>
      <trkpt lat="47.63123" lon="-2.11085">
        <ele>79.45</ele>
        <time>2013-10-13T08:11:45Z</time>
      </trkpt>
      <trkpt lat="47.63114" lon="-2.1108">
        <ele>79.45</ele>
        <time>2013-10-13T08:11:47Z</time>
      </trkpt>
      <trkpt lat="47.63104" lon="-2.11075">
        <ele>78.97</ele>
        <time>2013-10-13T08:11:49Z</time>
      </trkpt>
      <trkpt lat="47.63093" lon="-2.1107">
        <ele>78.97</ele>
        <time>2013-10-13T08:11:51Z</time>
      </trkpt>
      <trkpt lat="47.63083" lon="-2.11065">
        <ele>78.97</ele>
        <time>2013-10-13T08:11:53Z</time>
      </trkpt>
      <trkpt lat="47.63073" lon="-2.1106">
        <ele>78.97</ele>
        <time>2013-10-13T08:11:55Z</time>
      </trkpt>
      <trkpt lat="47.63063" lon="-2.11055">
        <ele>78.48</ele>
        <time>2013-10-13T08:11:57Z</time>
      </trkpt>
      <trkpt lat="47.63054" lon="-2.11051">
        <ele>78.48</ele>
        <time>2013-10-13T08:11:59Z</time>
      </trkpt>
      <trkpt lat="47.63045" lon="-2.11047">
        <ele>78.48</ele>
        <time>2013-10-13T08:12:01Z</time>
      </trkpt>
      <trkpt lat="47.63037" lon="-2.11049">
        <ele>78.48</ele>
        <time>2013-10-13T08:12:03Z</time>
      </trkpt>
      <trkpt lat="47.6303" lon="-2.11058">
        <ele>78.48</ele>
        <time>2013-10-13T08:12:05Z</time>
      </trkpt>
      <trkpt lat="47.63026" lon="-2.1107">
        <ele>78.48</ele>
        <time>2013-10-13T08:12:07Z</time>
      </trkpt>
      <trkpt lat="47.63021" lon="-2.11082">
        <ele>77.52</ele>
        <time>2013-10-13T08:12:09Z</time>
      </trkpt>
      <trkpt lat="47.63019" lon="-2.11095">
        <ele>77.52</ele>
        <time>2013-10-13T08:12:11Z</time>
      </trkpt>
      <trkpt lat="47.63016" lon="-2.11109">
        <ele>77.52</ele>
        <time>2013-10-13T08:12:13Z</time>
      </trkpt>
      <trkpt lat="47.63013" lon="-2.11123">
        <ele>77.52</ele>
        <time>2013-10-13T08:12:15Z</time>
      </trkpt>
      <trkpt lat="47.63011" lon="-2.11137">
        <ele>77.04</ele>
        <time>2013-10-13T08:12:17Z</time>
      </trkpt>
      <trkpt lat="47.63009" lon="-2.11152">
        <ele>76.56</ele>
        <time>2013-10-13T08:12:19Z</time>
      </trkpt>
      <trkpt lat="47.63006" lon="-2.11167">
        <ele>75.6</ele>
        <time>2013-10-13T08:12:21Z</time>
      </trkpt>
      <trkpt lat="47.63002" lon="-2.11181">
        <ele>75.12</ele>
        <time>2013-10-13T08:12:23Z</time>
      </trkpt>
      <trkpt lat="47.62997" lon="-2.11196">
        <ele>74.16</ele>
        <time>2013-10-13T08:12:25Z</time>
      </trkpt>
      <trkpt lat="47.6299" lon="-2.11207">
        <ele>73.2</ele>
        <time>2013-10-13T08:12:28Z</time>
      </trkpt>
      <trkpt lat="47.62977" lon="-2.11202">
        <ele>72.24</ele>
        <time>2013-10-13T08:12:31Z</time>
      </trkpt>
      <trkpt lat="47.62966" lon="-2.112">
        <ele>71.76</ele>
        <time>2013-10-13T08:12:33Z</time>
      </trkpt>
      <trkpt lat="47.62956" lon="-2.11198">
        <ele>71.27</ele>
        <time>2013-10-13T08:12:35Z</time>
      </trkpt>
      <trkpt lat="47.62943" lon="-2.11196">
        <ele>71.27</ele>
        <time>2013-10-13T08:12:38Z</time>
      </trkpt>
      <trkpt lat="47.62932" lon="-2.11194">
        <ele>71.76</ele>
        <time>2013-10-13T08:12:40Z</time>
      </trkpt>
      <trkpt lat="47.62922" lon="-2.11191">
        <ele>72.24</ele>
        <time>2013-10-13T08:12:42Z</time>
      </trkpt>
      <trkpt lat="47.62912" lon="-2.11188">
        <ele>72.72</ele>
        <time>2013-10-13T08:12:44Z</time>
      </trkpt>
      <trkpt lat="47.62899" lon="-2.11181">
        <ele>74.16</ele>
        <time>2013-10-13T08:12:47Z</time>
      </trkpt>
      <trkpt lat="47.62889" lon="-2.11169">
        <ele>75.6</ele>
        <time>2013-10-13T08:12:50Z</time>
      </trkpt>
      <trkpt lat="47.62887" lon="-2.11157">
        <ele>77.04</ele>
        <time>2013-10-13T08:12:53Z</time>
      </trkpt>
      <trkpt lat="47.62887" lon="-2.11138">
        <ele>78.97</ele>
        <time>2013-10-13T08:12:57Z</time>
      </trkpt>
      <trkpt lat="47.62878" lon="-2.11127">
        <ele>80.89</ele>
        <time>2013-10-13T08:13:01Z</time>
      </trkpt>
      <trkpt lat="47.62865" lon="-2.1112">
        <ele>82.33</ele>
        <time>2013-10-13T08:13:05Z</time>
      </trkpt>
      <trkpt lat="47.62852" lon="-2.11117">
        <ele>82.81</ele>
        <time>2013-10-13T08:13:08Z</time>
      </trkpt>
      <trkpt lat="47.62841" lon="-2.11124">
        <ele>83.29</ele>
        <time>2013-10-13T08:13:11Z</time>
      </trkpt>
      <trkpt lat="47.62828" lon="-2.11129">
        <ele>83.77</ele>
        <time>2013-10-13T08:13:15Z</time>
      </trkpt>
      <trkpt lat="47.62814" lon="-2.11134">
        <ele>83.77</ele>
        <time>2013-10-13T08:13:18Z</time>
      </trkpt>
      <trkpt lat="47.628" lon="-2.11132">
        <ele>83.29</ele>
        <time>2013-10-13T08:13:21Z</time>
      </trkpt>
      <trkpt lat="47.62786" lon="-2.11141">
        <ele>83.29</ele>
        <time>2013-10-13T08:13:25Z</time>
      </trkpt>
      <trkpt lat="47.6277" lon="-2.11145">
        <ele>82.33</ele>
        <time>2013-10-13T08:13:28Z</time>
      </trkpt>
      <trkpt lat="47.62756" lon="-2.11148">
        <ele>81.37</ele>
        <time>2013-10-13T08:13:31Z</time>
      </trkpt>
      <trkpt lat="47.62744" lon="-2.11147">
        <ele>80.89</ele>
        <time>2013-10-13T08:13:33Z</time>
      </trkpt>
      <trkpt lat="47.62732" lon="-2.1114">
        <ele>79.93</ele>
        <time>2013-10-13T08:13:35Z</time>
      </trkpt>
      <trkpt lat="47.6272" lon="-2.11131">
        <ele>79.45</ele>
        <time>2013-10-13T08:13:37Z</time>
      </trkpt>
      <trkpt lat="47.62709" lon="-2.11121">
        <ele>78.97</ele>
        <time>2013-10-13T08:13:39Z</time>
      </trkpt>
      <trkpt lat="47.62702" lon="-2.11107">
        <ele>78.97</ele>
        <time>2013-10-13T08:13:41Z</time>
      </trkpt>
      <trkpt lat="47.62696" lon="-2.11091">
        <ele>78</ele>
        <time>2013-10-13T08:13:43Z</time>
      </trkpt>
      <trkpt lat="47.62694" lon="-2.11072">
        <ele>77.52</ele>
        <time>2013-10-13T08:13:45Z</time>
      </trkpt>
      <trkpt lat="47.62695" lon="-2.11054">
        <ele>76.56</ele>
        <time>2013-10-13T08:13:47Z</time>
      </trkpt>
      <trkpt lat="47.6269" lon="-2.11037">
        <ele>75.6</ele>
        <time>2013-10-13T08:13:50Z</time>
      </trkpt>
      <trkpt lat="47.62682" lon="-2.11024">
        <ele>74.64</ele>
        <time>2013-10-13T08:13:52Z</time>
      </trkpt>
      <trkpt lat="47.6268" lon="-2.11007">
        <ele>74.16</ele>
        <time>2013-10-13T08:13:54Z</time>
      </trkpt>
      <trkpt lat="47.62677" lon="-2.10987">
        <ele>73.2</ele>
        <time>2013-10-13T08:13:56Z</time>
      </trkpt>
      <trkpt lat="47.62675" lon="-2.10967">
        <ele>72.72</ele>
        <time>2013-10-13T08:13:58Z</time>
      </trkpt>
      <trkpt lat="47.62675" lon="-2.10952">
        <ele>72.24</ele>
        <time>2013-10-13T08:14:00Z</time>
      </trkpt>
      <trkpt lat="47.62664" lon="-2.10949">
        <ele>71.76</ele>
        <time>2013-10-13T08:14:03Z</time>
      </trkpt>
      <trkpt lat="47.62655" lon="-2.10952">
        <ele>71.27</ele>
        <time>2013-10-13T08:14:05Z</time>
      </trkpt>
      <trkpt lat="47.62644" lon="-2.10954">
        <ele>70.79</ele>
        <time>2013-10-13T08:14:07Z</time>
      </trkpt>
      <trkpt lat="47.62633" lon="-2.10956">
        <ele>70.79</ele>
        <time>2013-10-13T08:14:09Z</time>
      </trkpt>
      <trkpt lat="47.62623" lon="-2.10963">
        <ele>70.31</ele>
        <time>2013-10-13T08:14:11Z</time>
      </trkpt>
      <trkpt lat="47.62614" lon="-2.10969">
        <ele>69.83</ele>
        <time>2013-10-13T08:14:13Z</time>
      </trkpt>
      <trkpt lat="47.62605" lon="-2.10982">
        <ele>69.35</ele>
        <time>2013-10-13T08:14:16Z</time>
      </trkpt>
      <trkpt lat="47.62599" lon="-2.10997">
        <ele>67.91</ele>
        <time>2013-10-13T08:14:19Z</time>
      </trkpt>
      <trkpt lat="47.62591" lon="-2.11013">
        <ele>65.99</ele>
        <time>2013-10-13T08:14:22Z</time>
      </trkpt>
      <trkpt lat="47.62582" lon="-2.11025">
        <ele>65.03</ele>
        <time>2013-10-13T08:14:25Z</time>
      </trkpt>
      <trkpt lat="47.62576" lon="-2.11037">
        <ele>64.07</ele>
        <time>2013-10-13T08:14:28Z</time>
      </trkpt>
      <trkpt lat="47.62568" lon="-2.11045">
        <ele>62.62</ele>
        <time>2013-10-13T08:14:33Z</time>
      </trkpt>
      <trkpt lat="47.62557" lon="-2.11051">
        <ele>61.66</ele>
        <time>2013-10-13T08:14:37Z</time>
      </trkpt>
      <trkpt lat="47.62547" lon="-2.11058">
        <ele>60.7</ele>
        <time>2013-10-13T08:14:40Z</time>
      </trkpt>
      <trkpt lat="47.62539" lon="-2.11072">
        <ele>59.26</ele>
        <time>2013-10-13T08:14:44Z</time>
      </trkpt>
      <trkpt lat="47.62529" lon="-2.11081">
        <ele>57.82</ele>
        <time>2013-10-13T08:14:47Z</time>
      </trkpt>
      <trkpt lat="47.62523" lon="-2.11097">
        <ele>59.26</ele>
        <time>2013-10-13T08:14:53Z</time>
      </trkpt>
      <trkpt lat="47.62523" lon="-2.11115">
        <ele>60.7</ele>
        <time>2013-10-13T08:14:58Z</time>
      </trkpt>
      <trkpt lat="47.62529" lon="-2.11127">
        <ele>61.18</ele>
        <time>2013-10-13T08:15:03Z</time>
      </trkpt>
      <trkpt lat="47.62535" lon="-2.11141">
        <ele>62.14</ele>
        <time>2013-10-13T08:15:08Z</time>
      </trkpt>
      <trkpt lat="47.62543" lon="-2.1115">
        <ele>63.1</ele>
        <time>2013-10-13T08:15:13Z</time>
      </trkpt>
      <trkpt lat="47.62555" lon="-2.11155">
        <ele>64.55</ele>
        <time>2013-10-13T08:15:18Z</time>
      </trkpt>
      <trkpt lat="47.62565" lon="-2.11158">
        <ele>65.99</ele>
        <time>2013-10-13T08:15:22Z</time>
      </trkpt>
      <trkpt lat="47.62576" lon="-2.11154">
        <ele>68.39</ele>
        <time>2013-10-13T08:15:27Z</time>
      </trkpt>
      <trkpt lat="47.62589" lon="-2.11149">
        <ele>71.27</ele>
        <time>2013-10-13T08:15:32Z</time>
      </trkpt>
      <trkpt lat="47.62601" lon="-2.11144">
        <ele>73.68</ele>
        <time>2013-10-13T08:15:36Z</time>
      </trkpt>
      <trkpt lat="47.62615" lon="-2.11148">
        <ele>78</ele>
        <time>2013-10-13T08:15:41Z</time>
      </trkpt>
      <trkpt lat="47.62628" lon="-2.11154">
        <ele>81.37</ele>
        <time>2013-10-13T08:15:47Z</time>
      </trkpt>
      <trkpt lat="47.62627" lon="-2.11169">
        <ele>83.77</ele>
        <time>2013-10-13T08:15:52Z</time>
      </trkpt>
      <trkpt lat="47.62622" lon="-2.11179">
        <ele>84.73</ele>
        <time>2013-10-13T08:15:55Z</time>
      </trkpt>
      <trkpt lat="47.62629" lon="-2.11189">
        <ele>87.62</ele>
        <time>2013-10-13T08:16:01Z</time>
      </trkpt>
      <trkpt lat="47.62645" lon="-2.11192">
        <ele>90.02</ele>
        <time>2013-10-13T08:16:05Z</time>
      </trkpt>
      <trkpt lat="47.62656" lon="-2.11189">
        <ele>92.42</ele>
        <time>2013-10-13T08:16:09Z</time>
      </trkpt>
      <trkpt lat="47.62666" lon="-2.11183">
        <ele>93.87</ele>
        <time>2013-10-13T08:16:12Z</time>
      </trkpt>
      <trkpt lat="47.62677" lon="-2.11177">
        <ele>95.31</ele>
        <time>2013-10-13T08:16:15Z</time>
      </trkpt>
      <trkpt lat="47.62687" lon="-2.11169">
        <ele>96.27</ele>
        <time>2013-10-13T08:16:18Z</time>
      </trkpt>
      <trkpt lat="47.62697" lon="-2.11163">
        <ele>97.71</ele>
        <time>2013-10-13T08:16:21Z</time>
      </trkpt>
      <trkpt lat="47.62709" lon="-2.11157">
        <ele>98.19</ele>
        <time>2013-10-13T08:16:25Z</time>
      </trkpt>
      <trkpt lat="47.62721" lon="-2.11153">
        <ele>100.11</ele>
        <time>2013-10-13T08:16:29Z</time>
      </trkpt>
      <trkpt lat="47.6273" lon="-2.11154">
        <ele>102.04</ele>
        <time>2013-10-13T08:16:32Z</time>
      </trkpt>
      <trkpt lat="47.62742" lon="-2.1116">
        <ele>103.96</ele>
        <time>2013-10-13T08:16:36Z</time>
      </trkpt>
      <trkpt lat="47.62753" lon="-2.11166">
        <ele>105.88</ele>
        <time>2013-10-13T08:16:39Z</time>
      </trkpt>
      <trkpt lat="47.62764" lon="-2.11174">
        <ele>107.32</ele>
        <time>2013-10-13T08:16:42Z</time>
      </trkpt>
      <trkpt lat="47.62776" lon="-2.11182">
        <ele>110.21</ele>
        <time>2013-10-13T08:16:45Z</time>
      </trkpt>
      <trkpt lat="47.62787" lon="-2.11195">
        <ele>113.09</ele>
        <time>2013-10-13T08:16:48Z</time>
      </trkpt>
      <trkpt lat="47.62793" lon="-2.11207">
        <ele>113.09</ele>
        <time>2013-10-13T08:16:50Z</time>
      </trkpt>
      <trkpt lat="47.62798" lon="-2.1122">
        <ele>113.09</ele>
        <time>2013-10-13T08:16:52Z</time>
      </trkpt>
      <trkpt lat="47.62803" lon="-2.11232">
        <ele>113.09</ele>
        <time>2013-10-13T08:16:54Z</time>
      </trkpt>
      <trkpt lat="47.6281" lon="-2.11245">
        <ele>113.09</ele>
        <time>2013-10-13T08:16:56Z</time>
      </trkpt>
      <trkpt lat="47.62818" lon="-2.11264">
        <ele>112.13</ele>
        <time>2013-10-13T08:16:58Z</time>
      </trkpt>
      <trkpt lat="47.62824" lon="-2.11285">
        <ele>111.17</ele>
        <time>2013-10-13T08:17:00Z</time>
      </trkpt>
      <trkpt lat="47.62833" lon="-2.11311">
        <ele>107.32</ele>
        <time>2013-10-13T08:17:02Z</time>
      </trkpt>
      <trkpt lat="47.62843" lon="-2.11336">
        <ele>103.48</ele>
        <time>2013-10-13T08:17:04Z</time>
      </trkpt>
      <trkpt lat="47.62853" lon="-2.11357">
        <ele>102.04</ele>
        <time>2013-10-13T08:17:06Z</time>
      </trkpt>
      <trkpt lat="47.62865" lon="-2.11377">
        <ele>98.19</ele>
        <time>2013-10-13T08:17:08Z</time>
      </trkpt>
      <trkpt lat="47.6288" lon="-2.11395">
        <ele>94.35</ele>
        <time>2013-10-13T08:17:10Z</time>
      </trkpt>
      <trkpt lat="47.62895" lon="-2.11411">
        <ele>90.98</ele>
        <time>2013-10-13T08:17:12Z</time>
      </trkpt>
      <trkpt lat="47.62907" lon="-2.11424">
        <ele>89.54</ele>
        <time>2013-10-13T08:17:14Z</time>
      </trkpt>
      <trkpt lat="47.62917" lon="-2.11439">
        <ele>88.58</ele>
        <time>2013-10-13T08:17:16Z</time>
      </trkpt>
      <trkpt lat="47.62927" lon="-2.11457">
        <ele>87.62</ele>
        <time>2013-10-13T08:17:18Z</time>
      </trkpt>
      <trkpt lat="47.62937" lon="-2.11476">
        <ele>86.18</ele>
        <time>2013-10-13T08:17:20Z</time>
      </trkpt>
      <trkpt lat="47.6295" lon="-2.11495">
        <ele>82.33</ele>
        <time>2013-10-13T08:17:22Z</time>
      </trkpt>
      <trkpt lat="47.62963" lon="-2.11513">
        <ele>78.97</ele>
        <time>2013-10-13T08:17:24Z</time>
      </trkpt>
      <trkpt lat="47.62976" lon="-2.11531">
        <ele>75.12</ele>
        <time>2013-10-13T08:17:26Z</time>
      </trkpt>
      <trkpt lat="47.62989" lon="-2.11548">
        <ele>70.31</ele>
        <time>2013-10-13T08:17:28Z</time>
      </trkpt>
      <trkpt lat="47.62999" lon="-2.11564">
        <ele>68.87</ele>
        <time>2013-10-13T08:17:30Z</time>
      </trkpt>
      <trkpt lat="47.63006" lon="-2.11581">
        <ele>68.39</ele>
        <time>2013-10-13T08:17:32Z</time>
      </trkpt>
      <trkpt lat="47.63013" lon="-2.11599">
        <ele>66.95</ele>
        <time>2013-10-13T08:17:34Z</time>
      </trkpt>
      <trkpt lat="47.63021" lon="-2.11615">
        <ele>65.99</ele>
        <time>2013-10-13T08:17:36Z</time>
      </trkpt>
      <trkpt lat="47.63029" lon="-2.11631">
        <ele>65.03</ele>
        <time>2013-10-13T08:17:38Z</time>
      </trkpt>
      <trkpt lat="47.63035" lon="-2.11646">
        <ele>64.55</ele>
        <time>2013-10-13T08:17:40Z</time>
      </trkpt>
      <trkpt lat="47.6304" lon="-2.11663">
        <ele>63.58</ele>
        <time>2013-10-13T08:17:42Z</time>
      </trkpt>
      <trkpt lat="47.63039" lon="-2.11683">
        <ele>61.66</ele>
        <time>2013-10-13T08:17:44Z</time>
      </trkpt>
      <trkpt lat="47.63039" lon="-2.11704">
        <ele>59.26</ele>
        <time>2013-10-13T08:17:46Z</time>
      </trkpt>
      <trkpt lat="47.63039" lon="-2.11728">
        <ele>58.3</ele>
        <time>2013-10-13T08:17:48Z</time>
      </trkpt>
      <trkpt lat="47.63041" lon="-2.1175">
        <ele>57.34</ele>
        <time>2013-10-13T08:17:50Z</time>
      </trkpt>
      <trkpt lat="47.63045" lon="-2.11772">
        <ele>55.41</ele>
        <time>2013-10-13T08:17:52Z</time>
      </trkpt>
      <trkpt lat="47.63054" lon="-2.11789">
        <ele>54.93</ele>
        <time>2013-10-13T08:17:54Z</time>
      </trkpt>
      <trkpt lat="47.63064" lon="-2.11805">
        <ele>54.45</ele>
        <time>2013-10-13T08:17:56Z</time>
      </trkpt>
      <trkpt lat="47.63074" lon="-2.1182">
        <ele>53.97</ele>
        <time>2013-10-13T08:17:58Z</time>
      </trkpt>
      <trkpt lat="47.63084" lon="-2.11834">
        <ele>53.97</ele>
        <time>2013-10-13T08:18:00Z</time>
      </trkpt>
      <trkpt lat="47.63093" lon="-2.11849">
        <ele>53.49</ele>
        <time>2013-10-13T08:18:02Z</time>
      </trkpt>
      <trkpt lat="47.63101" lon="-2.11865">
        <ele>53.01</ele>
        <time>2013-10-13T08:18:04Z</time>
      </trkpt>
      <trkpt lat="47.63109" lon="-2.11881">
        <ele>53.01</ele>
        <time>2013-10-13T08:18:06Z</time>
      </trkpt>
      <trkpt lat="47.63116" lon="-2.11898">
        <ele>52.53</ele>
        <time>2013-10-13T08:18:08Z</time>
      </trkpt>
      <trkpt lat="47.63122" lon="-2.11915">
        <ele>51.57</ele>
        <time>2013-10-13T08:18:10Z</time>
      </trkpt>
      <trkpt lat="47.63128" lon="-2.11931">
        <ele>50.61</ele>
        <time>2013-10-13T08:18:12Z</time>
      </trkpt>
      <trkpt lat="47.63134" lon="-2.11947">
        <ele>50.61</ele>
        <time>2013-10-13T08:18:14Z</time>
      </trkpt>
      <trkpt lat="47.63139" lon="-2.11963">
        <ele>50.13</ele>
        <time>2013-10-13T08:18:16Z</time>
      </trkpt>
      <trkpt lat="47.63145" lon="-2.11978">
        <ele>50.13</ele>
        <time>2013-10-13T08:18:18Z</time>
      </trkpt>
      <trkpt lat="47.63151" lon="-2.11993">
        <ele>50.13</ele>
        <time>2013-10-13T08:18:20Z</time>
      </trkpt>
      <trkpt lat="47.63157" lon="-2.12006">
        <ele>49.16</ele>
        <time>2013-10-13T08:18:22Z</time>
      </trkpt>
      <trkpt lat="47.63164" lon="-2.12019">
        <ele>49.16</ele>
        <time>2013-10-13T08:18:24Z</time>
      </trkpt>
      <trkpt lat="47.63172" lon="-2.12031">
        <ele>48.68</ele>
        <time>2013-10-13T08:18:26Z</time>
      </trkpt>
      <trkpt lat="47.63181" lon="-2.12041">
        <ele>48.68</ele>
        <time>2013-10-13T08:18:28Z</time>
      </trkpt>
      <trkpt lat="47.6319" lon="-2.1205">
        <ele>48.68</ele>
        <time>2013-10-13T08:18:30Z</time>
      </trkpt>
      <trkpt lat="47.632" lon="-2.12058">
        <ele>48.68</ele>
        <time>2013-10-13T08:18:32Z</time>
      </trkpt>
      <trkpt lat="47.63208" lon="-2.12064">
        <ele>48.68</ele>
        <time>2013-10-13T08:18:34Z</time>
      </trkpt>
      <trkpt lat="47.63217" lon="-2.12077">
        <ele>49.16</ele>
        <time>2013-10-13T08:18:37Z</time>
      </trkpt>
      <trkpt lat="47.63219" lon="-2.12097">
        <ele>49.65</ele>
        <time>2013-10-13T08:18:40Z</time>
      </trkpt>
      <trkpt lat="47.63219" lon="-2.12115">
        <ele>49.65</ele>
        <time>2013-10-13T08:18:42Z</time>
      </trkpt>
      <trkpt lat="47.6322" lon="-2.12135">
        <ele>49.16</ele>
        <time>2013-10-13T08:18:44Z</time>
      </trkpt>
      <trkpt lat="47.63224" lon="-2.12156">
        <ele>48.68</ele>
        <time>2013-10-13T08:18:46Z</time>
      </trkpt>
      <trkpt lat="47.63231" lon="-2.12174">
        <ele>48.2</ele>
        <time>2013-10-13T08:18:48Z</time>
      </trkpt>
      <trkpt lat="47.63239" lon="-2.12191">
        <ele>47.72</ele>
        <time>2013-10-13T08:18:50Z</time>
      </trkpt>
      <trkpt lat="47.63249" lon="-2.12206">
        <ele>47.72</ele>
        <time>2013-10-13T08:18:52Z</time>
      </trkpt>
      <trkpt lat="47.63258" lon="-2.12221">
        <ele>47.72</ele>
        <time>2013-10-13T08:18:54Z</time>
      </trkpt>
      <trkpt lat="47.63268" lon="-2.12236">
        <ele>47.72</ele>
        <time>2013-10-13T08:18:56Z</time>
      </trkpt>
      <trkpt lat="47.63278" lon="-2.12251">
        <ele>47.24</ele>
        <time>2013-10-13T08:18:58Z</time>
      </trkpt>
      <trkpt lat="47.63288" lon="-2.12265">
        <ele>47.72</ele>
        <time>2013-10-13T08:19:00Z</time>
      </trkpt>
      <trkpt lat="47.63298" lon="-2.12278">
        <ele>47.24</ele>
        <time>2013-10-13T08:19:02Z</time>
      </trkpt>
      <trkpt lat="47.63308" lon="-2.12292">
        <ele>46.28</ele>
        <time>2013-10-13T08:19:04Z</time>
      </trkpt>
      <trkpt lat="47.63317" lon="-2.12305">
        <ele>45.8</ele>
        <time>2013-10-13T08:19:06Z</time>
      </trkpt>
      <trkpt lat="47.63326" lon="-2.12316">
        <ele>45.32</ele>
        <time>2013-10-13T08:19:08Z</time>
      </trkpt>
      <trkpt lat="47.63335" lon="-2.12326">
        <ele>45.32</ele>
        <time>2013-10-13T08:19:10Z</time>
      </trkpt>
      <trkpt lat="47.63343" lon="-2.12335">
        <ele>45.8</ele>
        <time>2013-10-13T08:19:12Z</time>
      </trkpt>
      <trkpt lat="47.63351" lon="-2.12344">
        <ele>46.28</ele>
        <time>2013-10-13T08:19:14Z</time>
      </trkpt>
      <trkpt lat="47.63359" lon="-2.12352">
        <ele>46.76</ele>
        <time>2013-10-13T08:19:16Z</time>
      </trkpt>
      <trkpt lat="47.63369" lon="-2.12363">
        <ele>47.72</ele>
        <time>2013-10-13T08:19:19Z</time>
      </trkpt>
      <trkpt lat="47.63377" lon="-2.12372">
        <ele>48.2</ele>
        <time>2013-10-13T08:19:22Z</time>
      </trkpt>
      <trkpt lat="47.63385" lon="-2.1238">
        <ele>50.13</ele>
        <time>2013-10-13T08:19:28Z</time>
      </trkpt>
      <trkpt lat="47.63383" lon="-2.12392">
        <ele>49.65</ele>
        <time>2013-10-13T08:19:32Z</time>
      </trkpt>
      <trkpt lat="47.63374" lon="-2.12401">
        <ele>50.13</ele>
        <time>2013-10-13T08:19:36Z</time>
      </trkpt>
      <trkpt lat="47.63366" lon="-2.12412">
        <ele>50.61</ele>
        <time>2013-10-13T08:19:40Z</time>
      </trkpt>
      <trkpt lat="47.63359" lon="-2.12423">
        <ele>51.57</ele>
        <time>2013-10-13T08:19:44Z</time>
      </trkpt>
      <trkpt lat="47.63352" lon="-2.12436">
        <ele>51.57</ele>
        <time>2013-10-13T08:19:49Z</time>
      </trkpt>
      <trkpt lat="47.63344" lon="-2.12446">
        <ele>51.57</ele>
        <time>2013-10-13T08:19:54Z</time>
      </trkpt>
      <trkpt lat="47.63336" lon="-2.12456">
        <ele>51.57</ele>
        <time>2013-10-13T08:19:59Z</time>
      </trkpt>
      <trkpt lat="47.63327" lon="-2.12467">
        <ele>52.05</ele>
        <time>2013-10-13T08:20:04Z</time>
      </trkpt>
      <trkpt lat="47.63316" lon="-2.12474">
        <ele>52.53</ele>
        <time>2013-10-13T08:20:09Z</time>
      </trkpt>
      <trkpt lat="47.63305" lon="-2.12478">
        <ele>53.01</ele>
        <time>2013-10-13T08:20:12Z</time>
      </trkpt>
      <trkpt lat="47.63294" lon="-2.1248">
        <ele>53.49</ele>
        <time>2013-10-13T08:20:15Z</time>
      </trkpt>
      <trkpt lat="47.6328" lon="-2.12478">
        <ele>53.97</ele>
        <time>2013-10-13T08:20:18Z</time>
      </trkpt>
      <trkpt lat="47.6327" lon="-2.12481">
        <ele>53.97</ele>
        <time>2013-10-13T08:20:21Z</time>
      </trkpt>
      <trkpt lat="47.63257" lon="-2.12484">
        <ele>53.01</ele>
        <time>2013-10-13T08:20:24Z</time>
      </trkpt>
      <trkpt lat="47.63247" lon="-2.12484">
        <ele>52.05</ele>
        <time>2013-10-13T08:20:26Z</time>
      </trkpt>
      <trkpt lat="47.63237" lon="-2.12489">
        <ele>51.57</ele>
        <time>2013-10-13T08:20:28Z</time>
      </trkpt>
      <trkpt lat="47.63228" lon="-2.12494">
        <ele>50.61</ele>
        <time>2013-10-13T08:20:30Z</time>
      </trkpt>
      <trkpt lat="47.63219" lon="-2.12493">
        <ele>50.13</ele>
        <time>2013-10-13T08:20:32Z</time>
      </trkpt>
      <trkpt lat="47.63209" lon="-2.12491">
        <ele>49.16</ele>
        <time>2013-10-13T08:20:34Z</time>
      </trkpt>
      <trkpt lat="47.63199" lon="-2.12494">
        <ele>48.68</ele>
        <time>2013-10-13T08:20:36Z</time>
      </trkpt>
      <trkpt lat="47.6319" lon="-2.12501">
        <ele>47.72</ele>
        <time>2013-10-13T08:20:38Z</time>
      </trkpt>
      <trkpt lat="47.6318" lon="-2.12507">
        <ele>46.76</ele>
        <time>2013-10-13T08:20:41Z</time>
      </trkpt>
      <trkpt lat="47.63179" lon="-2.1252">
        <ele>45.32</ele>
        <time>2013-10-13T08:20:46Z</time>
      </trkpt>
      <trkpt lat="47.63186" lon="-2.1253">
        <ele>44.84</ele>
        <time>2013-10-13T08:20:49Z</time>
      </trkpt>
      <trkpt lat="47.63193" lon="-2.12543">
        <ele>44.36</ele>
        <time>2013-10-13T08:20:53Z</time>
      </trkpt>
      <trkpt lat="47.63202" lon="-2.1255">
        <ele>44.36</ele>
        <time>2013-10-13T08:20:56Z</time>
      </trkpt>
      <trkpt lat="47.6321" lon="-2.12556">
        <ele>44.36</ele>
        <time>2013-10-13T08:20:59Z</time>
      </trkpt>
      <trkpt lat="47.63219" lon="-2.12566">
        <ele>44.36</ele>
        <time>2013-10-13T08:21:03Z</time>
      </trkpt>
      <trkpt lat="47.6323" lon="-2.12577">
        <ele>43.88</ele>
        <time>2013-10-13T08:21:07Z</time>
      </trkpt>
      <trkpt lat="47.6324" lon="-2.12588">
        <ele>43.4</ele>
        <time>2013-10-13T08:21:11Z</time>
      </trkpt>
      <trkpt lat="47.6325" lon="-2.12597">
        <ele>43.88</ele>
        <time>2013-10-13T08:21:15Z</time>
      </trkpt>
      <trkpt lat="47.6326" lon="-2.12604">
        <ele>44.36</ele>
        <time>2013-10-13T08:21:19Z</time>
      </trkpt>
      <trkpt lat="47.6327" lon="-2.12607">
        <ele>44.36</ele>
        <time>2013-10-13T08:21:23Z</time>
      </trkpt>
      <trkpt lat="47.6328" lon="-2.12608">
        <ele>44.84</ele>
        <time>2013-10-13T08:21:28Z</time>
      </trkpt>
      <trkpt lat="47.63292" lon="-2.12609">
        <ele>46.76</ele>
        <time>2013-10-13T08:21:35Z</time>
      </trkpt>
      <trkpt lat="47.63297" lon="-2.12628">
        <ele>49.65</ele>
        <time>2013-10-13T08:21:40Z</time>
      </trkpt>
      <trkpt lat="47.63297" lon="-2.12648">
        <ele>49.16</ele>
        <time>2013-10-13T08:21:42Z</time>
      </trkpt>
      <trkpt lat="47.63294" lon="-2.12667">
        <ele>48.68</ele>
        <time>2013-10-13T08:21:45Z</time>
      </trkpt>
      <trkpt lat="47.63291" lon="-2.12683">
        <ele>48.68</ele>
        <time>2013-10-13T08:21:48Z</time>
      </trkpt>
      <trkpt lat="47.63288" lon="-2.12698">
        <ele>48.68</ele>
        <time>2013-10-13T08:21:51Z</time>
      </trkpt>
      <trkpt lat="47.63285" lon="-2.12718">
        <ele>50.13</ele>
        <time>2013-10-13T08:21:55Z</time>
      </trkpt>
      <trkpt lat="47.63282" lon="-2.12735">
        <ele>52.05</ele>
        <time>2013-10-13T08:21:59Z</time>
      </trkpt>
      <trkpt lat="47.63283" lon="-2.12753">
        <ele>52.53</ele>
        <time>2013-10-13T08:22:03Z</time>
      </trkpt>
      <trkpt lat="47.63279" lon="-2.1277">
        <ele>53.49</ele>
        <time>2013-10-13T08:22:07Z</time>
      </trkpt>
      <trkpt lat="47.63275" lon="-2.12787">
        <ele>54.93</ele>
        <time>2013-10-13T08:22:12Z</time>
      </trkpt>
      <trkpt lat="47.63274" lon="-2.12805">
        <ele>56.86</ele>
        <time>2013-10-13T08:22:18Z</time>
      </trkpt>
      <trkpt lat="47.63274" lon="-2.12822">
        <ele>58.78</ele>
        <time>2013-10-13T08:22:23Z</time>
      </trkpt>
      <trkpt lat="47.63275" lon="-2.12841">
        <ele>58.3</ele>
        <time>2013-10-13T08:22:28Z</time>
      </trkpt>
      <trkpt lat="47.63271" lon="-2.12857">
        <ele>58.3</ele>
        <time>2013-10-13T08:22:33Z</time>
      </trkpt>
      <trkpt lat="47.63268" lon="-2.12875">
        <ele>58.3</ele>
        <time>2013-10-13T08:22:38Z</time>
      </trkpt>
      <trkpt lat="47.63264" lon="-2.12892">
        <ele>60.7</ele>
        <time>2013-10-13T08:22:44Z</time>
      </trkpt>
      <trkpt lat="47.63254" lon="-2.12902">
        <ele>62.14</ele>
        <time>2013-10-13T08:22:49Z</time>
      </trkpt>
      <trkpt lat="47.63244" lon="-2.1291">
        <ele>62.14</ele>
        <time>2013-10-13T08:22:53Z</time>
      </trkpt>
      <trkpt lat="47.63236" lon="-2.1292">
        <ele>62.14</ele>
        <time>2013-10-13T08:22:59Z</time>
      </trkpt>
      <trkpt lat="47.63225" lon="-2.12924">
        <ele>63.1</ele>
        <time>2013-10-13T08:23:05Z</time>
      </trkpt>
      <trkpt lat="47.63219" lon="-2.12939">
        <ele>64.55</ele>
        <time>2013-10-13T08:23:09Z</time>
      </trkpt>
      <trkpt lat="47.63218" lon="-2.12955">
        <ele>66.47</ele>
        <time>2013-10-13T08:23:13Z</time>
      </trkpt>
      <trkpt lat="47.63216" lon="-2.1297">
        <ele>68.39</ele>
        <time>2013-10-13T08:23:17Z</time>
      </trkpt>
      <trkpt lat="47.63205" lon="-2.1298">
        <ele>68.87</ele>
        <time>2013-10-13T08:23:21Z</time>
      </trkpt>
      <trkpt lat="47.63195" lon="-2.12985">
        <ele>67.91</ele>
        <time>2013-10-13T08:23:24Z</time>
      </trkpt>
      <trkpt lat="47.63186" lon="-2.12994">
        <ele>67.91</ele>
        <time>2013-10-13T08:23:27Z</time>
      </trkpt>
      <trkpt lat="47.63178" lon="-2.13008">
        <ele>67.91</ele>
        <time>2013-10-13T08:23:31Z</time>
      </trkpt>
      <trkpt lat="47.63172" lon="-2.13027">
        <ele>66.95</ele>
        <time>2013-10-13T08:23:35Z</time>
      </trkpt>
      <trkpt lat="47.63169" lon="-2.1304">
        <ele>67.43</ele>
        <time>2013-10-13T08:23:38Z</time>
      </trkpt>
      <trkpt lat="47.63164" lon="-2.13056">
        <ele>67.91</ele>
        <time>2013-10-13T08:23:42Z</time>
      </trkpt>
      <trkpt lat="47.6316" lon="-2.13071">
        <ele>67.91</ele>
        <time>2013-10-13T08:23:46Z</time>
      </trkpt>
      <trkpt lat="47.63151" lon="-2.13076">
        <ele>66.95</ele>
        <time>2013-10-13T08:23:50Z</time>
      </trkpt>
      <trkpt lat="47.63141" lon="-2.13073">
        <ele>66.47</ele>
        <time>2013-10-13T08:23:53Z</time>
      </trkpt>
      <trkpt lat="47.6313" lon="-2.13066">
        <ele>65.99</ele>
        <time>2013-10-13T08:23:56Z</time>
      </trkpt>
      <trkpt lat="47.63118" lon="-2.13059">
        <ele>65.99</ele>
        <time>2013-10-13T08:23:59Z</time>
      </trkpt>
      <trkpt lat="47.63106" lon="-2.13049">
        <ele>65.51</ele>
        <time>2013-10-13T08:24:02Z</time>
      </trkpt>
      <trkpt lat="47.63096" lon="-2.13038">
        <ele>65.99</ele>
        <time>2013-10-13T08:24:05Z</time>
      </trkpt>
      <trkpt lat="47.63086" lon="-2.13024">
        <ele>65.99</ele>
        <time>2013-10-13T08:24:08Z</time>
      </trkpt>
      <trkpt lat="47.63077" lon="-2.1301">
        <ele>66.47</ele>
        <time>2013-10-13T08:24:11Z</time>
      </trkpt>
      <trkpt lat="47.63069" lon="-2.12995">
        <ele>67.43</ele>
        <time>2013-10-13T08:24:14Z</time>
      </trkpt>
      <trkpt lat="47.63062" lon="-2.12981">
        <ele>67.91</ele>
        <time>2013-10-13T08:24:17Z</time>
      </trkpt>
      <trkpt lat="47.63054" lon="-2.12969">
        <ele>67.91</ele>
        <time>2013-10-13T08:24:20Z</time>
      </trkpt>
      <trkpt lat="47.63043" lon="-2.12967">
        <ele>67.91</ele>
        <time>2013-10-13T08:24:23Z</time>
      </trkpt>
      <trkpt lat="47.63034" lon="-2.12977">
        <ele>68.39</ele>
        <time>2013-10-13T08:24:26Z</time>
      </trkpt>
      <trkpt lat="47.63024" lon="-2.12989">
        <ele>68.87</ele>
        <time>2013-10-13T08:24:29Z</time>
      </trkpt>
      <trkpt lat="47.63014" lon="-2.13001">
        <ele>69.35</ele>
        <time>2013-10-13T08:24:32Z</time>
      </trkpt>
      <trkpt lat="47.63004" lon="-2.13013">
        <ele>69.35</ele>
        <time>2013-10-13T08:24:35Z</time>
      </trkpt>
      <trkpt lat="47.62995" lon="-2.13026">
        <ele>68.87</ele>
        <time>2013-10-13T08:24:38Z</time>
      </trkpt>
      <trkpt lat="47.62986" lon="-2.13037">
        <ele>69.35</ele>
        <time>2013-10-13T08:24:41Z</time>
      </trkpt>
      <trkpt lat="47.62977" lon="-2.13048">
        <ele>69.35</ele>
        <time>2013-10-13T08:24:44Z</time>
      </trkpt>
      <trkpt lat="47.62969" lon="-2.13061">
        <ele>69.35</ele>
        <time>2013-10-13T08:24:47Z</time>
      </trkpt>
      <trkpt lat="47.62968" lon="-2.13078">
        <ele>68.39</ele>
        <time>2013-10-13T08:24:50Z</time>
      </trkpt>
      <trkpt lat="47.6297" lon="-2.13097">
        <ele>67.43</ele>
        <time>2013-10-13T08:24:53Z</time>
      </trkpt>
      <trkpt lat="47.62975" lon="-2.13114">
        <ele>66.95</ele>
        <time>2013-10-13T08:24:56Z</time>
      </trkpt>
      <trkpt lat="47.62981" lon="-2.13132">
        <ele>66.47</ele>
        <time>2013-10-13T08:24:59Z</time>
      </trkpt>
      <trkpt lat="47.62986" lon="-2.13146">
        <ele>65.99</ele>
        <time>2013-10-13T08:25:01Z</time>
      </trkpt>
      <trkpt lat="47.6299" lon="-2.13158">
        <ele>65.99</ele>
        <time>2013-10-13T08:25:03Z</time>
      </trkpt>
      <trkpt lat="47.62995" lon="-2.13171">
        <ele>65.99</ele>
        <time>2013-10-13T08:25:05Z</time>
      </trkpt>
      <trkpt lat="47.62998" lon="-2.13185">
        <ele>66.47</ele>
        <time>2013-10-13T08:25:07Z</time>
      </trkpt>
      <trkpt lat="47.63" lon="-2.132">
        <ele>66.47</ele>
        <time>2013-10-13T08:25:09Z</time>
      </trkpt>
      <trkpt lat="47.63002" lon="-2.13214">
        <ele>66.47</ele>
        <time>2013-10-13T08:25:11Z</time>
      </trkpt>
      <trkpt lat="47.63003" lon="-2.13228">
        <ele>66.47</ele>
        <time>2013-10-13T08:25:13Z</time>
      </trkpt>
      <trkpt lat="47.63003" lon="-2.13249">
        <ele>66.95</ele>
        <time>2013-10-13T08:25:16Z</time>
      </trkpt>
      <trkpt lat="47.63001" lon="-2.13262">
        <ele>66.47</ele>
        <time>2013-10-13T08:25:18Z</time>
      </trkpt>
      <trkpt lat="47.62998" lon="-2.13275">
        <ele>66.95</ele>
        <time>2013-10-13T08:25:20Z</time>
      </trkpt>
      <trkpt lat="47.62996" lon="-2.13289">
        <ele>66.95</ele>
        <time>2013-10-13T08:25:22Z</time>
      </trkpt>
      <trkpt lat="47.62994" lon="-2.13302">
        <ele>66.95</ele>
        <time>2013-10-13T08:25:24Z</time>
      </trkpt>
      <trkpt lat="47.62993" lon="-2.13317">
        <ele>67.43</ele>
        <time>2013-10-13T08:25:26Z</time>
      </trkpt>
      <trkpt lat="47.6299" lon="-2.13336">
        <ele>66.95</ele>
        <time>2013-10-13T08:25:29Z</time>
      </trkpt>
      <trkpt lat="47.62989" lon="-2.13355">
        <ele>66.47</ele>
        <time>2013-10-13T08:25:32Z</time>
      </trkpt>
      <trkpt lat="47.62995" lon="-2.13364">
        <ele>65.51</ele>
        <time>2013-10-13T08:25:35Z</time>
      </trkpt>
      <trkpt lat="47.63005" lon="-2.1336">
        <ele>65.51</ele>
        <time>2013-10-13T08:25:38Z</time>
      </trkpt>
      <trkpt lat="47.63014" lon="-2.13357">
        <ele>65.03</ele>
        <time>2013-10-13T08:25:41Z</time>
      </trkpt>
      <trkpt lat="47.63024" lon="-2.13353">
        <ele>65.51</ele>
        <time>2013-10-13T08:25:44Z</time>
      </trkpt>
      <trkpt lat="47.63035" lon="-2.13351">
        <ele>65.51</ele>
        <time>2013-10-13T08:25:47Z</time>
      </trkpt>
      <trkpt lat="47.63047" lon="-2.13348">
        <ele>65.99</ele>
        <time>2013-10-13T08:25:50Z</time>
      </trkpt>
      <trkpt lat="47.63059" lon="-2.13345">
        <ele>65.99</ele>
        <time>2013-10-13T08:25:53Z</time>
      </trkpt>
      <trkpt lat="47.6307" lon="-2.13344">
        <ele>66.47</ele>
        <time>2013-10-13T08:25:56Z</time>
      </trkpt>
      <trkpt lat="47.63082" lon="-2.13344">
        <ele>66.95</ele>
        <time>2013-10-13T08:25:59Z</time>
      </trkpt>
      <trkpt lat="47.63094" lon="-2.13342">
        <ele>67.91</ele>
        <time>2013-10-13T08:26:02Z</time>
      </trkpt>
      <trkpt lat="47.63106" lon="-2.1334">
        <ele>68.87</ele>
        <time>2013-10-13T08:26:05Z</time>
      </trkpt>
      <trkpt lat="47.63118" lon="-2.13337">
        <ele>69.83</ele>
        <time>2013-10-13T08:26:08Z</time>
      </trkpt>
      <trkpt lat="47.6313" lon="-2.13335">
        <ele>70.79</ele>
        <time>2013-10-13T08:26:11Z</time>
      </trkpt>
      <trkpt lat="47.63141" lon="-2.13332">
        <ele>71.27</ele>
        <time>2013-10-13T08:26:14Z</time>
      </trkpt>
      <trkpt lat="47.63153" lon="-2.13326">
        <ele>71.27</ele>
        <time>2013-10-13T08:26:17Z</time>
      </trkpt>
      <trkpt lat="47.63164" lon="-2.13319">
        <ele>71.27</ele>
        <time>2013-10-13T08:26:20Z</time>
      </trkpt>
      <trkpt lat="47.63175" lon="-2.13312">
        <ele>70.79</ele>
        <time>2013-10-13T08:26:23Z</time>
      </trkpt>
      <trkpt lat="47.63188" lon="-2.13308">
        <ele>70.79</ele>
        <time>2013-10-13T08:26:26Z</time>
      </trkpt>
      <trkpt lat="47.63201" lon="-2.13302">
        <ele>70.31</ele>
        <time>2013-10-13T08:26:29Z</time>
      </trkpt>
      <trkpt lat="47.63211" lon="-2.13299">
        <ele>69.83</ele>
        <time>2013-10-13T08:26:31Z</time>
      </trkpt>
      <trkpt lat="47.63225" lon="-2.13296">
        <ele>69.83</ele>
        <time>2013-10-13T08:26:34Z</time>
      </trkpt>
      <trkpt lat="47.63238" lon="-2.13293">
        <ele>69.83</ele>
        <time>2013-10-13T08:26:37Z</time>
      </trkpt>
      <trkpt lat="47.63248" lon="-2.1329">
        <ele>69.83</ele>
        <time>2013-10-13T08:26:39Z</time>
      </trkpt>
      <trkpt lat="47.63258" lon="-2.13288">
        <ele>69.35</ele>
        <time>2013-10-13T08:26:41Z</time>
      </trkpt>
      <trkpt lat="47.63271" lon="-2.13287">
        <ele>69.35</ele>
        <time>2013-10-13T08:26:44Z</time>
      </trkpt>
      <trkpt lat="47.63284" lon="-2.13284">
        <ele>69.35</ele>
        <time>2013-10-13T08:26:47Z</time>
      </trkpt>
      <trkpt lat="47.63298" lon="-2.13279">
        <ele>68.39</ele>
        <time>2013-10-13T08:26:50Z</time>
      </trkpt>
      <trkpt lat="47.6331" lon="-2.13273">
        <ele>67.91</ele>
        <time>2013-10-13T08:26:53Z</time>
      </trkpt>
      <trkpt lat="47.63324" lon="-2.13272">
        <ele>68.39</ele>
        <time>2013-10-13T08:26:56Z</time>
      </trkpt>
      <trkpt lat="47.63337" lon="-2.13274">
        <ele>68.39</ele>
        <time>2013-10-13T08:26:59Z</time>
      </trkpt>
      <trkpt lat="47.6335" lon="-2.13275">
        <ele>69.35</ele>
        <time>2013-10-13T08:27:02Z</time>
      </trkpt>
      <trkpt lat="47.6336" lon="-2.13279">
        <ele>69.83</ele>
        <time>2013-10-13T08:27:05Z</time>
      </trkpt>
      <trkpt lat="47.63362" lon="-2.13297">
        <ele>70.31</ele>
        <time>2013-10-13T08:27:08Z</time>
      </trkpt>
      <trkpt lat="47.63362" lon="-2.13316">
        <ele>71.27</ele>
        <time>2013-10-13T08:27:11Z</time>
      </trkpt>
      <trkpt lat="47.63364" lon="-2.13335">
        <ele>71.76</ele>
        <time>2013-10-13T08:27:14Z</time>
      </trkpt>
      <trkpt lat="47.63367" lon="-2.13355">
        <ele>71.76</ele>
        <time>2013-10-13T08:27:17Z</time>
      </trkpt>
      <trkpt lat="47.63368" lon="-2.13368">
        <ele>72.24</ele>
        <time>2013-10-13T08:27:19Z</time>
      </trkpt>
      <trkpt lat="47.63369" lon="-2.13382">
        <ele>71.76</ele>
        <time>2013-10-13T08:27:21Z</time>
      </trkpt>
      <trkpt lat="47.63371" lon="-2.13402">
        <ele>71.76</ele>
        <time>2013-10-13T08:27:24Z</time>
      </trkpt>
      <trkpt lat="47.63371" lon="-2.13417">
        <ele>71.76</ele>
        <time>2013-10-13T08:27:26Z</time>
      </trkpt>
      <trkpt lat="47.63372" lon="-2.13431">
        <ele>71.27</ele>
        <time>2013-10-13T08:27:28Z</time>
      </trkpt>
      <trkpt lat="47.63373" lon="-2.13445">
        <ele>71.27</ele>
        <time>2013-10-13T08:27:30Z</time>
      </trkpt>
      <trkpt lat="47.63374" lon="-2.1346">
        <ele>70.79</ele>
        <time>2013-10-13T08:27:32Z</time>
      </trkpt>
      <trkpt lat="47.63374" lon="-2.13475">
        <ele>70.79</ele>
        <time>2013-10-13T08:27:34Z</time>
      </trkpt>
      <trkpt lat="47.63375" lon="-2.13489">
        <ele>70.31</ele>
        <time>2013-10-13T08:27:36Z</time>
      </trkpt>
      <trkpt lat="47.63376" lon="-2.13504">
        <ele>69.83</ele>
        <time>2013-10-13T08:27:38Z</time>
      </trkpt>
      <trkpt lat="47.63377" lon="-2.13519">
        <ele>68.87</ele>
        <time>2013-10-13T08:27:40Z</time>
      </trkpt>
      <trkpt lat="47.63379" lon="-2.13534">
        <ele>67.91</ele>
        <time>2013-10-13T08:27:42Z</time>
      </trkpt>
      <trkpt lat="47.63379" lon="-2.13548">
        <ele>67.43</ele>
        <time>2013-10-13T08:27:44Z</time>
      </trkpt>
      <trkpt lat="47.63371" lon="-2.1356">
        <ele>67.91</ele>
        <time>2013-10-13T08:27:47Z</time>
      </trkpt>
      <trkpt lat="47.63359" lon="-2.13561">
        <ele>68.87</ele>
        <time>2013-10-13T08:27:50Z</time>
      </trkpt>
      <trkpt lat="47.63346" lon="-2.13561">
        <ele>70.31</ele>
        <time>2013-10-13T08:27:53Z</time>
      </trkpt>
      <trkpt lat="47.63334" lon="-2.13562">
        <ele>71.27</ele>
        <time>2013-10-13T08:27:56Z</time>
      </trkpt>
      <trkpt lat="47.63321" lon="-2.13564">
        <ele>71.76</ele>
        <time>2013-10-13T08:27:59Z</time>
      </trkpt>
      <trkpt lat="47.6331" lon="-2.13566">
        <ele>72.24</ele>
        <time>2013-10-13T08:28:02Z</time>
      </trkpt>
      <trkpt lat="47.63299" lon="-2.13567">
        <ele>73.68</ele>
        <time>2013-10-13T08:28:05Z</time>
      </trkpt>
      <trkpt lat="47.6329" lon="-2.1356">
        <ele>74.64</ele>
        <time>2013-10-13T08:28:08Z</time>
      </trkpt>
      <trkpt lat="47.63281" lon="-2.13552">
        <ele>75.6</ele>
        <time>2013-10-13T08:28:12Z</time>
      </trkpt>
      <trkpt lat="47.63268" lon="-2.13553">
        <ele>75.12</ele>
        <time>2013-10-13T08:28:16Z</time>
      </trkpt>
      <trkpt lat="47.63255" lon="-2.13553">
        <ele>75.12</ele>
        <time>2013-10-13T08:28:20Z</time>
      </trkpt>
      <trkpt lat="47.63243" lon="-2.13551">
        <ele>75.6</ele>
        <time>2013-10-13T08:28:23Z</time>
      </trkpt>
      <trkpt lat="47.63232" lon="-2.1355">
        <ele>75.6</ele>
        <time>2013-10-13T08:28:26Z</time>
      </trkpt>
      <trkpt lat="47.63221" lon="-2.13549">
        <ele>76.08</ele>
        <time>2013-10-13T08:28:29Z</time>
      </trkpt>
      <trkpt lat="47.63209" lon="-2.13548">
        <ele>76.08</ele>
        <time>2013-10-13T08:28:32Z</time>
      </trkpt>
      <trkpt lat="47.63198" lon="-2.13547">
        <ele>75.6</ele>
        <time>2013-10-13T08:28:35Z</time>
      </trkpt>
      <trkpt lat="47.63187" lon="-2.13545">
        <ele>75.6</ele>
        <time>2013-10-13T08:28:38Z</time>
      </trkpt>
      <trkpt lat="47.63177" lon="-2.13544">
        <ele>75.12</ele>
        <time>2013-10-13T08:28:41Z</time>
      </trkpt>
      <trkpt lat="47.63167" lon="-2.13543">
        <ele>75.12</ele>
        <time>2013-10-13T08:28:44Z</time>
      </trkpt>
      <trkpt lat="47.63156" lon="-2.13545">
        <ele>74.64</ele>
        <time>2013-10-13T08:28:47Z</time>
      </trkpt>
      <trkpt lat="47.63149" lon="-2.13557">
        <ele>74.64</ele>
        <time>2013-10-13T08:28:50Z</time>
      </trkpt>
      <trkpt lat="47.63143" lon="-2.13573">
        <ele>74.16</ele>
        <time>2013-10-13T08:28:53Z</time>
      </trkpt>
      <trkpt lat="47.6314" lon="-2.13586">
        <ele>74.16</ele>
        <time>2013-10-13T08:28:56Z</time>
      </trkpt>
      <trkpt lat="47.6315" lon="-2.13597">
        <ele>74.64</ele>
        <time>2013-10-13T08:28:59Z</time>
      </trkpt>
      <trkpt lat="47.63157" lon="-2.13606">
        <ele>74.64</ele>
        <time>2013-10-13T08:29:01Z</time>
      </trkpt>
      <trkpt lat="47.63163" lon="-2.13621">
        <ele>74.64</ele>
        <time>2013-10-13T08:29:04Z</time>
      </trkpt>
      <trkpt lat="47.63166" lon="-2.13638">
        <ele>74.64</ele>
        <time>2013-10-13T08:29:07Z</time>
      </trkpt>
      <trkpt lat="47.63156" lon="-2.13644">
        <ele>73.68</ele>
        <time>2013-10-13T08:29:10Z</time>
      </trkpt>
      <trkpt lat="47.63146" lon="-2.1365">
        <ele>72.72</ele>
        <time>2013-10-13T08:29:13Z</time>
      </trkpt>
      <trkpt lat="47.63139" lon="-2.13661">
        <ele>71.76</ele>
        <time>2013-10-13T08:29:16Z</time>
      </trkpt>
      <trkpt lat="47.63139" lon="-2.13674">
        <ele>71.27</ele>
        <time>2013-10-13T08:29:20Z</time>
      </trkpt>
      <trkpt lat="47.63148" lon="-2.13683">
        <ele>71.27</ele>
        <time>2013-10-13T08:29:24Z</time>
      </trkpt>
      <trkpt lat="47.63149" lon="-2.13696">
        <ele>71.27</ele>
        <time>2013-10-13T08:29:29Z</time>
      </trkpt>
      <trkpt lat="47.63135" lon="-2.13703">
        <ele>70.79</ele>
        <time>2013-10-13T08:29:35Z</time>
      </trkpt>
      <trkpt lat="47.63125" lon="-2.13704">
        <ele>71.27</ele>
        <time>2013-10-13T08:29:39Z</time>
      </trkpt>
      <trkpt lat="47.6312" lon="-2.13689">
        <ele>71.76</ele>
        <time>2013-10-13T08:29:45Z</time>
      </trkpt>
      <trkpt lat="47.63115" lon="-2.13672">
        <ele>71.27</ele>
        <time>2013-10-13T08:29:51Z</time>
      </trkpt>
      <trkpt lat="47.63115" lon="-2.13656">
        <ele>70.31</ele>
        <time>2013-10-13T08:29:57Z</time>
      </trkpt>
      <trkpt lat="47.63113" lon="-2.1364">
        <ele>70.31</ele>
        <time>2013-10-13T08:30:02Z</time>
      </trkpt>
      <trkpt lat="47.6311" lon="-2.13624">
        <ele>70.31</ele>
        <time>2013-10-13T08:30:06Z</time>
      </trkpt>
      <trkpt lat="47.63109" lon="-2.13606">
        <ele>70.79</ele>
        <time>2013-10-13T08:30:10Z</time>
      </trkpt>
      <trkpt lat="47.63105" lon="-2.13592">
        <ele>71.27</ele>
        <time>2013-10-13T08:30:14Z</time>
      </trkpt>
      <trkpt lat="47.63094" lon="-2.13596">
        <ele>72.24</ele>
        <time>2013-10-13T08:30:18Z</time>
      </trkpt>
      <trkpt lat="47.63085" lon="-2.13597">
        <ele>72.72</ele>
        <time>2013-10-13T08:30:21Z</time>
      </trkpt>
      <trkpt lat="47.63077" lon="-2.13591">
        <ele>72.72</ele>
        <time>2013-10-13T08:30:24Z</time>
      </trkpt>
      <trkpt lat="47.63064" lon="-2.13589">
        <ele>72.24</ele>
        <time>2013-10-13T08:30:27Z</time>
      </trkpt>
      <trkpt lat="47.6305" lon="-2.13585">
        <ele>71.76</ele>
        <time>2013-10-13T08:30:30Z</time>
      </trkpt>
      <trkpt lat="47.63041" lon="-2.13581">
        <ele>71.76</ele>
        <time>2013-10-13T08:30:32Z</time>
      </trkpt>
      <trkpt lat="47.63029" lon="-2.13577">
        <ele>70.79</ele>
        <time>2013-10-13T08:30:35Z</time>
      </trkpt>
      <trkpt lat="47.63017" lon="-2.13573">
        <ele>70.31</ele>
        <time>2013-10-13T08:30:38Z</time>
      </trkpt>
      <trkpt lat="47.63006" lon="-2.13572">
        <ele>69.35</ele>
        <time>2013-10-13T08:30:41Z</time>
      </trkpt>
      <trkpt lat="47.62997" lon="-2.1358">
        <ele>68.39</ele>
        <time>2013-10-13T08:30:44Z</time>
      </trkpt>
      <trkpt lat="47.62993" lon="-2.13595">
        <ele>67.91</ele>
        <time>2013-10-13T08:30:47Z</time>
      </trkpt>
      <trkpt lat="47.62987" lon="-2.13606">
        <ele>67.91</ele>
        <time>2013-10-13T08:30:50Z</time>
      </trkpt>
      <trkpt lat="47.62984" lon="-2.13621">
        <ele>68.39</ele>
        <time>2013-10-13T08:30:53Z</time>
      </trkpt>
      <trkpt lat="47.6298" lon="-2.13637">
        <ele>69.35</ele>
        <time>2013-10-13T08:30:56Z</time>
      </trkpt>
      <trkpt lat="47.62987" lon="-2.13644">
        <ele>70.31</ele>
        <time>2013-10-13T08:31:00Z</time>
      </trkpt>
      <trkpt lat="47.62981" lon="-2.13658">
        <ele>71.76</ele>
        <time>2013-10-13T08:31:05Z</time>
      </trkpt>
      <trkpt lat="47.6297" lon="-2.1367">
        <ele>72.24</ele>
        <time>2013-10-13T08:31:09Z</time>
      </trkpt>
      <trkpt lat="47.62964" lon="-2.13682">
        <ele>71.27</ele>
        <time>2013-10-13T08:31:13Z</time>
      </trkpt>
      <trkpt lat="47.62963" lon="-2.137">
        <ele>70.79</ele>
        <time>2013-10-13T08:31:20Z</time>
      </trkpt>
      <trkpt lat="47.62957" lon="-2.13711">
        <ele>70.31</ele>
        <time>2013-10-13T08:31:26Z</time>
      </trkpt>
      <trkpt lat="47.62946" lon="-2.13709">
        <ele>67.91</ele>
        <time>2013-10-13T08:31:30Z</time>
      </trkpt>
      <trkpt lat="47.62942" lon="-2.13722">
        <ele>65.99</ele>
        <time>2013-10-13T08:31:38Z</time>
      </trkpt>
      <trkpt lat="47.62947" lon="-2.13737">
        <ele>65.51</ele>
        <time>2013-10-13T08:31:43Z</time>
      </trkpt>
      <trkpt lat="47.62953" lon="-2.13756">
        <ele>65.99</ele>
        <time>2013-10-13T08:31:50Z</time>
      </trkpt>
      <trkpt lat="47.6296" lon="-2.13769">
        <ele>65.99</ele>
        <time>2013-10-13T08:31:53Z</time>
      </trkpt>
      <trkpt lat="47.62972" lon="-2.13776">
        <ele>65.99</ele>
        <time>2013-10-13T08:31:56Z</time>
      </trkpt>
      <trkpt lat="47.62987" lon="-2.13776">
        <ele>66.47</ele>
        <time>2013-10-13T08:32:00Z</time>
      </trkpt>
      <trkpt lat="47.62998" lon="-2.1377">
        <ele>66.47</ele>
        <time>2013-10-13T08:32:03Z</time>
      </trkpt>
      <trkpt lat="47.6301" lon="-2.13764">
        <ele>66.47</ele>
        <time>2013-10-13T08:32:07Z</time>
      </trkpt>
      <trkpt lat="47.6302" lon="-2.13757">
        <ele>66.47</ele>
        <time>2013-10-13T08:32:11Z</time>
      </trkpt>
      <trkpt lat="47.63029" lon="-2.13747">
        <ele>66.47</ele>
        <time>2013-10-13T08:32:15Z</time>
      </trkpt>
      <trkpt lat="47.6304" lon="-2.13743">
        <ele>66.95</ele>
        <time>2013-10-13T08:32:20Z</time>
      </trkpt>
      <trkpt lat="47.63052" lon="-2.13743">
        <ele>67.43</ele>
        <time>2013-10-13T08:32:25Z</time>
      </trkpt>
      <trkpt lat="47.63063" lon="-2.13744">
        <ele>67.91</ele>
        <time>2013-10-13T08:32:30Z</time>
      </trkpt>
      <trkpt lat="47.63067" lon="-2.13758">
        <ele>68.87</ele>
        <time>2013-10-13T08:32:36Z</time>
      </trkpt>
      <trkpt lat="47.63065" lon="-2.13776">
        <ele>67.91</ele>
        <time>2013-10-13T08:32:42Z</time>
      </trkpt>
      <trkpt lat="47.63058" lon="-2.1379">
        <ele>66.95</ele>
        <time>2013-10-13T08:32:46Z</time>
      </trkpt>
      <trkpt lat="47.63051" lon="-2.13801">
        <ele>66.47</ele>
        <time>2013-10-13T08:32:49Z</time>
      </trkpt>
      <trkpt lat="47.63041" lon="-2.13811">
        <ele>65.51</ele>
        <time>2013-10-13T08:32:52Z</time>
      </trkpt>
      <trkpt lat="47.63033" lon="-2.13823">
        <ele>63.58</ele>
        <time>2013-10-13T08:32:58Z</time>
      </trkpt>
      <trkpt lat="47.63022" lon="-2.13823">
        <ele>62.14</ele>
        <time>2013-10-13T08:33:01Z</time>
      </trkpt>
      <trkpt lat="47.63023" lon="-2.13834">
        <ele>60.22</ele>
        <time>2013-10-13T08:33:07Z</time>
      </trkpt>
      <trkpt lat="47.63031" lon="-2.13839">
        <ele>60.22</ele>
        <time>2013-10-13T08:33:11Z</time>
      </trkpt>
      <trkpt lat="47.63042" lon="-2.13848">
        <ele>59.74</ele>
        <time>2013-10-13T08:33:16Z</time>
      </trkpt>
      <trkpt lat="47.63051" lon="-2.13857">
        <ele>60.22</ele>
        <time>2013-10-13T08:33:19Z</time>
      </trkpt>
      <trkpt lat="47.63063" lon="-2.13865">
        <ele>60.7</ele>
        <time>2013-10-13T08:33:26Z</time>
      </trkpt>
      <trkpt lat="47.63073" lon="-2.13879">
        <ele>61.18</ele>
        <time>2013-10-13T08:33:31Z</time>
      </trkpt>
      <trkpt lat="47.63085" lon="-2.13889">
        <ele>61.18</ele>
        <time>2013-10-13T08:33:35Z</time>
      </trkpt>
      <trkpt lat="47.631" lon="-2.13907">
        <ele>60.7</ele>
        <time>2013-10-13T08:33:43Z</time>
      </trkpt>
      <trkpt lat="47.63121" lon="-2.13918">
        <ele>60.7</ele>
        <time>2013-10-13T08:33:53Z</time>
      </trkpt>
      <trkpt lat="47.63132" lon="-2.13923">
        <ele>60.7</ele>
        <time>2013-10-13T08:33:57Z</time>
      </trkpt>
      <trkpt lat="47.63144" lon="-2.13929">
        <ele>60.7</ele>
        <time>2013-10-13T08:34:02Z</time>
      </trkpt>
      <trkpt lat="47.63149" lon="-2.13941">
        <ele>60.7</ele>
        <time>2013-10-13T08:34:06Z</time>
      </trkpt>
      <trkpt lat="47.6316" lon="-2.13946">
        <ele>59.26</ele>
        <time>2013-10-13T08:34:11Z</time>
      </trkpt>
      <trkpt lat="47.63169" lon="-2.13935">
        <ele>58.3</ele>
        <time>2013-10-13T08:34:14Z</time>
      </trkpt>
      <trkpt lat="47.63178" lon="-2.13925">
        <ele>57.34</ele>
        <time>2013-10-13T08:34:18Z</time>
      </trkpt>
      <trkpt lat="47.63186" lon="-2.13914">
        <ele>57.34</ele>
        <time>2013-10-13T08:34:22Z</time>
      </trkpt>
      <trkpt lat="47.63193" lon="-2.139">
        <ele>57.82</ele>
        <time>2013-10-13T08:34:26Z</time>
      </trkpt>
      <trkpt lat="47.63198" lon="-2.13887">
        <ele>58.3</ele>
        <time>2013-10-13T08:34:30Z</time>
      </trkpt>
      <trkpt lat="47.63204" lon="-2.13874">
        <ele>57.82</ele>
        <time>2013-10-13T08:34:34Z</time>
      </trkpt>
      <trkpt lat="47.6321" lon="-2.13862">
        <ele>58.3</ele>
        <time>2013-10-13T08:34:38Z</time>
      </trkpt>
      <trkpt lat="47.63217" lon="-2.1385">
        <ele>58.78</ele>
        <time>2013-10-13T08:34:43Z</time>
      </trkpt>
      <trkpt lat="47.63223" lon="-2.13844">
        <ele>59.26</ele>
        <time>2013-10-13T08:34:50Z</time>
      </trkpt>
      <trkpt lat="47.63226" lon="-2.13827">
        <ele>59.74</ele>
        <time>2013-10-13T08:34:55Z</time>
      </trkpt>
      <trkpt lat="47.63229" lon="-2.13812">
        <ele>60.22</ele>
        <time>2013-10-13T08:34:59Z</time>
      </trkpt>
      <trkpt lat="47.63237" lon="-2.13798">
        <ele>60.7</ele>
        <time>2013-10-13T08:35:03Z</time>
      </trkpt>
      <trkpt lat="47.63243" lon="-2.13786">
        <ele>61.18</ele>
        <time>2013-10-13T08:35:07Z</time>
      </trkpt>
      <trkpt lat="47.63249" lon="-2.13775">
        <ele>61.66</ele>
        <time>2013-10-13T08:35:11Z</time>
      </trkpt>
      <trkpt lat="47.63258" lon="-2.13768">
        <ele>62.62</ele>
        <time>2013-10-13T08:35:15Z</time>
      </trkpt>
      <trkpt lat="47.63267" lon="-2.13759">
        <ele>63.1</ele>
        <time>2013-10-13T08:35:19Z</time>
      </trkpt>
      <trkpt lat="47.63278" lon="-2.13752">
        <ele>64.55</ele>
        <time>2013-10-13T08:35:24Z</time>
      </trkpt>
      <trkpt lat="47.63289" lon="-2.1375">
        <ele>67.43</ele>
        <time>2013-10-13T08:35:30Z</time>
      </trkpt>
      <trkpt lat="47.63298" lon="-2.13761">
        <ele>70.79</ele>
        <time>2013-10-13T08:35:38Z</time>
      </trkpt>
      <trkpt lat="47.63303" lon="-2.13776">
        <ele>71.76</ele>
        <time>2013-10-13T08:35:43Z</time>
      </trkpt>
      <trkpt lat="47.63306" lon="-2.1379">
        <ele>71.27</ele>
        <time>2013-10-13T08:35:48Z</time>
      </trkpt>
      <trkpt lat="47.63298" lon="-2.13802">
        <ele>70.79</ele>
        <time>2013-10-13T08:35:53Z</time>
      </trkpt>
      <trkpt lat="47.63291" lon="-2.13816">
        <ele>71.27</ele>
        <time>2013-10-13T08:35:57Z</time>
      </trkpt>
      <trkpt lat="47.63282" lon="-2.13826">
        <ele>71.76</ele>
        <time>2013-10-13T08:36:01Z</time>
      </trkpt>
      <trkpt lat="47.63282" lon="-2.13847">
        <ele>69.83</ele>
        <time>2013-10-13T08:36:05Z</time>
      </trkpt>
      <trkpt lat="47.63288" lon="-2.13865">
        <ele>66.47</ele>
        <time>2013-10-13T08:36:08Z</time>
      </trkpt>
      <trkpt lat="47.6329" lon="-2.13882">
        <ele>66.95</ele>
        <time>2013-10-13T08:36:11Z</time>
      </trkpt>
      <trkpt lat="47.63291" lon="-2.13898">
        <ele>66.95</ele>
        <time>2013-10-13T08:36:14Z</time>
      </trkpt>
      <trkpt lat="47.63282" lon="-2.13903">
        <ele>66.47</ele>
        <time>2013-10-13T08:36:17Z</time>
      </trkpt>
      <trkpt lat="47.63272" lon="-2.13902">
        <ele>65.99</ele>
        <time>2013-10-13T08:36:20Z</time>
      </trkpt>
      <trkpt lat="47.63263" lon="-2.139">
        <ele>64.07</ele>
        <time>2013-10-13T08:36:23Z</time>
      </trkpt>
      <trkpt lat="47.63251" lon="-2.13895">
        <ele>62.14</ele>
        <time>2013-10-13T08:36:26Z</time>
      </trkpt>
      <trkpt lat="47.6324" lon="-2.139">
        <ele>60.7</ele>
        <time>2013-10-13T08:36:29Z</time>
      </trkpt>
      <trkpt lat="47.63233" lon="-2.13914">
        <ele>60.7</ele>
        <time>2013-10-13T08:36:32Z</time>
      </trkpt>
      <trkpt lat="47.63228" lon="-2.1393">
        <ele>60.7</ele>
        <time>2013-10-13T08:36:35Z</time>
      </trkpt>
      <trkpt lat="47.63225" lon="-2.13944">
        <ele>60.7</ele>
        <time>2013-10-13T08:36:38Z</time>
      </trkpt>
      <trkpt lat="47.63233" lon="-2.13954">
        <ele>60.22</ele>
        <time>2013-10-13T08:36:42Z</time>
      </trkpt>
      <trkpt lat="47.63242" lon="-2.13958">
        <ele>60.7</ele>
        <time>2013-10-13T08:36:45Z</time>
      </trkpt>
      <trkpt lat="47.63246" lon="-2.13973">
        <ele>60.7</ele>
        <time>2013-10-13T08:36:49Z</time>
      </trkpt>
      <trkpt lat="47.63251" lon="-2.13985">
        <ele>60.22</ele>
        <time>2013-10-13T08:36:54Z</time>
      </trkpt>
      <trkpt lat="47.63262" lon="-2.13988">
        <ele>60.22</ele>
        <time>2013-10-13T08:36:57Z</time>
      </trkpt>
      <trkpt lat="47.63273" lon="-2.13997">
        <ele>61.18</ele>
        <time>2013-10-13T08:37:02Z</time>
      </trkpt>
      <trkpt lat="47.63288" lon="-2.14001">
        <ele>61.18</ele>
        <time>2013-10-13T08:37:07Z</time>
      </trkpt>
      <trkpt lat="47.633" lon="-2.14004">
        <ele>61.18</ele>
        <time>2013-10-13T08:37:11Z</time>
      </trkpt>
      <trkpt lat="47.63309" lon="-2.14009">
        <ele>61.18</ele>
        <time>2013-10-13T08:37:15Z</time>
      </trkpt>
      <trkpt lat="47.63314" lon="-2.14022">
        <ele>61.18</ele>
        <time>2013-10-13T08:37:19Z</time>
      </trkpt>
      <trkpt lat="47.63316" lon="-2.14039">
        <ele>61.66</ele>
        <time>2013-10-13T08:37:24Z</time>
      </trkpt>
      <trkpt lat="47.63329" lon="-2.14058">
        <ele>62.14</ele>
        <time>2013-10-13T08:37:30Z</time>
      </trkpt>
      <trkpt lat="47.63349" lon="-2.14074">
        <ele>60.7</ele>
        <time>2013-10-13T08:37:34Z</time>
      </trkpt>
      <trkpt lat="47.63368" lon="-2.14087">
        <ele>58.78</ele>
        <time>2013-10-13T08:37:41Z</time>
      </trkpt>
      <trkpt lat="47.63382" lon="-2.1409">
        <ele>58.3</ele>
        <time>2013-10-13T08:37:47Z</time>
      </trkpt>
      <trkpt lat="47.63394" lon="-2.14104">
        <ele>58.78</ele>
        <time>2013-10-13T08:37:54Z</time>
      </trkpt>
      <trkpt lat="47.63405" lon="-2.14105">
        <ele>59.26</ele>
        <time>2013-10-13T08:37:58Z</time>
      </trkpt>
      <trkpt lat="47.63416" lon="-2.141">
        <ele>59.26</ele>
        <time>2013-10-13T08:38:03Z</time>
      </trkpt>
      <trkpt lat="47.63435" lon="-2.14101">
        <ele>58.78</ele>
        <time>2013-10-13T08:38:10Z</time>
      </trkpt>
      <trkpt lat="47.63448" lon="-2.14094">
        <ele>56.86</ele>
        <time>2013-10-13T08:38:16Z</time>
      </trkpt>
      <trkpt lat="47.63458" lon="-2.14086">
        <ele>58.78</ele>
        <time>2013-10-13T08:38:26Z</time>
      </trkpt>
      <trkpt lat="47.63458" lon="-2.14103">
        <ele>60.7</ele>
        <time>2013-10-13T08:38:31Z</time>
      </trkpt>
      <trkpt lat="47.63457" lon="-2.1412">
        <ele>62.62</ele>
        <time>2013-10-13T08:38:35Z</time>
      </trkpt>
      <trkpt lat="47.63458" lon="-2.14134">
        <ele>65.51</ele>
        <time>2013-10-13T08:38:39Z</time>
      </trkpt>
      <trkpt lat="47.63459" lon="-2.14148">
        <ele>65.99</ele>
        <time>2013-10-13T08:38:43Z</time>
      </trkpt>
      <trkpt lat="47.63462" lon="-2.14162">
        <ele>65.99</ele>
        <time>2013-10-13T08:38:48Z</time>
      </trkpt>
      <trkpt lat="47.6347" lon="-2.14182">
        <ele>64.55</ele>
        <time>2013-10-13T08:38:54Z</time>
      </trkpt>
      <trkpt lat="47.63474" lon="-2.14197">
        <ele>63.58</ele>
        <time>2013-10-13T08:38:58Z</time>
      </trkpt>
      <trkpt lat="47.63475" lon="-2.14212">
        <ele>63.1</ele>
        <time>2013-10-13T08:39:01Z</time>
      </trkpt>
      <trkpt lat="47.63474" lon="-2.14228">
        <ele>62.62</ele>
        <time>2013-10-13T08:39:04Z</time>
      </trkpt>
      <trkpt lat="47.63473" lon="-2.14245">
        <ele>62.14</ele>
        <time>2013-10-13T08:39:07Z</time>
      </trkpt>
      <trkpt lat="47.63472" lon="-2.14261">
        <ele>62.14</ele>
        <time>2013-10-13T08:39:10Z</time>
      </trkpt>
      <trkpt lat="47.63471" lon="-2.14278">
        <ele>62.14</ele>
        <time>2013-10-13T08:39:13Z</time>
      </trkpt>
      <trkpt lat="47.6347" lon="-2.14296">
        <ele>62.62</ele>
        <time>2013-10-13T08:39:16Z</time>
      </trkpt>
      <trkpt lat="47.63469" lon="-2.14314">
        <ele>63.1</ele>
        <time>2013-10-13T08:39:19Z</time>
      </trkpt>
      <trkpt lat="47.63467" lon="-2.14331">
        <ele>63.58</ele>
        <time>2013-10-13T08:39:22Z</time>
      </trkpt>
      <trkpt lat="47.63466" lon="-2.14349">
        <ele>63.58</ele>
        <time>2013-10-13T08:39:25Z</time>
      </trkpt>
      <trkpt lat="47.63465" lon="-2.14368">
        <ele>63.58</ele>
        <time>2013-10-13T08:39:28Z</time>
      </trkpt>
      <trkpt lat="47.63464" lon="-2.14386">
        <ele>64.07</ele>
        <time>2013-10-13T08:39:31Z</time>
      </trkpt>
      <trkpt lat="47.63463" lon="-2.14404">
        <ele>64.55</ele>
        <time>2013-10-13T08:39:34Z</time>
      </trkpt>
      <trkpt lat="47.63461" lon="-2.14423">
        <ele>65.51</ele>
        <time>2013-10-13T08:39:37Z</time>
      </trkpt>
      <trkpt lat="47.63461" lon="-2.14441">
        <ele>65.99</ele>
        <time>2013-10-13T08:39:40Z</time>
      </trkpt>
      <trkpt lat="47.63459" lon="-2.14459">
        <ele>66.95</ele>
        <time>2013-10-13T08:39:43Z</time>
      </trkpt>
      <trkpt lat="47.63458" lon="-2.14478">
        <ele>67.43</ele>
        <time>2013-10-13T08:39:46Z</time>
      </trkpt>
      <trkpt lat="47.63457" lon="-2.14498">
        <ele>68.39</ele>
        <time>2013-10-13T08:39:49Z</time>
      </trkpt>
      <trkpt lat="47.63456" lon="-2.14517">
        <ele>66.47</ele>
        <time>2013-10-13T08:39:52Z</time>
      </trkpt>
      <trkpt lat="47.63457" lon="-2.14538">
        <ele>60.7</ele>
        <time>2013-10-13T08:39:55Z</time>
      </trkpt>
      <trkpt lat="47.63456" lon="-2.14558">
        <ele>59.26</ele>
        <time>2013-10-13T08:39:58Z</time>
      </trkpt>
      <trkpt lat="47.63456" lon="-2.14578">
        <ele>58.3</ele>
        <time>2013-10-13T08:40:01Z</time>
      </trkpt>
      <trkpt lat="47.63457" lon="-2.14596">
        <ele>58.3</ele>
        <time>2013-10-13T08:40:04Z</time>
      </trkpt>
      <trkpt lat="47.63459" lon="-2.14615">
        <ele>58.78</ele>
        <time>2013-10-13T08:40:07Z</time>
      </trkpt>
      <trkpt lat="47.63461" lon="-2.14633">
        <ele>58.78</ele>
        <time>2013-10-13T08:40:10Z</time>
      </trkpt>
      <trkpt lat="47.63463" lon="-2.14651">
        <ele>58.3</ele>
        <time>2013-10-13T08:40:13Z</time>
      </trkpt>
      <trkpt lat="47.63469" lon="-2.14667">
        <ele>58.78</ele>
        <time>2013-10-13T08:40:16Z</time>
      </trkpt>
      <trkpt lat="47.6348" lon="-2.14674">
        <ele>58.78</ele>
        <time>2013-10-13T08:40:19Z</time>
      </trkpt>
      <trkpt lat="47.63491" lon="-2.14676">
        <ele>59.26</ele>
        <time>2013-10-13T08:40:22Z</time>
      </trkpt>
      <trkpt lat="47.63503" lon="-2.14676">
        <ele>59.74</ele>
        <time>2013-10-13T08:40:25Z</time>
      </trkpt>
      <trkpt lat="47.63513" lon="-2.14675">
        <ele>59.74</ele>
        <time>2013-10-13T08:40:28Z</time>
      </trkpt>
      <trkpt lat="47.63524" lon="-2.14673">
        <ele>60.22</ele>
        <time>2013-10-13T08:40:31Z</time>
      </trkpt>
      <trkpt lat="47.63536" lon="-2.1467">
        <ele>60.22</ele>
        <time>2013-10-13T08:40:34Z</time>
      </trkpt>
      <trkpt lat="47.63549" lon="-2.14667">
        <ele>60.22</ele>
        <time>2013-10-13T08:40:37Z</time>
      </trkpt>
      <trkpt lat="47.63561" lon="-2.14666">
        <ele>60.22</ele>
        <time>2013-10-13T08:40:40Z</time>
      </trkpt>
      <trkpt lat="47.63575" lon="-2.14665">
        <ele>60.22</ele>
        <time>2013-10-13T08:40:43Z</time>
      </trkpt>
      <trkpt lat="47.63585" lon="-2.14666">
        <ele>60.22</ele>
        <time>2013-10-13T08:40:45Z</time>
      </trkpt>
      <trkpt lat="47.63594" lon="-2.14669">
        <ele>59.74</ele>
        <time>2013-10-13T08:40:47Z</time>
      </trkpt>
      <trkpt lat="47.63603" lon="-2.14675">
        <ele>59.74</ele>
        <time>2013-10-13T08:40:49Z</time>
      </trkpt>
      <trkpt lat="47.63611" lon="-2.14684">
        <ele>59.74</ele>
        <time>2013-10-13T08:40:51Z</time>
      </trkpt>
      <trkpt lat="47.63619" lon="-2.14692">
        <ele>59.26</ele>
        <time>2013-10-13T08:40:53Z</time>
      </trkpt>
      <trkpt lat="47.63626" lon="-2.147">
        <ele>59.26</ele>
        <time>2013-10-13T08:40:55Z</time>
      </trkpt>
      <trkpt lat="47.63634" lon="-2.1471">
        <ele>59.26</ele>
        <time>2013-10-13T08:40:57Z</time>
      </trkpt>
      <trkpt lat="47.63641" lon="-2.14719">
        <ele>59.26</ele>
        <time>2013-10-13T08:40:59Z</time>
      </trkpt>
      <trkpt lat="47.63649" lon="-2.14728">
        <ele>58.78</ele>
        <time>2013-10-13T08:41:01Z</time>
      </trkpt>
      <trkpt lat="47.63657" lon="-2.14737">
        <ele>58.78</ele>
        <time>2013-10-13T08:41:03Z</time>
      </trkpt>
      <trkpt lat="47.63665" lon="-2.14746">
        <ele>58.78</ele>
        <time>2013-10-13T08:41:05Z</time>
      </trkpt>
      <trkpt lat="47.63674" lon="-2.14756">
        <ele>58.78</ele>
        <time>2013-10-13T08:41:07Z</time>
      </trkpt>
      <trkpt lat="47.63682" lon="-2.14766">
        <ele>58.78</ele>
        <time>2013-10-13T08:41:09Z</time>
      </trkpt>
      <trkpt lat="47.63691" lon="-2.14776">
        <ele>58.3</ele>
        <time>2013-10-13T08:41:11Z</time>
      </trkpt>
      <trkpt lat="47.63699" lon="-2.14787">
        <ele>58.3</ele>
        <time>2013-10-13T08:41:13Z</time>
      </trkpt>
      <trkpt lat="47.63708" lon="-2.14797">
        <ele>58.3</ele>
        <time>2013-10-13T08:41:15Z</time>
      </trkpt>
      <trkpt lat="47.63717" lon="-2.14807">
        <ele>58.3</ele>
        <time>2013-10-13T08:41:17Z</time>
      </trkpt>
      <trkpt lat="47.63726" lon="-2.14818">
        <ele>57.82</ele>
        <time>2013-10-13T08:41:19Z</time>
      </trkpt>
      <trkpt lat="47.63735" lon="-2.14828">
        <ele>57.82</ele>
        <time>2013-10-13T08:41:21Z</time>
      </trkpt>
      <trkpt lat="47.63743" lon="-2.14838">
        <ele>57.82</ele>
        <time>2013-10-13T08:41:23Z</time>
      </trkpt>
      <trkpt lat="47.63752" lon="-2.14849">
        <ele>57.82</ele>
        <time>2013-10-13T08:41:25Z</time>
      </trkpt>
      <trkpt lat="47.6376" lon="-2.14859">
        <ele>57.82</ele>
        <time>2013-10-13T08:41:27Z</time>
      </trkpt>
      <trkpt lat="47.63767" lon="-2.14868">
        <ele>58.3</ele>
        <time>2013-10-13T08:41:29Z</time>
      </trkpt>
      <trkpt lat="47.63774" lon="-2.14878">
        <ele>58.3</ele>
        <time>2013-10-13T08:41:31Z</time>
      </trkpt>
      <trkpt lat="47.6378" lon="-2.14889">
        <ele>57.82</ele>
        <time>2013-10-13T08:41:33Z</time>
      </trkpt>
      <trkpt lat="47.63783" lon="-2.14902">
        <ele>57.82</ele>
        <time>2013-10-13T08:41:35Z</time>
      </trkpt>
      <trkpt lat="47.63789" lon="-2.14917">
        <ele>57.82</ele>
        <time>2013-10-13T08:41:38Z</time>
      </trkpt>
      <trkpt lat="47.63798" lon="-2.1493">
        <ele>57.82</ele>
        <time>2013-10-13T08:41:41Z</time>
      </trkpt>
      <trkpt lat="47.63807" lon="-2.14941">
        <ele>57.82</ele>
        <time>2013-10-13T08:41:44Z</time>
      </trkpt>
      <trkpt lat="47.63816" lon="-2.14952">
        <ele>58.3</ele>
        <time>2013-10-13T08:41:47Z</time>
      </trkpt>
      <trkpt lat="47.63825" lon="-2.14962">
        <ele>58.78</ele>
        <time>2013-10-13T08:41:50Z</time>
      </trkpt>
      <trkpt lat="47.63834" lon="-2.14973">
        <ele>58.78</ele>
        <time>2013-10-13T08:41:53Z</time>
      </trkpt>
      <trkpt lat="47.63843" lon="-2.14984">
        <ele>58.78</ele>
        <time>2013-10-13T08:41:56Z</time>
      </trkpt>
      <trkpt lat="47.63852" lon="-2.14994">
        <ele>58.78</ele>
        <time>2013-10-13T08:41:59Z</time>
      </trkpt>
      <trkpt lat="47.63861" lon="-2.15003">
        <ele>58.3</ele>
        <time>2013-10-13T08:42:02Z</time>
      </trkpt>
      <trkpt lat="47.6387" lon="-2.15014">
        <ele>58.3</ele>
        <time>2013-10-13T08:42:05Z</time>
      </trkpt>
      <trkpt lat="47.63878" lon="-2.15024">
        <ele>58.78</ele>
        <time>2013-10-13T08:42:08Z</time>
      </trkpt>
      <trkpt lat="47.63886" lon="-2.15032">
        <ele>58.3</ele>
        <time>2013-10-13T08:42:11Z</time>
      </trkpt>
      <trkpt lat="47.63895" lon="-2.15042">
        <ele>58.3</ele>
        <time>2013-10-13T08:42:14Z</time>
      </trkpt>
      <trkpt lat="47.63905" lon="-2.1505">
        <ele>58.3</ele>
        <time>2013-10-13T08:42:17Z</time>
      </trkpt>
      <trkpt lat="47.63914" lon="-2.15059">
        <ele>58.78</ele>
        <time>2013-10-13T08:42:20Z</time>
      </trkpt>
      <trkpt lat="47.63923" lon="-2.15069">
        <ele>59.26</ele>
        <time>2013-10-13T08:42:23Z</time>
      </trkpt>
      <trkpt lat="47.63931" lon="-2.15078">
        <ele>59.74</ele>
        <time>2013-10-13T08:42:26Z</time>
      </trkpt>
      <trkpt lat="47.63938" lon="-2.15086">
        <ele>60.22</ele>
        <time>2013-10-13T08:42:29Z</time>
      </trkpt>
      <trkpt lat="47.6394" lon="-2.15099">
        <ele>61.18</ele>
        <time>2013-10-13T08:42:33Z</time>
      </trkpt>
      <trkpt lat="47.63931" lon="-2.15102">
        <ele>62.14</ele>
        <time>2013-10-13T08:42:38Z</time>
      </trkpt>
      <trkpt lat="47.63922" lon="-2.15094">
        <ele>63.1</ele>
        <time>2013-10-13T08:42:42Z</time>
      </trkpt>
      <trkpt lat="47.63915" lon="-2.15084">
        <ele>63.58</ele>
        <time>2013-10-13T08:42:45Z</time>
      </trkpt>
      <trkpt lat="47.63906" lon="-2.15074">
        <ele>64.07</ele>
        <time>2013-10-13T08:42:48Z</time>
      </trkpt>
      <trkpt lat="47.63896" lon="-2.15065">
        <ele>64.07</ele>
        <time>2013-10-13T08:42:51Z</time>
      </trkpt>
      <trkpt lat="47.63886" lon="-2.15053">
        <ele>64.07</ele>
        <time>2013-10-13T08:42:54Z</time>
      </trkpt>
      <trkpt lat="47.63878" lon="-2.15043">
        <ele>63.58</ele>
        <time>2013-10-13T08:42:56Z</time>
      </trkpt>
      <trkpt lat="47.6387" lon="-2.15033">
        <ele>63.58</ele>
        <time>2013-10-13T08:42:58Z</time>
      </trkpt>
      <trkpt lat="47.63862" lon="-2.15023">
        <ele>63.1</ele>
        <time>2013-10-13T08:43:00Z</time>
      </trkpt>
      <trkpt lat="47.63854" lon="-2.15013">
        <ele>62.62</ele>
        <time>2013-10-13T08:43:02Z</time>
      </trkpt>
      <trkpt lat="47.63846" lon="-2.15003">
        <ele>62.62</ele>
        <time>2013-10-13T08:43:04Z</time>
      </trkpt>
      <trkpt lat="47.63837" lon="-2.14992">
        <ele>62.62</ele>
        <time>2013-10-13T08:43:06Z</time>
      </trkpt>
      <trkpt lat="47.63828" lon="-2.14983">
        <ele>62.62</ele>
        <time>2013-10-13T08:43:08Z</time>
      </trkpt>
      <trkpt lat="47.6382" lon="-2.14972">
        <ele>62.62</ele>
        <time>2013-10-13T08:43:10Z</time>
      </trkpt>
      <trkpt lat="47.63812" lon="-2.14963">
        <ele>62.62</ele>
        <time>2013-10-13T08:43:12Z</time>
      </trkpt>
      <trkpt lat="47.63803" lon="-2.14953">
        <ele>62.62</ele>
        <time>2013-10-13T08:43:14Z</time>
      </trkpt>
      <trkpt lat="47.63795" lon="-2.14943">
        <ele>62.62</ele>
        <time>2013-10-13T08:43:16Z</time>
      </trkpt>
      <trkpt lat="47.63787" lon="-2.14933">
        <ele>62.62</ele>
        <time>2013-10-13T08:43:18Z</time>
      </trkpt>
      <trkpt lat="47.63778" lon="-2.14924">
        <ele>62.14</ele>
        <time>2013-10-13T08:43:20Z</time>
      </trkpt>
      <trkpt lat="47.6377" lon="-2.14917">
        <ele>62.14</ele>
        <time>2013-10-13T08:43:22Z</time>
      </trkpt>
      <trkpt lat="47.6376" lon="-2.14912">
        <ele>62.14</ele>
        <time>2013-10-13T08:43:24Z</time>
      </trkpt>
      <trkpt lat="47.63751" lon="-2.14913">
        <ele>62.14</ele>
        <time>2013-10-13T08:43:26Z</time>
      </trkpt>
      <trkpt lat="47.63743" lon="-2.14921">
        <ele>62.14</ele>
        <time>2013-10-13T08:43:28Z</time>
      </trkpt>
      <trkpt lat="47.6374" lon="-2.14934">
        <ele>62.14</ele>
        <time>2013-10-13T08:43:30Z</time>
      </trkpt>
      <trkpt lat="47.6374" lon="-2.14948">
        <ele>62.14</ele>
        <time>2013-10-13T08:43:32Z</time>
      </trkpt>
      <trkpt lat="47.63742" lon="-2.14962">
        <ele>62.14</ele>
        <time>2013-10-13T08:43:34Z</time>
      </trkpt>
      <trkpt lat="47.63746" lon="-2.14975">
        <ele>61.66</ele>
        <time>2013-10-13T08:43:36Z</time>
      </trkpt>
      <trkpt lat="47.63751" lon="-2.14987">
        <ele>62.14</ele>
        <time>2013-10-13T08:43:38Z</time>
      </trkpt>
      <trkpt lat="47.63756" lon="-2.14999">
        <ele>62.14</ele>
        <time>2013-10-13T08:43:40Z</time>
      </trkpt>
      <trkpt lat="47.63762" lon="-2.1501">
        <ele>62.14</ele>
        <time>2013-10-13T08:43:42Z</time>
      </trkpt>
      <trkpt lat="47.63768" lon="-2.15021">
        <ele>62.14</ele>
        <time>2013-10-13T08:43:44Z</time>
      </trkpt>
      <trkpt lat="47.63775" lon="-2.15031">
        <ele>62.14</ele>
        <time>2013-10-13T08:43:46Z</time>
      </trkpt>
      <trkpt lat="47.63781" lon="-2.15042">
        <ele>62.14</ele>
        <time>2013-10-13T08:43:48Z</time>
      </trkpt>
      <trkpt lat="47.63788" lon="-2.15052">
        <ele>62.14</ele>
        <time>2013-10-13T08:43:50Z</time>
      </trkpt>
      <trkpt lat="47.63795" lon="-2.15063">
        <ele>62.14</ele>
        <time>2013-10-13T08:43:52Z</time>
      </trkpt>
      <trkpt lat="47.63801" lon="-2.15073">
        <ele>62.62</ele>
        <time>2013-10-13T08:43:54Z</time>
      </trkpt>
      <trkpt lat="47.63808" lon="-2.15083">
        <ele>62.62</ele>
        <time>2013-10-13T08:43:56Z</time>
      </trkpt>
      <trkpt lat="47.63814" lon="-2.15093">
        <ele>62.62</ele>
        <time>2013-10-13T08:43:58Z</time>
      </trkpt>
      <trkpt lat="47.63821" lon="-2.15102">
        <ele>62.62</ele>
        <time>2013-10-13T08:44:00Z</time>
      </trkpt>
      <trkpt lat="47.63829" lon="-2.15111">
        <ele>62.62</ele>
        <time>2013-10-13T08:44:02Z</time>
      </trkpt>
      <trkpt lat="47.63837" lon="-2.15118">
        <ele>62.62</ele>
        <time>2013-10-13T08:44:04Z</time>
      </trkpt>
      <trkpt lat="47.63848" lon="-2.15123">
        <ele>64.07</ele>
        <time>2013-10-13T08:44:07Z</time>
      </trkpt>
      <trkpt lat="47.63856" lon="-2.15132">
        <ele>65.99</ele>
        <time>2013-10-13T08:44:12Z</time>
      </trkpt>
      <trkpt lat="47.63853" lon="-2.15148">
        <ele>65.99</ele>
        <time>2013-10-13T08:44:15Z</time>
      </trkpt>
      <trkpt lat="47.63851" lon="-2.15165">
        <ele>65.99</ele>
        <time>2013-10-13T08:44:18Z</time>
      </trkpt>
      <trkpt lat="47.6385" lon="-2.15179">
        <ele>65.99</ele>
        <time>2013-10-13T08:44:20Z</time>
      </trkpt>
      <trkpt lat="47.63849" lon="-2.15193">
        <ele>65.99</ele>
        <time>2013-10-13T08:44:22Z</time>
      </trkpt>
      <trkpt lat="47.63848" lon="-2.15207">
        <ele>65.51</ele>
        <time>2013-10-13T08:44:24Z</time>
      </trkpt>
      <trkpt lat="47.63847" lon="-2.15221">
        <ele>65.51</ele>
        <time>2013-10-13T08:44:26Z</time>
      </trkpt>
      <trkpt lat="47.63844" lon="-2.15234">
        <ele>65.51</ele>
        <time>2013-10-13T08:44:28Z</time>
      </trkpt>
      <trkpt lat="47.63841" lon="-2.15253">
        <ele>65.51</ele>
        <time>2013-10-13T08:44:31Z</time>
      </trkpt>
      <trkpt lat="47.63837" lon="-2.15266">
        <ele>65.51</ele>
        <time>2013-10-13T08:44:33Z</time>
      </trkpt>
      <trkpt lat="47.63833" lon="-2.15278">
        <ele>65.51</ele>
        <time>2013-10-13T08:44:35Z</time>
      </trkpt>
      <trkpt lat="47.63829" lon="-2.15291">
        <ele>65.51</ele>
        <time>2013-10-13T08:44:37Z</time>
      </trkpt>
      <trkpt lat="47.63824" lon="-2.15304">
        <ele>65.51</ele>
        <time>2013-10-13T08:44:39Z</time>
      </trkpt>
      <trkpt lat="47.63821" lon="-2.1532">
        <ele>65.51</ele>
        <time>2013-10-13T08:44:42Z</time>
      </trkpt>
      <trkpt lat="47.63828" lon="-2.15332">
        <ele>65.99</ele>
        <time>2013-10-13T08:44:46Z</time>
      </trkpt>
      <trkpt lat="47.63838" lon="-2.1534">
        <ele>66.95</ele>
        <time>2013-10-13T08:44:49Z</time>
      </trkpt>
      <trkpt lat="47.63849" lon="-2.15342">
        <ele>69.35</ele>
        <time>2013-10-13T08:44:52Z</time>
      </trkpt>
      <trkpt lat="47.63861" lon="-2.15338">
        <ele>71.27</ele>
        <time>2013-10-13T08:44:55Z</time>
      </trkpt>
      <trkpt lat="47.63874" lon="-2.15336">
        <ele>72.24</ele>
        <time>2013-10-13T08:44:58Z</time>
      </trkpt>
      <trkpt lat="47.63886" lon="-2.15331">
        <ele>71.76</ele>
        <time>2013-10-13T08:45:01Z</time>
      </trkpt>
      <trkpt lat="47.63897" lon="-2.15325">
        <ele>72.24</ele>
        <time>2013-10-13T08:45:04Z</time>
      </trkpt>
      <trkpt lat="47.63909" lon="-2.15322">
        <ele>72.24</ele>
        <time>2013-10-13T08:45:07Z</time>
      </trkpt>
      <trkpt lat="47.63919" lon="-2.15322">
        <ele>72.24</ele>
        <time>2013-10-13T08:45:10Z</time>
      </trkpt>
      <trkpt lat="47.63929" lon="-2.15328">
        <ele>73.2</ele>
        <time>2013-10-13T08:45:14Z</time>
      </trkpt>
      <trkpt lat="47.63928" lon="-2.15347">
        <ele>72.72</ele>
        <time>2013-10-13T08:45:18Z</time>
      </trkpt>
      <trkpt lat="47.6393" lon="-2.15365">
        <ele>72.72</ele>
        <time>2013-10-13T08:45:21Z</time>
      </trkpt>
      <trkpt lat="47.63933" lon="-2.15383">
        <ele>72.24</ele>
        <time>2013-10-13T08:45:24Z</time>
      </trkpt>
      <trkpt lat="47.63935" lon="-2.15403">
        <ele>72.24</ele>
        <time>2013-10-13T08:45:27Z</time>
      </trkpt>
      <trkpt lat="47.63936" lon="-2.15417">
        <ele>72.24</ele>
        <time>2013-10-13T08:45:29Z</time>
      </trkpt>
      <trkpt lat="47.63939" lon="-2.15431">
        <ele>72.24</ele>
        <time>2013-10-13T08:45:31Z</time>
      </trkpt>
      <trkpt lat="47.63943" lon="-2.15443">
        <ele>72.24</ele>
        <time>2013-10-13T08:45:33Z</time>
      </trkpt>
      <trkpt lat="47.63951" lon="-2.15459">
        <ele>72.72</ele>
        <time>2013-10-13T08:45:36Z</time>
      </trkpt>
      <trkpt lat="47.63958" lon="-2.15467">
        <ele>73.68</ele>
        <time>2013-10-13T08:45:38Z</time>
      </trkpt>
      <trkpt lat="47.63968" lon="-2.15476">
        <ele>73.2</ele>
        <time>2013-10-13T08:45:41Z</time>
      </trkpt>
      <trkpt lat="47.63973" lon="-2.1549">
        <ele>73.68</ele>
        <time>2013-10-13T08:45:44Z</time>
      </trkpt>
      <trkpt lat="47.63975" lon="-2.15508">
        <ele>73.68</ele>
        <time>2013-10-13T08:45:47Z</time>
      </trkpt>
      <trkpt lat="47.63972" lon="-2.15528">
        <ele>74.16</ele>
        <time>2013-10-13T08:45:50Z</time>
      </trkpt>
      <trkpt lat="47.63967" lon="-2.15541">
        <ele>74.64</ele>
        <time>2013-10-13T08:45:52Z</time>
      </trkpt>
      <trkpt lat="47.63962" lon="-2.15559">
        <ele>74.64</ele>
        <time>2013-10-13T08:45:55Z</time>
      </trkpt>
      <trkpt lat="47.6396" lon="-2.15574">
        <ele>75.12</ele>
        <time>2013-10-13T08:45:57Z</time>
      </trkpt>
      <trkpt lat="47.63955" lon="-2.15585">
        <ele>75.12</ele>
        <time>2013-10-13T08:45:59Z</time>
      </trkpt>
      <trkpt lat="47.63949" lon="-2.156">
        <ele>75.12</ele>
        <time>2013-10-13T08:46:02Z</time>
      </trkpt>
      <trkpt lat="47.63949" lon="-2.15618">
        <ele>75.12</ele>
        <time>2013-10-13T08:46:05Z</time>
      </trkpt>
      <trkpt lat="47.63951" lon="-2.15634">
        <ele>75.12</ele>
        <time>2013-10-13T08:46:07Z</time>
      </trkpt>
      <trkpt lat="47.63949" lon="-2.15649">
        <ele>75.12</ele>
        <time>2013-10-13T08:46:09Z</time>
      </trkpt>
      <trkpt lat="47.63946" lon="-2.15671">
        <ele>76.08</ele>
        <time>2013-10-13T08:46:12Z</time>
      </trkpt>
      <trkpt lat="47.6394" lon="-2.15689">
        <ele>77.52</ele>
        <time>2013-10-13T08:46:15Z</time>
      </trkpt>
      <trkpt lat="47.63947" lon="-2.15703">
        <ele>78.97</ele>
        <time>2013-10-13T08:46:19Z</time>
      </trkpt>
      <trkpt lat="47.63957" lon="-2.15706">
        <ele>79.93</ele>
        <time>2013-10-13T08:46:22Z</time>
      </trkpt>
      <trkpt lat="47.6397" lon="-2.15706">
        <ele>80.41</ele>
        <time>2013-10-13T08:46:25Z</time>
      </trkpt>
      <trkpt lat="47.63981" lon="-2.1571">
        <ele>81.85</ele>
        <time>2013-10-13T08:46:28Z</time>
      </trkpt>
      <trkpt lat="47.63989" lon="-2.15728">
        <ele>82.81</ele>
        <time>2013-10-13T08:46:31Z</time>
      </trkpt>
      <trkpt lat="47.63996" lon="-2.1575">
        <ele>81.85</ele>
        <time>2013-10-13T08:46:34Z</time>
      </trkpt>
      <trkpt lat="47.64006" lon="-2.15764">
        <ele>79.93</ele>
        <time>2013-10-13T08:46:38Z</time>
      </trkpt>
      <trkpt lat="47.64018" lon="-2.15764">
        <ele>77.52</ele>
        <time>2013-10-13T08:46:41Z</time>
      </trkpt>
      <trkpt lat="47.6403" lon="-2.15761">
        <ele>76.08</ele>
        <time>2013-10-13T08:46:44Z</time>
      </trkpt>
      <trkpt lat="47.64044" lon="-2.15755">
        <ele>75.12</ele>
        <time>2013-10-13T08:46:47Z</time>
      </trkpt>
      <trkpt lat="47.64052" lon="-2.15747">
        <ele>74.64</ele>
        <time>2013-10-13T08:46:49Z</time>
      </trkpt>
      <trkpt lat="47.64063" lon="-2.15745">
        <ele>74.64</ele>
        <time>2013-10-13T08:46:52Z</time>
      </trkpt>
      <trkpt lat="47.6407" lon="-2.1576">
        <ele>74.16</ele>
        <time>2013-10-13T08:46:55Z</time>
      </trkpt>
      <trkpt lat="47.64074" lon="-2.15781">
        <ele>74.64</ele>
        <time>2013-10-13T08:46:58Z</time>
      </trkpt>
      <trkpt lat="47.64076" lon="-2.15801">
        <ele>73.68</ele>
        <time>2013-10-13T08:47:01Z</time>
      </trkpt>
      <trkpt lat="47.64078" lon="-2.1582">
        <ele>73.2</ele>
        <time>2013-10-13T08:47:04Z</time>
      </trkpt>
      <trkpt lat="47.6408" lon="-2.15838">
        <ele>73.2</ele>
        <time>2013-10-13T08:47:07Z</time>
      </trkpt>
      <trkpt lat="47.64083" lon="-2.15856">
        <ele>73.2</ele>
        <time>2013-10-13T08:47:10Z</time>
      </trkpt>
      <trkpt lat="47.64083" lon="-2.15874">
        <ele>73.68</ele>
        <time>2013-10-13T08:47:13Z</time>
      </trkpt>
      <trkpt lat="47.64083" lon="-2.15892">
        <ele>74.16</ele>
        <time>2013-10-13T08:47:16Z</time>
      </trkpt>
      <trkpt lat="47.64082" lon="-2.15911">
        <ele>74.16</ele>
        <time>2013-10-13T08:47:19Z</time>
      </trkpt>
      <trkpt lat="47.64081" lon="-2.15929">
        <ele>74.64</ele>
        <time>2013-10-13T08:47:22Z</time>
      </trkpt>
      <trkpt lat="47.64081" lon="-2.15946">
        <ele>74.16</ele>
        <time>2013-10-13T08:47:25Z</time>
      </trkpt>
      <trkpt lat="47.6408" lon="-2.15962">
        <ele>74.64</ele>
        <time>2013-10-13T08:47:28Z</time>
      </trkpt>
      <trkpt lat="47.64082" lon="-2.15978">
        <ele>74.64</ele>
        <time>2013-10-13T08:47:31Z</time>
      </trkpt>
      <trkpt lat="47.64086" lon="-2.15992">
        <ele>75.12</ele>
        <time>2013-10-13T08:47:34Z</time>
      </trkpt>
      <trkpt lat="47.64087" lon="-2.1601">
        <ele>75.12</ele>
        <time>2013-10-13T08:47:37Z</time>
      </trkpt>
      <trkpt lat="47.64087" lon="-2.16029">
        <ele>75.6</ele>
        <time>2013-10-13T08:47:40Z</time>
      </trkpt>
      <trkpt lat="47.64087" lon="-2.16048">
        <ele>76.56</ele>
        <time>2013-10-13T08:47:43Z</time>
      </trkpt>
      <trkpt lat="47.64086" lon="-2.16067">
        <ele>78</ele>
        <time>2013-10-13T08:47:46Z</time>
      </trkpt>
      <trkpt lat="47.64086" lon="-2.16082">
        <ele>78</ele>
        <time>2013-10-13T08:47:48Z</time>
      </trkpt>
      <trkpt lat="47.64085" lon="-2.16096">
        <ele>78.48</ele>
        <time>2013-10-13T08:47:50Z</time>
      </trkpt>
      <trkpt lat="47.64085" lon="-2.16111">
        <ele>78.97</ele>
        <time>2013-10-13T08:47:52Z</time>
      </trkpt>
      <trkpt lat="47.64084" lon="-2.16127">
        <ele>79.45</ele>
        <time>2013-10-13T08:47:54Z</time>
      </trkpt>
      <trkpt lat="47.64083" lon="-2.16143">
        <ele>79.93</ele>
        <time>2013-10-13T08:47:56Z</time>
      </trkpt>
      <trkpt lat="47.64083" lon="-2.16158">
        <ele>80.41</ele>
        <time>2013-10-13T08:47:58Z</time>
      </trkpt>
      <trkpt lat="47.64082" lon="-2.16175">
        <ele>80.41</ele>
        <time>2013-10-13T08:48:00Z</time>
      </trkpt>
      <trkpt lat="47.64081" lon="-2.16192">
        <ele>79.93</ele>
        <time>2013-10-13T08:48:02Z</time>
      </trkpt>
      <trkpt lat="47.6408" lon="-2.1621">
        <ele>79.45</ele>
        <time>2013-10-13T08:48:04Z</time>
      </trkpt>
      <trkpt lat="47.64079" lon="-2.16228">
        <ele>78.48</ele>
        <time>2013-10-13T08:48:06Z</time>
      </trkpt>
      <trkpt lat="47.64078" lon="-2.16246">
        <ele>77.52</ele>
        <time>2013-10-13T08:48:08Z</time>
      </trkpt>
      <trkpt lat="47.64078" lon="-2.16265">
        <ele>77.04</ele>
        <time>2013-10-13T08:48:10Z</time>
      </trkpt>
      <trkpt lat="47.64077" lon="-2.16283">
        <ele>76.08</ele>
        <time>2013-10-13T08:48:12Z</time>
      </trkpt>
      <trkpt lat="47.64076" lon="-2.16301">
        <ele>75.6</ele>
        <time>2013-10-13T08:48:14Z</time>
      </trkpt>
      <trkpt lat="47.64076" lon="-2.16319">
        <ele>75.12</ele>
        <time>2013-10-13T08:48:16Z</time>
      </trkpt>
      <trkpt lat="47.64075" lon="-2.16336">
        <ele>75.12</ele>
        <time>2013-10-13T08:48:18Z</time>
      </trkpt>
      <trkpt lat="47.64074" lon="-2.16352">
        <ele>74.64</ele>
        <time>2013-10-13T08:48:20Z</time>
      </trkpt>
      <trkpt lat="47.64073" lon="-2.16368">
        <ele>74.64</ele>
        <time>2013-10-13T08:48:22Z</time>
      </trkpt>
      <trkpt lat="47.64072" lon="-2.16383">
        <ele>74.64</ele>
        <time>2013-10-13T08:48:24Z</time>
      </trkpt>
      <trkpt lat="47.64072" lon="-2.16398">
        <ele>74.64</ele>
        <time>2013-10-13T08:48:26Z</time>
      </trkpt>
      <trkpt lat="47.64071" lon="-2.16413">
        <ele>74.64</ele>
        <time>2013-10-13T08:48:28Z</time>
      </trkpt>
      <trkpt lat="47.6407" lon="-2.16429">
        <ele>74.64</ele>
        <time>2013-10-13T08:48:30Z</time>
      </trkpt>
      <trkpt lat="47.6407" lon="-2.16444">
        <ele>75.12</ele>
        <time>2013-10-13T08:48:32Z</time>
      </trkpt>
      <trkpt lat="47.64069" lon="-2.16458">
        <ele>75.6</ele>
        <time>2013-10-13T08:48:34Z</time>
      </trkpt>
      <trkpt lat="47.64072" lon="-2.16476">
        <ele>75.6</ele>
        <time>2013-10-13T08:48:37Z</time>
      </trkpt>
      <trkpt lat="47.64084" lon="-2.16482">
        <ele>75.6</ele>
        <time>2013-10-13T08:48:40Z</time>
      </trkpt>
      <trkpt lat="47.64094" lon="-2.16479">
        <ele>75.6</ele>
        <time>2013-10-13T08:48:42Z</time>
      </trkpt>
      <trkpt lat="47.64104" lon="-2.16475">
        <ele>75.12</ele>
        <time>2013-10-13T08:48:44Z</time>
      </trkpt>
      <trkpt lat="47.64114" lon="-2.16471">
        <ele>74.64</ele>
        <time>2013-10-13T08:48:46Z</time>
      </trkpt>
      <trkpt lat="47.64124" lon="-2.16467">
        <ele>74.64</ele>
        <time>2013-10-13T08:48:48Z</time>
      </trkpt>
      <trkpt lat="47.64134" lon="-2.16463">
        <ele>74.16</ele>
        <time>2013-10-13T08:48:50Z</time>
      </trkpt>
      <trkpt lat="47.64143" lon="-2.16459">
        <ele>74.16</ele>
        <time>2013-10-13T08:48:52Z</time>
      </trkpt>
      <trkpt lat="47.64153" lon="-2.16456">
        <ele>73.68</ele>
        <time>2013-10-13T08:48:54Z</time>
      </trkpt>
      <trkpt lat="47.64163" lon="-2.16452">
        <ele>73.2</ele>
        <time>2013-10-13T08:48:56Z</time>
      </trkpt>
      <trkpt lat="47.64173" lon="-2.16448">
        <ele>73.2</ele>
        <time>2013-10-13T08:48:58Z</time>
      </trkpt>
      <trkpt lat="47.64183" lon="-2.16444">
        <ele>73.2</ele>
        <time>2013-10-13T08:49:00Z</time>
      </trkpt>
      <trkpt lat="47.64194" lon="-2.16441">
        <ele>72.72</ele>
        <time>2013-10-13T08:49:02Z</time>
      </trkpt>
      <trkpt lat="47.64204" lon="-2.16437">
        <ele>72.72</ele>
        <time>2013-10-13T08:49:04Z</time>
      </trkpt>
      <trkpt lat="47.64215" lon="-2.16434">
        <ele>72.72</ele>
        <time>2013-10-13T08:49:06Z</time>
      </trkpt>
      <trkpt lat="47.64225" lon="-2.1643">
        <ele>72.72</ele>
        <time>2013-10-13T08:49:08Z</time>
      </trkpt>
      <trkpt lat="47.64236" lon="-2.16426">
        <ele>73.2</ele>
        <time>2013-10-13T08:49:10Z</time>
      </trkpt>
      <trkpt lat="47.64246" lon="-2.16422">
        <ele>73.68</ele>
        <time>2013-10-13T08:49:12Z</time>
      </trkpt>
      <trkpt lat="47.64256" lon="-2.16419">
        <ele>74.16</ele>
        <time>2013-10-13T08:49:14Z</time>
      </trkpt>
      <trkpt lat="47.64265" lon="-2.16415">
        <ele>74.16</ele>
        <time>2013-10-13T08:49:16Z</time>
      </trkpt>
      <trkpt lat="47.64279" lon="-2.16409">
        <ele>74.64</ele>
        <time>2013-10-13T08:49:19Z</time>
      </trkpt>
      <trkpt lat="47.64291" lon="-2.16403">
        <ele>74.64</ele>
        <time>2013-10-13T08:49:22Z</time>
      </trkpt>
      <trkpt lat="47.64308" lon="-2.164">
        <ele>83.77</ele>
        <time>2013-10-13T08:50:37Z</time>
      </trkpt>
      <trkpt lat="47.64319" lon="-2.16394">
        <ele>81.37</ele>
        <time>2013-10-13T08:50:40Z</time>
      </trkpt>
      <trkpt lat="47.64331" lon="-2.16389">
        <ele>80.89</ele>
        <time>2013-10-13T08:50:43Z</time>
      </trkpt>
      <trkpt lat="47.64341" lon="-2.16386">
        <ele>81.37</ele>
        <time>2013-10-13T08:50:45Z</time>
      </trkpt>
      <trkpt lat="47.64351" lon="-2.16382">
        <ele>81.85</ele>
        <time>2013-10-13T08:50:47Z</time>
      </trkpt>
      <trkpt lat="47.64361" lon="-2.16378">
        <ele>82.33</ele>
        <time>2013-10-13T08:50:49Z</time>
      </trkpt>
      <trkpt lat="47.64372" lon="-2.16376">
        <ele>82.33</ele>
        <time>2013-10-13T08:50:51Z</time>
      </trkpt>
      <trkpt lat="47.64382" lon="-2.16375">
        <ele>82.81</ele>
        <time>2013-10-13T08:50:53Z</time>
      </trkpt>
      <trkpt lat="47.64392" lon="-2.16374">
        <ele>82.33</ele>
        <time>2013-10-13T08:50:55Z</time>
      </trkpt>
      <trkpt lat="47.64402" lon="-2.16372">
        <ele>81.85</ele>
        <time>2013-10-13T08:50:57Z</time>
      </trkpt>
      <trkpt lat="47.64412" lon="-2.16368">
        <ele>80.41</ele>
        <time>2013-10-13T08:50:59Z</time>
      </trkpt>
      <trkpt lat="47.64421" lon="-2.16363">
        <ele>79.45</ele>
        <time>2013-10-13T08:51:01Z</time>
      </trkpt>
      <trkpt lat="47.64434" lon="-2.16356">
        <ele>78</ele>
        <time>2013-10-13T08:51:04Z</time>
      </trkpt>
      <trkpt lat="47.64446" lon="-2.16349">
        <ele>77.52</ele>
        <time>2013-10-13T08:51:07Z</time>
      </trkpt>
      <trkpt lat="47.64457" lon="-2.1634">
        <ele>77.04</ele>
        <time>2013-10-13T08:51:10Z</time>
      </trkpt>
      <trkpt lat="47.64469" lon="-2.16337">
        <ele>76.56</ele>
        <time>2013-10-13T08:51:13Z</time>
      </trkpt>
      <trkpt lat="47.64479" lon="-2.16333">
        <ele>77.04</ele>
        <time>2013-10-13T08:51:16Z</time>
      </trkpt>
      <trkpt lat="47.64491" lon="-2.16328">
        <ele>78</ele>
        <time>2013-10-13T08:51:19Z</time>
      </trkpt>
      <trkpt lat="47.64503" lon="-2.16323">
        <ele>78.48</ele>
        <time>2013-10-13T08:51:22Z</time>
      </trkpt>
      <trkpt lat="47.64514" lon="-2.16317">
        <ele>79.45</ele>
        <time>2013-10-13T08:51:25Z</time>
      </trkpt>
      <trkpt lat="47.64525" lon="-2.16312">
        <ele>79.93</ele>
        <time>2013-10-13T08:51:28Z</time>
      </trkpt>
      <trkpt lat="47.64536" lon="-2.16308">
        <ele>79.45</ele>
        <time>2013-10-13T08:51:31Z</time>
      </trkpt>
      <trkpt lat="47.64545" lon="-2.16305">
        <ele>79.93</ele>
        <time>2013-10-13T08:51:34Z</time>
      </trkpt>
      <trkpt lat="47.64557" lon="-2.163">
        <ele>80.41</ele>
        <time>2013-10-13T08:51:38Z</time>
      </trkpt>
      <trkpt lat="47.64568" lon="-2.16295">
        <ele>80.89</ele>
        <time>2013-10-13T08:51:42Z</time>
      </trkpt>
      <trkpt lat="47.64579" lon="-2.16289">
        <ele>81.37</ele>
        <time>2013-10-13T08:51:46Z</time>
      </trkpt>
      <trkpt lat="47.64588" lon="-2.16284">
        <ele>81.85</ele>
        <time>2013-10-13T08:51:49Z</time>
      </trkpt>
      <trkpt lat="47.64598" lon="-2.16278">
        <ele>82.81</ele>
        <time>2013-10-13T08:51:52Z</time>
      </trkpt>
      <trkpt lat="47.64608" lon="-2.16273">
        <ele>83.29</ele>
        <time>2013-10-13T08:51:55Z</time>
      </trkpt>
      <trkpt lat="47.64617" lon="-2.16268">
        <ele>83.77</ele>
        <time>2013-10-13T08:51:58Z</time>
      </trkpt>
      <trkpt lat="47.64626" lon="-2.16262">
        <ele>84.25</ele>
        <time>2013-10-13T08:52:01Z</time>
      </trkpt>
      <trkpt lat="47.64634" lon="-2.16255">
        <ele>84.25</ele>
        <time>2013-10-13T08:52:04Z</time>
      </trkpt>
      <trkpt lat="47.64643" lon="-2.16248">
        <ele>85.21</ele>
        <time>2013-10-13T08:52:07Z</time>
      </trkpt>
      <trkpt lat="47.64651" lon="-2.16242">
        <ele>85.21</ele>
        <time>2013-10-13T08:52:10Z</time>
      </trkpt>
      <trkpt lat="47.64663" lon="-2.16234">
        <ele>85.21</ele>
        <time>2013-10-13T08:52:14Z</time>
      </trkpt>
      <trkpt lat="47.64673" lon="-2.16227">
        <ele>85.69</ele>
        <time>2013-10-13T08:52:17Z</time>
      </trkpt>
      <trkpt lat="47.64682" lon="-2.16222">
        <ele>86.18</ele>
        <time>2013-10-13T08:52:20Z</time>
      </trkpt>
      <trkpt lat="47.64692" lon="-2.1622">
        <ele>86.66</ele>
        <time>2013-10-13T08:52:24Z</time>
      </trkpt>
      <trkpt lat="47.64699" lon="-2.16232">
        <ele>87.62</ele>
        <time>2013-10-13T08:52:29Z</time>
      </trkpt>
      <trkpt lat="47.64706" lon="-2.16241">
        <ele>88.1</ele>
        <time>2013-10-13T08:52:33Z</time>
      </trkpt>
      <trkpt lat="47.64717" lon="-2.16247">
        <ele>89.06</ele>
        <time>2013-10-13T08:52:38Z</time>
      </trkpt>
      <trkpt lat="47.64728" lon="-2.16259">
        <ele>90.5</ele>
        <time>2013-10-13T08:52:43Z</time>
      </trkpt>
      <trkpt lat="47.64744" lon="-2.16262">
        <ele>91.46</ele>
        <time>2013-10-13T08:52:48Z</time>
      </trkpt>
      <trkpt lat="47.64755" lon="-2.16251">
        <ele>92.42</ele>
        <time>2013-10-13T08:52:53Z</time>
      </trkpt>
      <trkpt lat="47.64764" lon="-2.16242">
        <ele>92.42</ele>
        <time>2013-10-13T08:52:58Z</time>
      </trkpt>
      <trkpt lat="47.64775" lon="-2.16229">
        <ele>91.94</ele>
        <time>2013-10-13T08:53:05Z</time>
      </trkpt>
      <trkpt lat="47.64787" lon="-2.16218">
        <ele>90.5</ele>
        <time>2013-10-13T08:53:11Z</time>
      </trkpt>
      <trkpt lat="47.64797" lon="-2.16199">
        <ele>90.98</ele>
        <time>2013-10-13T08:53:15Z</time>
      </trkpt>
      <trkpt lat="47.64809" lon="-2.16184">
        <ele>90.98</ele>
        <time>2013-10-13T08:53:19Z</time>
      </trkpt>
      <trkpt lat="47.64822" lon="-2.16172">
        <ele>91.94</ele>
        <time>2013-10-13T08:53:22Z</time>
      </trkpt>
      <trkpt lat="47.64837" lon="-2.16163">
        <ele>93.39</ele>
        <time>2013-10-13T08:53:25Z</time>
      </trkpt>
      <trkpt lat="47.6485" lon="-2.16158">
        <ele>94.35</ele>
        <time>2013-10-13T08:53:28Z</time>
      </trkpt>
      <trkpt lat="47.64861" lon="-2.16149">
        <ele>94.35</ele>
        <time>2013-10-13T08:53:31Z</time>
      </trkpt>
      <trkpt lat="47.64873" lon="-2.16136">
        <ele>93.87</ele>
        <time>2013-10-13T08:53:34Z</time>
      </trkpt>
      <trkpt lat="47.64883" lon="-2.16121">
        <ele>92.42</ele>
        <time>2013-10-13T08:53:37Z</time>
      </trkpt>
      <trkpt lat="47.6489" lon="-2.16109">
        <ele>91.46</ele>
        <time>2013-10-13T08:53:39Z</time>
      </trkpt>
      <trkpt lat="47.64897" lon="-2.16098">
        <ele>90.98</ele>
        <time>2013-10-13T08:53:41Z</time>
      </trkpt>
      <trkpt lat="47.64907" lon="-2.16086">
        <ele>90.98</ele>
        <time>2013-10-13T08:53:44Z</time>
      </trkpt>
      <trkpt lat="47.64917" lon="-2.16076">
        <ele>90.98</ele>
        <time>2013-10-13T08:53:47Z</time>
      </trkpt>
      <trkpt lat="47.64926" lon="-2.1606">
        <ele>90.02</ele>
        <time>2013-10-13T08:53:50Z</time>
      </trkpt>
      <trkpt lat="47.64935" lon="-2.16052">
        <ele>89.54</ele>
        <time>2013-10-13T08:53:52Z</time>
      </trkpt>
      <trkpt lat="47.64944" lon="-2.16044">
        <ele>89.54</ele>
        <time>2013-10-13T08:53:54Z</time>
      </trkpt>
      <trkpt lat="47.64954" lon="-2.16034">
        <ele>88.58</ele>
        <time>2013-10-13T08:53:56Z</time>
      </trkpt>
      <trkpt lat="47.64964" lon="-2.16024">
        <ele>88.1</ele>
        <time>2013-10-13T08:53:58Z</time>
      </trkpt>
      <trkpt lat="47.64975" lon="-2.16014">
        <ele>87.62</ele>
        <time>2013-10-13T08:54:00Z</time>
      </trkpt>
      <trkpt lat="47.64986" lon="-2.16004">
        <ele>86.66</ele>
        <time>2013-10-13T08:54:02Z</time>
      </trkpt>
      <trkpt lat="47.64998" lon="-2.15993">
        <ele>85.69</ele>
        <time>2013-10-13T08:54:04Z</time>
      </trkpt>
      <trkpt lat="47.6501" lon="-2.15983">
        <ele>84.73</ele>
        <time>2013-10-13T08:54:06Z</time>
      </trkpt>
      <trkpt lat="47.65024" lon="-2.15975">
        <ele>83.29</ele>
        <time>2013-10-13T08:54:08Z</time>
      </trkpt>
      <trkpt lat="47.6504" lon="-2.1597">
        <ele>81.85</ele>
        <time>2013-10-13T08:54:10Z</time>
      </trkpt>
      <trkpt lat="47.65056" lon="-2.15968">
        <ele>80.41</ele>
        <time>2013-10-13T08:54:12Z</time>
      </trkpt>
      <trkpt lat="47.65072" lon="-2.15966">
        <ele>79.93</ele>
        <time>2013-10-13T08:54:14Z</time>
      </trkpt>
      <trkpt lat="47.65089" lon="-2.15964">
        <ele>78.48</ele>
        <time>2013-10-13T08:54:16Z</time>
      </trkpt>
      <trkpt lat="47.65105" lon="-2.15961">
        <ele>78</ele>
        <time>2013-10-13T08:54:18Z</time>
      </trkpt>
      <trkpt lat="47.6512" lon="-2.15958">
        <ele>77.04</ele>
        <time>2013-10-13T08:54:20Z</time>
      </trkpt>
      <trkpt lat="47.65128" lon="-2.15953">
        <ele>76.08</ele>
        <time>2013-10-13T08:54:23Z</time>
      </trkpt>
      <trkpt lat="47.65139" lon="-2.15949">
        <ele>75.12</ele>
        <time>2013-10-13T08:54:29Z</time>
      </trkpt>
      <trkpt lat="47.6515" lon="-2.15953">
        <ele>75.6</ele>
        <time>2013-10-13T08:54:32Z</time>
      </trkpt>
      <trkpt lat="47.65162" lon="-2.15958">
        <ele>76.56</ele>
        <time>2013-10-13T08:54:35Z</time>
      </trkpt>
      <trkpt lat="47.65171" lon="-2.15958">
        <ele>76.56</ele>
        <time>2013-10-13T08:54:37Z</time>
      </trkpt>
      <trkpt lat="47.65181" lon="-2.15957">
        <ele>77.04</ele>
        <time>2013-10-13T08:54:39Z</time>
      </trkpt>
      <trkpt lat="47.65192" lon="-2.15956">
        <ele>77.04</ele>
        <time>2013-10-13T08:54:41Z</time>
      </trkpt>
      <trkpt lat="47.65203" lon="-2.15956">
        <ele>76.56</ele>
        <time>2013-10-13T08:54:43Z</time>
      </trkpt>
      <trkpt lat="47.65213" lon="-2.15956">
        <ele>76.56</ele>
        <time>2013-10-13T08:54:45Z</time>
      </trkpt>
      <trkpt lat="47.65225" lon="-2.15955">
        <ele>76.08</ele>
        <time>2013-10-13T08:54:47Z</time>
      </trkpt>
      <trkpt lat="47.65236" lon="-2.15955">
        <ele>75.6</ele>
        <time>2013-10-13T08:54:49Z</time>
      </trkpt>
      <trkpt lat="47.65247" lon="-2.15955">
        <ele>75.6</ele>
        <time>2013-10-13T08:54:51Z</time>
      </trkpt>
      <trkpt lat="47.65258" lon="-2.15957">
        <ele>75.6</ele>
        <time>2013-10-13T08:54:53Z</time>
      </trkpt>
      <trkpt lat="47.65268" lon="-2.1596">
        <ele>75.12</ele>
        <time>2013-10-13T08:54:55Z</time>
      </trkpt>
      <trkpt lat="47.65277" lon="-2.15969">
        <ele>75.12</ele>
        <time>2013-10-13T08:54:57Z</time>
      </trkpt>
      <trkpt lat="47.65284" lon="-2.15984">
        <ele>74.64</ele>
        <time>2013-10-13T08:54:59Z</time>
      </trkpt>
      <trkpt lat="47.65288" lon="-2.16002">
        <ele>74.16</ele>
        <time>2013-10-13T08:55:01Z</time>
      </trkpt>
      <trkpt lat="47.65292" lon="-2.16023">
        <ele>74.16</ele>
        <time>2013-10-13T08:55:03Z</time>
      </trkpt>
      <trkpt lat="47.65296" lon="-2.16043">
        <ele>73.68</ele>
        <time>2013-10-13T08:55:05Z</time>
      </trkpt>
      <trkpt lat="47.653" lon="-2.16062">
        <ele>73.68</ele>
        <time>2013-10-13T08:55:07Z</time>
      </trkpt>
      <trkpt lat="47.65303" lon="-2.16078">
        <ele>73.68</ele>
        <time>2013-10-13T08:55:09Z</time>
      </trkpt>
      <trkpt lat="47.65306" lon="-2.16094">
        <ele>74.16</ele>
        <time>2013-10-13T08:55:11Z</time>
      </trkpt>
      <trkpt lat="47.6531" lon="-2.16113">
        <ele>73.68</ele>
        <time>2013-10-13T08:55:14Z</time>
      </trkpt>
      <trkpt lat="47.65316" lon="-2.16119">
        <ele>73.2</ele>
        <time>2013-10-13T08:55:18Z</time>
      </trkpt>
      <trkpt lat="47.65324" lon="-2.16106">
        <ele>73.2</ele>
        <time>2013-10-13T08:55:22Z</time>
      </trkpt>
      <trkpt lat="47.65331" lon="-2.16093">
        <ele>72.72</ele>
        <time>2013-10-13T08:55:25Z</time>
      </trkpt>
      <trkpt lat="47.65336" lon="-2.16081">
        <ele>72.72</ele>
        <time>2013-10-13T08:55:28Z</time>
      </trkpt>
      <trkpt lat="47.6534" lon="-2.16068">
        <ele>72.24</ele>
        <time>2013-10-13T08:55:32Z</time>
      </trkpt>
      <trkpt lat="47.65343" lon="-2.1605">
        <ele>72.24</ele>
        <time>2013-10-13T08:55:35Z</time>
      </trkpt>
      <trkpt lat="47.65349" lon="-2.16033">
        <ele>72.24</ele>
        <time>2013-10-13T08:55:39Z</time>
      </trkpt>
      <trkpt lat="47.65346" lon="-2.16018">
        <ele>72.72</ele>
        <time>2013-10-13T08:55:42Z</time>
      </trkpt>
      <trkpt lat="47.6535" lon="-2.16001">
        <ele>73.2</ele>
        <time>2013-10-13T08:55:45Z</time>
      </trkpt>
      <trkpt lat="47.6536" lon="-2.15992">
        <ele>73.2</ele>
        <time>2013-10-13T08:55:48Z</time>
      </trkpt>
      <trkpt lat="47.65368" lon="-2.15979">
        <ele>73.2</ele>
        <time>2013-10-13T08:55:51Z</time>
      </trkpt>
      <trkpt lat="47.65369" lon="-2.15963">
        <ele>73.68</ele>
        <time>2013-10-13T08:55:53Z</time>
      </trkpt>
      <trkpt lat="47.65372" lon="-2.15945">
        <ele>73.68</ele>
        <time>2013-10-13T08:55:55Z</time>
      </trkpt>
      <trkpt lat="47.65373" lon="-2.15927">
        <ele>73.2</ele>
        <time>2013-10-13T08:55:57Z</time>
      </trkpt>
      <trkpt lat="47.65379" lon="-2.15914">
        <ele>73.2</ele>
        <time>2013-10-13T08:55:59Z</time>
      </trkpt>
      <trkpt lat="47.65392" lon="-2.15907">
        <ele>72.72</ele>
        <time>2013-10-13T08:56:02Z</time>
      </trkpt>
      <trkpt lat="47.65401" lon="-2.15899">
        <ele>72.24</ele>
        <time>2013-10-13T08:56:05Z</time>
      </trkpt>
      <trkpt lat="47.65392" lon="-2.15888">
        <ele>71.76</ele>
        <time>2013-10-13T08:56:08Z</time>
      </trkpt>
      <trkpt lat="47.65384" lon="-2.15879">
        <ele>70.31</ele>
        <time>2013-10-13T08:56:13Z</time>
      </trkpt>
      <trkpt lat="47.65386" lon="-2.15863">
        <ele>68.87</ele>
        <time>2013-10-13T08:56:17Z</time>
      </trkpt>
      <trkpt lat="47.65396" lon="-2.1584">
        <ele>67.91</ele>
        <time>2013-10-13T08:56:20Z</time>
      </trkpt>
      <trkpt lat="47.65405" lon="-2.15813">
        <ele>67.91</ele>
        <time>2013-10-13T08:56:23Z</time>
      </trkpt>
      <trkpt lat="47.65415" lon="-2.15793">
        <ele>67.91</ele>
        <time>2013-10-13T08:56:25Z</time>
      </trkpt>
      <trkpt lat="47.65423" lon="-2.15781">
        <ele>67.43</ele>
        <time>2013-10-13T08:56:27Z</time>
      </trkpt>
      <trkpt lat="47.65439" lon="-2.15772">
        <ele>66.95</ele>
        <time>2013-10-13T08:56:30Z</time>
      </trkpt>
      <trkpt lat="47.65451" lon="-2.15775">
        <ele>65.51</ele>
        <time>2013-10-13T08:56:33Z</time>
      </trkpt>
      <trkpt lat="47.65462" lon="-2.15779">
        <ele>65.03</ele>
        <time>2013-10-13T08:56:36Z</time>
      </trkpt>
      <trkpt lat="47.65472" lon="-2.15784">
        <ele>64.07</ele>
        <time>2013-10-13T08:56:39Z</time>
      </trkpt>
      <trkpt lat="47.65481" lon="-2.15789">
        <ele>63.1</ele>
        <time>2013-10-13T08:56:42Z</time>
      </trkpt>
      <trkpt lat="47.6549" lon="-2.15795">
        <ele>63.1</ele>
        <time>2013-10-13T08:56:45Z</time>
      </trkpt>
      <trkpt lat="47.65499" lon="-2.15802">
        <ele>63.58</ele>
        <time>2013-10-13T08:56:48Z</time>
      </trkpt>
      <trkpt lat="47.65508" lon="-2.15809">
        <ele>63.58</ele>
        <time>2013-10-13T08:56:51Z</time>
      </trkpt>
      <trkpt lat="47.65519" lon="-2.15816">
        <ele>63.1</ele>
        <time>2013-10-13T08:56:54Z</time>
      </trkpt>
      <trkpt lat="47.6553" lon="-2.15823">
        <ele>62.62</ele>
        <time>2013-10-13T08:56:57Z</time>
      </trkpt>
      <trkpt lat="47.6554" lon="-2.1583">
        <ele>62.62</ele>
        <time>2013-10-13T08:57:00Z</time>
      </trkpt>
      <trkpt lat="47.65552" lon="-2.15839">
        <ele>61.66</ele>
        <time>2013-10-13T08:57:03Z</time>
      </trkpt>
      <trkpt lat="47.65564" lon="-2.15848">
        <ele>61.66</ele>
        <time>2013-10-13T08:57:06Z</time>
      </trkpt>
      <trkpt lat="47.65572" lon="-2.15854">
        <ele>60.7</ele>
        <time>2013-10-13T08:57:08Z</time>
      </trkpt>
      <trkpt lat="47.65581" lon="-2.1586">
        <ele>60.7</ele>
        <time>2013-10-13T08:57:10Z</time>
      </trkpt>
      <trkpt lat="47.65592" lon="-2.15868">
        <ele>60.7</ele>
        <time>2013-10-13T08:57:13Z</time>
      </trkpt>
      <trkpt lat="47.65601" lon="-2.15876">
        <ele>60.7</ele>
        <time>2013-10-13T08:57:16Z</time>
      </trkpt>
      <trkpt lat="47.65611" lon="-2.15886">
        <ele>60.7</ele>
        <time>2013-10-13T08:57:20Z</time>
      </trkpt>
      <trkpt lat="47.65615" lon="-2.15897">
        <ele>61.18</ele>
        <time>2013-10-13T08:57:27Z</time>
      </trkpt>
      <trkpt lat="47.65615" lon="-2.15895">
        <ele>63.58</ele>
        <time>2013-10-13T09:07:17Z</time>
      </trkpt>
      <trkpt lat="47.65625" lon="-2.15884">
        <ele>57.34</ele>
        <time>2013-10-13T09:08:39Z</time>
      </trkpt>
      <trkpt lat="47.65627" lon="-2.15869">
        <ele>55.89</ele>
        <time>2013-10-13T09:08:43Z</time>
      </trkpt>
      <trkpt lat="47.65621" lon="-2.15856">
        <ele>55.41</ele>
        <time>2013-10-13T09:08:46Z</time>
      </trkpt>
      <trkpt lat="47.6562" lon="-2.15839">
        <ele>54.45</ele>
        <time>2013-10-13T09:08:49Z</time>
      </trkpt>
      <trkpt lat="47.65616" lon="-2.15823">
        <ele>53.97</ele>
        <time>2013-10-13T09:08:52Z</time>
      </trkpt>
      <trkpt lat="47.65622" lon="-2.15807">
        <ele>52.53</ele>
        <time>2013-10-13T09:08:55Z</time>
      </trkpt>
      <trkpt lat="47.65631" lon="-2.15796">
        <ele>50.13</ele>
        <time>2013-10-13T09:08:58Z</time>
      </trkpt>
      <trkpt lat="47.65636" lon="-2.15787">
        <ele>48.2</ele>
        <time>2013-10-13T09:09:02Z</time>
      </trkpt>
      <trkpt lat="47.65642" lon="-2.15774">
        <ele>46.28</ele>
        <time>2013-10-13T09:09:05Z</time>
      </trkpt>
      <trkpt lat="47.65645" lon="-2.15756">
        <ele>44.84</ele>
        <time>2013-10-13T09:09:08Z</time>
      </trkpt>
      <trkpt lat="47.65651" lon="-2.15741">
        <ele>43.88</ele>
        <time>2013-10-13T09:09:11Z</time>
      </trkpt>
      <trkpt lat="47.65657" lon="-2.15731">
        <ele>42.44</ele>
        <time>2013-10-13T09:09:17Z</time>
      </trkpt>
      <trkpt lat="47.65658" lon="-2.15716">
        <ele>41.47</ele>
        <time>2013-10-13T09:09:21Z</time>
      </trkpt>
      <trkpt lat="47.65667" lon="-2.15705">
        <ele>40.51</ele>
        <time>2013-10-13T09:09:25Z</time>
      </trkpt>
      <trkpt lat="47.65677" lon="-2.1571">
        <ele>39.55</ele>
        <time>2013-10-13T09:09:31Z</time>
      </trkpt>
      <trkpt lat="47.65689" lon="-2.15707">
        <ele>38.59</ele>
        <time>2013-10-13T09:09:37Z</time>
      </trkpt>
      <trkpt lat="47.65699" lon="-2.15709">
        <ele>38.11</ele>
        <time>2013-10-13T09:09:41Z</time>
      </trkpt>
      <trkpt lat="47.65707" lon="-2.15721">
        <ele>37.63</ele>
        <time>2013-10-13T09:09:46Z</time>
      </trkpt>
      <trkpt lat="47.65719" lon="-2.1572">
        <ele>37.63</ele>
        <time>2013-10-13T09:09:52Z</time>
      </trkpt>
      <trkpt lat="47.6573" lon="-2.15711">
        <ele>42.44</ele>
        <time>2013-10-13T09:10:01Z</time>
      </trkpt>
      <trkpt lat="47.65741" lon="-2.15701">
        <ele>47.72</ele>
        <time>2013-10-13T09:10:10Z</time>
      </trkpt>
      <trkpt lat="47.65736" lon="-2.15686">
        <ele>50.61</ele>
        <time>2013-10-13T09:10:16Z</time>
      </trkpt>
      <trkpt lat="47.65733" lon="-2.15668">
        <ele>56.37</ele>
        <time>2013-10-13T09:10:25Z</time>
      </trkpt>
      <trkpt lat="47.65744" lon="-2.15651">
        <ele>61.66</ele>
        <time>2013-10-13T09:10:34Z</time>
      </trkpt>
      <trkpt lat="47.65747" lon="-2.15632">
        <ele>64.07</ele>
        <time>2013-10-13T09:10:44Z</time>
      </trkpt>
      <trkpt lat="47.65743" lon="-2.15619">
        <ele>68.87</ele>
        <time>2013-10-13T09:10:51Z</time>
      </trkpt>
      <trkpt lat="47.65749" lon="-2.15601">
        <ele>72.24</ele>
        <time>2013-10-13T09:11:00Z</time>
      </trkpt>
      <trkpt lat="47.6575" lon="-2.15576">
        <ele>71.76</ele>
        <time>2013-10-13T09:11:10Z</time>
      </trkpt>
      <trkpt lat="47.65753" lon="-2.15554">
        <ele>70.79</ele>
        <time>2013-10-13T09:11:20Z</time>
      </trkpt>
      <trkpt lat="47.65762" lon="-2.15535">
        <ele>74.64</ele>
        <time>2013-10-13T09:11:28Z</time>
      </trkpt>
      <trkpt lat="47.65768" lon="-2.15519">
        <ele>77.52</ele>
        <time>2013-10-13T09:11:35Z</time>
      </trkpt>
      <trkpt lat="47.65775" lon="-2.15504">
        <ele>78.48</ele>
        <time>2013-10-13T09:11:41Z</time>
      </trkpt>
      <trkpt lat="47.65779" lon="-2.15487">
        <ele>78.97</ele>
        <time>2013-10-13T09:11:46Z</time>
      </trkpt>
      <trkpt lat="47.65779" lon="-2.15469">
        <ele>79.93</ele>
        <time>2013-10-13T09:11:52Z</time>
      </trkpt>
      <trkpt lat="47.65772" lon="-2.15459">
        <ele>80.89</ele>
        <time>2013-10-13T09:11:57Z</time>
      </trkpt>
      <trkpt lat="47.65762" lon="-2.15452">
        <ele>82.81</ele>
        <time>2013-10-13T09:12:02Z</time>
      </trkpt>
      <trkpt lat="47.65751" lon="-2.15444">
        <ele>84.73</ele>
        <time>2013-10-13T09:12:07Z</time>
      </trkpt>
      <trkpt lat="47.65743" lon="-2.15451">
        <ele>85.21</ele>
        <time>2013-10-13T09:12:11Z</time>
      </trkpt>
      <trkpt lat="47.65732" lon="-2.1546">
        <ele>84.25</ele>
        <time>2013-10-13T09:12:17Z</time>
      </trkpt>
      <trkpt lat="47.65719" lon="-2.15453">
        <ele>85.69</ele>
        <time>2013-10-13T09:12:21Z</time>
      </trkpt>
      <trkpt lat="47.6572" lon="-2.15435">
        <ele>86.18</ele>
        <time>2013-10-13T09:12:24Z</time>
      </trkpt>
      <trkpt lat="47.65716" lon="-2.15418">
        <ele>86.18</ele>
        <time>2013-10-13T09:12:27Z</time>
      </trkpt>
      <trkpt lat="47.6571" lon="-2.15404">
        <ele>87.14</ele>
        <time>2013-10-13T09:12:33Z</time>
      </trkpt>
      <trkpt lat="47.65707" lon="-2.15384">
        <ele>87.62</ele>
        <time>2013-10-13T09:12:38Z</time>
      </trkpt>
      <trkpt lat="47.65706" lon="-2.15365">
        <ele>87.14</ele>
        <time>2013-10-13T09:12:44Z</time>
      </trkpt>
      <trkpt lat="47.65701" lon="-2.15348">
        <ele>87.14</ele>
        <time>2013-10-13T09:12:49Z</time>
      </trkpt>
      <trkpt lat="47.65699" lon="-2.15331">
        <ele>87.14</ele>
        <time>2013-10-13T09:12:54Z</time>
      </trkpt>
      <trkpt lat="47.65701" lon="-2.15316">
        <ele>86.66</ele>
        <time>2013-10-13T09:12:59Z</time>
      </trkpt>
      <trkpt lat="47.65704" lon="-2.153">
        <ele>86.18</ele>
        <time>2013-10-13T09:13:05Z</time>
      </trkpt>
      <trkpt lat="47.65713" lon="-2.15293">
        <ele>84.25</ele>
        <time>2013-10-13T09:13:10Z</time>
      </trkpt>
      <trkpt lat="47.65727" lon="-2.15289">
        <ele>83.77</ele>
        <time>2013-10-13T09:13:15Z</time>
      </trkpt>
      <trkpt lat="47.65738" lon="-2.15285">
        <ele>84.73</ele>
        <time>2013-10-13T09:13:19Z</time>
      </trkpt>
      <trkpt lat="47.65751" lon="-2.15279">
        <ele>84.73</ele>
        <time>2013-10-13T09:13:24Z</time>
      </trkpt>
      <trkpt lat="47.65764" lon="-2.15274">
        <ele>85.21</ele>
        <time>2013-10-13T09:13:28Z</time>
      </trkpt>
      <trkpt lat="47.65779" lon="-2.15269">
        <ele>85.21</ele>
        <time>2013-10-13T09:13:31Z</time>
      </trkpt>
      <trkpt lat="47.65792" lon="-2.15268">
        <ele>83.29</ele>
        <time>2013-10-13T09:13:34Z</time>
      </trkpt>
      <trkpt lat="47.65805" lon="-2.15267">
        <ele>81.85</ele>
        <time>2013-10-13T09:13:37Z</time>
      </trkpt>
      <trkpt lat="47.65818" lon="-2.15267">
        <ele>79.93</ele>
        <time>2013-10-13T09:13:40Z</time>
      </trkpt>
      <trkpt lat="47.65831" lon="-2.15267">
        <ele>79.45</ele>
        <time>2013-10-13T09:13:43Z</time>
      </trkpt>
      <trkpt lat="47.65842" lon="-2.1527">
        <ele>78</ele>
        <time>2013-10-13T09:13:46Z</time>
      </trkpt>
      <trkpt lat="47.65844" lon="-2.15287">
        <ele>75.12</ele>
        <time>2013-10-13T09:13:49Z</time>
      </trkpt>
      <trkpt lat="47.65846" lon="-2.15307">
        <ele>72.72</ele>
        <time>2013-10-13T09:13:52Z</time>
      </trkpt>
      <trkpt lat="47.65847" lon="-2.15328">
        <ele>71.76</ele>
        <time>2013-10-13T09:13:55Z</time>
      </trkpt>
      <trkpt lat="47.65846" lon="-2.15341">
        <ele>71.76</ele>
        <time>2013-10-13T09:13:57Z</time>
      </trkpt>
      <trkpt lat="47.65845" lon="-2.15355">
        <ele>71.27</ele>
        <time>2013-10-13T09:13:59Z</time>
      </trkpt>
      <trkpt lat="47.6584" lon="-2.15367">
        <ele>71.27</ele>
        <time>2013-10-13T09:14:03Z</time>
      </trkpt>
      <trkpt lat="47.65836" lon="-2.15383">
        <ele>71.27</ele>
        <time>2013-10-13T09:14:07Z</time>
      </trkpt>
      <trkpt lat="47.65834" lon="-2.15402">
        <ele>70.31</ele>
        <time>2013-10-13T09:14:11Z</time>
      </trkpt>
      <trkpt lat="47.65844" lon="-2.15407">
        <ele>68.39</ele>
        <time>2013-10-13T09:14:16Z</time>
      </trkpt>
      <trkpt lat="47.65854" lon="-2.15411">
        <ele>68.39</ele>
        <time>2013-10-13T09:14:19Z</time>
      </trkpt>
      <trkpt lat="47.65866" lon="-2.15418">
        <ele>69.35</ele>
        <time>2013-10-13T09:14:22Z</time>
      </trkpt>
      <trkpt lat="47.65872" lon="-2.15432">
        <ele>69.83</ele>
        <time>2013-10-13T09:14:26Z</time>
      </trkpt>
      <trkpt lat="47.65886" lon="-2.15438">
        <ele>68.87</ele>
        <time>2013-10-13T09:14:30Z</time>
      </trkpt>
      <trkpt lat="47.65897" lon="-2.15437">
        <ele>67.91</ele>
        <time>2013-10-13T09:14:33Z</time>
      </trkpt>
      <trkpt lat="47.65908" lon="-2.15444">
        <ele>66.95</ele>
        <time>2013-10-13T09:14:37Z</time>
      </trkpt>
      <trkpt lat="47.65901" lon="-2.15457">
        <ele>67.91</ele>
        <time>2013-10-13T09:14:41Z</time>
      </trkpt>
      <trkpt lat="47.65894" lon="-2.1547">
        <ele>67.43</ele>
        <time>2013-10-13T09:14:44Z</time>
      </trkpt>
      <trkpt lat="47.65887" lon="-2.15484">
        <ele>67.91</ele>
        <time>2013-10-13T09:14:48Z</time>
      </trkpt>
      <trkpt lat="47.65883" lon="-2.15498">
        <ele>67.43</ele>
        <time>2013-10-13T09:14:52Z</time>
      </trkpt>
      <trkpt lat="47.6588" lon="-2.15514">
        <ele>66.95</ele>
        <time>2013-10-13T09:14:56Z</time>
      </trkpt>
      <trkpt lat="47.65875" lon="-2.15531">
        <ele>65.99</ele>
        <time>2013-10-13T09:15:00Z</time>
      </trkpt>
      <trkpt lat="47.65861" lon="-2.1554">
        <ele>65.03</ele>
        <time>2013-10-13T09:15:03Z</time>
      </trkpt>
      <trkpt lat="47.65847" lon="-2.15553">
        <ele>63.58</ele>
        <time>2013-10-13T09:15:06Z</time>
      </trkpt>
      <trkpt lat="47.6584" lon="-2.15568">
        <ele>62.14</ele>
        <time>2013-10-13T09:15:09Z</time>
      </trkpt>
      <trkpt lat="47.65832" lon="-2.15585">
        <ele>60.22</ele>
        <time>2013-10-13T09:15:12Z</time>
      </trkpt>
      <trkpt lat="47.65831" lon="-2.156">
        <ele>58.3</ele>
        <time>2013-10-13T09:15:14Z</time>
      </trkpt>
      <trkpt lat="47.65829" lon="-2.15617">
        <ele>56.86</ele>
        <time>2013-10-13T09:15:16Z</time>
      </trkpt>
      <trkpt lat="47.65824" lon="-2.15636">
        <ele>54.93</ele>
        <time>2013-10-13T09:15:18Z</time>
      </trkpt>
      <trkpt lat="47.65818" lon="-2.15647">
        <ele>52.53</ele>
        <time>2013-10-13T09:15:20Z</time>
      </trkpt>
      <trkpt lat="47.65807" lon="-2.15653">
        <ele>50.13</ele>
        <time>2013-10-13T09:15:22Z</time>
      </trkpt>
      <trkpt lat="47.65795" lon="-2.15655">
        <ele>47.72</ele>
        <time>2013-10-13T09:15:24Z</time>
      </trkpt>
      <trkpt lat="47.65782" lon="-2.15658">
        <ele>45.8</ele>
        <time>2013-10-13T09:15:26Z</time>
      </trkpt>
      <trkpt lat="47.65773" lon="-2.15663">
        <ele>45.32</ele>
        <time>2013-10-13T09:15:28Z</time>
      </trkpt>
      <trkpt lat="47.65769" lon="-2.15675">
        <ele>45.32</ele>
        <time>2013-10-13T09:15:30Z</time>
      </trkpt>
      <trkpt lat="47.65762" lon="-2.15687">
        <ele>45.32</ele>
        <time>2013-10-13T09:15:32Z</time>
      </trkpt>
      <trkpt lat="47.65757" lon="-2.15701">
        <ele>44.84</ele>
        <time>2013-10-13T09:15:35Z</time>
      </trkpt>
      <trkpt lat="47.65765" lon="-2.15709">
        <ele>44.36</ele>
        <time>2013-10-13T09:15:38Z</time>
      </trkpt>
      <trkpt lat="47.65774" lon="-2.15713">
        <ele>43.88</ele>
        <time>2013-10-13T09:15:40Z</time>
      </trkpt>
      <trkpt lat="47.65785" lon="-2.15715">
        <ele>43.4</ele>
        <time>2013-10-13T09:15:42Z</time>
      </trkpt>
      <trkpt lat="47.65794" lon="-2.15715">
        <ele>41.95</ele>
        <time>2013-10-13T09:15:46Z</time>
      </trkpt>
      <trkpt lat="47.65808" lon="-2.1571">
        <ele>39.07</ele>
        <time>2013-10-13T09:16:02Z</time>
      </trkpt>
      <trkpt lat="47.6582" lon="-2.15712">
        <ele>40.03</ele>
        <time>2013-10-13T09:16:08Z</time>
      </trkpt>
      <trkpt lat="47.65831" lon="-2.15714">
        <ele>40.51</ele>
        <time>2013-10-13T09:16:13Z</time>
      </trkpt>
      <trkpt lat="47.65843" lon="-2.15716">
        <ele>42.44</ele>
        <time>2013-10-13T09:16:18Z</time>
      </trkpt>
      <trkpt lat="47.65857" lon="-2.15716">
        <ele>46.28</ele>
        <time>2013-10-13T09:16:24Z</time>
      </trkpt>
      <trkpt lat="47.65874" lon="-2.15715">
        <ele>51.09</ele>
        <time>2013-10-13T09:16:33Z</time>
      </trkpt>
      <trkpt lat="47.65879" lon="-2.15702">
        <ele>53.97</ele>
        <time>2013-10-13T09:16:42Z</time>
      </trkpt>
      <trkpt lat="47.65875" lon="-2.15696">
        <ele>57.34</ele>
        <time>2013-10-13T09:16:48Z</time>
      </trkpt>
      <trkpt lat="47.65866" lon="-2.15692">
        <ele>57.82</ele>
        <time>2013-10-13T09:16:54Z</time>
      </trkpt>
      <trkpt lat="47.65871" lon="-2.15685">
        <ele>62.62</ele>
        <time>2013-10-13T09:17:02Z</time>
      </trkpt>
      <trkpt lat="47.65872" lon="-2.15672">
        <ele>65.51</ele>
        <time>2013-10-13T09:17:10Z</time>
      </trkpt>
      <trkpt lat="47.65879" lon="-2.15653">
        <ele>65.99</ele>
        <time>2013-10-13T09:17:22Z</time>
      </trkpt>
      <trkpt lat="47.65889" lon="-2.15653">
        <ele>68.39</ele>
        <time>2013-10-13T09:17:28Z</time>
      </trkpt>
      <trkpt lat="47.65898" lon="-2.15656">
        <ele>68.39</ele>
        <time>2013-10-13T09:17:32Z</time>
      </trkpt>
      <trkpt lat="47.65909" lon="-2.15656">
        <ele>67.91</ele>
        <time>2013-10-13T09:17:36Z</time>
      </trkpt>
      <trkpt lat="47.65915" lon="-2.1567">
        <ele>68.87</ele>
        <time>2013-10-13T09:17:40Z</time>
      </trkpt>
      <trkpt lat="47.65925" lon="-2.1568">
        <ele>69.35</ele>
        <time>2013-10-13T09:17:44Z</time>
      </trkpt>
      <trkpt lat="47.65936" lon="-2.15681">
        <ele>69.35</ele>
        <time>2013-10-13T09:17:47Z</time>
      </trkpt>
      <trkpt lat="47.65945" lon="-2.1569">
        <ele>68.39</ele>
        <time>2013-10-13T09:17:50Z</time>
      </trkpt>
      <trkpt lat="47.65951" lon="-2.15702">
        <ele>67.43</ele>
        <time>2013-10-13T09:17:53Z</time>
      </trkpt>
      <trkpt lat="47.65963" lon="-2.15708">
        <ele>65.03</ele>
        <time>2013-10-13T09:17:58Z</time>
      </trkpt>
      <trkpt lat="47.65973" lon="-2.15714">
        <ele>65.51</ele>
        <time>2013-10-13T09:18:02Z</time>
      </trkpt>
      <trkpt lat="47.65985" lon="-2.15705">
        <ele>66.95</ele>
        <time>2013-10-13T09:18:07Z</time>
      </trkpt>
      <trkpt lat="47.65994" lon="-2.15696">
        <ele>65.99</ele>
        <time>2013-10-13T09:18:13Z</time>
      </trkpt>
      <trkpt lat="47.66005" lon="-2.15694">
        <ele>65.03</ele>
        <time>2013-10-13T09:18:17Z</time>
      </trkpt>
      <trkpt lat="47.66016" lon="-2.15695">
        <ele>64.55</ele>
        <time>2013-10-13T09:18:20Z</time>
      </trkpt>
      <trkpt lat="47.66028" lon="-2.15699">
        <ele>64.07</ele>
        <time>2013-10-13T09:18:23Z</time>
      </trkpt>
      <trkpt lat="47.66039" lon="-2.15697">
        <ele>64.55</ele>
        <time>2013-10-13T09:18:26Z</time>
      </trkpt>
      <trkpt lat="47.66054" lon="-2.15697">
        <ele>65.03</ele>
        <time>2013-10-13T09:18:30Z</time>
      </trkpt>
      <trkpt lat="47.66064" lon="-2.15692">
        <ele>65.51</ele>
        <time>2013-10-13T09:18:33Z</time>
      </trkpt>
      <trkpt lat="47.66071" lon="-2.15678">
        <ele>65.51</ele>
        <time>2013-10-13T09:18:38Z</time>
      </trkpt>
      <trkpt lat="47.66076" lon="-2.15664">
        <ele>65.03</ele>
        <time>2013-10-13T09:18:42Z</time>
      </trkpt>
      <trkpt lat="47.66096" lon="-2.15653">
        <ele>64.55</ele>
        <time>2013-10-13T09:18:47Z</time>
      </trkpt>
      <trkpt lat="47.66101" lon="-2.15664">
        <ele>63.58</ele>
        <time>2013-10-13T09:18:52Z</time>
      </trkpt>
      <trkpt lat="47.661" lon="-2.15677">
        <ele>63.58</ele>
        <time>2013-10-13T09:18:54Z</time>
      </trkpt>
      <trkpt lat="47.66096" lon="-2.15692">
        <ele>63.58</ele>
        <time>2013-10-13T09:18:56Z</time>
      </trkpt>
      <trkpt lat="47.66094" lon="-2.15711">
        <ele>63.1</ele>
        <time>2013-10-13T09:18:58Z</time>
      </trkpt>
      <trkpt lat="47.6609" lon="-2.15727">
        <ele>63.1</ele>
        <time>2013-10-13T09:19:00Z</time>
      </trkpt>
      <trkpt lat="47.66085" lon="-2.15748">
        <ele>62.62</ele>
        <time>2013-10-13T09:19:03Z</time>
      </trkpt>
      <trkpt lat="47.66092" lon="-2.15764">
        <ele>62.14</ele>
        <time>2013-10-13T09:19:07Z</time>
      </trkpt>
      <trkpt lat="47.66102" lon="-2.15779">
        <ele>61.66</ele>
        <time>2013-10-13T09:19:12Z</time>
      </trkpt>
      <trkpt lat="47.66104" lon="-2.15794">
        <ele>61.66</ele>
        <time>2013-10-13T09:19:15Z</time>
      </trkpt>
      <trkpt lat="47.66104" lon="-2.15814">
        <ele>60.22</ele>
        <time>2013-10-13T09:19:18Z</time>
      </trkpt>
      <trkpt lat="47.66111" lon="-2.1583">
        <ele>59.74</ele>
        <time>2013-10-13T09:19:21Z</time>
      </trkpt>
      <trkpt lat="47.66118" lon="-2.15843">
        <ele>58.78</ele>
        <time>2013-10-13T09:19:24Z</time>
      </trkpt>
      <trkpt lat="47.6613" lon="-2.15852">
        <ele>57.82</ele>
        <time>2013-10-13T09:19:31Z</time>
      </trkpt>
      <trkpt lat="47.66137" lon="-2.15847">
        <ele>60.7</ele>
        <time>2013-10-13T09:19:39Z</time>
      </trkpt>
      <trkpt lat="47.66148" lon="-2.15854">
        <ele>62.14</ele>
        <time>2013-10-13T09:19:45Z</time>
      </trkpt>
      <trkpt lat="47.66161" lon="-2.15858">
        <ele>61.66</ele>
        <time>2013-10-13T09:19:51Z</time>
      </trkpt>
      <trkpt lat="47.66172" lon="-2.15859">
        <ele>61.18</ele>
        <time>2013-10-13T09:19:54Z</time>
      </trkpt>
      <trkpt lat="47.66182" lon="-2.15855">
        <ele>61.66</ele>
        <time>2013-10-13T09:19:59Z</time>
      </trkpt>
      <trkpt lat="47.66191" lon="-2.15853">
        <ele>63.58</ele>
        <time>2013-10-13T09:20:06Z</time>
      </trkpt>
      <trkpt lat="47.66218" lon="-2.15855">
        <ele>62.62</ele>
        <time>2013-10-13T09:20:14Z</time>
      </trkpt>
      <trkpt lat="47.66244" lon="-2.15858">
        <ele>60.7</ele>
        <time>2013-10-13T09:20:29Z</time>
      </trkpt>
      <trkpt lat="47.66253" lon="-2.15869">
        <ele>59.26</ele>
        <time>2013-10-13T09:20:36Z</time>
      </trkpt>
      <trkpt lat="47.6627" lon="-2.1588">
        <ele>57.82</ele>
        <time>2013-10-13T09:20:43Z</time>
      </trkpt>
      <trkpt lat="47.66285" lon="-2.15885">
        <ele>56.37</ele>
        <time>2013-10-13T09:20:52Z</time>
      </trkpt>
      <trkpt lat="47.66303" lon="-2.15885">
        <ele>56.37</ele>
        <time>2013-10-13T09:21:01Z</time>
      </trkpt>
      <trkpt lat="47.66321" lon="-2.15887">
        <ele>55.89</ele>
        <time>2013-10-13T09:21:10Z</time>
      </trkpt>
      <trkpt lat="47.66336" lon="-2.15886">
        <ele>58.78</ele>
        <time>2013-10-13T09:21:20Z</time>
      </trkpt>
      <trkpt lat="47.66349" lon="-2.15878">
        <ele>60.7</ele>
        <time>2013-10-13T09:21:27Z</time>
      </trkpt>
      <trkpt lat="47.66358" lon="-2.15869">
        <ele>62.62</ele>
        <time>2013-10-13T09:21:35Z</time>
      </trkpt>
      <trkpt lat="47.6637" lon="-2.15864">
        <ele>62.62</ele>
        <time>2013-10-13T09:21:40Z</time>
      </trkpt>
      <trkpt lat="47.66381" lon="-2.15859">
        <ele>61.66</ele>
        <time>2013-10-13T09:21:46Z</time>
      </trkpt>
      <trkpt lat="47.66393" lon="-2.15855">
        <ele>61.18</ele>
        <time>2013-10-13T09:21:51Z</time>
      </trkpt>
      <trkpt lat="47.66401" lon="-2.15843">
        <ele>61.66</ele>
        <time>2013-10-13T09:21:56Z</time>
      </trkpt>
      <trkpt lat="47.66403" lon="-2.15826">
        <ele>63.58</ele>
        <time>2013-10-13T09:22:03Z</time>
      </trkpt>
      <trkpt lat="47.66407" lon="-2.15809">
        <ele>64.55</ele>
        <time>2013-10-13T09:22:08Z</time>
      </trkpt>
      <trkpt lat="47.66413" lon="-2.15794">
        <ele>64.55</ele>
        <time>2013-10-13T09:22:13Z</time>
      </trkpt>
      <trkpt lat="47.66417" lon="-2.15779">
        <ele>63.1</ele>
        <time>2013-10-13T09:22:17Z</time>
      </trkpt>
      <trkpt lat="47.6642" lon="-2.15763">
        <ele>62.62</ele>
        <time>2013-10-13T09:22:22Z</time>
      </trkpt>
      <trkpt lat="47.66423" lon="-2.15745">
        <ele>63.58</ele>
        <time>2013-10-13T09:22:28Z</time>
      </trkpt>
      <trkpt lat="47.66426" lon="-2.15726">
        <ele>65.99</ele>
        <time>2013-10-13T09:22:34Z</time>
      </trkpt>
      <trkpt lat="47.66431" lon="-2.15711">
        <ele>67.91</ele>
        <time>2013-10-13T09:22:39Z</time>
      </trkpt>
      <trkpt lat="47.66442" lon="-2.15706">
        <ele>70.31</ele>
        <time>2013-10-13T09:22:44Z</time>
      </trkpt>
      <trkpt lat="47.6644" lon="-2.15691">
        <ele>71.76</ele>
        <time>2013-10-13T09:22:49Z</time>
      </trkpt>
      <trkpt lat="47.66441" lon="-2.15668">
        <ele>73.68</ele>
        <time>2013-10-13T09:22:54Z</time>
      </trkpt>
      <trkpt lat="47.66442" lon="-2.15647">
        <ele>77.52</ele>
        <time>2013-10-13T09:23:00Z</time>
      </trkpt>
      <trkpt lat="47.66453" lon="-2.15647">
        <ele>77.04</ele>
        <time>2013-10-13T09:23:04Z</time>
      </trkpt>
      <trkpt lat="47.66463" lon="-2.15644">
        <ele>76.56</ele>
        <time>2013-10-13T09:23:07Z</time>
      </trkpt>
      <trkpt lat="47.66475" lon="-2.15651">
        <ele>76.08</ele>
        <time>2013-10-13T09:23:10Z</time>
      </trkpt>
      <trkpt lat="47.66483" lon="-2.15658">
        <ele>75.6</ele>
        <time>2013-10-13T09:23:12Z</time>
      </trkpt>
      <trkpt lat="47.66491" lon="-2.15669">
        <ele>75.12</ele>
        <time>2013-10-13T09:23:14Z</time>
      </trkpt>
      <trkpt lat="47.66499" lon="-2.1568">
        <ele>74.64</ele>
        <time>2013-10-13T09:23:16Z</time>
      </trkpt>
      <trkpt lat="47.66507" lon="-2.1569">
        <ele>74.16</ele>
        <time>2013-10-13T09:23:18Z</time>
      </trkpt>
      <trkpt lat="47.6652" lon="-2.15691">
        <ele>73.2</ele>
        <time>2013-10-13T09:23:21Z</time>
      </trkpt>
      <trkpt lat="47.6653" lon="-2.15685">
        <ele>72.72</ele>
        <time>2013-10-13T09:23:23Z</time>
      </trkpt>
      <trkpt lat="47.66537" lon="-2.1567">
        <ele>72.24</ele>
        <time>2013-10-13T09:23:25Z</time>
      </trkpt>
      <trkpt lat="47.66539" lon="-2.15652">
        <ele>70.79</ele>
        <time>2013-10-13T09:23:27Z</time>
      </trkpt>
      <trkpt lat="47.66542" lon="-2.1563">
        <ele>69.83</ele>
        <time>2013-10-13T09:23:29Z</time>
      </trkpt>
      <trkpt lat="47.66543" lon="-2.1561">
        <ele>68.39</ele>
        <time>2013-10-13T09:23:31Z</time>
      </trkpt>
      <trkpt lat="47.66548" lon="-2.15588">
        <ele>64.55</ele>
        <time>2013-10-13T09:23:34Z</time>
      </trkpt>
      <trkpt lat="47.66544" lon="-2.15572">
        <ele>61.66</ele>
        <time>2013-10-13T09:23:37Z</time>
      </trkpt>
      <trkpt lat="47.66538" lon="-2.15561">
        <ele>60.22</ele>
        <time>2013-10-13T09:23:40Z</time>
      </trkpt>
      <trkpt lat="47.6653" lon="-2.15547">
        <ele>59.26</ele>
        <time>2013-10-13T09:23:44Z</time>
      </trkpt>
      <trkpt lat="47.66523" lon="-2.15531">
        <ele>56.37</ele>
        <time>2013-10-13T09:23:47Z</time>
      </trkpt>
      <trkpt lat="47.66516" lon="-2.15517">
        <ele>54.45</ele>
        <time>2013-10-13T09:23:50Z</time>
      </trkpt>
      <trkpt lat="47.66508" lon="-2.15505">
        <ele>52.53</ele>
        <time>2013-10-13T09:23:53Z</time>
      </trkpt>
      <trkpt lat="47.66502" lon="-2.15493">
        <ele>52.05</ele>
        <time>2013-10-13T09:23:56Z</time>
      </trkpt>
      <trkpt lat="47.66498" lon="-2.15478">
        <ele>52.53</ele>
        <time>2013-10-13T09:23:59Z</time>
      </trkpt>
      <trkpt lat="47.66495" lon="-2.15464">
        <ele>53.01</ele>
        <time>2013-10-13T09:24:02Z</time>
      </trkpt>
      <trkpt lat="47.66492" lon="-2.15446">
        <ele>53.97</ele>
        <time>2013-10-13T09:24:06Z</time>
      </trkpt>
      <trkpt lat="47.66487" lon="-2.15432">
        <ele>53.97</ele>
        <time>2013-10-13T09:24:09Z</time>
      </trkpt>
      <trkpt lat="47.66482" lon="-2.15416">
        <ele>53.97</ele>
        <time>2013-10-13T09:24:13Z</time>
      </trkpt>
      <trkpt lat="47.66476" lon="-2.15398">
        <ele>54.45</ele>
        <time>2013-10-13T09:24:17Z</time>
      </trkpt>
      <trkpt lat="47.6647" lon="-2.15377">
        <ele>54.93</ele>
        <time>2013-10-13T09:24:22Z</time>
      </trkpt>
      <trkpt lat="47.66467" lon="-2.15358">
        <ele>55.89</ele>
        <time>2013-10-13T09:24:26Z</time>
      </trkpt>
      <trkpt lat="47.66462" lon="-2.15337">
        <ele>59.26</ele>
        <time>2013-10-13T09:24:30Z</time>
      </trkpt>
      <trkpt lat="47.66455" lon="-2.15317">
        <ele>62.14</ele>
        <time>2013-10-13T09:24:34Z</time>
      </trkpt>
      <trkpt lat="47.66445" lon="-2.15305">
        <ele>65.51</ele>
        <time>2013-10-13T09:24:41Z</time>
      </trkpt>
      <trkpt lat="47.66429" lon="-2.15287">
        <ele>64.55</ele>
        <time>2013-10-13T09:24:47Z</time>
      </trkpt>
      <trkpt lat="47.66416" lon="-2.15266">
        <ele>68.87</ele>
        <time>2013-10-13T09:24:58Z</time>
      </trkpt>
      <trkpt lat="47.66408" lon="-2.15252">
        <ele>72.72</ele>
        <time>2013-10-13T09:25:07Z</time>
      </trkpt>
      <trkpt lat="47.66395" lon="-2.15235">
        <ele>75.6</ele>
        <time>2013-10-13T09:25:19Z</time>
      </trkpt>
      <trkpt lat="47.66385" lon="-2.15225">
        <ele>78.97</ele>
        <time>2013-10-13T09:25:26Z</time>
      </trkpt>
      <trkpt lat="47.66374" lon="-2.15211">
        <ele>82.33</ele>
        <time>2013-10-13T09:25:33Z</time>
      </trkpt>
      <trkpt lat="47.66366" lon="-2.152">
        <ele>84.73</ele>
        <time>2013-10-13T09:25:39Z</time>
      </trkpt>
      <trkpt lat="47.66356" lon="-2.15187">
        <ele>85.69</ele>
        <time>2013-10-13T09:25:46Z</time>
      </trkpt>
      <trkpt lat="47.66348" lon="-2.15175">
        <ele>85.21</ele>
        <time>2013-10-13T09:25:52Z</time>
      </trkpt>
      <trkpt lat="47.6634" lon="-2.15162">
        <ele>84.25</ele>
        <time>2013-10-13T09:26:00Z</time>
      </trkpt>
      <trkpt lat="47.6633" lon="-2.15148">
        <ele>83.29</ele>
        <time>2013-10-13T09:26:10Z</time>
      </trkpt>
      <trkpt lat="47.66318" lon="-2.15127">
        <ele>81.85</ele>
        <time>2013-10-13T09:26:22Z</time>
      </trkpt>
      <trkpt lat="47.66308" lon="-2.15109">
        <ele>79.93</ele>
        <time>2013-10-13T09:26:33Z</time>
      </trkpt>
      <trkpt lat="47.66301" lon="-2.15114">
        <ele>77.04</ele>
        <time>2013-10-13T09:26:44Z</time>
      </trkpt>
      <trkpt lat="47.66292" lon="-2.15125">
        <ele>72.24</ele>
        <time>2013-10-13T09:26:55Z</time>
      </trkpt>
      <trkpt lat="47.66277" lon="-2.1513">
        <ele>66.95</ele>
        <time>2013-10-13T09:27:04Z</time>
      </trkpt>
      <trkpt lat="47.66263" lon="-2.15132">
        <ele>67.43</ele>
        <time>2013-10-13T09:27:10Z</time>
      </trkpt>
      <trkpt lat="47.66249" lon="-2.1513">
        <ele>69.83</ele>
        <time>2013-10-13T09:27:17Z</time>
      </trkpt>
      <trkpt lat="47.66238" lon="-2.15132">
        <ele>69.83</ele>
        <time>2013-10-13T09:27:22Z</time>
      </trkpt>
      <trkpt lat="47.66233" lon="-2.15121">
        <ele>69.35</ele>
        <time>2013-10-13T09:27:26Z</time>
      </trkpt>
      <trkpt lat="47.6623" lon="-2.15106">
        <ele>68.39</ele>
        <time>2013-10-13T09:27:29Z</time>
      </trkpt>
      <trkpt lat="47.66227" lon="-2.15086">
        <ele>66.47</ele>
        <time>2013-10-13T09:27:32Z</time>
      </trkpt>
      <trkpt lat="47.66223" lon="-2.15064">
        <ele>64.55</ele>
        <time>2013-10-13T09:27:35Z</time>
      </trkpt>
      <trkpt lat="47.6622" lon="-2.15049">
        <ele>64.07</ele>
        <time>2013-10-13T09:27:37Z</time>
      </trkpt>
      <trkpt lat="47.66217" lon="-2.15034">
        <ele>63.58</ele>
        <time>2013-10-13T09:27:39Z</time>
      </trkpt>
      <trkpt lat="47.66214" lon="-2.15019">
        <ele>63.1</ele>
        <time>2013-10-13T09:27:41Z</time>
      </trkpt>
      <trkpt lat="47.6621" lon="-2.15004">
        <ele>63.1</ele>
        <time>2013-10-13T09:27:43Z</time>
      </trkpt>
      <trkpt lat="47.66206" lon="-2.14988">
        <ele>62.62</ele>
        <time>2013-10-13T09:27:45Z</time>
      </trkpt>
      <trkpt lat="47.66202" lon="-2.14972">
        <ele>62.62</ele>
        <time>2013-10-13T09:27:47Z</time>
      </trkpt>
      <trkpt lat="47.66197" lon="-2.14956">
        <ele>62.62</ele>
        <time>2013-10-13T09:27:49Z</time>
      </trkpt>
      <trkpt lat="47.66193" lon="-2.14941">
        <ele>62.62</ele>
        <time>2013-10-13T09:27:51Z</time>
      </trkpt>
      <trkpt lat="47.66189" lon="-2.14925">
        <ele>62.62</ele>
        <time>2013-10-13T09:27:53Z</time>
      </trkpt>
      <trkpt lat="47.66186" lon="-2.1491">
        <ele>62.62</ele>
        <time>2013-10-13T09:27:55Z</time>
      </trkpt>
      <trkpt lat="47.66183" lon="-2.14895">
        <ele>62.62</ele>
        <time>2013-10-13T09:27:57Z</time>
      </trkpt>
      <trkpt lat="47.66179" lon="-2.14881">
        <ele>63.1</ele>
        <time>2013-10-13T09:27:59Z</time>
      </trkpt>
      <trkpt lat="47.66175" lon="-2.14867">
        <ele>63.1</ele>
        <time>2013-10-13T09:28:01Z</time>
      </trkpt>
      <trkpt lat="47.66172" lon="-2.14853">
        <ele>63.58</ele>
        <time>2013-10-13T09:28:03Z</time>
      </trkpt>
      <trkpt lat="47.66168" lon="-2.14838">
        <ele>63.58</ele>
        <time>2013-10-13T09:28:05Z</time>
      </trkpt>
      <trkpt lat="47.66165" lon="-2.14824">
        <ele>63.58</ele>
        <time>2013-10-13T09:28:07Z</time>
      </trkpt>
      <trkpt lat="47.66162" lon="-2.14809">
        <ele>64.07</ele>
        <time>2013-10-13T09:28:09Z</time>
      </trkpt>
      <trkpt lat="47.66158" lon="-2.14795">
        <ele>64.07</ele>
        <time>2013-10-13T09:28:11Z</time>
      </trkpt>
      <trkpt lat="47.66155" lon="-2.1478">
        <ele>63.58</ele>
        <time>2013-10-13T09:28:13Z</time>
      </trkpt>
      <trkpt lat="47.66151" lon="-2.14766">
        <ele>63.58</ele>
        <time>2013-10-13T09:28:15Z</time>
      </trkpt>
      <trkpt lat="47.66147" lon="-2.14752">
        <ele>63.1</ele>
        <time>2013-10-13T09:28:17Z</time>
      </trkpt>
      <trkpt lat="47.66144" lon="-2.14737">
        <ele>62.62</ele>
        <time>2013-10-13T09:28:19Z</time>
      </trkpt>
      <trkpt lat="47.6614" lon="-2.14723">
        <ele>62.62</ele>
        <time>2013-10-13T09:28:21Z</time>
      </trkpt>
      <trkpt lat="47.66137" lon="-2.14709">
        <ele>62.62</ele>
        <time>2013-10-13T09:28:23Z</time>
      </trkpt>
      <trkpt lat="47.66131" lon="-2.14689">
        <ele>63.1</ele>
        <time>2013-10-13T09:28:26Z</time>
      </trkpt>
      <trkpt lat="47.66128" lon="-2.14676">
        <ele>62.62</ele>
        <time>2013-10-13T09:28:28Z</time>
      </trkpt>
      <trkpt lat="47.66123" lon="-2.14662">
        <ele>62.14</ele>
        <time>2013-10-13T09:28:30Z</time>
      </trkpt>
      <trkpt lat="47.66117" lon="-2.14649">
        <ele>62.14</ele>
        <time>2013-10-13T09:28:32Z</time>
      </trkpt>
      <trkpt lat="47.66109" lon="-2.14635">
        <ele>61.66</ele>
        <time>2013-10-13T09:28:34Z</time>
      </trkpt>
      <trkpt lat="47.66101" lon="-2.14622">
        <ele>61.66</ele>
        <time>2013-10-13T09:28:36Z</time>
      </trkpt>
      <trkpt lat="47.66093" lon="-2.14608">
        <ele>61.66</ele>
        <time>2013-10-13T09:28:38Z</time>
      </trkpt>
      <trkpt lat="47.66085" lon="-2.14594">
        <ele>62.14</ele>
        <time>2013-10-13T09:28:40Z</time>
      </trkpt>
      <trkpt lat="47.66077" lon="-2.1458">
        <ele>63.1</ele>
        <time>2013-10-13T09:28:42Z</time>
      </trkpt>
      <trkpt lat="47.6607" lon="-2.14566">
        <ele>63.58</ele>
        <time>2013-10-13T09:28:44Z</time>
      </trkpt>
      <trkpt lat="47.66065" lon="-2.1455">
        <ele>62.62</ele>
        <time>2013-10-13T09:28:48Z</time>
      </trkpt>
      <trkpt lat="47.66056" lon="-2.14539">
        <ele>61.66</ele>
        <time>2013-10-13T09:28:52Z</time>
      </trkpt>
      <trkpt lat="47.66059" lon="-2.14537">
        <ele>61.18</ele>
        <time>2013-10-13T09:28:57Z</time>
      </trkpt>
      <trkpt lat="47.66066" lon="-2.14546">
        <ele>60.7</ele>
        <time>2013-10-13T09:29:01Z</time>
      </trkpt>
      <trkpt lat="47.66077" lon="-2.14548">
        <ele>59.74</ele>
        <time>2013-10-13T09:29:04Z</time>
      </trkpt>
      <trkpt lat="47.6609" lon="-2.14546">
        <ele>59.26</ele>
        <time>2013-10-13T09:29:06Z</time>
      </trkpt>
      <trkpt lat="47.66106" lon="-2.14546">
        <ele>59.26</ele>
        <time>2013-10-13T09:29:08Z</time>
      </trkpt>
      <trkpt lat="47.66123" lon="-2.14546">
        <ele>58.78</ele>
        <time>2013-10-13T09:29:10Z</time>
      </trkpt>
      <trkpt lat="47.66133" lon="-2.14545">
        <ele>58.78</ele>
        <time>2013-10-13T09:29:11Z</time>
      </trkpt>
      <trkpt lat="47.66144" lon="-2.14544">
        <ele>58.3</ele>
        <time>2013-10-13T09:29:12Z</time>
      </trkpt>
      <trkpt lat="47.66155" lon="-2.14544">
        <ele>57.82</ele>
        <time>2013-10-13T09:29:13Z</time>
      </trkpt>
      <trkpt lat="47.66166" lon="-2.14544">
        <ele>57.34</ele>
        <time>2013-10-13T09:29:14Z</time>
      </trkpt>
      <trkpt lat="47.66177" lon="-2.14543">
        <ele>56.86</ele>
        <time>2013-10-13T09:29:15Z</time>
      </trkpt>
      <trkpt lat="47.66187" lon="-2.14543">
        <ele>56.37</ele>
        <time>2013-10-13T09:29:16Z</time>
      </trkpt>
      <trkpt lat="47.66197" lon="-2.14542">
        <ele>55.89</ele>
        <time>2013-10-13T09:29:17Z</time>
      </trkpt>
      <trkpt lat="47.66207" lon="-2.14542">
        <ele>55.41</ele>
        <time>2013-10-13T09:29:18Z</time>
      </trkpt>
      <trkpt lat="47.66217" lon="-2.14543">
        <ele>55.41</ele>
        <time>2013-10-13T09:29:19Z</time>
      </trkpt>
      <trkpt lat="47.66227" lon="-2.14543">
        <ele>54.93</ele>
        <time>2013-10-13T09:29:20Z</time>
      </trkpt>
      <trkpt lat="47.66237" lon="-2.14544">
        <ele>54.45</ele>
        <time>2013-10-13T09:29:21Z</time>
      </trkpt>
      <trkpt lat="47.66246" lon="-2.14545">
        <ele>53.97</ele>
        <time>2013-10-13T09:29:22Z</time>
      </trkpt>
      <trkpt lat="47.66256" lon="-2.14547">
        <ele>53.01</ele>
        <time>2013-10-13T09:29:23Z</time>
      </trkpt>
      <trkpt lat="47.66265" lon="-2.1455">
        <ele>53.01</ele>
        <time>2013-10-13T09:29:24Z</time>
      </trkpt>
      <trkpt lat="47.6628" lon="-2.14561">
        <ele>51.57</ele>
        <time>2013-10-13T09:29:26Z</time>
      </trkpt>
      <trkpt lat="47.66295" lon="-2.14576">
        <ele>50.61</ele>
        <time>2013-10-13T09:29:28Z</time>
      </trkpt>
      <trkpt lat="47.6631" lon="-2.14586">
        <ele>48.68</ele>
        <time>2013-10-13T09:29:30Z</time>
      </trkpt>
      <trkpt lat="47.66328" lon="-2.14585">
        <ele>47.24</ele>
        <time>2013-10-13T09:29:32Z</time>
      </trkpt>
      <trkpt lat="47.66337" lon="-2.14584">
        <ele>45.8</ele>
        <time>2013-10-13T09:29:33Z</time>
      </trkpt>
      <trkpt lat="47.66355" lon="-2.14584">
        <ele>43.88</ele>
        <time>2013-10-13T09:29:35Z</time>
      </trkpt>
      <trkpt lat="47.66368" lon="-2.1458">
        <ele>42.44</ele>
        <time>2013-10-13T09:29:37Z</time>
      </trkpt>
      <trkpt lat="47.66373" lon="-2.14569">
        <ele>40.99</ele>
        <time>2013-10-13T09:29:39Z</time>
      </trkpt>
      <trkpt lat="47.66372" lon="-2.14555">
        <ele>38.59</ele>
        <time>2013-10-13T09:29:41Z</time>
      </trkpt>
      <trkpt lat="47.66372" lon="-2.14539">
        <ele>37.15</ele>
        <time>2013-10-13T09:29:43Z</time>
      </trkpt>
      <trkpt lat="47.66373" lon="-2.14523">
        <ele>36.67</ele>
        <time>2013-10-13T09:29:45Z</time>
      </trkpt>
      <trkpt lat="47.66374" lon="-2.14509">
        <ele>36.19</ele>
        <time>2013-10-13T09:29:47Z</time>
      </trkpt>
      <trkpt lat="47.66373" lon="-2.1449">
        <ele>37.15</ele>
        <time>2013-10-13T09:29:50Z</time>
      </trkpt>
      <trkpt lat="47.66367" lon="-2.14473">
        <ele>37.15</ele>
        <time>2013-10-13T09:29:53Z</time>
      </trkpt>
      <trkpt lat="47.6636" lon="-2.14458">
        <ele>36.67</ele>
        <time>2013-10-13T09:29:56Z</time>
      </trkpt>
      <trkpt lat="47.66352" lon="-2.14445">
        <ele>36.19</ele>
        <time>2013-10-13T09:29:59Z</time>
      </trkpt>
      <trkpt lat="47.66347" lon="-2.14433">
        <ele>35.71</ele>
        <time>2013-10-13T09:30:01Z</time>
      </trkpt>
      <trkpt lat="47.66341" lon="-2.1442">
        <ele>35.23</ele>
        <time>2013-10-13T09:30:03Z</time>
      </trkpt>
      <trkpt lat="47.66336" lon="-2.14404">
        <ele>34.26</ele>
        <time>2013-10-13T09:30:05Z</time>
      </trkpt>
      <trkpt lat="47.66331" lon="-2.14387">
        <ele>33.78</ele>
        <time>2013-10-13T09:30:07Z</time>
      </trkpt>
      <trkpt lat="47.66328" lon="-2.14368">
        <ele>32.82</ele>
        <time>2013-10-13T09:30:09Z</time>
      </trkpt>
      <trkpt lat="47.66325" lon="-2.14348">
        <ele>31.86</ele>
        <time>2013-10-13T09:30:11Z</time>
      </trkpt>
      <trkpt lat="47.66323" lon="-2.14329">
        <ele>30.9</ele>
        <time>2013-10-13T09:30:13Z</time>
      </trkpt>
      <trkpt lat="47.66321" lon="-2.1431">
        <ele>29.94</ele>
        <time>2013-10-13T09:30:15Z</time>
      </trkpt>
      <trkpt lat="47.66319" lon="-2.14293">
        <ele>29.46</ele>
        <time>2013-10-13T09:30:17Z</time>
      </trkpt>
      <trkpt lat="47.66317" lon="-2.14276">
        <ele>28.98</ele>
        <time>2013-10-13T09:30:19Z</time>
      </trkpt>
      <trkpt lat="47.66311" lon="-2.14261">
        <ele>28.5</ele>
        <time>2013-10-13T09:30:21Z</time>
      </trkpt>
      <trkpt lat="47.66302" lon="-2.1425">
        <ele>28.98</ele>
        <time>2013-10-13T09:30:23Z</time>
      </trkpt>
      <trkpt lat="47.66294" lon="-2.14239">
        <ele>29.46</ele>
        <time>2013-10-13T09:30:25Z</time>
      </trkpt>
      <trkpt lat="47.66286" lon="-2.14228">
        <ele>29.94</ele>
        <time>2013-10-13T09:30:27Z</time>
      </trkpt>
      <trkpt lat="47.6628" lon="-2.14215">
        <ele>29.94</ele>
        <time>2013-10-13T09:30:29Z</time>
      </trkpt>
      <trkpt lat="47.66275" lon="-2.14199">
        <ele>29.94</ele>
        <time>2013-10-13T09:30:31Z</time>
      </trkpt>
      <trkpt lat="47.66269" lon="-2.14182">
        <ele>29.46</ele>
        <time>2013-10-13T09:30:33Z</time>
      </trkpt>
      <trkpt lat="47.66261" lon="-2.14165">
        <ele>28.98</ele>
        <time>2013-10-13T09:30:35Z</time>
      </trkpt>
      <trkpt lat="47.66252" lon="-2.14147">
        <ele>28.5</ele>
        <time>2013-10-13T09:30:37Z</time>
      </trkpt>
      <trkpt lat="47.66243" lon="-2.1413">
        <ele>28.5</ele>
        <time>2013-10-13T09:30:39Z</time>
      </trkpt>
      <trkpt lat="47.66234" lon="-2.14112">
        <ele>28.02</ele>
        <time>2013-10-13T09:30:41Z</time>
      </trkpt>
      <trkpt lat="47.66226" lon="-2.14094">
        <ele>27.53</ele>
        <time>2013-10-13T09:30:43Z</time>
      </trkpt>
      <trkpt lat="47.66219" lon="-2.14078">
        <ele>27.05</ele>
        <time>2013-10-13T09:30:45Z</time>
      </trkpt>
      <trkpt lat="47.66215" lon="-2.14065">
        <ele>26.09</ele>
        <time>2013-10-13T09:30:48Z</time>
      </trkpt>
      <trkpt lat="47.6621" lon="-2.14048">
        <ele>25.61</ele>
        <time>2013-10-13T09:30:51Z</time>
      </trkpt>
      <trkpt lat="47.66209" lon="-2.14033">
        <ele>25.13</ele>
        <time>2013-10-13T09:30:53Z</time>
      </trkpt>
      <trkpt lat="47.66212" lon="-2.14017">
        <ele>24.65</ele>
        <time>2013-10-13T09:30:55Z</time>
      </trkpt>
      <trkpt lat="47.66221" lon="-2.14003">
        <ele>24.65</ele>
        <time>2013-10-13T09:30:57Z</time>
      </trkpt>
      <trkpt lat="47.66232" lon="-2.13993">
        <ele>24.17</ele>
        <time>2013-10-13T09:30:59Z</time>
      </trkpt>
      <trkpt lat="47.66244" lon="-2.13982">
        <ele>24.17</ele>
        <time>2013-10-13T09:31:01Z</time>
      </trkpt>
      <trkpt lat="47.66256" lon="-2.13972">
        <ele>23.69</ele>
        <time>2013-10-13T09:31:03Z</time>
      </trkpt>
      <trkpt lat="47.66268" lon="-2.13961">
        <ele>23.21</ele>
        <time>2013-10-13T09:31:05Z</time>
      </trkpt>
      <trkpt lat="47.6628" lon="-2.1395">
        <ele>23.21</ele>
        <time>2013-10-13T09:31:07Z</time>
      </trkpt>
      <trkpt lat="47.66292" lon="-2.13939">
        <ele>22.73</ele>
        <time>2013-10-13T09:31:09Z</time>
      </trkpt>
      <trkpt lat="47.66305" lon="-2.13926">
        <ele>22.73</ele>
        <time>2013-10-13T09:31:11Z</time>
      </trkpt>
      <trkpt lat="47.66316" lon="-2.13913">
        <ele>22.73</ele>
        <time>2013-10-13T09:31:13Z</time>
      </trkpt>
      <trkpt lat="47.66326" lon="-2.13899">
        <ele>22.73</ele>
        <time>2013-10-13T09:31:15Z</time>
      </trkpt>
      <trkpt lat="47.66336" lon="-2.13884">
        <ele>22.25</ele>
        <time>2013-10-13T09:31:17Z</time>
      </trkpt>
      <trkpt lat="47.66347" lon="-2.13869">
        <ele>21.77</ele>
        <time>2013-10-13T09:31:19Z</time>
      </trkpt>
      <trkpt lat="47.66356" lon="-2.13853">
        <ele>21.29</ele>
        <time>2013-10-13T09:31:21Z</time>
      </trkpt>
      <trkpt lat="47.66366" lon="-2.13839">
        <ele>20.81</ele>
        <time>2013-10-13T09:31:23Z</time>
      </trkpt>
      <trkpt lat="47.66376" lon="-2.13825">
        <ele>20.32</ele>
        <time>2013-10-13T09:31:25Z</time>
      </trkpt>
      <trkpt lat="47.66386" lon="-2.13811">
        <ele>19.84</ele>
        <time>2013-10-13T09:31:27Z</time>
      </trkpt>
      <trkpt lat="47.66395" lon="-2.13795">
        <ele>19.36</ele>
        <time>2013-10-13T09:31:29Z</time>
      </trkpt>
      <trkpt lat="47.66405" lon="-2.13779">
        <ele>18.88</ele>
        <time>2013-10-13T09:31:31Z</time>
      </trkpt>
      <trkpt lat="47.66416" lon="-2.13764">
        <ele>18.4</ele>
        <time>2013-10-13T09:31:33Z</time>
      </trkpt>
      <trkpt lat="47.66426" lon="-2.13749">
        <ele>17.92</ele>
        <time>2013-10-13T09:31:35Z</time>
      </trkpt>
      <trkpt lat="47.66437" lon="-2.13732">
        <ele>17.44</ele>
        <time>2013-10-13T09:31:37Z</time>
      </trkpt>
      <trkpt lat="47.66448" lon="-2.13715">
        <ele>16.48</ele>
        <time>2013-10-13T09:31:39Z</time>
      </trkpt>
      <trkpt lat="47.6646" lon="-2.13697">
        <ele>15.52</ele>
        <time>2013-10-13T09:31:41Z</time>
      </trkpt>
      <trkpt lat="47.66472" lon="-2.13678">
        <ele>15.04</ele>
        <time>2013-10-13T09:31:43Z</time>
      </trkpt>
      <trkpt lat="47.66484" lon="-2.1366">
        <ele>14.56</ele>
        <time>2013-10-13T09:31:45Z</time>
      </trkpt>
      <trkpt lat="47.66497" lon="-2.13642">
        <ele>14.08</ele>
        <time>2013-10-13T09:31:47Z</time>
      </trkpt>
      <trkpt lat="47.66509" lon="-2.13624">
        <ele>13.12</ele>
        <time>2013-10-13T09:31:49Z</time>
      </trkpt>
      <trkpt lat="47.66521" lon="-2.13607">
        <ele>12.63</ele>
        <time>2013-10-13T09:31:51Z</time>
      </trkpt>
      <trkpt lat="47.66533" lon="-2.13587">
        <ele>12.63</ele>
        <time>2013-10-13T09:31:53Z</time>
      </trkpt>
      <trkpt lat="47.66546" lon="-2.13566">
        <ele>12.15</ele>
        <time>2013-10-13T09:31:55Z</time>
      </trkpt>
      <trkpt lat="47.66558" lon="-2.13546">
        <ele>11.19</ele>
        <time>2013-10-13T09:31:57Z</time>
      </trkpt>
      <trkpt lat="47.6657" lon="-2.13529">
        <ele>10.71</ele>
        <time>2013-10-13T09:31:59Z</time>
      </trkpt>
      <trkpt lat="47.66582" lon="-2.13512">
        <ele>10.23</ele>
        <time>2013-10-13T09:32:01Z</time>
      </trkpt>
      <trkpt lat="47.66593" lon="-2.13494">
        <ele>9.75</ele>
        <time>2013-10-13T09:32:03Z</time>
      </trkpt>
      <trkpt lat="47.66604" lon="-2.13477">
        <ele>9.27</ele>
        <time>2013-10-13T09:32:05Z</time>
      </trkpt>
      <trkpt lat="47.66615" lon="-2.13461">
        <ele>9.27</ele>
        <time>2013-10-13T09:32:07Z</time>
      </trkpt>
      <trkpt lat="47.66625" lon="-2.13445">
        <ele>8.79</ele>
        <time>2013-10-13T09:32:09Z</time>
      </trkpt>
      <trkpt lat="47.66636" lon="-2.13429">
        <ele>8.31</ele>
        <time>2013-10-13T09:32:11Z</time>
      </trkpt>
      <trkpt lat="47.66647" lon="-2.13412">
        <ele>7.83</ele>
        <time>2013-10-13T09:32:13Z</time>
      </trkpt>
      <trkpt lat="47.66658" lon="-2.13396">
        <ele>7.35</ele>
        <time>2013-10-13T09:32:15Z</time>
      </trkpt>
      <trkpt lat="47.66668" lon="-2.1338">
        <ele>6.87</ele>
        <time>2013-10-13T09:32:17Z</time>
      </trkpt>
      <trkpt lat="47.66678" lon="-2.13365">
        <ele>6.39</ele>
        <time>2013-10-13T09:32:19Z</time>
      </trkpt>
      <trkpt lat="47.66689" lon="-2.13349">
        <ele>5.91</ele>
        <time>2013-10-13T09:32:21Z</time>
      </trkpt>
      <trkpt lat="47.66699" lon="-2.13333">
        <ele>5.42</ele>
        <time>2013-10-13T09:32:23Z</time>
      </trkpt>
      <trkpt lat="47.6671" lon="-2.13319">
        <ele>5.42</ele>
        <time>2013-10-13T09:32:25Z</time>
      </trkpt>
      <trkpt lat="47.6672" lon="-2.13303">
        <ele>4.94</ele>
        <time>2013-10-13T09:32:27Z</time>
      </trkpt>
      <trkpt lat="47.66728" lon="-2.13292">
        <ele>3.98</ele>
        <time>2013-10-13T09:32:29Z</time>
      </trkpt>
      <trkpt lat="47.66724" lon="-2.13282">
        <ele>2.06</ele>
        <time>2013-10-13T09:32:32Z</time>
      </trkpt>
      <trkpt lat="47.66714" lon="-2.1328">
        <ele>1.1</ele>
        <time>2013-10-13T09:32:34Z</time>
      </trkpt>
      <trkpt lat="47.66704" lon="-2.13276">
        <ele>0.62</ele>
        <time>2013-10-13T09:32:36Z</time>
      </trkpt>
      <trkpt lat="47.66695" lon="-2.13268">
        <ele>1.1</ele>
        <time>2013-10-13T09:32:38Z</time>
      </trkpt>
      <trkpt lat="47.66687" lon="-2.13257">
        <ele>1.58</ele>
        <time>2013-10-13T09:32:40Z</time>
      </trkpt>
      <trkpt lat="47.66679" lon="-2.13246">
        <ele>1.58</ele>
        <time>2013-10-13T09:32:42Z</time>
      </trkpt>
      <trkpt lat="47.66672" lon="-2.13234">
        <ele>2.06</ele>
        <time>2013-10-13T09:32:44Z</time>
      </trkpt>
      <trkpt lat="47.66665" lon="-2.13223">
        <ele>2.54</ele>
        <time>2013-10-13T09:32:46Z</time>
      </trkpt>
      <trkpt lat="47.66658" lon="-2.13211">
        <ele>3.02</ele>
        <time>2013-10-13T09:32:48Z</time>
      </trkpt>
      <trkpt lat="47.6665" lon="-2.132">
        <ele>3.98</ele>
        <time>2013-10-13T09:32:50Z</time>
      </trkpt>
      <trkpt lat="47.66642" lon="-2.13189">
        <ele>4.46</ele>
        <time>2013-10-13T09:32:52Z</time>
      </trkpt>
      <trkpt lat="47.66636" lon="-2.13178">
        <ele>5.42</ele>
        <time>2013-10-13T09:32:54Z</time>
      </trkpt>
      <trkpt lat="47.66628" lon="-2.13167">
        <ele>5.91</ele>
        <time>2013-10-13T09:32:56Z</time>
      </trkpt>
      <trkpt lat="47.66621" lon="-2.13156">
        <ele>6.39</ele>
        <time>2013-10-13T09:32:58Z</time>
      </trkpt>
      <trkpt lat="47.66615" lon="-2.13144">
        <ele>6.39</ele>
        <time>2013-10-13T09:33:00Z</time>
      </trkpt>
      <trkpt lat="47.66609" lon="-2.13132">
        <ele>6.39</ele>
        <time>2013-10-13T09:33:02Z</time>
      </trkpt>
      <trkpt lat="47.66603" lon="-2.13121">
        <ele>6.39</ele>
        <time>2013-10-13T09:33:04Z</time>
      </trkpt>
      <trkpt lat="47.66597" lon="-2.13109">
        <ele>6.39</ele>
        <time>2013-10-13T09:33:06Z</time>
      </trkpt>
      <trkpt lat="47.66592" lon="-2.13098">
        <ele>5.91</ele>
        <time>2013-10-13T09:33:08Z</time>
      </trkpt>
      <trkpt lat="47.66586" lon="-2.13086">
        <ele>5.91</ele>
        <time>2013-10-13T09:33:10Z</time>
      </trkpt>
      <trkpt lat="47.6658" lon="-2.13075">
        <ele>5.91</ele>
        <time>2013-10-13T09:33:12Z</time>
      </trkpt>
      <trkpt lat="47.66573" lon="-2.13058">
        <ele>5.42</ele>
        <time>2013-10-13T09:33:15Z</time>
      </trkpt>
      <trkpt lat="47.66568" lon="-2.13047">
        <ele>4.94</ele>
        <time>2013-10-13T09:33:17Z</time>
      </trkpt>
      <trkpt lat="47.6656" lon="-2.13029">
        <ele>4.46</ele>
        <time>2013-10-13T09:33:20Z</time>
      </trkpt>
      <trkpt lat="47.66554" lon="-2.13018">
        <ele>4.46</ele>
        <time>2013-10-13T09:33:22Z</time>
      </trkpt>
      <trkpt lat="47.66549" lon="-2.13007">
        <ele>3.98</ele>
        <time>2013-10-13T09:33:24Z</time>
      </trkpt>
      <trkpt lat="47.66543" lon="-2.12995">
        <ele>3.98</ele>
        <time>2013-10-13T09:33:26Z</time>
      </trkpt>
      <trkpt lat="47.66538" lon="-2.12984">
        <ele>3.5</ele>
        <time>2013-10-13T09:33:28Z</time>
      </trkpt>
      <trkpt lat="47.66533" lon="-2.12973">
        <ele>3.5</ele>
        <time>2013-10-13T09:33:30Z</time>
      </trkpt>
      <trkpt lat="47.66528" lon="-2.12962">
        <ele>3.5</ele>
        <time>2013-10-13T09:33:32Z</time>
      </trkpt>
      <trkpt lat="47.66522" lon="-2.12951">
        <ele>3.02</ele>
        <time>2013-10-13T09:33:34Z</time>
      </trkpt>
      <trkpt lat="47.66516" lon="-2.1294">
        <ele>2.54</ele>
        <time>2013-10-13T09:33:36Z</time>
      </trkpt>
      <trkpt lat="47.66511" lon="-2.12928">
        <ele>3.02</ele>
        <time>2013-10-13T09:33:38Z</time>
      </trkpt>
      <trkpt lat="47.66504" lon="-2.12911">
        <ele>3.02</ele>
        <time>2013-10-13T09:33:41Z</time>
      </trkpt>
      <trkpt lat="47.66497" lon="-2.12895">
        <ele>2.54</ele>
        <time>2013-10-13T09:33:44Z</time>
      </trkpt>
      <trkpt lat="47.6649" lon="-2.12879">
        <ele>2.06</ele>
        <time>2013-10-13T09:33:47Z</time>
      </trkpt>
      <trkpt lat="47.66482" lon="-2.12864">
        <ele>2.06</ele>
        <time>2013-10-13T09:33:50Z</time>
      </trkpt>
      <trkpt lat="47.66476" lon="-2.12853">
        <ele>2.06</ele>
        <time>2013-10-13T09:33:52Z</time>
      </trkpt>
      <trkpt lat="47.66471" lon="-2.12842">
        <ele>2.06</ele>
        <time>2013-10-13T09:33:54Z</time>
      </trkpt>
      <trkpt lat="47.66464" lon="-2.12825">
        <ele>1.58</ele>
        <time>2013-10-13T09:33:57Z</time>
      </trkpt>
      <trkpt lat="47.66458" lon="-2.12814">
        <ele>1.58</ele>
        <time>2013-10-13T09:33:59Z</time>
      </trkpt>
      <trkpt lat="47.66453" lon="-2.12802">
        <ele>1.58</ele>
        <time>2013-10-13T09:34:01Z</time>
      </trkpt>
      <trkpt lat="47.66448" lon="-2.12791">
        <ele>1.58</ele>
        <time>2013-10-13T09:34:03Z</time>
      </trkpt>
      <trkpt lat="47.66443" lon="-2.1278">
        <ele>1.58</ele>
        <time>2013-10-13T09:34:05Z</time>
      </trkpt>
      <trkpt lat="47.66437" lon="-2.12769">
        <ele>1.58</ele>
        <time>2013-10-13T09:34:07Z</time>
      </trkpt>
      <trkpt lat="47.66432" lon="-2.12758">
        <ele>1.58</ele>
        <time>2013-10-13T09:34:09Z</time>
      </trkpt>
      <trkpt lat="47.66426" lon="-2.12747">
        <ele>1.58</ele>
        <time>2013-10-13T09:34:11Z</time>
      </trkpt>
      <trkpt lat="47.66419" lon="-2.12731">
        <ele>1.58</ele>
        <time>2013-10-13T09:34:14Z</time>
      </trkpt>
      <trkpt lat="47.66411" lon="-2.12715">
        <ele>1.58</ele>
        <time>2013-10-13T09:34:17Z</time>
      </trkpt>
      <trkpt lat="47.66405" lon="-2.12704">
        <ele>1.58</ele>
        <time>2013-10-13T09:34:19Z</time>
      </trkpt>
      <trkpt lat="47.66398" lon="-2.12688">
        <ele>1.58</ele>
        <time>2013-10-13T09:34:22Z</time>
      </trkpt>
      <trkpt lat="47.66391" lon="-2.12672">
        <ele>1.58</ele>
        <time>2013-10-13T09:34:25Z</time>
      </trkpt>
      <trkpt lat="47.66384" lon="-2.12655">
        <ele>1.58</ele>
        <time>2013-10-13T09:34:28Z</time>
      </trkpt>
      <trkpt lat="47.66377" lon="-2.12639">
        <ele>1.58</ele>
        <time>2013-10-13T09:34:31Z</time>
      </trkpt>
      <trkpt lat="47.66369" lon="-2.12623">
        <ele>1.58</ele>
        <time>2013-10-13T09:34:34Z</time>
      </trkpt>
      <trkpt lat="47.66362" lon="-2.12608">
        <ele>2.06</ele>
        <time>2013-10-13T09:34:37Z</time>
      </trkpt>
      <trkpt lat="47.66355" lon="-2.12593">
        <ele>2.06</ele>
        <time>2013-10-13T09:34:40Z</time>
      </trkpt>
      <trkpt lat="47.66348" lon="-2.12578">
        <ele>2.54</ele>
        <time>2013-10-13T09:34:43Z</time>
      </trkpt>
      <trkpt lat="47.66341" lon="-2.12564">
        <ele>2.54</ele>
        <time>2013-10-13T09:34:46Z</time>
      </trkpt>
      <trkpt lat="47.66334" lon="-2.12548">
        <ele>2.54</ele>
        <time>2013-10-13T09:34:49Z</time>
      </trkpt>
      <trkpt lat="47.66327" lon="-2.12532">
        <ele>2.54</ele>
        <time>2013-10-13T09:34:52Z</time>
      </trkpt>
      <trkpt lat="47.6632" lon="-2.12516">
        <ele>2.54</ele>
        <time>2013-10-13T09:34:55Z</time>
      </trkpt>
      <trkpt lat="47.66313" lon="-2.12501">
        <ele>3.02</ele>
        <time>2013-10-13T09:34:58Z</time>
      </trkpt>
      <trkpt lat="47.66306" lon="-2.12485">
        <ele>3.02</ele>
        <time>2013-10-13T09:35:01Z</time>
      </trkpt>
      <trkpt lat="47.66298" lon="-2.12469">
        <ele>2.54</ele>
        <time>2013-10-13T09:35:04Z</time>
      </trkpt>
      <trkpt lat="47.66291" lon="-2.12454">
        <ele>2.54</ele>
        <time>2013-10-13T09:35:07Z</time>
      </trkpt>
      <trkpt lat="47.66285" lon="-2.12438">
        <ele>2.54</ele>
        <time>2013-10-13T09:35:10Z</time>
      </trkpt>
      <trkpt lat="47.66279" lon="-2.12424">
        <ele>2.54</ele>
        <time>2013-10-13T09:35:13Z</time>
      </trkpt>
      <trkpt lat="47.66271" lon="-2.12408">
        <ele>2.54</ele>
        <time>2013-10-13T09:35:16Z</time>
      </trkpt>
      <trkpt lat="47.66263" lon="-2.12393">
        <ele>2.06</ele>
        <time>2013-10-13T09:35:19Z</time>
      </trkpt>
      <trkpt lat="47.66256" lon="-2.12377">
        <ele>2.54</ele>
        <time>2013-10-13T09:35:22Z</time>
      </trkpt>
      <trkpt lat="47.66248" lon="-2.12361">
        <ele>2.54</ele>
        <time>2013-10-13T09:35:25Z</time>
      </trkpt>
      <trkpt lat="47.66241" lon="-2.12346">
        <ele>2.54</ele>
        <time>2013-10-13T09:35:28Z</time>
      </trkpt>
      <trkpt lat="47.66235" lon="-2.12332">
        <ele>3.02</ele>
        <time>2013-10-13T09:35:31Z</time>
      </trkpt>
      <trkpt lat="47.66241" lon="-2.1232">
        <ele>3.02</ele>
        <time>2013-10-13T09:35:34Z</time>
      </trkpt>
      <trkpt lat="47.6625" lon="-2.12309">
        <ele>3.02</ele>
        <time>2013-10-13T09:35:37Z</time>
      </trkpt>
      <trkpt lat="47.66259" lon="-2.12296">
        <ele>2.54</ele>
        <time>2013-10-13T09:35:40Z</time>
      </trkpt>
      <trkpt lat="47.6627" lon="-2.12285">
        <ele>2.54</ele>
        <time>2013-10-13T09:35:43Z</time>
      </trkpt>
      <trkpt lat="47.66279" lon="-2.12273">
        <ele>2.06</ele>
        <time>2013-10-13T09:35:46Z</time>
      </trkpt>
      <trkpt lat="47.66288" lon="-2.1226">
        <ele>2.06</ele>
        <time>2013-10-13T09:35:49Z</time>
      </trkpt>
      <trkpt lat="47.66296" lon="-2.12247">
        <ele>2.06</ele>
        <time>2013-10-13T09:35:52Z</time>
      </trkpt>
      <trkpt lat="47.66305" lon="-2.12234">
        <ele>2.06</ele>
        <time>2013-10-13T09:35:55Z</time>
      </trkpt>
      <trkpt lat="47.66315" lon="-2.12222">
        <ele>2.54</ele>
        <time>2013-10-13T09:35:58Z</time>
      </trkpt>
      <trkpt lat="47.66322" lon="-2.12213">
        <ele>3.02</ele>
        <time>2013-10-13T09:36:00Z</time>
      </trkpt>
      <trkpt lat="47.66333" lon="-2.12199">
        <ele>3.5</ele>
        <time>2013-10-13T09:36:03Z</time>
      </trkpt>
      <trkpt lat="47.66344" lon="-2.12185">
        <ele>3.5</ele>
        <time>2013-10-13T09:36:06Z</time>
      </trkpt>
      <trkpt lat="47.66354" lon="-2.12171">
        <ele>3.98</ele>
        <time>2013-10-13T09:36:09Z</time>
      </trkpt>
      <trkpt lat="47.66364" lon="-2.12158">
        <ele>3.98</ele>
        <time>2013-10-13T09:36:12Z</time>
      </trkpt>
      <trkpt lat="47.66374" lon="-2.12144">
        <ele>3.98</ele>
        <time>2013-10-13T09:36:15Z</time>
      </trkpt>
      <trkpt lat="47.66384" lon="-2.12131">
        <ele>3.98</ele>
        <time>2013-10-13T09:36:18Z</time>
      </trkpt>
      <trkpt lat="47.66393" lon="-2.12118">
        <ele>4.46</ele>
        <time>2013-10-13T09:36:21Z</time>
      </trkpt>
      <trkpt lat="47.66402" lon="-2.12106">
        <ele>5.42</ele>
        <time>2013-10-13T09:36:24Z</time>
      </trkpt>
      <trkpt lat="47.66412" lon="-2.12094">
        <ele>5.42</ele>
        <time>2013-10-13T09:36:27Z</time>
      </trkpt>
      <trkpt lat="47.66421" lon="-2.12082">
        <ele>5.91</ele>
        <time>2013-10-13T09:36:30Z</time>
      </trkpt>
      <trkpt lat="47.6643" lon="-2.1207">
        <ele>6.39</ele>
        <time>2013-10-13T09:36:33Z</time>
      </trkpt>
      <trkpt lat="47.66439" lon="-2.12058">
        <ele>6.87</ele>
        <time>2013-10-13T09:36:36Z</time>
      </trkpt>
      <trkpt lat="47.66446" lon="-2.12046">
        <ele>6.39</ele>
        <time>2013-10-13T09:36:39Z</time>
      </trkpt>
      <trkpt lat="47.66453" lon="-2.12033">
        <ele>5.42</ele>
        <time>2013-10-13T09:36:42Z</time>
      </trkpt>
      <trkpt lat="47.66462" lon="-2.12023">
        <ele>4.46</ele>
        <time>2013-10-13T09:36:45Z</time>
      </trkpt>
      <trkpt lat="47.66469" lon="-2.12012">
        <ele>3.02</ele>
        <time>2013-10-13T09:36:48Z</time>
      </trkpt>
      <trkpt lat="47.66477" lon="-2.12">
        <ele>1.1</ele>
        <time>2013-10-13T09:36:51Z</time>
      </trkpt>
      <trkpt lat="47.66485" lon="-2.11986">
        <ele>-0.34</ele>
        <time>2013-10-13T09:36:54Z</time>
      </trkpt>
      <trkpt lat="47.66495" lon="-2.11974">
        <ele>-1.3</ele>
        <time>2013-10-13T09:36:57Z</time>
      </trkpt>
      <trkpt lat="47.66503" lon="-2.11961">
        <ele>-0.82</ele>
        <time>2013-10-13T09:37:00Z</time>
      </trkpt>
      <trkpt lat="47.66503" lon="-2.11946">
        <ele>0.14</ele>
        <time>2013-10-13T09:37:03Z</time>
      </trkpt>
      <trkpt lat="47.665" lon="-2.11927">
        <ele>1.1</ele>
        <time>2013-10-13T09:37:06Z</time>
      </trkpt>
      <trkpt lat="47.66495" lon="-2.11908">
        <ele>1.58</ele>
        <time>2013-10-13T09:37:09Z</time>
      </trkpt>
      <trkpt lat="47.66491" lon="-2.1189">
        <ele>2.06</ele>
        <time>2013-10-13T09:37:12Z</time>
      </trkpt>
      <trkpt lat="47.66487" lon="-2.11871">
        <ele>3.5</ele>
        <time>2013-10-13T09:37:15Z</time>
      </trkpt>
      <trkpt lat="47.66484" lon="-2.11851">
        <ele>5.42</ele>
        <time>2013-10-13T09:37:18Z</time>
      </trkpt>
      <trkpt lat="47.6648" lon="-2.11836">
        <ele>6.87</ele>
        <time>2013-10-13T09:37:21Z</time>
      </trkpt>
      <trkpt lat="47.66476" lon="-2.11818">
        <ele>9.75</ele>
        <time>2013-10-13T09:37:25Z</time>
      </trkpt>
      <trkpt lat="47.66474" lon="-2.118">
        <ele>11.67</ele>
        <time>2013-10-13T09:37:28Z</time>
      </trkpt>
      <trkpt lat="47.66472" lon="-2.11779">
        <ele>13.12</ele>
        <time>2013-10-13T09:37:31Z</time>
      </trkpt>
      <trkpt lat="47.66472" lon="-2.11757">
        <ele>13.6</ele>
        <time>2013-10-13T09:37:34Z</time>
      </trkpt>
      <trkpt lat="47.6647" lon="-2.11738">
        <ele>14.08</ele>
        <time>2013-10-13T09:37:37Z</time>
      </trkpt>
      <trkpt lat="47.66469" lon="-2.1172">
        <ele>15.04</ele>
        <time>2013-10-13T09:37:40Z</time>
      </trkpt>
      <trkpt lat="47.66468" lon="-2.11702">
        <ele>15.52</ele>
        <time>2013-10-13T09:37:43Z</time>
      </trkpt>
      <trkpt lat="47.66469" lon="-2.11682">
        <ele>15.52</ele>
        <time>2013-10-13T09:37:46Z</time>
      </trkpt>
      <trkpt lat="47.66467" lon="-2.1166">
        <ele>16.48</ele>
        <time>2013-10-13T09:37:49Z</time>
      </trkpt>
      <trkpt lat="47.66462" lon="-2.11636">
        <ele>16</ele>
        <time>2013-10-13T09:37:52Z</time>
      </trkpt>
      <trkpt lat="47.66459" lon="-2.1162">
        <ele>14.56</ele>
        <time>2013-10-13T09:37:54Z</time>
      </trkpt>
      <trkpt lat="47.66452" lon="-2.11599">
        <ele>13.6</ele>
        <time>2013-10-13T09:37:57Z</time>
      </trkpt>
      <trkpt lat="47.66446" lon="-2.11586">
        <ele>13.12</ele>
        <time>2013-10-13T09:37:59Z</time>
      </trkpt>
      <trkpt lat="47.66439" lon="-2.11571">
        <ele>13.12</ele>
        <time>2013-10-13T09:38:01Z</time>
      </trkpt>
      <trkpt lat="47.66433" lon="-2.11553">
        <ele>12.63</ele>
        <time>2013-10-13T09:38:04Z</time>
      </trkpt>
      <trkpt lat="47.66425" lon="-2.11539">
        <ele>12.63</ele>
        <time>2013-10-13T09:38:08Z</time>
      </trkpt>
      <trkpt lat="47.66427" lon="-2.11525">
        <ele>13.12</ele>
        <time>2013-10-13T09:38:16Z</time>
      </trkpt>
      <trkpt lat="47.6642" lon="-2.11516">
        <ele>14.08</ele>
        <time>2013-10-13T09:38:24Z</time>
      </trkpt>
      <trkpt lat="47.6641" lon="-2.1151">
        <ele>13.6</ele>
        <time>2013-10-13T09:38:29Z</time>
      </trkpt>
      <trkpt lat="47.66406" lon="-2.11495">
        <ele>14.56</ele>
        <time>2013-10-13T09:38:34Z</time>
      </trkpt>
      <trkpt lat="47.66402" lon="-2.11479">
        <ele>15.04</ele>
        <time>2013-10-13T09:38:39Z</time>
      </trkpt>
      <trkpt lat="47.66397" lon="-2.11463">
        <ele>16.48</ele>
        <time>2013-10-13T09:38:44Z</time>
      </trkpt>
      <trkpt lat="47.66396" lon="-2.11448">
        <ele>18.4</ele>
        <time>2013-10-13T09:38:51Z</time>
      </trkpt>
      <trkpt lat="47.66386" lon="-2.1144">
        <ele>18.88</ele>
        <time>2013-10-13T09:38:56Z</time>
      </trkpt>
      <trkpt lat="47.66383" lon="-2.11424">
        <ele>18.88</ele>
        <time>2013-10-13T09:39:02Z</time>
      </trkpt>
      <trkpt lat="47.66372" lon="-2.11424">
        <ele>20.32</ele>
        <time>2013-10-13T09:39:06Z</time>
      </trkpt>
      <trkpt lat="47.66364" lon="-2.11412">
        <ele>20.81</ele>
        <time>2013-10-13T09:39:09Z</time>
      </trkpt>
      <trkpt lat="47.66355" lon="-2.11404">
        <ele>21.29</ele>
        <time>2013-10-13T09:39:12Z</time>
      </trkpt>
      <trkpt lat="47.66346" lon="-2.11393">
        <ele>21.77</ele>
        <time>2013-10-13T09:39:15Z</time>
      </trkpt>
      <trkpt lat="47.66336" lon="-2.11389">
        <ele>21.77</ele>
        <time>2013-10-13T09:39:19Z</time>
      </trkpt>
      <trkpt lat="47.66333" lon="-2.11371">
        <ele>21.29</ele>
        <time>2013-10-13T09:39:25Z</time>
      </trkpt>
      <trkpt lat="47.66332" lon="-2.11352">
        <ele>21.29</ele>
        <time>2013-10-13T09:39:31Z</time>
      </trkpt>
      <trkpt lat="47.66325" lon="-2.11339">
        <ele>21.77</ele>
        <time>2013-10-13T09:39:35Z</time>
      </trkpt>
      <trkpt lat="47.66316" lon="-2.11335">
        <ele>20.32</ele>
        <time>2013-10-13T09:39:39Z</time>
      </trkpt>
      <trkpt lat="47.6632" lon="-2.11348">
        <ele>18.4</ele>
        <time>2013-10-13T09:39:42Z</time>
      </trkpt>
      <trkpt lat="47.66315" lon="-2.11358">
        <ele>17.44</ele>
        <time>2013-10-13T09:39:46Z</time>
      </trkpt>
      <trkpt lat="47.66306" lon="-2.11354">
        <ele>16.48</ele>
        <time>2013-10-13T09:39:49Z</time>
      </trkpt>
      <trkpt lat="47.66301" lon="-2.11336">
        <ele>15.52</ele>
        <time>2013-10-13T09:39:53Z</time>
      </trkpt>
      <trkpt lat="47.663" lon="-2.11318">
        <ele>14.08</ele>
        <time>2013-10-13T09:39:57Z</time>
      </trkpt>
      <trkpt lat="47.66296" lon="-2.113">
        <ele>13.12</ele>
        <time>2013-10-13T09:40:02Z</time>
      </trkpt>
      <trkpt lat="47.66285" lon="-2.11296">
        <ele>12.63</ele>
        <time>2013-10-13T09:40:05Z</time>
      </trkpt>
      <trkpt lat="47.66282" lon="-2.11281">
        <ele>13.6</ele>
        <time>2013-10-13T09:40:10Z</time>
      </trkpt>
      <trkpt lat="47.66287" lon="-2.11266">
        <ele>14.56</ele>
        <time>2013-10-13T09:40:15Z</time>
      </trkpt>
      <trkpt lat="47.66281" lon="-2.11261">
        <ele>15.52</ele>
        <time>2013-10-13T09:40:21Z</time>
      </trkpt>
      <trkpt lat="47.66272" lon="-2.1127">
        <ele>15.52</ele>
        <time>2013-10-13T09:40:25Z</time>
      </trkpt>
      <trkpt lat="47.66268" lon="-2.11285">
        <ele>13.12</ele>
        <time>2013-10-13T09:40:31Z</time>
      </trkpt>
      <trkpt lat="47.6627" lon="-2.11295">
        <ele>10.23</ele>
        <time>2013-10-13T09:40:38Z</time>
      </trkpt>
      <trkpt lat="47.66278" lon="-2.11306">
        <ele>8.79</ele>
        <time>2013-10-13T09:40:45Z</time>
      </trkpt>
      <trkpt lat="47.66282" lon="-2.11323">
        <ele>8.79</ele>
        <time>2013-10-13T09:40:49Z</time>
      </trkpt>
      <trkpt lat="47.66283" lon="-2.11339">
        <ele>7.83</ele>
        <time>2013-10-13T09:40:52Z</time>
      </trkpt>
      <trkpt lat="47.66286" lon="-2.11353">
        <ele>6.87</ele>
        <time>2013-10-13T09:40:56Z</time>
      </trkpt>
      <trkpt lat="47.66293" lon="-2.11364">
        <ele>3.98</ele>
        <time>2013-10-13T09:41:03Z</time>
      </trkpt>
      <trkpt lat="47.663" lon="-2.11377">
        <ele>2.54</ele>
        <time>2013-10-13T09:41:08Z</time>
      </trkpt>
      <trkpt lat="47.66311" lon="-2.11393">
        <ele>-0.34</ele>
        <time>2013-10-13T09:41:17Z</time>
      </trkpt>
      <trkpt lat="47.66322" lon="-2.11406">
        <ele>-2.75</ele>
        <time>2013-10-13T09:41:23Z</time>
      </trkpt>
      <trkpt lat="47.66334" lon="-2.11424">
        <ele>-3.71</ele>
        <time>2013-10-13T09:41:29Z</time>
      </trkpt>
      <trkpt lat="47.66346" lon="-2.11435">
        <ele>-2.75</ele>
        <time>2013-10-13T09:41:34Z</time>
      </trkpt>
      <trkpt lat="47.66358" lon="-2.1145">
        <ele>-4.19</ele>
        <time>2013-10-13T09:41:41Z</time>
      </trkpt>
      <trkpt lat="47.66385" lon="-2.11475">
        <ele>4.46</ele>
        <time>2013-10-13T09:41:51Z</time>
      </trkpt>
      <trkpt lat="47.6639" lon="-2.11494">
        <ele>7.35</ele>
        <time>2013-10-13T09:42:01Z</time>
      </trkpt>
      <trkpt lat="47.66381" lon="-2.11486">
        <ele>8.31</ele>
        <time>2013-10-13T09:42:06Z</time>
      </trkpt>
      <trkpt lat="47.66372" lon="-2.11481">
        <ele>10.23</ele>
        <time>2013-10-13T09:42:09Z</time>
      </trkpt>
      <trkpt lat="47.66363" lon="-2.11476">
        <ele>11.19</ele>
        <time>2013-10-13T09:42:11Z</time>
      </trkpt>
      <trkpt lat="47.66354" lon="-2.11469">
        <ele>12.15</ele>
        <time>2013-10-13T09:42:13Z</time>
      </trkpt>
      <trkpt lat="47.66344" lon="-2.1146">
        <ele>13.12</ele>
        <time>2013-10-13T09:42:15Z</time>
      </trkpt>
      <trkpt lat="47.66336" lon="-2.11449">
        <ele>14.08</ele>
        <time>2013-10-13T09:42:17Z</time>
      </trkpt>
      <trkpt lat="47.66328" lon="-2.11438">
        <ele>14.08</ele>
        <time>2013-10-13T09:42:19Z</time>
      </trkpt>
      <trkpt lat="47.6632" lon="-2.11426">
        <ele>13.6</ele>
        <time>2013-10-13T09:42:21Z</time>
      </trkpt>
      <trkpt lat="47.66312" lon="-2.11413">
        <ele>13.12</ele>
        <time>2013-10-13T09:42:23Z</time>
      </trkpt>
      <trkpt lat="47.66304" lon="-2.114">
        <ele>12.15</ele>
        <time>2013-10-13T09:42:25Z</time>
      </trkpt>
      <trkpt lat="47.66296" lon="-2.11387">
        <ele>11.67</ele>
        <time>2013-10-13T09:42:27Z</time>
      </trkpt>
      <trkpt lat="47.66289" lon="-2.11374">
        <ele>11.19</ele>
        <time>2013-10-13T09:42:29Z</time>
      </trkpt>
      <trkpt lat="47.66282" lon="-2.11359">
        <ele>10.71</ele>
        <time>2013-10-13T09:42:31Z</time>
      </trkpt>
      <trkpt lat="47.66276" lon="-2.11345">
        <ele>9.75</ele>
        <time>2013-10-13T09:42:33Z</time>
      </trkpt>
      <trkpt lat="47.66269" lon="-2.1133">
        <ele>8.79</ele>
        <time>2013-10-13T09:42:35Z</time>
      </trkpt>
      <trkpt lat="47.66264" lon="-2.11316">
        <ele>8.31</ele>
        <time>2013-10-13T09:42:37Z</time>
      </trkpt>
      <trkpt lat="47.66258" lon="-2.11302">
        <ele>7.35</ele>
        <time>2013-10-13T09:42:39Z</time>
      </trkpt>
      <trkpt lat="47.66253" lon="-2.11288">
        <ele>7.35</ele>
        <time>2013-10-13T09:42:41Z</time>
      </trkpt>
      <trkpt lat="47.66248" lon="-2.11274">
        <ele>6.87</ele>
        <time>2013-10-13T09:42:43Z</time>
      </trkpt>
      <trkpt lat="47.66243" lon="-2.11259">
        <ele>6.87</ele>
        <time>2013-10-13T09:42:45Z</time>
      </trkpt>
      <trkpt lat="47.66239" lon="-2.11244">
        <ele>7.35</ele>
        <time>2013-10-13T09:42:47Z</time>
      </trkpt>
      <trkpt lat="47.66237" lon="-2.11229">
        <ele>6.87</ele>
        <time>2013-10-13T09:42:49Z</time>
      </trkpt>
      <trkpt lat="47.66236" lon="-2.11214">
        <ele>6.87</ele>
        <time>2013-10-13T09:42:51Z</time>
      </trkpt>
      <trkpt lat="47.66235" lon="-2.11199">
        <ele>6.39</ele>
        <time>2013-10-13T09:42:53Z</time>
      </trkpt>
      <trkpt lat="47.66231" lon="-2.11183">
        <ele>5.42</ele>
        <time>2013-10-13T09:42:55Z</time>
      </trkpt>
      <trkpt lat="47.66226" lon="-2.11169">
        <ele>4.94</ele>
        <time>2013-10-13T09:42:57Z</time>
      </trkpt>
      <trkpt lat="47.66217" lon="-2.11157">
        <ele>4.46</ele>
        <time>2013-10-13T09:42:59Z</time>
      </trkpt>
      <trkpt lat="47.66209" lon="-2.11146">
        <ele>3.98</ele>
        <time>2013-10-13T09:43:01Z</time>
      </trkpt>
      <trkpt lat="47.66202" lon="-2.11134">
        <ele>3.98</ele>
        <time>2013-10-13T09:43:03Z</time>
      </trkpt>
      <trkpt lat="47.66194" lon="-2.11123">
        <ele>3.98</ele>
        <time>2013-10-13T09:43:05Z</time>
      </trkpt>
      <trkpt lat="47.66186" lon="-2.11112">
        <ele>3.5</ele>
        <time>2013-10-13T09:43:07Z</time>
      </trkpt>
      <trkpt lat="47.66178" lon="-2.11101">
        <ele>3.5</ele>
        <time>2013-10-13T09:43:09Z</time>
      </trkpt>
      <trkpt lat="47.6617" lon="-2.11089">
        <ele>3.02</ele>
        <time>2013-10-13T09:43:11Z</time>
      </trkpt>
      <trkpt lat="47.66162" lon="-2.11078">
        <ele>3.02</ele>
        <time>2013-10-13T09:43:13Z</time>
      </trkpt>
      <trkpt lat="47.66155" lon="-2.11067">
        <ele>2.54</ele>
        <time>2013-10-13T09:43:15Z</time>
      </trkpt>
      <trkpt lat="47.66147" lon="-2.11056">
        <ele>2.54</ele>
        <time>2013-10-13T09:43:17Z</time>
      </trkpt>
      <trkpt lat="47.6614" lon="-2.11045">
        <ele>2.54</ele>
        <time>2013-10-13T09:43:19Z</time>
      </trkpt>
      <trkpt lat="47.66132" lon="-2.11035">
        <ele>2.54</ele>
        <time>2013-10-13T09:43:21Z</time>
      </trkpt>
      <trkpt lat="47.66125" lon="-2.11023">
        <ele>2.06</ele>
        <time>2013-10-13T09:43:23Z</time>
      </trkpt>
      <trkpt lat="47.66118" lon="-2.11013">
        <ele>2.06</ele>
        <time>2013-10-13T09:43:25Z</time>
      </trkpt>
      <trkpt lat="47.6611" lon="-2.11002">
        <ele>2.06</ele>
        <time>2013-10-13T09:43:27Z</time>
      </trkpt>
      <trkpt lat="47.66103" lon="-2.10992">
        <ele>2.06</ele>
        <time>2013-10-13T09:43:29Z</time>
      </trkpt>
      <trkpt lat="47.66096" lon="-2.1098">
        <ele>2.54</ele>
        <time>2013-10-13T09:43:31Z</time>
      </trkpt>
      <trkpt lat="47.66088" lon="-2.10969">
        <ele>2.54</ele>
        <time>2013-10-13T09:43:33Z</time>
      </trkpt>
      <trkpt lat="47.6608" lon="-2.10958">
        <ele>3.02</ele>
        <time>2013-10-13T09:43:35Z</time>
      </trkpt>
      <trkpt lat="47.66073" lon="-2.10948">
        <ele>3.02</ele>
        <time>2013-10-13T09:43:37Z</time>
      </trkpt>
      <trkpt lat="47.66066" lon="-2.10937">
        <ele>3.02</ele>
        <time>2013-10-13T09:43:39Z</time>
      </trkpt>
      <trkpt lat="47.66058" lon="-2.10926">
        <ele>3.02</ele>
        <time>2013-10-13T09:43:41Z</time>
      </trkpt>
      <trkpt lat="47.6605" lon="-2.10915">
        <ele>3.02</ele>
        <time>2013-10-13T09:43:43Z</time>
      </trkpt>
      <trkpt lat="47.66042" lon="-2.10905">
        <ele>3.02</ele>
        <time>2013-10-13T09:43:45Z</time>
      </trkpt>
      <trkpt lat="47.66033" lon="-2.10894">
        <ele>3.02</ele>
        <time>2013-10-13T09:43:47Z</time>
      </trkpt>
      <trkpt lat="47.66025" lon="-2.10883">
        <ele>3.02</ele>
        <time>2013-10-13T09:43:49Z</time>
      </trkpt>
      <trkpt lat="47.66018" lon="-2.10872">
        <ele>3.02</ele>
        <time>2013-10-13T09:43:51Z</time>
      </trkpt>
      <trkpt lat="47.6601" lon="-2.10862">
        <ele>2.54</ele>
        <time>2013-10-13T09:43:53Z</time>
      </trkpt>
      <trkpt lat="47.66002" lon="-2.10851">
        <ele>2.54</ele>
        <time>2013-10-13T09:43:55Z</time>
      </trkpt>
      <trkpt lat="47.65994" lon="-2.10841">
        <ele>2.54</ele>
        <time>2013-10-13T09:43:57Z</time>
      </trkpt>
      <trkpt lat="47.65987" lon="-2.1083">
        <ele>2.54</ele>
        <time>2013-10-13T09:43:59Z</time>
      </trkpt>
      <trkpt lat="47.65981" lon="-2.1082">
        <ele>2.54</ele>
        <time>2013-10-13T09:44:01Z</time>
      </trkpt>
      <trkpt lat="47.6597" lon="-2.10806">
        <ele>3.02</ele>
        <time>2013-10-13T09:44:04Z</time>
      </trkpt>
      <trkpt lat="47.65969" lon="-2.10791">
        <ele>3.5</ele>
        <time>2013-10-13T09:44:07Z</time>
      </trkpt>
      <trkpt lat="47.65974" lon="-2.10778">
        <ele>3.02</ele>
        <time>2013-10-13T09:44:09Z</time>
      </trkpt>
      <trkpt lat="47.65981" lon="-2.10768">
        <ele>3.02</ele>
        <time>2013-10-13T09:44:11Z</time>
      </trkpt>
      <trkpt lat="47.65988" lon="-2.10757">
        <ele>3.5</ele>
        <time>2013-10-13T09:44:13Z</time>
      </trkpt>
      <trkpt lat="47.65995" lon="-2.1075">
        <ele>3.02</ele>
        <time>2013-10-13T09:44:15Z</time>
      </trkpt>
      <trkpt lat="47.66003" lon="-2.10743">
        <ele>3.02</ele>
        <time>2013-10-13T09:44:17Z</time>
      </trkpt>
      <trkpt lat="47.66012" lon="-2.10735">
        <ele>3.02</ele>
        <time>2013-10-13T09:44:19Z</time>
      </trkpt>
      <trkpt lat="47.6602" lon="-2.10727">
        <ele>2.54</ele>
        <time>2013-10-13T09:44:21Z</time>
      </trkpt>
      <trkpt lat="47.66028" lon="-2.10718">
        <ele>2.06</ele>
        <time>2013-10-13T09:44:23Z</time>
      </trkpt>
      <trkpt lat="47.66036" lon="-2.1071">
        <ele>2.06</ele>
        <time>2013-10-13T09:44:25Z</time>
      </trkpt>
      <trkpt lat="47.66044" lon="-2.10702">
        <ele>2.06</ele>
        <time>2013-10-13T09:44:27Z</time>
      </trkpt>
      <trkpt lat="47.66053" lon="-2.10694">
        <ele>2.06</ele>
        <time>2013-10-13T09:44:29Z</time>
      </trkpt>
      <trkpt lat="47.66061" lon="-2.10684">
        <ele>1.58</ele>
        <time>2013-10-13T09:44:31Z</time>
      </trkpt>
      <trkpt lat="47.66069" lon="-2.10674">
        <ele>1.58</ele>
        <time>2013-10-13T09:44:33Z</time>
      </trkpt>
      <trkpt lat="47.66077" lon="-2.10665">
        <ele>1.58</ele>
        <time>2013-10-13T09:44:35Z</time>
      </trkpt>
      <trkpt lat="47.66085" lon="-2.10655">
        <ele>1.58</ele>
        <time>2013-10-13T09:44:37Z</time>
      </trkpt>
      <trkpt lat="47.66094" lon="-2.10647">
        <ele>2.06</ele>
        <time>2013-10-13T09:44:39Z</time>
      </trkpt>
      <trkpt lat="47.66103" lon="-2.1064">
        <ele>2.06</ele>
        <time>2013-10-13T09:44:41Z</time>
      </trkpt>
      <trkpt lat="47.66111" lon="-2.10632">
        <ele>2.06</ele>
        <time>2013-10-13T09:44:43Z</time>
      </trkpt>
      <trkpt lat="47.66121" lon="-2.10626">
        <ele>2.54</ele>
        <time>2013-10-13T09:44:45Z</time>
      </trkpt>
      <trkpt lat="47.6613" lon="-2.10621">
        <ele>2.54</ele>
        <time>2013-10-13T09:44:47Z</time>
      </trkpt>
      <trkpt lat="47.66139" lon="-2.10616">
        <ele>2.54</ele>
        <time>2013-10-13T09:44:49Z</time>
      </trkpt>
      <trkpt lat="47.66148" lon="-2.1061">
        <ele>2.54</ele>
        <time>2013-10-13T09:44:51Z</time>
      </trkpt>
      <trkpt lat="47.66157" lon="-2.10605">
        <ele>2.54</ele>
        <time>2013-10-13T09:44:53Z</time>
      </trkpt>
      <trkpt lat="47.66167" lon="-2.10601">
        <ele>2.54</ele>
        <time>2013-10-13T09:44:55Z</time>
      </trkpt>
      <trkpt lat="47.66176" lon="-2.10596">
        <ele>3.02</ele>
        <time>2013-10-13T09:44:57Z</time>
      </trkpt>
      <trkpt lat="47.66185" lon="-2.10591">
        <ele>3.02</ele>
        <time>2013-10-13T09:44:59Z</time>
      </trkpt>
      <trkpt lat="47.66194" lon="-2.10586">
        <ele>3.02</ele>
        <time>2013-10-13T09:45:01Z</time>
      </trkpt>
      <trkpt lat="47.66204" lon="-2.10581">
        <ele>2.54</ele>
        <time>2013-10-13T09:45:03Z</time>
      </trkpt>
      <trkpt lat="47.66213" lon="-2.10575">
        <ele>2.54</ele>
        <time>2013-10-13T09:45:05Z</time>
      </trkpt>
      <trkpt lat="47.66221" lon="-2.10568">
        <ele>2.54</ele>
        <time>2013-10-13T09:45:07Z</time>
      </trkpt>
      <trkpt lat="47.66234" lon="-2.1056">
        <ele>2.54</ele>
        <time>2013-10-13T09:45:10Z</time>
      </trkpt>
      <trkpt lat="47.66242" lon="-2.10555">
        <ele>2.54</ele>
        <time>2013-10-13T09:45:12Z</time>
      </trkpt>
      <trkpt lat="47.66251" lon="-2.10549">
        <ele>2.54</ele>
        <time>2013-10-13T09:45:14Z</time>
      </trkpt>
      <trkpt lat="47.66259" lon="-2.10543">
        <ele>2.54</ele>
        <time>2013-10-13T09:45:16Z</time>
      </trkpt>
      <trkpt lat="47.66268" lon="-2.10538">
        <ele>2.54</ele>
        <time>2013-10-13T09:45:18Z</time>
      </trkpt>
      <trkpt lat="47.66277" lon="-2.10533">
        <ele>2.54</ele>
        <time>2013-10-13T09:45:20Z</time>
      </trkpt>
      <trkpt lat="47.66286" lon="-2.10529">
        <ele>2.54</ele>
        <time>2013-10-13T09:45:22Z</time>
      </trkpt>
      <trkpt lat="47.66295" lon="-2.10527">
        <ele>2.54</ele>
        <time>2013-10-13T09:45:24Z</time>
      </trkpt>
      <trkpt lat="47.66304" lon="-2.10524">
        <ele>3.02</ele>
        <time>2013-10-13T09:45:26Z</time>
      </trkpt>
      <trkpt lat="47.66313" lon="-2.10521">
        <ele>2.54</ele>
        <time>2013-10-13T09:45:28Z</time>
      </trkpt>
      <trkpt lat="47.66322" lon="-2.10515">
        <ele>2.06</ele>
        <time>2013-10-13T09:45:30Z</time>
      </trkpt>
      <trkpt lat="47.6633" lon="-2.10507">
        <ele>2.06</ele>
        <time>2013-10-13T09:45:32Z</time>
      </trkpt>
      <trkpt lat="47.66337" lon="-2.10498">
        <ele>2.54</ele>
        <time>2013-10-13T09:45:34Z</time>
      </trkpt>
      <trkpt lat="47.66345" lon="-2.10492">
        <ele>2.06</ele>
        <time>2013-10-13T09:45:36Z</time>
      </trkpt>
      <trkpt lat="47.66354" lon="-2.10487">
        <ele>2.06</ele>
        <time>2013-10-13T09:45:38Z</time>
      </trkpt>
      <trkpt lat="47.66363" lon="-2.10483">
        <ele>2.06</ele>
        <time>2013-10-13T09:45:40Z</time>
      </trkpt>
      <trkpt lat="47.66375" lon="-2.10475">
        <ele>2.06</ele>
        <time>2013-10-13T09:45:43Z</time>
      </trkpt>
      <trkpt lat="47.66384" lon="-2.1047">
        <ele>2.06</ele>
        <time>2013-10-13T09:45:45Z</time>
      </trkpt>
      <trkpt lat="47.66396" lon="-2.10462">
        <ele>2.06</ele>
        <time>2013-10-13T09:45:48Z</time>
      </trkpt>
      <trkpt lat="47.66407" lon="-2.10456">
        <ele>1.58</ele>
        <time>2013-10-13T09:45:51Z</time>
      </trkpt>
      <trkpt lat="47.66415" lon="-2.10463">
        <ele>2.06</ele>
        <time>2013-10-13T09:45:54Z</time>
      </trkpt>
      <trkpt lat="47.66422" lon="-2.10477">
        <ele>2.54</ele>
        <time>2013-10-13T09:45:57Z</time>
      </trkpt>
      <trkpt lat="47.66428" lon="-2.10491">
        <ele>2.06</ele>
        <time>2013-10-13T09:46:00Z</time>
      </trkpt>
      <trkpt lat="47.66437" lon="-2.10505">
        <ele>2.06</ele>
        <time>2013-10-13T09:46:03Z</time>
      </trkpt>
      <trkpt lat="47.66444" lon="-2.1052">
        <ele>2.06</ele>
        <time>2013-10-13T09:46:06Z</time>
      </trkpt>
      <trkpt lat="47.66449" lon="-2.10536">
        <ele>2.06</ele>
        <time>2013-10-13T09:46:09Z</time>
      </trkpt>
      <trkpt lat="47.66455" lon="-2.1055">
        <ele>1.58</ele>
        <time>2013-10-13T09:46:12Z</time>
      </trkpt>
      <trkpt lat="47.66461" lon="-2.10564">
        <ele>1.58</ele>
        <time>2013-10-13T09:46:15Z</time>
      </trkpt>
      <trkpt lat="47.66467" lon="-2.10576">
        <ele>1.58</ele>
        <time>2013-10-13T09:46:18Z</time>
      </trkpt>
      <trkpt lat="47.66474" lon="-2.10586">
        <ele>1.58</ele>
        <time>2013-10-13T09:46:21Z</time>
      </trkpt>
      <trkpt lat="47.6648" lon="-2.10598">
        <ele>1.1</ele>
        <time>2013-10-13T09:46:25Z</time>
      </trkpt>
      <trkpt lat="47.66489" lon="-2.10593">
        <ele>1.58</ele>
        <time>2013-10-13T09:46:30Z</time>
      </trkpt>
      <trkpt lat="47.66498" lon="-2.10587">
        <ele>1.58</ele>
        <time>2013-10-13T09:46:33Z</time>
      </trkpt>
      <trkpt lat="47.66506" lon="-2.10579">
        <ele>1.1</ele>
        <time>2013-10-13T09:46:36Z</time>
      </trkpt>
      <trkpt lat="47.66514" lon="-2.10569">
        <ele>0.62</ele>
        <time>2013-10-13T09:46:39Z</time>
      </trkpt>
      <trkpt lat="47.66519" lon="-2.10557">
        <ele>0.62</ele>
        <time>2013-10-13T09:46:42Z</time>
      </trkpt>
      <trkpt lat="47.66517" lon="-2.10542">
        <ele>1.1</ele>
        <time>2013-10-13T09:46:45Z</time>
      </trkpt>
      <trkpt lat="47.66512" lon="-2.10526">
        <ele>1.1</ele>
        <time>2013-10-13T09:46:48Z</time>
      </trkpt>
      <trkpt lat="47.66507" lon="-2.10511">
        <ele>1.58</ele>
        <time>2013-10-13T09:46:51Z</time>
      </trkpt>
      <trkpt lat="47.66501" lon="-2.10493">
        <ele>2.06</ele>
        <time>2013-10-13T09:46:54Z</time>
      </trkpt>
      <trkpt lat="47.66496" lon="-2.10481">
        <ele>2.06</ele>
        <time>2013-10-13T09:46:56Z</time>
      </trkpt>
      <trkpt lat="47.66492" lon="-2.10468">
        <ele>2.54</ele>
        <time>2013-10-13T09:46:58Z</time>
      </trkpt>
      <trkpt lat="47.66487" lon="-2.10456">
        <ele>2.54</ele>
        <time>2013-10-13T09:47:00Z</time>
      </trkpt>
      <trkpt lat="47.66482" lon="-2.10444">
        <ele>3.02</ele>
        <time>2013-10-13T09:47:02Z</time>
      </trkpt>
      <trkpt lat="47.66478" lon="-2.10432">
        <ele>3.5</ele>
        <time>2013-10-13T09:47:04Z</time>
      </trkpt>
      <trkpt lat="47.66471" lon="-2.10416">
        <ele>3.98</ele>
        <time>2013-10-13T09:47:07Z</time>
      </trkpt>
      <trkpt lat="47.66465" lon="-2.104">
        <ele>3.5</ele>
        <time>2013-10-13T09:47:10Z</time>
      </trkpt>
      <trkpt lat="47.66459" lon="-2.10384">
        <ele>3.98</ele>
        <time>2013-10-13T09:47:13Z</time>
      </trkpt>
      <trkpt lat="47.66452" lon="-2.10366">
        <ele>4.46</ele>
        <time>2013-10-13T09:47:16Z</time>
      </trkpt>
      <trkpt lat="47.66448" lon="-2.10354">
        <ele>4.46</ele>
        <time>2013-10-13T09:47:18Z</time>
      </trkpt>
      <trkpt lat="47.66443" lon="-2.10341">
        <ele>3.98</ele>
        <time>2013-10-13T09:47:20Z</time>
      </trkpt>
      <trkpt lat="47.66438" lon="-2.10329">
        <ele>3.5</ele>
        <time>2013-10-13T09:47:22Z</time>
      </trkpt>
      <trkpt lat="47.66433" lon="-2.10315">
        <ele>3.5</ele>
        <time>2013-10-13T09:47:24Z</time>
      </trkpt>
      <trkpt lat="47.66428" lon="-2.10301">
        <ele>3.5</ele>
        <time>2013-10-13T09:47:26Z</time>
      </trkpt>
      <trkpt lat="47.66422" lon="-2.10287">
        <ele>3.5</ele>
        <time>2013-10-13T09:47:28Z</time>
      </trkpt>
      <trkpt lat="47.66417" lon="-2.10273">
        <ele>3.02</ele>
        <time>2013-10-13T09:47:30Z</time>
      </trkpt>
      <trkpt lat="47.66411" lon="-2.10258">
        <ele>3.02</ele>
        <time>2013-10-13T09:47:32Z</time>
      </trkpt>
      <trkpt lat="47.66406" lon="-2.10244">
        <ele>3.02</ele>
        <time>2013-10-13T09:47:34Z</time>
      </trkpt>
      <trkpt lat="47.66401" lon="-2.10231">
        <ele>3.5</ele>
        <time>2013-10-13T09:47:36Z</time>
      </trkpt>
      <trkpt lat="47.66396" lon="-2.10217">
        <ele>3.5</ele>
        <time>2013-10-13T09:47:38Z</time>
      </trkpt>
      <trkpt lat="47.66391" lon="-2.10204">
        <ele>3.5</ele>
        <time>2013-10-13T09:47:40Z</time>
      </trkpt>
      <trkpt lat="47.66386" lon="-2.1019">
        <ele>3.5</ele>
        <time>2013-10-13T09:47:42Z</time>
      </trkpt>
      <trkpt lat="47.6638" lon="-2.10176">
        <ele>3.5</ele>
        <time>2013-10-13T09:47:44Z</time>
      </trkpt>
      <trkpt lat="47.66375" lon="-2.10161">
        <ele>3.5</ele>
        <time>2013-10-13T09:47:46Z</time>
      </trkpt>
      <trkpt lat="47.66368" lon="-2.10147">
        <ele>3.5</ele>
        <time>2013-10-13T09:47:48Z</time>
      </trkpt>
      <trkpt lat="47.66363" lon="-2.10133">
        <ele>3.5</ele>
        <time>2013-10-13T09:47:50Z</time>
      </trkpt>
      <trkpt lat="47.66357" lon="-2.10118">
        <ele>3.5</ele>
        <time>2013-10-13T09:47:52Z</time>
      </trkpt>
      <trkpt lat="47.66352" lon="-2.10103">
        <ele>3.5</ele>
        <time>2013-10-13T09:47:54Z</time>
      </trkpt>
      <trkpt lat="47.66347" lon="-2.1009">
        <ele>3.5</ele>
        <time>2013-10-13T09:47:56Z</time>
      </trkpt>
      <trkpt lat="47.66341" lon="-2.10076">
        <ele>3.5</ele>
        <time>2013-10-13T09:47:58Z</time>
      </trkpt>
      <trkpt lat="47.66336" lon="-2.10062">
        <ele>3.5</ele>
        <time>2013-10-13T09:48:00Z</time>
      </trkpt>
      <trkpt lat="47.66331" lon="-2.10048">
        <ele>3.5</ele>
        <time>2013-10-13T09:48:02Z</time>
      </trkpt>
      <trkpt lat="47.66327" lon="-2.10037">
        <ele>3.5</ele>
        <time>2013-10-13T09:48:04Z</time>
      </trkpt>
      <trkpt lat="47.66323" lon="-2.10025">
        <ele>3.98</ele>
        <time>2013-10-13T09:48:06Z</time>
      </trkpt>
      <trkpt lat="47.66317" lon="-2.10012">
        <ele>3.98</ele>
        <time>2013-10-13T09:48:08Z</time>
      </trkpt>
      <trkpt lat="47.66312" lon="-2.09998">
        <ele>4.46</ele>
        <time>2013-10-13T09:48:10Z</time>
      </trkpt>
      <trkpt lat="47.66307" lon="-2.09985">
        <ele>4.94</ele>
        <time>2013-10-13T09:48:12Z</time>
      </trkpt>
      <trkpt lat="47.66302" lon="-2.09973">
        <ele>4.94</ele>
        <time>2013-10-13T09:48:14Z</time>
      </trkpt>
      <trkpt lat="47.66297" lon="-2.09961">
        <ele>5.42</ele>
        <time>2013-10-13T09:48:16Z</time>
      </trkpt>
      <trkpt lat="47.66289" lon="-2.09945">
        <ele>6.39</ele>
        <time>2013-10-13T09:48:19Z</time>
      </trkpt>
      <trkpt lat="47.66283" lon="-2.09931">
        <ele>6.39</ele>
        <time>2013-10-13T09:48:22Z</time>
      </trkpt>
      <trkpt lat="47.66277" lon="-2.09917">
        <ele>7.35</ele>
        <time>2013-10-13T09:48:25Z</time>
      </trkpt>
      <trkpt lat="47.6627" lon="-2.09903">
        <ele>7.35</ele>
        <time>2013-10-13T09:48:28Z</time>
      </trkpt>
      <trkpt lat="47.66263" lon="-2.09889">
        <ele>7.83</ele>
        <time>2013-10-13T09:48:31Z</time>
      </trkpt>
      <trkpt lat="47.66257" lon="-2.09875">
        <ele>7.83</ele>
        <time>2013-10-13T09:48:34Z</time>
      </trkpt>
      <trkpt lat="47.66248" lon="-2.09866">
        <ele>8.31</ele>
        <time>2013-10-13T09:48:38Z</time>
      </trkpt>
      <trkpt lat="47.66237" lon="-2.09867">
        <ele>9.75</ele>
        <time>2013-10-13T09:48:41Z</time>
      </trkpt>
      <trkpt lat="47.66227" lon="-2.09873">
        <ele>10.71</ele>
        <time>2013-10-13T09:48:44Z</time>
      </trkpt>
      <trkpt lat="47.6622" lon="-2.09887">
        <ele>10.71</ele>
        <time>2013-10-13T09:48:47Z</time>
      </trkpt>
      <trkpt lat="47.66224" lon="-2.09897">
        <ele>10.23</ele>
        <time>2013-10-13T09:48:50Z</time>
      </trkpt>
      <trkpt lat="47.66235" lon="-2.09893">
        <ele>10.23</ele>
        <time>2013-10-13T09:48:53Z</time>
      </trkpt>
      <trkpt lat="47.66244" lon="-2.09888">
        <ele>10.23</ele>
        <time>2013-10-13T09:48:55Z</time>
      </trkpt>
      <trkpt lat="47.66253" lon="-2.09883">
        <ele>10.23</ele>
        <time>2013-10-13T09:48:57Z</time>
      </trkpt>
      <trkpt lat="47.66262" lon="-2.09878">
        <ele>10.23</ele>
        <time>2013-10-13T09:48:59Z</time>
      </trkpt>
      <trkpt lat="47.66271" lon="-2.09873">
        <ele>9.75</ele>
        <time>2013-10-13T09:49:01Z</time>
      </trkpt>
      <trkpt lat="47.6628" lon="-2.09868">
        <ele>9.75</ele>
        <time>2013-10-13T09:49:03Z</time>
      </trkpt>
      <trkpt lat="47.6629" lon="-2.09863">
        <ele>9.75</ele>
        <time>2013-10-13T09:49:05Z</time>
      </trkpt>
      <trkpt lat="47.66303" lon="-2.09855">
        <ele>9.75</ele>
        <time>2013-10-13T09:49:08Z</time>
      </trkpt>
      <trkpt lat="47.66313" lon="-2.09849">
        <ele>9.75</ele>
        <time>2013-10-13T09:49:10Z</time>
      </trkpt>
      <trkpt lat="47.66323" lon="-2.09843">
        <ele>9.75</ele>
        <time>2013-10-13T09:49:12Z</time>
      </trkpt>
      <trkpt lat="47.66332" lon="-2.09838">
        <ele>9.75</ele>
        <time>2013-10-13T09:49:14Z</time>
      </trkpt>
      <trkpt lat="47.66341" lon="-2.09833">
        <ele>9.75</ele>
        <time>2013-10-13T09:49:16Z</time>
      </trkpt>
      <trkpt lat="47.66351" lon="-2.09827">
        <ele>10.23</ele>
        <time>2013-10-13T09:49:18Z</time>
      </trkpt>
      <trkpt lat="47.66361" lon="-2.09822">
        <ele>10.23</ele>
        <time>2013-10-13T09:49:20Z</time>
      </trkpt>
      <trkpt lat="47.66371" lon="-2.09816">
        <ele>10.23</ele>
        <time>2013-10-13T09:49:22Z</time>
      </trkpt>
      <trkpt lat="47.6638" lon="-2.0981">
        <ele>10.23</ele>
        <time>2013-10-13T09:49:24Z</time>
      </trkpt>
      <trkpt lat="47.66389" lon="-2.09804">
        <ele>10.23</ele>
        <time>2013-10-13T09:49:26Z</time>
      </trkpt>
      <trkpt lat="47.66399" lon="-2.09798">
        <ele>10.71</ele>
        <time>2013-10-13T09:49:28Z</time>
      </trkpt>
      <trkpt lat="47.66408" lon="-2.09793">
        <ele>10.71</ele>
        <time>2013-10-13T09:49:30Z</time>
      </trkpt>
      <trkpt lat="47.66416" lon="-2.09786">
        <ele>10.71</ele>
        <time>2013-10-13T09:49:32Z</time>
      </trkpt>
      <trkpt lat="47.66426" lon="-2.0978">
        <ele>10.71</ele>
        <time>2013-10-13T09:49:34Z</time>
      </trkpt>
      <trkpt lat="47.66435" lon="-2.09772">
        <ele>10.71</ele>
        <time>2013-10-13T09:49:36Z</time>
      </trkpt>
      <trkpt lat="47.66444" lon="-2.09765">
        <ele>10.71</ele>
        <time>2013-10-13T09:49:38Z</time>
      </trkpt>
      <trkpt lat="47.66453" lon="-2.09756">
        <ele>10.71</ele>
        <time>2013-10-13T09:49:40Z</time>
      </trkpt>
      <trkpt lat="47.6646" lon="-2.09748">
        <ele>10.71</ele>
        <time>2013-10-13T09:49:42Z</time>
      </trkpt>
      <trkpt lat="47.66471" lon="-2.09736">
        <ele>10.71</ele>
        <time>2013-10-13T09:49:45Z</time>
      </trkpt>
      <trkpt lat="47.66478" lon="-2.09726">
        <ele>10.71</ele>
        <time>2013-10-13T09:49:47Z</time>
      </trkpt>
      <trkpt lat="47.66484" lon="-2.09716">
        <ele>10.71</ele>
        <time>2013-10-13T09:49:49Z</time>
      </trkpt>
      <trkpt lat="47.66492" lon="-2.09702">
        <ele>10.23</ele>
        <time>2013-10-13T09:49:52Z</time>
      </trkpt>
      <trkpt lat="47.66498" lon="-2.09691">
        <ele>10.23</ele>
        <time>2013-10-13T09:49:55Z</time>
      </trkpt>
      <trkpt lat="47.66502" lon="-2.09678">
        <ele>9.75</ele>
        <time>2013-10-13T09:49:58Z</time>
      </trkpt>
      <trkpt lat="47.66505" lon="-2.09664">
        <ele>10.23</ele>
        <time>2013-10-13T09:50:02Z</time>
      </trkpt>
      <trkpt lat="47.66509" lon="-2.09648">
        <ele>11.19</ele>
        <time>2013-10-13T09:50:05Z</time>
      </trkpt>
      <trkpt lat="47.66515" lon="-2.09636">
        <ele>11.19</ele>
        <time>2013-10-13T09:50:07Z</time>
      </trkpt>
      <trkpt lat="47.66521" lon="-2.09623">
        <ele>11.67</ele>
        <time>2013-10-13T09:50:09Z</time>
      </trkpt>
      <trkpt lat="47.66527" lon="-2.0961">
        <ele>12.15</ele>
        <time>2013-10-13T09:50:11Z</time>
      </trkpt>
      <trkpt lat="47.66534" lon="-2.09598">
        <ele>12.63</ele>
        <time>2013-10-13T09:50:13Z</time>
      </trkpt>
      <trkpt lat="47.66541" lon="-2.09585">
        <ele>13.12</ele>
        <time>2013-10-13T09:50:15Z</time>
      </trkpt>
      <trkpt lat="47.66547" lon="-2.09573">
        <ele>13.6</ele>
        <time>2013-10-13T09:50:17Z</time>
      </trkpt>
      <trkpt lat="47.66553" lon="-2.0956">
        <ele>14.08</ele>
        <time>2013-10-13T09:50:19Z</time>
      </trkpt>
      <trkpt lat="47.6656" lon="-2.09547">
        <ele>14.56</ele>
        <time>2013-10-13T09:50:21Z</time>
      </trkpt>
      <trkpt lat="47.66566" lon="-2.09534">
        <ele>14.56</ele>
        <time>2013-10-13T09:50:23Z</time>
      </trkpt>
      <trkpt lat="47.66573" lon="-2.09521">
        <ele>15.04</ele>
        <time>2013-10-13T09:50:25Z</time>
      </trkpt>
      <trkpt lat="47.6658" lon="-2.09508">
        <ele>15.04</ele>
        <time>2013-10-13T09:50:27Z</time>
      </trkpt>
      <trkpt lat="47.66586" lon="-2.09495">
        <ele>15.04</ele>
        <time>2013-10-13T09:50:29Z</time>
      </trkpt>
      <trkpt lat="47.66593" lon="-2.09481">
        <ele>15.04</ele>
        <time>2013-10-13T09:50:31Z</time>
      </trkpt>
      <trkpt lat="47.666" lon="-2.09467">
        <ele>15.04</ele>
        <time>2013-10-13T09:50:33Z</time>
      </trkpt>
      <trkpt lat="47.66607" lon="-2.09452">
        <ele>14.56</ele>
        <time>2013-10-13T09:50:35Z</time>
      </trkpt>
      <trkpt lat="47.66614" lon="-2.09439">
        <ele>14.08</ele>
        <time>2013-10-13T09:50:37Z</time>
      </trkpt>
      <trkpt lat="47.6662" lon="-2.09426">
        <ele>14.08</ele>
        <time>2013-10-13T09:50:39Z</time>
      </trkpt>
      <trkpt lat="47.66626" lon="-2.09413">
        <ele>13.6</ele>
        <time>2013-10-13T09:50:41Z</time>
      </trkpt>
      <trkpt lat="47.66633" lon="-2.09398">
        <ele>12.63</ele>
        <time>2013-10-13T09:50:43Z</time>
      </trkpt>
      <trkpt lat="47.66638" lon="-2.09382">
        <ele>12.15</ele>
        <time>2013-10-13T09:50:45Z</time>
      </trkpt>
      <trkpt lat="47.66644" lon="-2.09366">
        <ele>11.67</ele>
        <time>2013-10-13T09:50:47Z</time>
      </trkpt>
      <trkpt lat="47.6665" lon="-2.09351">
        <ele>11.67</ele>
        <time>2013-10-13T09:50:49Z</time>
      </trkpt>
      <trkpt lat="47.66655" lon="-2.09335">
        <ele>11.67</ele>
        <time>2013-10-13T09:50:51Z</time>
      </trkpt>
      <trkpt lat="47.66661" lon="-2.09321">
        <ele>11.19</ele>
        <time>2013-10-13T09:50:53Z</time>
      </trkpt>
      <trkpt lat="47.66668" lon="-2.09307">
        <ele>11.19</ele>
        <time>2013-10-13T09:50:55Z</time>
      </trkpt>
      <trkpt lat="47.66674" lon="-2.09293">
        <ele>11.19</ele>
        <time>2013-10-13T09:50:57Z</time>
      </trkpt>
      <trkpt lat="47.6668" lon="-2.0928">
        <ele>11.19</ele>
        <time>2013-10-13T09:50:59Z</time>
      </trkpt>
      <trkpt lat="47.66686" lon="-2.09267">
        <ele>11.67</ele>
        <time>2013-10-13T09:51:01Z</time>
      </trkpt>
      <trkpt lat="47.66693" lon="-2.09253">
        <ele>11.67</ele>
        <time>2013-10-13T09:51:03Z</time>
      </trkpt>
      <trkpt lat="47.667" lon="-2.0924">
        <ele>12.15</ele>
        <time>2013-10-13T09:51:05Z</time>
      </trkpt>
      <trkpt lat="47.66707" lon="-2.09226">
        <ele>12.63</ele>
        <time>2013-10-13T09:51:07Z</time>
      </trkpt>
      <trkpt lat="47.66713" lon="-2.09212">
        <ele>13.12</ele>
        <time>2013-10-13T09:51:09Z</time>
      </trkpt>
      <trkpt lat="47.66719" lon="-2.09198">
        <ele>13.12</ele>
        <time>2013-10-13T09:51:11Z</time>
      </trkpt>
      <trkpt lat="47.66725" lon="-2.09186">
        <ele>13.12</ele>
        <time>2013-10-13T09:51:13Z</time>
      </trkpt>
      <trkpt lat="47.66731" lon="-2.09174">
        <ele>12.63</ele>
        <time>2013-10-13T09:51:15Z</time>
      </trkpt>
      <trkpt lat="47.66734" lon="-2.0916">
        <ele>13.12</ele>
        <time>2013-10-13T09:51:19Z</time>
      </trkpt>
      <trkpt lat="47.66729" lon="-2.09147">
        <ele>13.6</ele>
        <time>2013-10-13T09:51:23Z</time>
      </trkpt>
      <trkpt lat="47.66721" lon="-2.09135">
        <ele>15.52</ele>
        <time>2013-10-13T09:51:29Z</time>
      </trkpt>
      <trkpt lat="47.66712" lon="-2.09131">
        <ele>19.84</ele>
        <time>2013-10-13T09:51:39Z</time>
      </trkpt>
      <trkpt lat="47.66718" lon="-2.0912">
        <ele>27.05</ele>
        <time>2013-10-13T09:51:54Z</time>
      </trkpt>
      <trkpt lat="47.66725" lon="-2.09107">
        <ele>28.98</ele>
        <time>2013-10-13T09:52:04Z</time>
      </trkpt>
      <trkpt lat="47.66732" lon="-2.09083">
        <ele>28.5</ele>
        <time>2013-10-13T09:52:20Z</time>
      </trkpt>
      <trkpt lat="47.66738" lon="-2.09068">
        <ele>29.46</ele>
        <time>2013-10-13T09:52:25Z</time>
      </trkpt>
      <trkpt lat="47.66744" lon="-2.09048">
        <ele>29.94</ele>
        <time>2013-10-13T09:52:31Z</time>
      </trkpt>
      <trkpt lat="47.66749" lon="-2.09024">
        <ele>28.5</ele>
        <time>2013-10-13T09:52:38Z</time>
      </trkpt>
      <trkpt lat="47.66756" lon="-2.09006">
        <ele>28.02</ele>
        <time>2013-10-13T09:52:45Z</time>
      </trkpt>
      <trkpt lat="47.66764" lon="-2.08989">
        <ele>28.5</ele>
        <time>2013-10-13T09:52:49Z</time>
      </trkpt>
      <trkpt lat="47.6677" lon="-2.08973">
        <ele>28.5</ele>
        <time>2013-10-13T09:52:53Z</time>
      </trkpt>
      <trkpt lat="47.6678" lon="-2.08957">
        <ele>28.5</ele>
        <time>2013-10-13T09:52:57Z</time>
      </trkpt>
      <trkpt lat="47.66792" lon="-2.08944">
        <ele>28.98</ele>
        <time>2013-10-13T09:53:00Z</time>
      </trkpt>
      <trkpt lat="47.66802" lon="-2.0893">
        <ele>28.98</ele>
        <time>2013-10-13T09:53:03Z</time>
      </trkpt>
      <trkpt lat="47.66812" lon="-2.08918">
        <ele>29.46</ele>
        <time>2013-10-13T09:53:06Z</time>
      </trkpt>
      <trkpt lat="47.66824" lon="-2.08906">
        <ele>30.42</ele>
        <time>2013-10-13T09:53:09Z</time>
      </trkpt>
      <trkpt lat="47.66836" lon="-2.08896">
        <ele>30.42</ele>
        <time>2013-10-13T09:53:12Z</time>
      </trkpt>
      <trkpt lat="47.66844" lon="-2.08886">
        <ele>30.9</ele>
        <time>2013-10-13T09:53:14Z</time>
      </trkpt>
      <trkpt lat="47.66855" lon="-2.08875">
        <ele>30.9</ele>
        <time>2013-10-13T09:53:17Z</time>
      </trkpt>
      <trkpt lat="47.66857" lon="-2.08863">
        <ele>30.9</ele>
        <time>2013-10-13T09:53:24Z</time>
      </trkpt>
      <trkpt lat="47.66852" lon="-2.08851">
        <ele>30.42</ele>
        <time>2013-10-13T09:53:30Z</time>
      </trkpt>
      <trkpt lat="47.66846" lon="-2.08835">
        <ele>28.98</ele>
        <time>2013-10-13T09:53:36Z</time>
      </trkpt>
      <trkpt lat="47.6684" lon="-2.0882">
        <ele>29.46</ele>
        <time>2013-10-13T09:53:43Z</time>
      </trkpt>
      <trkpt lat="47.66832" lon="-2.08807">
        <ele>30.42</ele>
        <time>2013-10-13T09:53:51Z</time>
      </trkpt>
      <trkpt lat="47.66825" lon="-2.08793">
        <ele>32.82</ele>
        <time>2013-10-13T09:54:00Z</time>
      </trkpt>
      <trkpt lat="47.66816" lon="-2.0878">
        <ele>36.19</ele>
        <time>2013-10-13T09:54:09Z</time>
      </trkpt>
      <trkpt lat="47.66809" lon="-2.08767">
        <ele>38.11</ele>
        <time>2013-10-13T09:54:17Z</time>
      </trkpt>
      <trkpt lat="47.66801" lon="-2.08758">
        <ele>37.63</ele>
        <time>2013-10-13T09:54:25Z</time>
      </trkpt>
      <trkpt lat="47.66792" lon="-2.08746">
        <ele>38.59</ele>
        <time>2013-10-13T09:54:33Z</time>
      </trkpt>
      <trkpt lat="47.66782" lon="-2.08733">
        <ele>41.47</ele>
        <time>2013-10-13T09:54:43Z</time>
      </trkpt>
      <trkpt lat="47.66771" lon="-2.08722">
        <ele>43.88</ele>
        <time>2013-10-13T09:54:51Z</time>
      </trkpt>
      <trkpt lat="47.6676" lon="-2.08707">
        <ele>47.24</ele>
        <time>2013-10-13T09:54:59Z</time>
      </trkpt>
      <trkpt lat="47.66747" lon="-2.08695">
        <ele>49.65</ele>
        <time>2013-10-13T09:55:09Z</time>
      </trkpt>
      <trkpt lat="47.66738" lon="-2.08684">
        <ele>52.53</ele>
        <time>2013-10-13T09:55:18Z</time>
      </trkpt>
      <trkpt lat="47.66727" lon="-2.08672">
        <ele>55.41</ele>
        <time>2013-10-13T09:55:27Z</time>
      </trkpt>
      <trkpt lat="47.66716" lon="-2.08668">
        <ele>56.37</ele>
        <time>2013-10-13T09:55:33Z</time>
      </trkpt>
      <trkpt lat="47.66705" lon="-2.08665">
        <ele>58.3</ele>
        <time>2013-10-13T09:55:39Z</time>
      </trkpt>
      <trkpt lat="47.66694" lon="-2.08668">
        <ele>59.74</ele>
        <time>2013-10-13T09:55:45Z</time>
      </trkpt>
      <trkpt lat="47.66681" lon="-2.08667">
        <ele>62.62</ele>
        <time>2013-10-13T09:55:53Z</time>
      </trkpt>
      <trkpt lat="47.66672" lon="-2.08676">
        <ele>65.99</ele>
        <time>2013-10-13T09:55:59Z</time>
      </trkpt>
      <trkpt lat="47.66665" lon="-2.08691">
        <ele>66.47</ele>
        <time>2013-10-13T09:56:04Z</time>
      </trkpt>
      <trkpt lat="47.6666" lon="-2.08704">
        <ele>66.47</ele>
        <time>2013-10-13T09:56:08Z</time>
      </trkpt>
      <trkpt lat="47.66653" lon="-2.08722">
        <ele>65.99</ele>
        <time>2013-10-13T09:56:13Z</time>
      </trkpt>
      <trkpt lat="47.66648" lon="-2.08739">
        <ele>65.03</ele>
        <time>2013-10-13T09:56:17Z</time>
      </trkpt>
      <trkpt lat="47.66641" lon="-2.08762">
        <ele>65.03</ele>
        <time>2013-10-13T09:56:24Z</time>
      </trkpt>
      <trkpt lat="47.66635" lon="-2.08783">
        <ele>65.03</ele>
        <time>2013-10-13T09:56:31Z</time>
      </trkpt>
      <trkpt lat="47.66628" lon="-2.08811">
        <ele>63.1</ele>
        <time>2013-10-13T09:56:42Z</time>
      </trkpt>
      <trkpt lat="47.66623" lon="-2.08835">
        <ele>64.07</ele>
        <time>2013-10-13T09:56:47Z</time>
      </trkpt>
      <trkpt lat="47.66616" lon="-2.0886">
        <ele>66.47</ele>
        <time>2013-10-13T09:56:53Z</time>
      </trkpt>
      <trkpt lat="47.66614" lon="-2.08883">
        <ele>69.83</ele>
        <time>2013-10-13T09:56:58Z</time>
      </trkpt>
      <trkpt lat="47.66615" lon="-2.08904">
        <ele>70.31</ele>
        <time>2013-10-13T09:57:03Z</time>
      </trkpt>
      <trkpt lat="47.66623" lon="-2.08936">
        <ele>73.2</ele>
        <time>2013-10-13T09:57:10Z</time>
      </trkpt>
      <trkpt lat="47.66614" lon="-2.08949">
        <ele>75.12</ele>
        <time>2013-10-13T09:57:16Z</time>
      </trkpt>
      <trkpt lat="47.66603" lon="-2.08959">
        <ele>76.08</ele>
        <time>2013-10-13T09:57:21Z</time>
      </trkpt>
      <trkpt lat="47.66599" lon="-2.08976">
        <ele>77.52</ele>
        <time>2013-10-13T09:57:26Z</time>
      </trkpt>
      <trkpt lat="47.66603" lon="-2.08991">
        <ele>78.48</ele>
        <time>2013-10-13T09:57:30Z</time>
      </trkpt>
      <trkpt lat="47.66604" lon="-2.09011">
        <ele>78.97</ele>
        <time>2013-10-13T09:57:34Z</time>
      </trkpt>
      <trkpt lat="47.66606" lon="-2.09027">
        <ele>79.45</ele>
        <time>2013-10-13T09:57:37Z</time>
      </trkpt>
      <trkpt lat="47.66604" lon="-2.09044">
        <ele>80.41</ele>
        <time>2013-10-13T09:57:43Z</time>
      </trkpt>
      <trkpt lat="47.66592" lon="-2.09058">
        <ele>83.77</ele>
        <time>2013-10-13T09:57:49Z</time>
      </trkpt>
      <trkpt lat="47.66581" lon="-2.09063">
        <ele>85.21</ele>
        <time>2013-10-13T09:57:53Z</time>
      </trkpt>
      <trkpt lat="47.66566" lon="-2.09078">
        <ele>88.1</ele>
        <time>2013-10-13T09:58:00Z</time>
      </trkpt>
      <trkpt lat="47.66553" lon="-2.09088">
        <ele>92.42</ele>
        <time>2013-10-13T09:58:08Z</time>
      </trkpt>
      <trkpt lat="47.66534" lon="-2.09107">
        <ele>95.79</ele>
        <time>2013-10-13T09:58:15Z</time>
      </trkpt>
      <trkpt lat="47.66526" lon="-2.09129">
        <ele>100.6</ele>
        <time>2013-10-13T09:58:25Z</time>
      </trkpt>
      <trkpt lat="47.66504" lon="-2.09157">
        <ele>104.92</ele>
        <time>2013-10-13T09:58:34Z</time>
      </trkpt>
      <trkpt lat="47.66467" lon="-2.09185">
        <ele>102.52</ele>
        <time>2013-10-13T09:58:45Z</time>
      </trkpt>
      <trkpt lat="47.66451" lon="-2.09194">
        <ele>99.63</ele>
        <time>2013-10-13T09:58:51Z</time>
      </trkpt>
      <trkpt lat="47.66449" lon="-2.09216">
        <ele>96.27</ele>
        <time>2013-10-13T09:59:02Z</time>
      </trkpt>
      <trkpt lat="47.66457" lon="-2.09224">
        <ele>94.83</ele>
        <time>2013-10-13T09:59:07Z</time>
      </trkpt>
      <trkpt lat="47.66449" lon="-2.09243">
        <ele>92.9</ele>
        <time>2013-10-13T09:59:16Z</time>
      </trkpt>
      <trkpt lat="47.6645" lon="-2.09259">
        <ele>92.9</ele>
        <time>2013-10-13T09:59:21Z</time>
      </trkpt>
      <trkpt lat="47.66453" lon="-2.09276">
        <ele>92.42</ele>
        <time>2013-10-13T09:59:27Z</time>
      </trkpt>
      <trkpt lat="47.66449" lon="-2.09308">
        <ele>88.58</ele>
        <time>2013-10-13T09:59:35Z</time>
      </trkpt>
      <trkpt lat="47.6644" lon="-2.09335">
        <ele>84.25</ele>
        <time>2013-10-13T09:59:39Z</time>
      </trkpt>
      <trkpt lat="47.66441" lon="-2.0935">
        <ele>84.73</ele>
        <time>2013-10-13T09:59:43Z</time>
      </trkpt>
      <trkpt lat="47.66447" lon="-2.09362">
        <ele>85.69</ele>
        <time>2013-10-13T09:59:48Z</time>
      </trkpt>
      <trkpt lat="47.66447" lon="-2.09381">
        <ele>86.66</ele>
        <time>2013-10-13T09:59:53Z</time>
      </trkpt>
      <trkpt lat="47.6646" lon="-2.09387">
        <ele>83.29</ele>
        <time>2013-10-13T09:59:59Z</time>
      </trkpt>
      <trkpt lat="47.66475" lon="-2.09391">
        <ele>82.33</ele>
        <time>2013-10-13T10:00:03Z</time>
      </trkpt>
      <trkpt lat="47.66479" lon="-2.09407">
        <ele>80.41</ele>
        <time>2013-10-13T10:00:07Z</time>
      </trkpt>
      <trkpt lat="47.66473" lon="-2.09418">
        <ele>78.48</ele>
        <time>2013-10-13T10:00:10Z</time>
      </trkpt>
      <trkpt lat="47.66475" lon="-2.09436">
        <ele>75.6</ele>
        <time>2013-10-13T10:00:15Z</time>
      </trkpt>
      <trkpt lat="47.66485" lon="-2.09447">
        <ele>72.72</ele>
        <time>2013-10-13T10:00:18Z</time>
      </trkpt>
      <trkpt lat="47.6649" lon="-2.09459">
        <ele>71.27</ele>
        <time>2013-10-13T10:00:22Z</time>
      </trkpt>
      <trkpt lat="47.66483" lon="-2.09463">
        <ele>71.76</ele>
        <time>2013-10-13T10:00:27Z</time>
      </trkpt>
      <trkpt lat="47.66475" lon="-2.09465">
        <ele>73.68</ele>
        <time>2013-10-13T10:00:36Z</time>
      </trkpt>
      <trkpt lat="47.66465" lon="-2.09471">
        <ele>74.64</ele>
        <time>2013-10-13T10:00:42Z</time>
      </trkpt>
      <trkpt lat="47.66458" lon="-2.09486">
        <ele>74.16</ele>
        <time>2013-10-13T10:00:48Z</time>
      </trkpt>
      <trkpt lat="47.66453" lon="-2.09501">
        <ele>73.68</ele>
        <time>2013-10-13T10:00:53Z</time>
      </trkpt>
      <trkpt lat="47.66448" lon="-2.09518">
        <ele>73.68</ele>
        <time>2013-10-13T10:00:58Z</time>
      </trkpt>
      <trkpt lat="47.66441" lon="-2.0953">
        <ele>73.68</ele>
        <time>2013-10-13T10:01:02Z</time>
      </trkpt>
      <trkpt lat="47.66434" lon="-2.09545">
        <ele>72.24</ele>
        <time>2013-10-13T10:01:06Z</time>
      </trkpt>
      <trkpt lat="47.66427" lon="-2.09558">
        <ele>70.79</ele>
        <time>2013-10-13T10:01:09Z</time>
      </trkpt>
      <trkpt lat="47.66418" lon="-2.09568">
        <ele>69.35</ele>
        <time>2013-10-13T10:01:12Z</time>
      </trkpt>
      <trkpt lat="47.66409" lon="-2.09574">
        <ele>67.43</ele>
        <time>2013-10-13T10:01:15Z</time>
      </trkpt>
      <trkpt lat="47.664" lon="-2.09571">
        <ele>66.47</ele>
        <time>2013-10-13T10:01:18Z</time>
      </trkpt>
      <trkpt lat="47.66391" lon="-2.09564">
        <ele>66.47</ele>
        <time>2013-10-13T10:01:22Z</time>
      </trkpt>
      <trkpt lat="47.66384" lon="-2.09569">
        <ele>61.66</ele>
        <time>2013-10-13T10:02:00Z</time>
      </trkpt>
      <trkpt lat="47.66378" lon="-2.09579">
        <ele>60.7</ele>
        <time>2013-10-13T10:02:03Z</time>
      </trkpt>
      <trkpt lat="47.66369" lon="-2.0957">
        <ele>59.74</ele>
        <time>2013-10-13T10:02:07Z</time>
      </trkpt>
      <trkpt lat="47.66363" lon="-2.09558">
        <ele>59.74</ele>
        <time>2013-10-13T10:02:10Z</time>
      </trkpt>
      <trkpt lat="47.66356" lon="-2.09544">
        <ele>59.74</ele>
        <time>2013-10-13T10:02:13Z</time>
      </trkpt>
      <trkpt lat="47.66356" lon="-2.09527">
        <ele>60.22</ele>
        <time>2013-10-13T10:02:16Z</time>
      </trkpt>
      <trkpt lat="47.66355" lon="-2.09513">
        <ele>60.22</ele>
        <time>2013-10-13T10:02:19Z</time>
      </trkpt>
      <trkpt lat="47.66354" lon="-2.09498">
        <ele>60.7</ele>
        <time>2013-10-13T10:02:22Z</time>
      </trkpt>
      <trkpt lat="47.66354" lon="-2.09483">
        <ele>61.66</ele>
        <time>2013-10-13T10:02:25Z</time>
      </trkpt>
      <trkpt lat="47.66353" lon="-2.09468">
        <ele>62.14</ele>
        <time>2013-10-13T10:02:28Z</time>
      </trkpt>
      <trkpt lat="47.66354" lon="-2.09453">
        <ele>62.14</ele>
        <time>2013-10-13T10:02:31Z</time>
      </trkpt>
      <trkpt lat="47.66353" lon="-2.09436">
        <ele>62.14</ele>
        <time>2013-10-13T10:02:34Z</time>
      </trkpt>
      <trkpt lat="47.66353" lon="-2.09419">
        <ele>62.14</ele>
        <time>2013-10-13T10:02:37Z</time>
      </trkpt>
      <trkpt lat="47.66354" lon="-2.09401">
        <ele>62.14</ele>
        <time>2013-10-13T10:02:40Z</time>
      </trkpt>
      <trkpt lat="47.66354" lon="-2.09385">
        <ele>62.14</ele>
        <time>2013-10-13T10:02:43Z</time>
      </trkpt>
      <trkpt lat="47.66353" lon="-2.09368">
        <ele>62.14</ele>
        <time>2013-10-13T10:02:46Z</time>
      </trkpt>
      <trkpt lat="47.66354" lon="-2.0935">
        <ele>62.14</ele>
        <time>2013-10-13T10:02:49Z</time>
      </trkpt>
      <trkpt lat="47.66355" lon="-2.09333">
        <ele>61.66</ele>
        <time>2013-10-13T10:02:52Z</time>
      </trkpt>
      <trkpt lat="47.66355" lon="-2.09318">
        <ele>61.18</ele>
        <time>2013-10-13T10:02:55Z</time>
      </trkpt>
      <trkpt lat="47.66358" lon="-2.09301">
        <ele>59.74</ele>
        <time>2013-10-13T10:02:58Z</time>
      </trkpt>
      <trkpt lat="47.66359" lon="-2.09282">
        <ele>58.78</ele>
        <time>2013-10-13T10:03:01Z</time>
      </trkpt>
      <trkpt lat="47.6636" lon="-2.09262">
        <ele>58.3</ele>
        <time>2013-10-13T10:03:04Z</time>
      </trkpt>
      <trkpt lat="47.66361" lon="-2.09244">
        <ele>58.3</ele>
        <time>2013-10-13T10:03:07Z</time>
      </trkpt>
      <trkpt lat="47.66366" lon="-2.09226">
        <ele>57.82</ele>
        <time>2013-10-13T10:03:13Z</time>
      </trkpt>
      <trkpt lat="47.66371" lon="-2.09209">
        <ele>59.26</ele>
        <time>2013-10-13T10:03:17Z</time>
      </trkpt>
      <trkpt lat="47.66365" lon="-2.09192">
        <ele>60.22</ele>
        <time>2013-10-13T10:03:20Z</time>
      </trkpt>
      <trkpt lat="47.66363" lon="-2.09172">
        <ele>59.74</ele>
        <time>2013-10-13T10:03:23Z</time>
      </trkpt>
      <trkpt lat="47.66365" lon="-2.09157">
        <ele>59.26</ele>
        <time>2013-10-13T10:03:25Z</time>
      </trkpt>
      <trkpt lat="47.66367" lon="-2.09142">
        <ele>58.78</ele>
        <time>2013-10-13T10:03:27Z</time>
      </trkpt>
      <trkpt lat="47.66369" lon="-2.09122">
        <ele>57.82</ele>
        <time>2013-10-13T10:03:30Z</time>
      </trkpt>
      <trkpt lat="47.6637" lon="-2.09102">
        <ele>56.37</ele>
        <time>2013-10-13T10:03:33Z</time>
      </trkpt>
      <trkpt lat="47.6637" lon="-2.09083">
        <ele>55.41</ele>
        <time>2013-10-13T10:03:36Z</time>
      </trkpt>
      <trkpt lat="47.66371" lon="-2.09063">
        <ele>54.45</ele>
        <time>2013-10-13T10:03:39Z</time>
      </trkpt>
      <trkpt lat="47.66372" lon="-2.09047">
        <ele>53.97</ele>
        <time>2013-10-13T10:03:42Z</time>
      </trkpt>
      <trkpt lat="47.66375" lon="-2.09031">
        <ele>53.49</ele>
        <time>2013-10-13T10:03:45Z</time>
      </trkpt>
      <trkpt lat="47.6638" lon="-2.09019">
        <ele>53.49</ele>
        <time>2013-10-13T10:03:47Z</time>
      </trkpt>
      <trkpt lat="47.66385" lon="-2.09007">
        <ele>53.97</ele>
        <time>2013-10-13T10:03:49Z</time>
      </trkpt>
      <trkpt lat="47.6639" lon="-2.08994">
        <ele>54.45</ele>
        <time>2013-10-13T10:03:51Z</time>
      </trkpt>
      <trkpt lat="47.66393" lon="-2.08979">
        <ele>54.45</ele>
        <time>2013-10-13T10:03:53Z</time>
      </trkpt>
      <trkpt lat="47.66397" lon="-2.08966">
        <ele>54.93</ele>
        <time>2013-10-13T10:03:55Z</time>
      </trkpt>
      <trkpt lat="47.66402" lon="-2.08948">
        <ele>54.93</ele>
        <time>2013-10-13T10:03:58Z</time>
      </trkpt>
      <trkpt lat="47.66406" lon="-2.08933">
        <ele>54.93</ele>
        <time>2013-10-13T10:04:01Z</time>
      </trkpt>
      <trkpt lat="47.66411" lon="-2.08916">
        <ele>56.37</ele>
        <time>2013-10-13T10:04:05Z</time>
      </trkpt>
      <trkpt lat="47.66404" lon="-2.08902">
        <ele>58.3</ele>
        <time>2013-10-13T10:04:10Z</time>
      </trkpt>
      <trkpt lat="47.66396" lon="-2.08885">
        <ele>60.7</ele>
        <time>2013-10-13T10:04:14Z</time>
      </trkpt>
      <trkpt lat="47.66393" lon="-2.08867">
        <ele>60.7</ele>
        <time>2013-10-13T10:04:17Z</time>
      </trkpt>
      <trkpt lat="47.66391" lon="-2.08844">
        <ele>60.7</ele>
        <time>2013-10-13T10:04:20Z</time>
      </trkpt>
      <trkpt lat="47.6639" lon="-2.08824">
        <ele>61.18</ele>
        <time>2013-10-13T10:04:23Z</time>
      </trkpt>
      <trkpt lat="47.66389" lon="-2.08804">
        <ele>61.66</ele>
        <time>2013-10-13T10:04:26Z</time>
      </trkpt>
      <trkpt lat="47.6639" lon="-2.08782">
        <ele>61.18</ele>
        <time>2013-10-13T10:04:29Z</time>
      </trkpt>
      <trkpt lat="47.66387" lon="-2.08757">
        <ele>61.18</ele>
        <time>2013-10-13T10:04:32Z</time>
      </trkpt>
      <trkpt lat="47.66386" lon="-2.08733">
        <ele>61.18</ele>
        <time>2013-10-13T10:04:35Z</time>
      </trkpt>
      <trkpt lat="47.66382" lon="-2.08707">
        <ele>61.66</ele>
        <time>2013-10-13T10:04:38Z</time>
      </trkpt>
      <trkpt lat="47.66379" lon="-2.08689">
        <ele>61.66</ele>
        <time>2013-10-13T10:04:40Z</time>
      </trkpt>
      <trkpt lat="47.66376" lon="-2.08673">
        <ele>62.14</ele>
        <time>2013-10-13T10:04:42Z</time>
      </trkpt>
      <trkpt lat="47.66371" lon="-2.08654">
        <ele>62.62</ele>
        <time>2013-10-13T10:04:45Z</time>
      </trkpt>
      <trkpt lat="47.66361" lon="-2.08645">
        <ele>63.58</ele>
        <time>2013-10-13T10:04:48Z</time>
      </trkpt>
      <trkpt lat="47.66349" lon="-2.08639">
        <ele>63.1</ele>
        <time>2013-10-13T10:04:50Z</time>
      </trkpt>
      <trkpt lat="47.6634" lon="-2.08624">
        <ele>60.7</ele>
        <time>2013-10-13T10:04:52Z</time>
      </trkpt>
      <trkpt lat="47.66329" lon="-2.08618">
        <ele>59.26</ele>
        <time>2013-10-13T10:04:54Z</time>
      </trkpt>
      <trkpt lat="47.66314" lon="-2.08618">
        <ele>57.34</ele>
        <time>2013-10-13T10:04:56Z</time>
      </trkpt>
      <trkpt lat="47.66296" lon="-2.08622">
        <ele>55.41</ele>
        <time>2013-10-13T10:04:58Z</time>
      </trkpt>
      <trkpt lat="47.66282" lon="-2.08622">
        <ele>53.01</ele>
        <time>2013-10-13T10:05:00Z</time>
      </trkpt>
      <trkpt lat="47.66273" lon="-2.08612">
        <ele>51.09</ele>
        <time>2013-10-13T10:05:02Z</time>
      </trkpt>
      <trkpt lat="47.66268" lon="-2.08598">
        <ele>49.65</ele>
        <time>2013-10-13T10:05:04Z</time>
      </trkpt>
      <trkpt lat="47.66264" lon="-2.08582">
        <ele>48.2</ele>
        <time>2013-10-13T10:05:06Z</time>
      </trkpt>
      <trkpt lat="47.66262" lon="-2.08563">
        <ele>47.72</ele>
        <time>2013-10-13T10:05:08Z</time>
      </trkpt>
      <trkpt lat="47.6626" lon="-2.08544">
        <ele>46.76</ele>
        <time>2013-10-13T10:05:10Z</time>
      </trkpt>
      <trkpt lat="47.66256" lon="-2.08527">
        <ele>45.8</ele>
        <time>2013-10-13T10:05:12Z</time>
      </trkpt>
      <trkpt lat="47.66251" lon="-2.08514">
        <ele>45.32</ele>
        <time>2013-10-13T10:05:14Z</time>
      </trkpt>
      <trkpt lat="47.66241" lon="-2.08511">
        <ele>43.88</ele>
        <time>2013-10-13T10:05:16Z</time>
      </trkpt>
      <trkpt lat="47.6623" lon="-2.08515">
        <ele>42.44</ele>
        <time>2013-10-13T10:05:18Z</time>
      </trkpt>
      <trkpt lat="47.66221" lon="-2.08515">
        <ele>40.99</ele>
        <time>2013-10-13T10:05:20Z</time>
      </trkpt>
      <trkpt lat="47.66215" lon="-2.08504">
        <ele>40.03</ele>
        <time>2013-10-13T10:05:22Z</time>
      </trkpt>
      <trkpt lat="47.66213" lon="-2.08489">
        <ele>40.03</ele>
        <time>2013-10-13T10:05:24Z</time>
      </trkpt>
      <trkpt lat="47.66209" lon="-2.08472">
        <ele>40.03</ele>
        <time>2013-10-13T10:05:26Z</time>
      </trkpt>
      <trkpt lat="47.66205" lon="-2.08456">
        <ele>39.55</ele>
        <time>2013-10-13T10:05:28Z</time>
      </trkpt>
      <trkpt lat="47.66199" lon="-2.08442">
        <ele>39.07</ele>
        <time>2013-10-13T10:05:32Z</time>
      </trkpt>
      <trkpt lat="47.66189" lon="-2.08441">
        <ele>36.19</ele>
        <time>2013-10-13T10:05:35Z</time>
      </trkpt>
      <trkpt lat="47.66179" lon="-2.08444">
        <ele>34.74</ele>
        <time>2013-10-13T10:05:37Z</time>
      </trkpt>
      <trkpt lat="47.66167" lon="-2.08448">
        <ele>33.78</ele>
        <time>2013-10-13T10:05:39Z</time>
      </trkpt>
      <trkpt lat="47.66154" lon="-2.08451">
        <ele>32.82</ele>
        <time>2013-10-13T10:05:41Z</time>
      </trkpt>
      <trkpt lat="47.66142" lon="-2.08455">
        <ele>31.38</ele>
        <time>2013-10-13T10:05:43Z</time>
      </trkpt>
      <trkpt lat="47.66129" lon="-2.08456">
        <ele>28.98</ele>
        <time>2013-10-13T10:05:46Z</time>
      </trkpt>
      <trkpt lat="47.66128" lon="-2.08441">
        <ele>28.02</ele>
        <time>2013-10-13T10:05:49Z</time>
      </trkpt>
      <trkpt lat="47.66138" lon="-2.08436">
        <ele>27.53</ele>
        <time>2013-10-13T10:05:51Z</time>
      </trkpt>
      <trkpt lat="47.66148" lon="-2.08432">
        <ele>27.53</ele>
        <time>2013-10-13T10:05:53Z</time>
      </trkpt>
      <trkpt lat="47.6616" lon="-2.08429">
        <ele>27.05</ele>
        <time>2013-10-13T10:05:55Z</time>
      </trkpt>
      <trkpt lat="47.6617" lon="-2.08425">
        <ele>27.05</ele>
        <time>2013-10-13T10:05:57Z</time>
      </trkpt>
      <trkpt lat="47.66181" lon="-2.08421">
        <ele>27.53</ele>
        <time>2013-10-13T10:05:59Z</time>
      </trkpt>
      <trkpt lat="47.66193" lon="-2.08415">
        <ele>27.53</ele>
        <time>2013-10-13T10:06:01Z</time>
      </trkpt>
      <trkpt lat="47.66204" lon="-2.08409">
        <ele>27.53</ele>
        <time>2013-10-13T10:06:03Z</time>
      </trkpt>
      <trkpt lat="47.66215" lon="-2.08403">
        <ele>28.02</ele>
        <time>2013-10-13T10:06:05Z</time>
      </trkpt>
      <trkpt lat="47.66224" lon="-2.08397">
        <ele>28.5</ele>
        <time>2013-10-13T10:06:07Z</time>
      </trkpt>
      <trkpt lat="47.6623" lon="-2.08383">
        <ele>28.98</ele>
        <time>2013-10-13T10:06:10Z</time>
      </trkpt>
      <trkpt lat="47.66229" lon="-2.08369">
        <ele>28.98</ele>
        <time>2013-10-13T10:06:13Z</time>
      </trkpt>
      <trkpt lat="47.66225" lon="-2.08352">
        <ele>28.98</ele>
        <time>2013-10-13T10:06:16Z</time>
      </trkpt>
      <trkpt lat="47.66221" lon="-2.0834">
        <ele>29.46</ele>
        <time>2013-10-13T10:06:18Z</time>
      </trkpt>
      <trkpt lat="47.66217" lon="-2.08328">
        <ele>28.98</ele>
        <time>2013-10-13T10:06:20Z</time>
      </trkpt>
      <trkpt lat="47.66213" lon="-2.08316">
        <ele>28.98</ele>
        <time>2013-10-13T10:06:22Z</time>
      </trkpt>
      <trkpt lat="47.66208" lon="-2.08303">
        <ele>28.98</ele>
        <time>2013-10-13T10:06:24Z</time>
      </trkpt>
      <trkpt lat="47.66202" lon="-2.08289">
        <ele>28.98</ele>
        <time>2013-10-13T10:06:26Z</time>
      </trkpt>
      <trkpt lat="47.66196" lon="-2.08271">
        <ele>28.98</ele>
        <time>2013-10-13T10:06:28Z</time>
      </trkpt>
      <trkpt lat="47.66188" lon="-2.08254">
        <ele>28.5</ele>
        <time>2013-10-13T10:06:30Z</time>
      </trkpt>
      <trkpt lat="47.66181" lon="-2.08238">
        <ele>27.53</ele>
        <time>2013-10-13T10:06:33Z</time>
      </trkpt>
      <trkpt lat="47.66189" lon="-2.08229">
        <ele>26.09</ele>
        <time>2013-10-13T10:06:37Z</time>
      </trkpt>
      <trkpt lat="47.66202" lon="-2.08229">
        <ele>26.57</ele>
        <time>2013-10-13T10:06:40Z</time>
      </trkpt>
      <trkpt lat="47.66215" lon="-2.08229">
        <ele>27.05</ele>
        <time>2013-10-13T10:06:43Z</time>
      </trkpt>
      <trkpt lat="47.66227" lon="-2.08224">
        <ele>27.53</ele>
        <time>2013-10-13T10:06:46Z</time>
      </trkpt>
      <trkpt lat="47.66235" lon="-2.08216">
        <ele>27.53</ele>
        <time>2013-10-13T10:06:48Z</time>
      </trkpt>
      <trkpt lat="47.66242" lon="-2.08206">
        <ele>27.53</ele>
        <time>2013-10-13T10:06:50Z</time>
      </trkpt>
      <trkpt lat="47.66249" lon="-2.08196">
        <ele>27.53</ele>
        <time>2013-10-13T10:06:52Z</time>
      </trkpt>
      <trkpt lat="47.66256" lon="-2.08186">
        <ele>28.02</ele>
        <time>2013-10-13T10:06:54Z</time>
      </trkpt>
      <trkpt lat="47.66263" lon="-2.08175">
        <ele>28.02</ele>
        <time>2013-10-13T10:06:56Z</time>
      </trkpt>
      <trkpt lat="47.6627" lon="-2.08164">
        <ele>27.53</ele>
        <time>2013-10-13T10:06:58Z</time>
      </trkpt>
      <trkpt lat="47.66274" lon="-2.0815">
        <ele>26.57</ele>
        <time>2013-10-13T10:07:00Z</time>
      </trkpt>
      <trkpt lat="47.66275" lon="-2.08133">
        <ele>25.61</ele>
        <time>2013-10-13T10:07:02Z</time>
      </trkpt>
      <trkpt lat="47.66278" lon="-2.08116">
        <ele>24.65</ele>
        <time>2013-10-13T10:07:04Z</time>
      </trkpt>
      <trkpt lat="47.66281" lon="-2.081">
        <ele>24.17</ele>
        <time>2013-10-13T10:07:06Z</time>
      </trkpt>
      <trkpt lat="47.66285" lon="-2.08086">
        <ele>23.69</ele>
        <time>2013-10-13T10:07:08Z</time>
      </trkpt>
      <trkpt lat="47.6629" lon="-2.08068">
        <ele>23.69</ele>
        <time>2013-10-13T10:07:11Z</time>
      </trkpt>
      <trkpt lat="47.66295" lon="-2.08051">
        <ele>23.21</ele>
        <time>2013-10-13T10:07:14Z</time>
      </trkpt>
      <trkpt lat="47.6629" lon="-2.08035">
        <ele>22.73</ele>
        <time>2013-10-13T10:07:17Z</time>
      </trkpt>
      <trkpt lat="47.66282" lon="-2.08029">
        <ele>22.25</ele>
        <time>2013-10-13T10:07:19Z</time>
      </trkpt>
      <trkpt lat="47.66275" lon="-2.0802">
        <ele>22.25</ele>
        <time>2013-10-13T10:07:21Z</time>
      </trkpt>
      <trkpt lat="47.6627" lon="-2.08008">
        <ele>22.25</ele>
        <time>2013-10-13T10:07:23Z</time>
      </trkpt>
      <trkpt lat="47.66263" lon="-2.07991">
        <ele>23.21</ele>
        <time>2013-10-13T10:07:26Z</time>
      </trkpt>
      <trkpt lat="47.66261" lon="-2.07975">
        <ele>23.69</ele>
        <time>2013-10-13T10:07:29Z</time>
      </trkpt>
      <trkpt lat="47.66265" lon="-2.07958">
        <ele>24.17</ele>
        <time>2013-10-13T10:07:32Z</time>
      </trkpt>
      <trkpt lat="47.66267" lon="-2.07945">
        <ele>24.65</ele>
        <time>2013-10-13T10:07:34Z</time>
      </trkpt>
      <trkpt lat="47.6627" lon="-2.07931">
        <ele>25.13</ele>
        <time>2013-10-13T10:07:36Z</time>
      </trkpt>
      <trkpt lat="47.66274" lon="-2.07916">
        <ele>25.61</ele>
        <time>2013-10-13T10:07:38Z</time>
      </trkpt>
      <trkpt lat="47.66278" lon="-2.079">
        <ele>26.09</ele>
        <time>2013-10-13T10:07:40Z</time>
      </trkpt>
      <trkpt lat="47.66282" lon="-2.07884">
        <ele>26.09</ele>
        <time>2013-10-13T10:07:42Z</time>
      </trkpt>
      <trkpt lat="47.66287" lon="-2.07869">
        <ele>25.61</ele>
        <time>2013-10-13T10:07:44Z</time>
      </trkpt>
      <trkpt lat="47.66294" lon="-2.07852">
        <ele>24.65</ele>
        <time>2013-10-13T10:07:46Z</time>
      </trkpt>
      <trkpt lat="47.66303" lon="-2.07836">
        <ele>24.17</ele>
        <time>2013-10-13T10:07:48Z</time>
      </trkpt>
      <trkpt lat="47.6631" lon="-2.07821">
        <ele>24.65</ele>
        <time>2013-10-13T10:07:50Z</time>
      </trkpt>
      <trkpt lat="47.66316" lon="-2.07806">
        <ele>24.65</ele>
        <time>2013-10-13T10:07:52Z</time>
      </trkpt>
      <trkpt lat="47.66322" lon="-2.07791">
        <ele>25.13</ele>
        <time>2013-10-13T10:07:54Z</time>
      </trkpt>
      <trkpt lat="47.66328" lon="-2.07778">
        <ele>25.13</ele>
        <time>2013-10-13T10:07:56Z</time>
      </trkpt>
      <trkpt lat="47.66335" lon="-2.07767">
        <ele>26.09</ele>
        <time>2013-10-13T10:07:58Z</time>
      </trkpt>
      <trkpt lat="47.66344" lon="-2.07758">
        <ele>26.09</ele>
        <time>2013-10-13T10:08:00Z</time>
      </trkpt>
      <trkpt lat="47.66354" lon="-2.07749">
        <ele>26.09</ele>
        <time>2013-10-13T10:08:02Z</time>
      </trkpt>
      <trkpt lat="47.66362" lon="-2.07741">
        <ele>26.57</ele>
        <time>2013-10-13T10:08:04Z</time>
      </trkpt>
      <trkpt lat="47.66371" lon="-2.07731">
        <ele>26.57</ele>
        <time>2013-10-13T10:08:06Z</time>
      </trkpt>
      <trkpt lat="47.66379" lon="-2.07721">
        <ele>26.57</ele>
        <time>2013-10-13T10:08:08Z</time>
      </trkpt>
      <trkpt lat="47.66386" lon="-2.0771">
        <ele>26.57</ele>
        <time>2013-10-13T10:08:10Z</time>
      </trkpt>
      <trkpt lat="47.66393" lon="-2.07698">
        <ele>26.57</ele>
        <time>2013-10-13T10:08:12Z</time>
      </trkpt>
      <trkpt lat="47.66401" lon="-2.07686">
        <ele>26.09</ele>
        <time>2013-10-13T10:08:14Z</time>
      </trkpt>
      <trkpt lat="47.66408" lon="-2.07675">
        <ele>26.09</ele>
        <time>2013-10-13T10:08:16Z</time>
      </trkpt>
      <trkpt lat="47.66415" lon="-2.07663">
        <ele>26.09</ele>
        <time>2013-10-13T10:08:18Z</time>
      </trkpt>
      <trkpt lat="47.66421" lon="-2.07651">
        <ele>26.09</ele>
        <time>2013-10-13T10:08:20Z</time>
      </trkpt>
      <trkpt lat="47.66428" lon="-2.0764">
        <ele>26.09</ele>
        <time>2013-10-13T10:08:22Z</time>
      </trkpt>
      <trkpt lat="47.66434" lon="-2.07628">
        <ele>25.61</ele>
        <time>2013-10-13T10:08:24Z</time>
      </trkpt>
      <trkpt lat="47.66441" lon="-2.07618">
        <ele>25.61</ele>
        <time>2013-10-13T10:08:26Z</time>
      </trkpt>
      <trkpt lat="47.66449" lon="-2.07602">
        <ele>25.13</ele>
        <time>2013-10-13T10:08:29Z</time>
      </trkpt>
      <trkpt lat="47.66458" lon="-2.07593">
        <ele>26.09</ele>
        <time>2013-10-13T10:08:32Z</time>
      </trkpt>
      <trkpt lat="47.66468" lon="-2.07597">
        <ele>26.57</ele>
        <time>2013-10-13T10:08:36Z</time>
      </trkpt>
      <trkpt lat="47.66478" lon="-2.07609">
        <ele>26.09</ele>
        <time>2013-10-13T10:08:39Z</time>
      </trkpt>
      <trkpt lat="47.66486" lon="-2.07613">
        <ele>26.09</ele>
        <time>2013-10-13T10:08:41Z</time>
      </trkpt>
      <trkpt lat="47.66497" lon="-2.07612">
        <ele>25.61</ele>
        <time>2013-10-13T10:08:43Z</time>
      </trkpt>
      <trkpt lat="47.66507" lon="-2.07607">
        <ele>25.61</ele>
        <time>2013-10-13T10:08:45Z</time>
      </trkpt>
      <trkpt lat="47.66517" lon="-2.07601">
        <ele>25.61</ele>
        <time>2013-10-13T10:08:47Z</time>
      </trkpt>
      <trkpt lat="47.66527" lon="-2.07594">
        <ele>25.61</ele>
        <time>2013-10-13T10:08:49Z</time>
      </trkpt>
      <trkpt lat="47.66537" lon="-2.07588">
        <ele>26.09</ele>
        <time>2013-10-13T10:08:51Z</time>
      </trkpt>
      <trkpt lat="47.66547" lon="-2.07582">
        <ele>26.09</ele>
        <time>2013-10-13T10:08:53Z</time>
      </trkpt>
      <trkpt lat="47.66557" lon="-2.07576">
        <ele>26.57</ele>
        <time>2013-10-13T10:08:55Z</time>
      </trkpt>
      <trkpt lat="47.66566" lon="-2.07571">
        <ele>27.05</ele>
        <time>2013-10-13T10:08:57Z</time>
      </trkpt>
      <trkpt lat="47.66575" lon="-2.07565">
        <ele>27.05</ele>
        <time>2013-10-13T10:08:59Z</time>
      </trkpt>
      <trkpt lat="47.66584" lon="-2.0756">
        <ele>27.53</ele>
        <time>2013-10-13T10:09:01Z</time>
      </trkpt>
      <trkpt lat="47.66593" lon="-2.07554">
        <ele>27.53</ele>
        <time>2013-10-13T10:09:03Z</time>
      </trkpt>
      <trkpt lat="47.66603" lon="-2.07548">
        <ele>28.02</ele>
        <time>2013-10-13T10:09:05Z</time>
      </trkpt>
      <trkpt lat="47.66613" lon="-2.07542">
        <ele>28.5</ele>
        <time>2013-10-13T10:09:07Z</time>
      </trkpt>
      <trkpt lat="47.66623" lon="-2.07535">
        <ele>28.5</ele>
        <time>2013-10-13T10:09:09Z</time>
      </trkpt>
      <trkpt lat="47.66632" lon="-2.07529">
        <ele>28.98</ele>
        <time>2013-10-13T10:09:11Z</time>
      </trkpt>
      <trkpt lat="47.66642" lon="-2.07523">
        <ele>29.46</ele>
        <time>2013-10-13T10:09:13Z</time>
      </trkpt>
      <trkpt lat="47.66652" lon="-2.07517">
        <ele>29.94</ele>
        <time>2013-10-13T10:09:15Z</time>
      </trkpt>
      <trkpt lat="47.66662" lon="-2.07511">
        <ele>30.9</ele>
        <time>2013-10-13T10:09:17Z</time>
      </trkpt>
      <trkpt lat="47.66672" lon="-2.07505">
        <ele>31.86</ele>
        <time>2013-10-13T10:09:19Z</time>
      </trkpt>
      <trkpt lat="47.66681" lon="-2.07498">
        <ele>32.34</ele>
        <time>2013-10-13T10:09:21Z</time>
      </trkpt>
      <trkpt lat="47.6669" lon="-2.07492">
        <ele>32.82</ele>
        <time>2013-10-13T10:09:23Z</time>
      </trkpt>
      <trkpt lat="47.66699" lon="-2.07484">
        <ele>33.3</ele>
        <time>2013-10-13T10:09:26Z</time>
      </trkpt>
      <trkpt lat="47.66708" lon="-2.07478">
        <ele>33.3</ele>
        <time>2013-10-13T10:09:32Z</time>
      </trkpt>
      <trkpt lat="47.66719" lon="-2.07483">
        <ele>32.82</ele>
        <time>2013-10-13T10:09:39Z</time>
      </trkpt>
      <trkpt lat="47.66727" lon="-2.07499">
        <ele>31.86</ele>
        <time>2013-10-13T10:09:42Z</time>
      </trkpt>
      <trkpt lat="47.66738" lon="-2.07505">
        <ele>30.9</ele>
        <time>2013-10-13T10:09:45Z</time>
      </trkpt>
      <trkpt lat="47.66751" lon="-2.07512">
        <ele>29.46</ele>
        <time>2013-10-13T10:09:48Z</time>
      </trkpt>
      <trkpt lat="47.66759" lon="-2.07521">
        <ele>28.98</ele>
        <time>2013-10-13T10:09:50Z</time>
      </trkpt>
      <trkpt lat="47.66766" lon="-2.07531">
        <ele>28.98</ele>
        <time>2013-10-13T10:09:52Z</time>
      </trkpt>
      <trkpt lat="47.66773" lon="-2.0754">
        <ele>29.46</ele>
        <time>2013-10-13T10:09:54Z</time>
      </trkpt>
      <trkpt lat="47.6678" lon="-2.0755">
        <ele>29.46</ele>
        <time>2013-10-13T10:09:56Z</time>
      </trkpt>
      <trkpt lat="47.66788" lon="-2.07559">
        <ele>29.46</ele>
        <time>2013-10-13T10:09:58Z</time>
      </trkpt>
      <trkpt lat="47.66798" lon="-2.07569">
        <ele>29.94</ele>
        <time>2013-10-13T10:10:01Z</time>
      </trkpt>
      <trkpt lat="47.66809" lon="-2.07578">
        <ele>29.94</ele>
        <time>2013-10-13T10:10:04Z</time>
      </trkpt>
      <trkpt lat="47.66818" lon="-2.07585">
        <ele>30.42</ele>
        <time>2013-10-13T10:10:07Z</time>
      </trkpt>
      <trkpt lat="47.66827" lon="-2.07576">
        <ele>30.9</ele>
        <time>2013-10-13T10:10:10Z</time>
      </trkpt>
      <trkpt lat="47.66835" lon="-2.0756">
        <ele>30.9</ele>
        <time>2013-10-13T10:10:13Z</time>
      </trkpt>
      <trkpt lat="47.6684" lon="-2.07549">
        <ele>30.9</ele>
        <time>2013-10-13T10:10:15Z</time>
      </trkpt>
      <trkpt lat="47.66846" lon="-2.07537">
        <ele>31.86</ele>
        <time>2013-10-13T10:10:17Z</time>
      </trkpt>
      <trkpt lat="47.66852" lon="-2.07526">
        <ele>32.34</ele>
        <time>2013-10-13T10:10:19Z</time>
      </trkpt>
      <trkpt lat="47.66858" lon="-2.07513">
        <ele>33.3</ele>
        <time>2013-10-13T10:10:21Z</time>
      </trkpt>
      <trkpt lat="47.66863" lon="-2.07501">
        <ele>33.78</ele>
        <time>2013-10-13T10:10:23Z</time>
      </trkpt>
      <trkpt lat="47.66869" lon="-2.07489">
        <ele>35.23</ele>
        <time>2013-10-13T10:10:25Z</time>
      </trkpt>
      <trkpt lat="47.66875" lon="-2.07477">
        <ele>36.19</ele>
        <time>2013-10-13T10:10:27Z</time>
      </trkpt>
      <trkpt lat="47.6688" lon="-2.07464">
        <ele>36.67</ele>
        <time>2013-10-13T10:10:29Z</time>
      </trkpt>
      <trkpt lat="47.66882" lon="-2.0745">
        <ele>37.15</ele>
        <time>2013-10-13T10:10:31Z</time>
      </trkpt>
      <trkpt lat="47.66881" lon="-2.07435">
        <ele>37.63</ele>
        <time>2013-10-13T10:10:33Z</time>
      </trkpt>
      <trkpt lat="47.66879" lon="-2.07422">
        <ele>37.63</ele>
        <time>2013-10-13T10:10:35Z</time>
      </trkpt>
      <trkpt lat="47.66877" lon="-2.07408">
        <ele>37.63</ele>
        <time>2013-10-13T10:10:37Z</time>
      </trkpt>
      <trkpt lat="47.66872" lon="-2.07395">
        <ele>37.15</ele>
        <time>2013-10-13T10:10:39Z</time>
      </trkpt>
      <trkpt lat="47.66867" lon="-2.07383">
        <ele>37.15</ele>
        <time>2013-10-13T10:10:42Z</time>
      </trkpt>
      <trkpt lat="47.66866" lon="-2.0737">
        <ele>36.19</ele>
        <time>2013-10-13T10:10:47Z</time>
      </trkpt>
      <trkpt lat="47.66873" lon="-2.0736">
        <ele>35.71</ele>
        <time>2013-10-13T10:10:51Z</time>
      </trkpt>
      <trkpt lat="47.66881" lon="-2.07353">
        <ele>35.23</ele>
        <time>2013-10-13T10:10:55Z</time>
      </trkpt>
      <trkpt lat="47.66892" lon="-2.07347">
        <ele>34.74</ele>
        <time>2013-10-13T10:10:59Z</time>
      </trkpt>
      <trkpt lat="47.66894" lon="-2.07334">
        <ele>34.74</ele>
        <time>2013-10-13T10:11:03Z</time>
      </trkpt>
      <trkpt lat="47.66896" lon="-2.07321">
        <ele>33.78</ele>
        <time>2013-10-13T10:11:09Z</time>
      </trkpt>
    </trkseg>
  </trk>
</gpx>